<
# Wetter Temperatur Luftdruck Luftfeuchtigkeit Sichtweite Windgeschwindigkeit Windrichtung Zeit
1 Clouds 29 1006 81 10000 4.63 300 13:44 01.02.2023
2 Clouds 29 1006 81 10000 4.12 290 13:19 01.02.2023
3 Rain 29 1005 80 10000 3.6 290 12:26 01.02.2023
4 Clouds 30 1004 76 10000 4.12 280 10:35 01.02.2023
5 Clouds 32 1004 69 10000 5.66 300 06:54 01.02.2023
6 Clouds 28 1006 83 10000 2.06 320 22:26 31.01.2023
7 Clouds 28 1005 84 10000 3.6 330 20:46 31.01.2023
8 Clouds 28 1005 84 10000 4.63 320 19:24 31.01.2023
9 Clouds 29 1005 81 10000 3.6 330 17:31 31.01.2023
10 Clouds 29 1007 83 10000 4.63 320 15:36 31.01.2023
11 Clouds 29 1007 82 10000 4.63 320 15:18 31.01.2023
12 Clouds 29 1006 84 10000 4.63 310 12:56 31.01.2023
13 Clouds 29 1005 79 10000 4.63 300 11:28 31.01.2023
14 Clouds 30 1005 74 10000 5.14 300 10:18 31.01.2023
15 Rain 30 1005 74 10000 5.14 300 09:44 31.01.2023
16 Clouds 31 1004 70 10000 5.66 300 08:36 31.01.2023
17 Clouds 32 1005 68 10000 5.14 310 06:23 31.01.2023
18 Clouds 29 1008 83 10000 3.6 340 00:54 31.01.2023
19 Clouds 28 1007 89 10000 2.06 350 23:26 30.01.2023
20 Clouds 27 1007 89 10000 2.06 330 22:49 30.01.2023
21 Clouds 27 1006 89 10000 2.57 330 21:38 30.01.2023
22 Clouds 27 1006 89 10000 2.68 330 20:43 30.01.2023
23 Clouds 28 1006 84 10000 3.6 310 18:26 30.01.2023
24 Clouds 28 1007 84 10000 3.6 310 17:23 30.01.2023
25 Clouds 28 1008 84 10000 4.12 300 14:35 30.01.2023
26 Clear 28 1007 84 10000 3.6 320 13:39 30.01.2023
27 Clouds 28 1005 84 10000 2.57 330 11:30 30.01.2023
28 Clouds 29 1005 79 10000 3.6 320 10:19 30.01.2023
29 Clouds 29 1005 79 10000 3.6 310 09:52 30.01.2023
30 Clouds 29 1005 74 10000 4.12 350 08:18 30.01.2023
31 Clouds 28 1008 83 10000 3.09 350 04:30 30.01.2023
32 Clouds 26 1008 94 10000 1.54 50 23:35 29.01.2023
33 Clouds 25 1008 100 10000 1.54 60 22:56 29.01.2023
34 Clouds 25 1007 100 10000 1.03 70 22:21 29.01.2023
35 Clouds 25 1006 98 10000 1.03 70 20:52 29.01.2023
36 Clouds 25 1006 100 10000 1.54 90 20:18 29.01.2023
37 Clouds 26 1006 94 10000 1.34 90 19:32 29.01.2023
38 Rain 26 1006 94 10000 0.89 60 17:52 29.01.2023
39 Rain 26 1007 94 10000 0 0 16:22 29.01.2023
40 Rain 26 1007 94 10000 0 0 15:51 29.01.2023
41 Rain 26 1007 93 10000 2.06 210 13:58 29.01.2023
42 Rain 26 1006 92 10000 1.54 250 12:58 29.01.2023
43 Rain 26 1006 93 10000 1.03 320 12:36 29.01.2023
44 Rain 26 1006 94 10000 1.34 330 12:18 29.01.2023
45 Rain 26 1006 94 10000 2.06 320 11:36 29.01.2023
46 Rain 26 1005 93 10000 2.06 330 10:45 29.01.2023
47 Rain 26 1005 94 10000 2.57 350 08:30 29.01.2023
48 Rain 26 1006 90 1800 7.2 290 03:43 29.01.2023
49 Clouds 28 1007 89 10000 0 0 23:50 28.01.2023
50 Clouds 27 1004 94 10000 1.03 270 20:52 28.01.2023
51 Clouds 27 1004 93 10000 1.03 230 19:54 28.01.2023
52 Rain 28 1008 89 10000 1.79 260 18:53 28.01.2023
53 Rain 28 1008 89 10000 2.57 270 17:42 28.01.2023
54 Clouds 28 1009 89 10000 2.57 240 16:41 28.01.2023
55 Clouds 28 1009 89 10000 2.57 240 16:41 28.01.2023
56 Clouds 28 1009 89 10000 2.57 240 16:19 28.01.2023
57 Rain 28 1007 89 10000 2.06 230 15:22 28.01.2023
58 Rain 28 1010 89 10000 2.57 260 13:49 28.01.2023
59 Rain 27 1010 94 10000 1.54 270 12:21 28.01.2023
60 Rain 27 1005 89 10000 2.24 180 10:35 28.01.2023
61 Rain 26 1004 91 10000 2.77 259 09:35 28.01.2023
62 Clouds 30 1007 79 10000 2.57 240 02:28 28.01.2023
63 Clouds 28 1006 87 10000 1.03 170 00:28 28.01.2023
64 Clouds 27 1010 93 10000 0 0 23:34 27.01.2023
65 Clouds 27 1008 89 10000 1.54 230 19:48 27.01.2023
66 Clouds 28 1008 84 10000 2.06 270 17:58 27.01.2023
67 Clouds 28 1005 83 10000 2.06 260 17:21 27.01.2023
68 Clouds 28 1008 83 10000 3.09 260 16:57 27.01.2023
69 Clouds 28 1007 84 10000 2.57 280 15:37 27.01.2023
70 Clouds 28 1007 83 10000 2.57 280 14:27 27.01.2023
71 Clouds 28 1007 84 10000 2.06 290 13:39 27.01.2023
72 Clouds 29 1005 80 10000 4.63 340 10:28 27.01.2023
73 Rain 28 1008 74 10000 3.09 330 08:35 27.01.2023
74 Clouds 28 1009 82 10000 2.06 110 00:40 27.01.2023
75 Clear 25 1008 94 10000 2.06 100 22:45 26.01.2023
76 Clouds 25 1007 93 10000 1.03 110 20:57 26.01.2023
77 Clouds 25 1007 93 10000 0 0 20:30 26.01.2023
78 Clouds 25 1007 93 10000 1.03 150 18:20 26.01.2023
79 Clouds 25 1007 93 10000 1.54 140 16:59 26.01.2023
80 Clouds 25 1007 96 10000 2.24 130 16:25 26.01.2023
81 Clouds 25 1008 93 10000 1.79 150 15:46 26.01.2023
82 Clouds 26 1008 93 10000 2.06 150 15:26 26.01.2023
83 Rain 26 1008 94 10000 1.54 150 13:56 26.01.2023
84 Rain 26 1008 93 10000 1.54 110 12:35 26.01.2023
85 Rain 26 1007 89 10000 1.54 70 10:59 26.01.2023
86 Rain 27 1007 89 10000 2.06 350 10:26 26.01.2023
87 Rain 27 1007 89 10000 3.6 360 09:43 26.01.2023
88 Clouds 31 1006 70 10000 2.57 330 08:25 26.01.2023
89 Clouds 26 1009 93 10000 1.03 130 23:58 25.01.2023
90 Clouds 26 1009 92 10000 4.03 87 23:37 25.01.2023
91 Clouds 25 1011 100 10000 1.54 110 21:54 25.01.2023
92 Clouds 25 1007 100 10000 1.54 90 21:20 25.01.2023
93 Clouds 26 1007 94 10000 1.79 80 18:31 25.01.2023
94 Clouds 26 1009 93 10000 1.54 80 17:30 25.01.2023
95 Clouds 26 1007 90 10000 2.57 70 15:42 25.01.2023
96 Clouds 27 1007 89 10000 2.06 80 12:54 25.01.2023
97 Clouds 28 1005 83 10000 5.36 60 10:51 25.01.2023
98 Rain 29 1004 83 10000 4.02 50 09:44 25.01.2023
99 Clouds 29 1005 79 10000 5.14 60 07:18 25.01.2023
100 Rain 26 1008 92 10000 3.6 70 01:29 25.01.2023
101 Clouds 27 1007 94 10000 3.6 80 00:23 25.01.2023
102 Clouds 26 1005 94 10000 2.06 100 21:33 24.01.2023
103 Clouds 26 1005 94 10000 1.03 110 20:19 24.01.2023
104 Clouds 26 1005 94 10000 1.54 110 18:43 24.01.2023
105 Clouds 26 1005 94 10000 1.54 100 17:30 24.01.2023
106 Rain 26 1006 94 10000 2.06 100 16:53 24.01.2023
107 Rain 26 1006 93 10000 2.57 100 15:50 24.01.2023
108 Rain 26 1006 93 10000 0 0 13:22 24.01.2023
109 Rain 28 1004 89 10000 0.51 320 11:21 24.01.2023
110 Clouds 29 1003 84 10000 3.6 340 08:24 24.01.2023
111 Clouds 29 1003 79 10000 3.6 340 07:56 24.01.2023
112 Clouds 28 1003 83 10000 3.6 340 07:26 24.01.2023
113 Rain 27 1005 94 10000 4.63 70 02:39 24.01.2023
114 Clouds 27 1005 84 10000 5.66 110 00:36 24.01.2023
115 Rain 26 1003 89 10000 3.09 120 22:28 23.01.2023
116 Rain 26 1006 89 10000 3.09 130 19:58 23.01.2023
117 Rain 25 1003 90 10000 3.09 110 19:21 23.01.2023
118 Clouds 26 1004 89 10000 2.57 120 17:19 23.01.2023
119 Clouds 25 1005 90 10000 2.24 120 15:32 23.01.2023
120 Clear 25 1005 94 10000 1.54 110 13:56 23.01.2023
121 Clear 25 1004 94 10000 3.09 110 12:55 23.01.2023
122 Rain 25 1004 88 10000 4.12 120 11:46 23.01.2023
123 Rain 25 1003 88 10000 3.09 120 11:28 23.01.2023
124 Rain 25 1003 88 10000 3.09 120 11:28 23.01.2023
125 Rain 30 1002 79 10000 3.6 350 08:24 23.01.2023
126 Clouds 27 1005 89 10000 2.06 40 23:54 22.01.2023
127 Clouds 28 1003 94 10000 1.54 280 21:51 22.01.2023
128 Rain 28 1003 94 10000 1.54 250 21:19 22.01.2023
129 Rain 28 1002 90 10000 0 0 19:56 22.01.2023
130 Rain 29 1002 90 10000 0 0 19:37 22.01.2023
131 Rain 29 1007 89 10000 2.06 200 18:37 22.01.2023
132 Rain 29 1003 90 10000 1.54 230 17:55 22.01.2023
133 Rain 29 1007 89 10000 2.57 240 17:24 22.01.2023
134 Clouds 29 1005 87 10000 3.58 260 15:29 22.01.2023
135 Clear 29 1004 85 10000 2.57 250 14:41 22.01.2023
136 Clear 29 1004 84 10000 2.06 280 13:27 22.01.2023
137 Clear 29 1004 84 10000 2.57 290 12:32 22.01.2023
138 Clouds 30 1003 81 10000 3.09 290 11:34 22.01.2023
139 Clouds 31 1002 74 10000 5.36 300 09:35 22.01.2023
140 Clouds 33 1007 63 10000 3.09 210 05:41 22.01.2023
141 Clouds 29 1006 79 10000 1.54 220 00:40 22.01.2023
142 Clouds 27 1005 88 10000 1.54 190 23:30 21.01.2023
143 Clouds 26 1004 89 10000 1.03 270 21:40 21.01.2023
144 Clouds 27 1003 80 10000 2.06 250 19:23 21.01.2023
145 Rain 26 1005 80 10000 2.57 310 16:41 21.01.2023
146 Rain 26 1006 88 10000 1.03 150 14:24 21.01.2023
147 Clouds 26 1004 83 10000 4.63 210 12:57 21.01.2023
148 Clouds 29 1003 84 10000 4.12 280 11:42 21.01.2023
149 Clouds 30 1003 79 10000 4.02 290 10:49 21.01.2023
150 Clouds 31 1002 77 10000 6.71 300 08:57 21.01.2023
151 Clouds 33 1005 62 10000 3.09 240 04:32 21.01.2023
152 Clouds 27 1008 91 10000 2.57 230 22:29 20.01.2023
153 Clouds 27 1012 94 10000 1.34 250 21:38 20.01.2023
154 Clouds 27 1008 93 10000 1.54 250 20:56 20.01.2023
155 Clouds 28 1004 89 10000 2.57 250 19:31 20.01.2023
156 Clouds 28 1007 88 10000 2.24 280 16:39 20.01.2023
157 Clouds 28 1007 84 10000 2.57 260 14:46 20.01.2023
158 Rain 28 1006 88 10000 3.09 290 13:51 20.01.2023
159 Rain 28 1005 84 10000 2.57 270 10:24 20.01.2023
160 Rain 28 1004 84 10000 4.12 290 08:53 20.01.2023
161 Rain 26 1005 94 10000 7.72 260 05:54 20.01.2023
162 Rain 26 1005 94 10000 7.72 260 05:54 20.01.2023
163 Clouds 30 1006 74 10000 4.63 260 02:30 20.01.2023
164 Clouds 30 1006 77 10000 4.63 260 02:30 20.01.2023
165 Clouds 27 1004 94 10000 1.79 200 22:35 19.01.2023
166 Clouds 26 1005 94 10000 1.54 250 20:44 19.01.2023
167 Clouds 26 1003 93 10000 2.06 210 19:29 19.01.2023
168 Clouds 26 1005 89 10000 1.54 250 16:51 19.01.2023
169 Clear 27 1006 84 10000 3.6 240 13:29 19.01.2023
170 Rain 26 1004 85 10000 3.09 250 09:36 19.01.2023
171 Rain 25 1007 94 10000 5.14 220 02:59 19.01.2023
172 Clouds 27 1007 94 10000 4.63 290 22:24 18.01.2023
173 Clouds 28 1005 85 10000 5.14 290 20:20 18.01.2023
174 Clouds 28 1005 83 10000 3.09 290 19:38 18.01.2023
175 Clouds 28 1005 83 10000 3.09 270 18:30 18.01.2023
176 Rain 28 1007 83 10000 1.54 230 15:56 18.01.2023
177 Rain 28 1007 87 10000 1.03 280 13:49 18.01.2023
178 Rain 28 1007 81 8000 9.77 260 11:28 18.01.2023
179 Clouds 29 1005 76 10000 6.17 280 09:22 18.01.2023
180 Rain 30 1008 75 10000 6.69 290 02:59 18.01.2023
181 Rain 29 1009 80 10000 6.17 290 00:20 18.01.2023
182 Clouds 28 1006 84 10000 4.63 290 20:57 17.01.2023
183 Rain 28 1007 82 10000 4.12 280 19:36 17.01.2023
184 Clouds 28 1007 82 10000 5.14 290 18:48 17.01.2023
185 Clouds 28 1008 81 10000 5.66 290 17:37 17.01.2023
186 Clouds 29 1009 81 10000 3.6 280 15:26 17.01.2023
187 Clouds 29 1009 81 10000 4.12 290 14:34 17.01.2023
188 Clouds 28 1008 83 10000 4.54 276 13:31 17.01.2023
189 Rain 29 1008 81 10000 3.6 280 11:45 17.01.2023
190 Rain 29 1008 81 10000 3.6 280 11:45 17.01.2023
191 Clouds 29 1007 81 10000 4.47 280 09:35 17.01.2023
192 Rain 29 1006 78 10000 4.63 280 08:20 17.01.2023
193 Clouds 32 1007 68 10000 7.2 300 05:53 17.01.2023
194 Rain 29 1010 78 10000 3.6 260 00:58 17.01.2023
195 Clouds 29 1009 81 10000 2.06 240 23:50 16.01.2023
196 Clouds 28 1008 83 10000 3.09 290 22:26 16.01.2023
197 Rain 28 1008 84 10000 4.12 300 20:50 16.01.2023
198 Clouds 28 1007 84 10000 4.12 290 19:42 16.01.2023
199 Clouds 28 1007 83 10000 3.6 310 18:55 16.01.2023
200 Clouds 28 1008 83 10000 4.63 300 18:26 16.01.2023
201 Clouds 28 1008 84 10000 4.12 310 17:55 16.01.2023
202 Clouds 28 1008 84 10000 4.12 300 17:19 16.01.2023
203 Clouds 28 1009 84 10000 5.66 320 13:40 16.01.2023
204 Clouds 28 1008 83 10000 4.63 320 11:58 16.01.2023
205 Clouds 30 1007 72 10000 5.81 320 10:21 16.01.2023
206 Rain 31 1006 72 10000 7.2 310 07:35 16.01.2023
207 Clouds 28 1006 80 10000 2.57 270 22:42 15.01.2023
208 Clouds 28 1005 76 10000 3.6 280 20:48 15.01.2023
209 Clouds 28 1005 74 10000 3.6 290 20:24 15.01.2023
210 Clouds 28 1005 83 10000 2.57 280 18:40 15.01.2023
211 Clouds 28 1006 83 10000 2.06 270 16:42 15.01.2023
212 Clouds 29 1011 77 10000 3.6 270 13:25 15.01.2023
213 Clouds 29 1005 78 10000 4.92 280 11:56 15.01.2023
214 Clouds 29 1004 76 10000 5.14 280 11:28 15.01.2023
215 Clouds 30 1004 67 10000 7.15 300 10:21 15.01.2023
216 Clouds 31 1004 66 10000 7.2 310 06:59 15.01.2023
217 Clear 26 1005 83 10000 0.51 250 23:28 14.01.2023
218 Clouds 25 1004 88 10000 1.54 210 22:42 14.01.2023
219 Clear 26 1004 89 10000 3.6 210 21:36 14.01.2023
220 Clouds 26 1005 88 10000 4.63 210 21:18 14.01.2023
221 Clouds 26 1005 87 10000 2.57 220 20:40 14.01.2023
222 Rain 26 1005 88 10000 3.09 210 19:57 14.01.2023
223 Rain 27 1010 88 10000 2.57 240 17:43 14.01.2023
224 Rain 29 1006 76 10000 3.6 260 15:31 14.01.2023
225 Rain 29 1006 74 10000 5.14 280 14:35 14.01.2023
226 Rain 29 1005 77 10000 6.69 300 13:44 14.01.2023
227 Rain 29 1005 77 10000 6.69 300 13:44 14.01.2023
228 Clouds 29 1005 80 10000 5.66 290 12:23 14.01.2023
229 Clouds 30 1004 74 10000 6.71 290 10:47 14.01.2023
230 Clouds 31 1003 70 10000 7.2 300 08:19 14.01.2023
231 Clouds 29 1007 75 10000 3.09 280 23:56 13.01.2023
232 Clouds 28 1006 83 10000 2.06 270 22:58 13.01.2023
233 Clouds 27 1006 83 10000 2.57 280 22:40 13.01.2023
234 Clouds 27 1006 83 10000 2.06 270 21:56 13.01.2023
235 Clouds 27 1005 83 10000 2.57 270 20:24 13.01.2023
236 Clouds 27 1005 83 10000 2.57 280 18:54 13.01.2023
237 Clouds 28 1006 79 10000 2.06 270 16:58 13.01.2023
238 Clouds 28 1008 79 10000 3.58 280 14:45 13.01.2023
239 Clear 29 1008 75 10000 3.6 270 12:21 13.01.2023
240 Clouds 30 1005 70 10000 5.14 290 10:35 13.01.2023
241 Clouds 30 1005 71 10000 5.66 290 09:55 13.01.2023
242 Clouds 31 1005 65 10000 5.66 300 09:35 13.01.2023
243 Clouds 31 1005 64 10000 6.71 300 08:49 13.01.2023
244 Clouds 32 1005 64 10000 7.2 310 08:49 13.01.2023
245 Clouds 32 1006 62 10000 7.2 300 06:56 13.01.2023
246 Clouds 32 1007 61 10000 6.17 300 05:45 13.01.2023
247 Clouds 30 1008 73 10000 4.63 280 00:48 13.01.2023
248 Clouds 27 1008 83 10000 2.57 270 22:46 12.01.2023
249 Clouds 28 1008 78 10000 3.09 260 21:19 12.01.2023
250 Clouds 28 1008 79 10000 4.12 280 20:46 12.01.2023
251 Clouds 28 1011 79 10000 3.6 300 18:26 12.01.2023
252 Clouds 28 1008 78 10000 3.09 290 16:59 12.01.2023
253 Clouds 28 1009 76 10000 4.63 290 14:55 12.01.2023
254 Clouds 28 1009 78 10000 4.12 290 14:26 12.01.2023
255 Clouds 29 1009 76 10000 4.63 300 13:49 12.01.2023
256 Clouds 29 1007 76 10000 4.92 280 11:57 12.01.2023
257 Clouds 30 1006 72 10000 6.17 290 10:24 12.01.2023
258 Clouds 32 1006 62 10000 6.69 300 07:26 12.01.2023
259 Clouds 29 1009 75 10000 3.6 260 00:31 12.01.2023
260 Clouds 29 1009 77 10000 3.09 260 23:55 11.01.2023
261 Clouds 28 1009 82 10000 2.76 275 23:36 11.01.2023
262 Clouds 28 1009 82 10000 2.76 275 23:36 11.01.2023
263 Clouds 28 1009 82 10000 2.76 275 23:36 11.01.2023
264 Clouds 27 1008 83 10000 2.57 270 23:18 11.01.2023
265 Clouds 27 1007 83 10000 3.09 280 21:22 11.01.2023
266 Clouds 28 1007 81 10000 2.57 280 18:51 11.01.2023
267 Clouds 28 1008 83 10000 3.09 290 17:37 11.01.2023
268 Clouds 28 1008 81 10000 3.6 290 15:43 11.01.2023
269 Clouds 28 1009 83 10000 3.09 290 13:57 11.01.2023
270 Clouds 28 1007 79 10000 3.09 270 12:33 11.01.2023
271 Clouds 29 1007 76 10000 4.92 290 11:39 11.01.2023
272 Clouds 31 1005 66 10000 6.71 300 09:29 11.01.2023
273 Clouds 31 1006 66 10000 6.17 310 07:30 11.01.2023
274 Clouds 32 1007 66 10000 6.17 320 06:24 11.01.2023
275 Clouds 29 1009 77 10000 3.6 270 23:55 10.01.2023
276 Clouds 27 1008 83 10000 3.09 270 22:34 10.01.2023
277 Clouds 27 1007 83 10000 3.09 280 21:28 10.01.2023
278 Clouds 27 1007 83 10000 3.09 270 19:55 10.01.2023
279 Clouds 27 1007 83 10000 3.6 280 19:27 10.01.2023
280 Clouds 28 1007 80 10000 3.09 280 18:37 10.01.2023
281 Clouds 27 1008 86 10000 3.09 280 17:26 10.01.2023
282 Clouds 28 1008 81 10000 3.6 270 15:47 10.01.2023
283 Clouds 28 1008 83 10000 3.6 270 15:21 10.01.2023
284 Clouds 28 1008 80 10000 3.09 280 13:33 10.01.2023
285 Clouds 30 1006 70 10000 6.17 290 10:38 10.01.2023
286 Clouds 31 1006 71 10000 7.72 300 08:39 10.01.2023
287 Clouds 31 1006 68 10000 8.23 300 07:57 10.01.2023
288 Clouds 32 1006 66 10000 8.23 300 07:25 10.01.2023
289 Clouds 31 1009 66 10000 6.69 300 03:33 10.01.2023
290 Clouds 27 1008 83 10000 2.06 270 22:41 09.01.2023
291 Clouds 27 1009 83 10000 2.57 270 21:20 09.01.2023
292 Clouds 27 1008 83 10000 2.68 270 20:32 09.01.2023
293 Clouds 27 1009 83 10000 2.06 270 18:41 09.01.2023
294 Clouds 27 1009 83 10000 2.06 270 17:51 09.01.2023
295 Clouds 28 1009 80 10000 3.6 270 16:41 09.01.2023
296 Clouds 28 1010 81 10000 3.6 280 15:59 09.01.2023
297 Clouds 28 1010 81 10000 3.6 280 15:22 09.01.2023
298 Clouds 28 1010 81 10000 3.6 280 15:22 09.01.2023
299 Clouds 27 1010 83 10000 4.42 292 14:43 09.01.2023
300 Clouds 27 1010 83 10000 4.43 292 14:43 09.01.2023
301 Clouds 28 1009 78 10000 4.92 290 12:54 09.01.2023
302 Clouds 28 1009 78 10000 5.14 290 11:59 09.01.2023
303 Clouds 29 1008 78 10000 5.66 290 11:19 09.01.2023
304 Clouds 31 1007 70 10000 7.72 300 07:20 09.01.2023
305 Clouds 31 1007 68 10000 7.72 290 06:21 09.01.2023
306 Clouds 31 1010 68 10000 6.71 280 02:53 09.01.2023
307 Clouds 27 1008 83 10000 3.09 280 22:29 08.01.2023
308 Clouds 27 1009 83 10000 4.12 280 21:22 08.01.2023
309 Clouds 27 1009 83 10000 4.12 280 20:54 08.01.2023
310 Clouds 27 1007 83 10000 4.63 280 18:52 08.01.2023
311 Clouds 28 1008 81 10000 4.12 270 17:37 08.01.2023
312 Clouds 28 1008 80 10000 4.12 270 17:18 08.01.2023
313 Clouds 28 1008 80 10000 5.14 280 15:37 08.01.2023
314 Clouds 28 1008 78 10000 4.63 280 14:18 08.01.2023
315 Clouds 28 1007 78 10000 4.63 280 13:32 08.01.2023
316 Clear 28 1007 79 10000 4.63 280 12:57 08.01.2023
317 Clouds 29 1006 77 10000 5.66 280 11:22 08.01.2023
318 Clouds 30 1005 76 10000 7.2 290 09:37 08.01.2023
319 Clouds 31 1005 71 10000 8.23 280 07:55 08.01.2023
320 Clouds 30 1007 75 10000 7.72 290 02:20 08.01.2023
321 Clouds 26 1006 89 10000 5.14 250 22:49 07.01.2023
322 Clouds 27 1005 78 10000 4.63 260 22:24 07.01.2023
323 Clouds 28 1007 83 10000 6.71 280 21:49 07.01.2023
324 Clouds 28 1006 84 10000 6.17 290 20:57 07.01.2023
325 Clouds 28 1006 84 10000 5.66 290 20:25 07.01.2023
326 Clouds 28 1005 83 10000 6.17 290 19:18 07.01.2023
327 Clouds 28 1007 84 10000 5.66 290 17:59 07.01.2023
328 Clouds 28 1005 80 10000 6.17 280 17:39 07.01.2023
329 Clouds 28 1005 83 10000 5.14 290 16:38 07.01.2023
330 Clouds 28 1006 84 10000 5.66 290 15:52 07.01.2023
331 Clouds 28 1006 84 10000 5.66 290 15:31 07.01.2023
332 Clouds 28 1006 84 10000 4.63 280 14:47 07.01.2023
333 Clouds 28 1005 83 10000 5.66 290 13:54 07.01.2023
334 Clouds 28 1005 84 10000 5.14 300 13:35 07.01.2023
335 Clouds 29 1005 77 10000 6.71 290 12:35 07.01.2023
336 Clouds 29 1004 79 10000 6.17 300 11:58 07.01.2023
337 Clouds 29 1003 80 10000 6.71 290 10:26 07.01.2023
338 Clouds 29 1003 77 10000 7.2 290 08:46 07.01.2023
339 Clouds 30 1003 77 10000 7.72 290 07:47 07.01.2023
340 Clouds 30 1003 75 10000 7.72 290 07:20 07.01.2023
341 Clouds 31 1004 71 10000 7.72 290 04:59 07.01.2023
342 Clouds 28 1006 83 10000 5.14 280 22:57 06.01.2023
343 Clouds 27 1004 89 10000 4.02 270 22:20 06.01.2023
344 Rain 26 1003 89 10000 5.66 290 21:44 06.01.2023
345 Rain 26 1005 89 10000 13.89 280 20:32 06.01.2023
346 Clouds 26 1003 87 10000 8.94 280 19:41 06.01.2023
347 Clouds 26 1003 88 10000 8.94 280 19:23 06.01.2023
348 Clouds 26 1004 84 10000 8.94 280 18:54 06.01.2023
349 Clouds 27 1004 87 10000 6.71 290 17:41 06.01.2023
350 Clouds 28 1006 84 10000 7.2 290 16:52 06.01.2023
351 Clouds 28 1006 81 10000 6.71 290 16:21 06.01.2023
352 Clouds 28 1005 84 10000 7.2 300 15:51 06.01.2023
353 Clouds 28 1006 84 10000 7.2 300 15:22 06.01.2023
354 Clouds 28 1005 84 10000 6.71 290 13:31 06.01.2023
355 Clouds 28 1005 80 10000 7.72 290 11:19 06.01.2023
356 Rain 29 1003 80 10000 6.71 300 09:56 06.01.2023
357 Rain 28 1003 84 10000 7.72 290 08:30 06.01.2023
358 Rain 25 1006 94 10000 5.66 330 03:44 06.01.2023
359 Rain 27 1005 94 10000 5.14 290 22:56 05.01.2023
360 Rain 26 1004 94 8000 5.14 300 21:56 05.01.2023
361 Rain 26 1004 94 10000 5.66 270 20:20 05.01.2023
362 Rain 28 1005 84 10000 5.66 300 17:29 05.01.2023
363 Rain 27 1005 84 10000 8.49 280 16:37 05.01.2023
364 Rain 27 1006 84 10000 8.75 280 15:48 05.01.2023
365 Rain 26 1006 83 10000 7.2 290 14:53 05.01.2023
366 Rain 26 1006 83 10000 7.2 290 14:53 05.01.2023
367 Rain 27 1006 88 9000 5.66 270 13:28 05.01.2023
368 Rain 26 1005 89 10000 4.12 280 12:38 05.01.2023
369 Rain 26 1004 89 10000 5.66 290 09:57 05.01.2023
370 Rain 26 1004 89 10000 7.72 290 09:33 05.01.2023
371 Clouds 30 1004 77 10000 6.17 290 07:21 05.01.2023
372 Clouds 29 1004 80 10000 6.71 290 06:37 05.01.2023
373 Clouds 28 1006 81 4000 7.72 290 00:27 05.01.2023
374 Clouds 28 1004 78 10000 7.72 290 22:23 04.01.2023
375 Clouds 28 1003 83 10000 7.2 290 21:29 04.01.2023
376 Clouds 27 1003 84 10000 6.17 300 19:58 04.01.2023
377 Clouds 28 1003 80 10000 6.71 300 19:36 04.01.2023
378 Clouds 28 1003 80 10000 6.71 300 19:18 04.01.2023
379 Clouds 28 1008 84 10000 5.66 310 16:32 04.01.2023
380 Clouds 28 1005 85 10000 5.66 300 15:56 04.01.2023
381 Clouds 27 1006 84 10000 5.81 300 14:49 04.01.2023
382 Rain 27 1004 83 10000 6.71 300 11:45 04.01.2023
383 Rain 27 1004 84 10000 5.66 310 11:22 04.01.2023
384 Rain 27 1003 82 10000 6.17 280 10:43 04.01.2023
385 Rain 27 1002 82 10000 6.17 280 10:24 04.01.2023
386 Rain 27 1003 77 10000 8.75 310 09:19 04.01.2023
387 Rain 30 1004 75 3000 10.29 260 05:37 04.01.2023
388 Rain 29 1005 80 10000 5.66 290 00:39 04.01.2023
389 Rain 28 1004 84 10000 5.66 300 23:37 03.01.2023
390 Clouds 28 1004 83 10000 6.69 300 22:55 03.01.2023
391 Clear 26 1003 89 10000 5.14 300 21:21 03.01.2023
392 Rain 26 1002 94 10000 3.09 330 19:57 03.01.2023
393 Rain 26 1004 94 10000 2.57 330 18:21 03.01.2023
394 Rain 27 1004 90 600 5.66 290 16:39 03.01.2023
395 Clouds 29 1004 84 10000 4.63 360 13:59 03.01.2023
396 Clouds 28 1004 88 10000 4.12 360 13:32 03.01.2023
397 Clouds 28 1004 88 10000 4.12 360 13:32 03.01.2023
398 Clouds 28 1003 84 10000 5.14 350 12:58 03.01.2023
399 Clouds 29 1003 80 10000 4.63 340 12:31 03.01.2023
400 Clouds 29 1003 82 10000 4.63 350 11:41 03.01.2023
401 Clouds 29 1003 82 10000 4.63 350 11:41 03.01.2023
402 Rain 29 1003 83 10000 3.6 320 07:55 03.01.2023
403 Rain 30 1004 83 10000 3.6 340 04:26 03.01.2023
404 Rain 29 1004 82 10000 3.6 340 03:46 03.01.2023
405 Rain 29 1005 85 10000 3.6 340 03:26 03.01.2023
406 Clouds 25 1004 94 9000 6.69 310 22:46 02.01.2023
407 Rain 28 1004 89 10000 4.63 330 22:24 02.01.2023
408 Clouds 27 1003 93 3800 4.63 330 20:51 02.01.2023
409 Rain 27 1003 87 6000 6.71 310 20:26 02.01.2023
410 Clouds 29 1004 82 10000 7.72 320 18:40 02.01.2023
411 Clouds 29 1005 81 10000 8.75 310 15:43 02.01.2023
412 Rain 29 1004 80 10000 7.72 310 13:39 02.01.2023
413 Clouds 29 1003 80 10000 8.75 300 12:18 02.01.2023
414 Rain 28 1005 83 10000 8.23 300 10:57 02.01.2023
415 Rain 28 1001 82 10000 10.8 310 08:38 02.01.2023
416 Rain 25 1004 83 4000 10.8 280 03:32 02.01.2023
417 Clouds 28 1003 78 10000 11.83 300 22:43 01.01.2023
418 Clouds 29 1002 79 10000 10.8 300 21:43 01.01.2023
419 Rain 28 1002 83 10000 11.83 300 20:48 01.01.2023
420 Clouds 28 1001 83 10000 11.32 300 20:18 01.01.2023
421 Clouds 28 1004 83 10000 9.77 310 18:47 01.01.2023
422 Rain 27 1002 87 10000 8.23 310 17:23 01.01.2023
423 Rain 28 1004 85 10000 10.8 300 16:34 01.01.2023
424 Rain 28 1004 89 2000 9.77 320 15:28 01.01.2023
425 Rain 26 1004 94 8000 8.23 280 13:42 01.01.2023
426 Rain 28 1003 90 8000 7.72 290 12:45 01.01.2023
427 Rain 26 1003 86 10000 8.23 290 11:40 01.01.2023
428 Clouds 25 1007 88 9000 10.73 270 10:53 01.01.2023
429 Rain 26 1002 94 6000 9.77 290 09:23 01.01.2023
430 Rain 26 1001 93 2000 11.83 290 08:25 01.01.2023
431 Clouds 26 1005 87 8000 14.4 290 07:30 01.01.2023
432 Clouds 31 1002 70 10000 12.35 300 06:39 01.01.2023
433 Clouds 29 1003 80 10000 10.8 300 23:45 31.12.2022
434 Clouds 29 1003 80 10000 10.28 300 23:20 31.12.2022
435 Clouds 27 1002 89 10000 8.75 320 21:46 31.12.2022
436 Clouds 27 1002 89 10000 9.77 320 21:23 31.12.2022
437 Rain 28 1001 78 10000 9.26 320 20:22 31.12.2022
438 Rain 28 1005 84 10000 10.29 320 18:45 31.12.2022
439 Rain 28 1002 84 10000 10.29 320 18:20 31.12.2022
440 Rain 28 1002 84 10000 9.77 320 17:56 31.12.2022
441 Rain 27 1005 88 6000 9.26 320 17:31 31.12.2022
442 Clouds 26 1006 91 6000 9.39 320 16:31 31.12.2022
443 Clouds 26 1005 89 6000 12.86 320 15:28 31.12.2022
444 Clouds 28 1004 80 10000 9.77 310 13:56 31.12.2022
445 Rain 27 1004 88 10000 10.8 320 13:27 31.12.2022
446 Rain 27 1007 89 6000 10.29 310 12:24 31.12.2022
447 Rain 26 1003 91 10000 12.86 300 11:52 31.12.2022
448 Rain 26 1003 94 8000 9.77 310 11:25 31.12.2022
449 Rain 26 1002 99 10000 7.72 310 09:56 31.12.2022
450 Rain 25 1002 94 8000 5.66 310 09:37 31.12.2022
451 Rain 27 1005 89 6000 10.29 310 08:22 31.12.2022
452 Rain 26 1005 94 2000 6.69 290 00:59 31.12.2022
453 Rain 25 1005 92 1500 8.23 270 00:27 31.12.2022
454 Clouds 28 1003 79 10000 10.8 320 22:55 30.12.2022
455 Clouds 28 1008 78 10000 13.89 300 22:18 30.12.2022
456 Clouds 26 1002 94 10000 8.75 320 21:37 30.12.2022
457 Clouds 26 1002 94 10000 9.77 330 20:55 30.12.2022
458 Rain 27 1005 87 10000 10.29 300 18:28 30.12.2022
459 Rain 26 1006 90 10000 9.77 300 17:34 30.12.2022
460 Rain 26 1006 90 10000 9.77 300 17:34 30.12.2022
461 Rain 25 1006 94 2900 12.52 280 16:46 30.12.2022
462 Rain 26 1005 92 800 6.71 270 14:55 30.12.2022
463 Rain 26 1004 92 8000 8.23 310 12:54 30.12.2022
464 Rain 26 1002 91 6000 5.81 300 08:24 30.12.2022
465 Rain 26 1005 91 9000 9.26 290 03:55 30.12.2022
466 Rain 26 1006 94 10000 6.71 300 02:26 30.12.2022
467 Rain 25 1006 89 1200 12.86 280 23:45 29.12.2022
468 Rain 26 1004 89 10000 4.63 280 21:55 29.12.2022
469 Rain 26 1004 89 10000 5.14 280 21:20 29.12.2022
470 Rain 25 1003 94 10000 5.14 270 20:45 29.12.2022
471 Rain 26 1006 93 6000 6.17 310 18:49 29.12.2022
472 Rain 26 1006 93 10000 7.6 350 17:53 29.12.2022
473 Rain 26 1007 93 10000 7.72 350 17:25 29.12.2022
474 Rain 26 1005 88 10000 6.69 350 16:54 29.12.2022
475 Rain 25 1006 93 10000 6.71 290 15:49 29.12.2022
476 Rain 25 1006 90 10000 7.2 290 13:41 29.12.2022
477 Rain 25 1005 95 10000 5.36 330 11:51 29.12.2022
478 Rain 26 1007 88 10000 5.66 310 09:47 29.12.2022
479 Clouds 30 1006 79 6238 7.15 300 03:35 29.12.2022
480 Rain 26 1006 94 10000 7.72 310 23:29 28.12.2022
481 Rain 25 1005 100 1200 8.23 320 21:57 28.12.2022
482 Rain 24 1005 94 2000 9.77 290 21:19 28.12.2022
483 Rain 24 1005 93 1600 6.71 300 19:57 28.12.2022
484 Rain 25 1005 93 10000 11.32 310 18:25 28.12.2022
485 Rain 26 1006 93 10000 6.17 340 16:21 28.12.2022
486 Rain 27 1006 88 1500 5.66 260 13:55 28.12.2022
487 Clouds 28 1006 83 10000 3.09 270 12:48 28.12.2022
488 Clouds 27 1005 84 10000 6.81 280 11:33 28.12.2022
489 Clouds 29 1003 75 10000 4.63 280 09:32 28.12.2022
490 Clouds 30 1004 76 5621 7.95 275 07:32 28.12.2022
491 Clouds 30 1004 68 10000 6.17 260 06:45 28.12.2022
492 Clouds 29 1006 84 10000 8.23 280 00:57 28.12.2022
493 Rain 26 1005 94 10000 2.06 300 21:40 27.12.2022
494 Rain 26 1009 91 2000 6.17 340 19:51 27.12.2022
495 Clouds 27 1009 94 10000 1.03 260 18:27 27.12.2022
496 Rain 26 1009 93 10000 2.06 220 16:59 27.12.2022
497 Rain 26 1007 93 3000 2.06 200 15:54 27.12.2022
498 Rain 26 1007 93 10000 3.09 360 14:23 27.12.2022
499 Rain 27 1007 94 10000 4.12 290 12:23 27.12.2022
500 Rain 28 1005 86 10000 3.09 290 09:48 27.12.2022
501 Rain 29 1004 79 10000 4.63 290 09:24 27.12.2022
502 Rain 30 1004 76 10000 4.92 290 08:47 27.12.2022
503 Clouds 31 1006 70 10000 5.66 310 04:54 27.12.2022
504 Clouds 28 1009 92 10000 1.03 180 23:39 26.12.2022
505 Clouds 27 1007 94 10000 1.34 210 21:50 26.12.2022
506 Clouds 27 1006 94 10000 2.06 230 20:43 26.12.2022
507 Clouds 28 1011 89 10000 2.06 260 19:51 26.12.2022
508 Rain 28 1007 90 10000 1.54 270 18:42 26.12.2022
509 Clouds 27 1008 89 3900 4.63 250 16:51 26.12.2022
510 Clouds 28 1012 87 10000 2.57 310 15:37 26.12.2022
511 Rain 27 1009 88 10000 2.06 340 12:58 26.12.2022
512 Clouds 30 1006 76 10000 7.2 310 09:44 26.12.2022
513 Clouds 33 1007 62 10000 4.12 320 05:41 26.12.2022
514 Clouds 28 1012 88 10000 2.57 120 23:39 25.12.2022
515 Clouds 27 1008 94 10000 2.57 110 22:48 25.12.2022
516 Clouds 27 1007 94 10000 2.06 140 22:19 25.12.2022
517 Clouds 27 1006 93 10000 2.06 110 19:38 25.12.2022
518 Clouds 27 1010 93 10000 1.03 90 17:52 25.12.2022
519 Clouds 27 1010 93 10000 1.03 80 17:34 25.12.2022
520 Clouds 27 1007 90 10000 1.58 315 16:40 25.12.2022
521 Rain 27 1008 90 10000 2.54 340 13:30 25.12.2022
522 Rain 27 1008 90 10000 2.54 340 13:30 25.12.2022
523 Rain 27 1008 90 10000 2.54 340 13:30 25.12.2022
524 Clouds 28 1006 85 10000 2.57 300 11:35 25.12.2022
525 Clouds 32 1010 68 10000 3.6 350 03:20 25.12.2022
526 Clouds 28 1005 83 10000 2.57 330 22:39 24.12.2022
527 Clouds 28 1004 88 10000 3.6 330 19:53 24.12.2022
528 Clouds 28 1005 86 10000 3.58 340 16:59 24.12.2022
529 Clouds 29 1006 84 10000 4.12 330 15:28 24.12.2022
530 Clouds 29 1005 80 10000 4.12 330 14:28 24.12.2022
531 Clouds 29 1005 82 10000 5.14 330 12:20 24.12.2022
532 Clouds 29 1006 81 10000 4.02 360 10:23 24.12.2022
533 Clouds 29 1006 81 10000 4.12 360 09:37 24.12.2022
534 Clouds 30 1006 79 10000 5.14 330 08:36 24.12.2022
535 Clouds 30 1006 79 10000 5.66 340 02:51 24.12.2022
536 Clouds 28 1006 84 10000 5.14 330 00:29 24.12.2022
537 Clouds 28 1004 89 10000 4.63 330 22:30 23.12.2022
538 Clouds 28 1004 89 10000 4.63 340 21:37 23.12.2022
539 Clouds 28 1002 89 10000 4.63 330 19:40 23.12.2022
540 Clouds 28 1002 89 10000 4.63 330 19:22 23.12.2022
541 Clouds 28 1002 89 10000 4.63 340 18:53 23.12.2022
542 Clouds 28 1003 90 10000 3.6 340 18:22 23.12.2022
543 Clouds 28 1003 89 6000 5.14 330 17:43 23.12.2022
544 Rain 28 1004 88 10000 5.14 330 15:45 23.12.2022
545 Rain 27 1003 90 10000 5.14 350 12:53 23.12.2022
546 Rain 26 1003 92 8000 4.63 300 10:21 23.12.2022
547 Rain 27 1002 89 10000 6.17 310 09:35 23.12.2022
548 Rain 29 1002 83 10000 6.17 310 07:29 23.12.2022
549 Rain 29 1002 82 10000 4.92 320 06:49 23.12.2022
550 Rain 26 1002 94 9000 6.17 360 23:42 22.12.2022
551 Rain 26 1002 94 9000 6.17 360 23:19 22.12.2022
552 Rain 26 1001 94 8000 6.69 10 21:55 22.12.2022
553 Rain 27 1000 89 10000 7.72 360 19:48 22.12.2022
554 Rain 27 1000 91 10000 6.69 350 19:19 22.12.2022
555 Rain 26 1004 96 4600 6.71 340 17:59 22.12.2022
556 Rain 28 1001 84 10000 7.15 360 16:52 22.12.2022
557 Rain 28 1001 85 10000 7.2 360 15:47 22.12.2022
558 Rain 28 1001 85 10000 7.2 360 15:29 22.12.2022
559 Clouds 27 1002 89 10000 6.17 360 14:27 22.12.2022
560 Clouds 26 1001 89 10000 5.66 360 13:20 22.12.2022
561 Rain 26 1000 90 10000 5.66 350 11:42 22.12.2022
562 Rain 26 999 93 10000 7.2 360 10:31 22.12.2022
563 Rain 25 1004 93 10000 6.71 360 09:24 22.12.2022
564 Rain 25 998 99 8000 9.77 360 08:52 22.12.2022
565 Rain 28 998 84 10000 5.66 30 07:51 22.12.2022
566 Rain 28 1000 85 10000 6.17 60 04:19 22.12.2022
567 Rain 26 1001 93 10000 5.81 70 00:46 22.12.2022
568 Rain 25 1000 94 10000 5.66 80 22:29 21.12.2022
569 Rain 25 1000 94 10000 5.14 70 21:46 21.12.2022
570 Rain 25 1000 94 10000 4.12 70 20:59 21.12.2022
571 Rain 25 1000 94 10000 4.92 70 20:34 21.12.2022
572 Rain 25 1000 94 10000 5.14 70 19:47 21.12.2022
573 Rain 25 1005 94 10000 5.66 80 19:29 21.12.2022
574 Rain 25 1000 94 10000 5.81 90 18:54 21.12.2022
575 Rain 25 1000 94 10000 5.81 90 18:35 21.12.2022
576 Clouds 25 1006 94 10000 5.14 100 16:19 21.12.2022
577 Rain 25 1003 93 10000 3.09 120 14:18 21.12.2022
578 Rain 27 1002 89 10000 3.6 90 11:58 21.12.2022
579 Clouds 28 1001 85 10000 2.57 30 11:20 21.12.2022
580 Clouds 28 1001 83 10000 4.12 30 10:29 21.12.2022
581 Rain 29 1000 79 10000 5.66 10 08:48 21.12.2022
582 Clouds 31 1000 71 10000 3.6 20 06:30 21.12.2022
583 Clouds 26 1003 89 10000 5.81 110 00:25 21.12.2022
584 Rain 25 1001 94 10000 2.68 130 21:47 20.12.2022
585 Rain 24 1006 94 10000 2.68 90 20:51 20.12.2022
586 Rain 24 1001 94 10000 3.09 100 19:54 20.12.2022
587 Rain 24 1002 94 10000 3.09 100 18:47 20.12.2022
588 Rain 24 1003 94 10000 2.57 130 18:22 20.12.2022
589 Rain 25 1003 94 10000 3.6 130 17:48 20.12.2022
590 Rain 25 1004 94 10000 3.09 110 17:22 20.12.2022
591 Rain 24 1005 94 10000 4.63 130 15:55 20.12.2022
592 Rain 24 1005 95 6000 4.63 140 14:55 20.12.2022
593 Rain 24 1005 95 2000 4.12 140 14:35 20.12.2022
594 Clouds 29 1004 83 10000 2.57 10 13:26 20.12.2022
595 Clouds 29 1004 84 10000 3.6 10 12:32 20.12.2022
596 Clouds 29 1003 78 10000 2.57 10 11:42 20.12.2022
597 Clouds 31 1001 72 10000 4.12 10 09:57 20.12.2022
598 Clouds 33 1001 58 10000 5.14 70 06:58 20.12.2022
599 Clouds 26 1005 89 10000 1.03 50 23:58 19.12.2022
600 Rain 25 1004 93 10000 2.06 110 22:22 19.12.2022
601 Rain 25 1003 93 10000 2.06 160 20:48 19.12.2022
602 Rain 25 1009 94 10000 4.12 150 19:40 19.12.2022
603 Rain 25 1007 93 10000 0.51 230 18:43 19.12.2022
604 Clouds 26 1004 86 4400 6.17 30 17:38 19.12.2022
605 Clouds 28 1004 84 10000 2.06 20 15:52 19.12.2022
606 Clouds 29 1004 77 10000 3.09 50 12:35 19.12.2022
607 Clouds 29 1003 72 10000 3.09 70 11:36 19.12.2022
608 Clouds 31 1002 70 10000 3.6 10 07:49 19.12.2022
609 Clouds 32 1009 63 10000 4.47 70 06:33 19.12.2022
610 Clouds 27 1006 85 10000 2.57 70 00:50 19.12.2022
611 Rain 24 1004 88 10000 3.58 100 21:49 18.12.2022
612 Rain 24 1004 88 10000 3.6 100 21:27 18.12.2022
613 Rain 24 1004 89 10000 3.6 100 20:53 18.12.2022
614 Clouds 24 1004 93 10000 2.68 90 19:43 18.12.2022
615 Clouds 24 1004 93 10000 4.12 90 18:59 18.12.2022
616 Clouds 24 1005 94 10000 3.09 80 17:52 18.12.2022
617 Clouds 24 1006 93 10000 3.09 130 15:42 18.12.2022
618 Rain 24 1006 94 10000 4.02 130 15:24 18.12.2022
619 Clouds 24 1006 92 10000 4.47 110 14:55 18.12.2022
620 Rain 25 1006 94 10000 4.12 120 13:28 18.12.2022
621 Rain 26 1005 94 10000 1.03 190 12:42 18.12.2022
622 Rain 26 1005 89 10000 2.06 230 11:49 18.12.2022
623 Rain 24 1003 88 1400 6.17 140 09:36 18.12.2022
624 Clouds 26 1003 83 10000 7.2 100 08:46 18.12.2022
625 Clouds 32 1003 66 10000 3.09 350 06:41 18.12.2022
626 Clouds 32 1003 66 10000 3.09 350 06:18 18.12.2022
627 Rain 27 1006 84 10000 1.03 90 01:53 18.12.2022
628 Clouds 26 1004 88 10000 2.06 140 22:57 17.12.2022
629 Clouds 26 1003 89 10000 2.06 160 20:57 17.12.2022
630 Clouds 27 1005 88 10000 2.57 210 17:52 17.12.2022
631 Rain 28 1006 82 10000 3.6 330 15:32 17.12.2022
632 Clouds 29 1006 79 10000 3.6 340 13:20 17.12.2022
633 Clouds 28 1005 79 10000 2.57 360 11:23 17.12.2022
634 Rain 28 1004 79 10000 2.57 330 10:41 17.12.2022
635 Clouds 30 1003 74 10000 0.45 56 08:37 17.12.2022
636 Clouds 31 1003 65 10000 4.12 320 07:22 17.12.2022
637 Clouds 29 1003 79 10000 1.54 70 06:44 17.12.2022
638 Clouds 26 1005 83 10000 2.57 150 22:55 16.12.2022
639 Clouds 25 1003 90 10000 2.57 150 20:29 16.12.2022
640 Clouds 26 1003 89 10000 1.54 150 18:41 16.12.2022
641 Clouds 26 1005 85 10000 0.45 140 15:36 16.12.2022
642 Clear 26 1005 86 10000 0.51 140 14:46 16.12.2022
643 Clouds 27 1006 82 10000 2.57 110 13:21 16.12.2022
644 Clouds 27 1005 82 10000 3.6 150 11:57 16.12.2022
645 Clouds 31 1003 77 10000 3.3 283 09:41 16.12.2022
646 Clouds 32 1005 62 10000 4.63 270 08:50 16.12.2022
647 Clouds 29 1003 64 10000 3.6 120 07:55 16.12.2022
648 Clouds 33 1002 58 10000 5.14 310 06:58 16.12.2022
649 Clouds 25 1005 88 10000 1.54 80 22:50 15.12.2022
650 Clear 25 1004 88 10000 2.06 100 21:41 15.12.2022
651 Clouds 25 1004 94 10000 1.54 110 20:24 15.12.2022
652 Clouds 25 1004 94 10000 1.54 120 19:21 15.12.2022
653 Clouds 25 1005 94 10000 0 0 17:28 15.12.2022
654 Clouds 25 1005 94 10000 1.03 70 16:31 15.12.2022
655 Clear 26 1006 89 10000 3.6 90 14:57 15.12.2022
656 Clear 26 1005 85 10000 2.06 160 12:59 15.12.2022
657 Rain 26 1004 88 10000 2.06 170 12:25 15.12.2022
658 Rain 26 1003 89 10000 5.14 190 09:19 15.12.2022
659 Rain 25 1003 88 10000 6.17 190 08:41 15.12.2022
660 Rain 30 1004 70 10000 4.63 280 05:47 15.12.2022
661 Clouds 32 1007 69 10000 2.06 330 02:38 15.12.2022
662 Clouds 26 1006 83 10000 4.12 70 21:24 14.12.2022
663 Clouds 27 1007 79 10000 4.12 90 20:57 14.12.2022
664 Clouds 27 1006 79 10000 4.63 110 20:18 14.12.2022
665 Clouds 27 1007 83 10000 0 0 17:52 14.12.2022
666 Clouds 27 1007 81 10000 1.54 160 16:57 14.12.2022
667 Clouds 28 1008 75 10000 4.63 150 15:39 14.12.2022
668 Clear 30 1007 76 10000 2.57 280 13:40 14.12.2022
669 Clouds 31 1006 69 10000 3.09 310 11:20 14.12.2022
670 Clouds 32 1005 64 10000 3.6 300 10:25 14.12.2022
671 Clouds 34 1004 55 10000 4.02 310 08:48 14.12.2022
672 Clouds 26 1009 88 10000 2.9 120 22:47 13.12.2022
673 Clouds 25 1009 87 10000 3.05 136 21:48 13.12.2022
674 Rain 25 1008 88 10000 2.57 130 20:48 13.12.2022
675 Rain 25 1008 88 5000 5.14 140 19:57 13.12.2022
676 Clouds 26 1008 85 10000 0 0 17:21 13.12.2022
677 Clear 26 1009 79 10000 2.06 120 15:35 13.12.2022
678 Clear 26 1009 83 10000 3.6 130 14:36 13.12.2022
679 Clouds 28 1007 73 10000 2.06 220 10:55 13.12.2022
680 Rain 29 1007 73 10000 2.57 160 10:35 13.12.2022
681 Rain 29 1007 68 10000 3.09 350 09:23 13.12.2022
682 Clouds 28 1009 78 10000 0.51 160 23:23 12.12.2022
683 Clouds 26 1008 83 10000 0.51 120 22:21 12.12.2022
684 Clouds 26 1007 83 10000 1.03 60 20:53 12.12.2022
685 Clouds 27 1007 81 10000 1.54 110 18:32 12.12.2022
686 Clouds 28 1008 84 10000 2.06 180 16:35 12.12.2022
687 Clear 29 1008 79 10000 2.57 220 15:22 12.12.2022
688 Clear 31 1008 66 10000 4.02 250 11:50 12.12.2022
689 Clouds 32 1005 60 10000 5.66 300 09:19 12.12.2022
690 Clouds 34 1008 55 10000 4.12 320 04:54 12.12.2022
691 Clouds 32 1009 70 10000 3.09 300 01:53 12.12.2022
692 Clouds 29 1007 79 10000 3.6 310 22:22 11.12.2022
693 Clouds 29 1007 84 10000 3.6 300 20:42 11.12.2022
694 Clouds 28 1006 87 10000 2.06 310 19:42 11.12.2022
695 Clouds 28 1006 87 10000 1.03 270 18:56 11.12.2022
696 Clouds 29 1007 79 10000 1.54 290 17:58 11.12.2022
697 Clouds 29 1007 79 10000 1.54 290 17:58 11.12.2022
698 Clouds 29 1007 79 10000 3.09 300 17:29 11.12.2022
699 Clouds 30 1007 80 10000 4.12 300 16:51 11.12.2022
700 Clouds 30 1007 74 10000 3.6 310 15:46 11.12.2022
701 Clouds 30 1007 81 10000 5.14 300 14:26 11.12.2022
702 Clouds 29 1007 70 10000 3.09 310 12:44 11.12.2022
703 Rain 28 1006 65 10000 1.54 260 11:41 11.12.2022
704 Clouds 33 1005 60 10000 6.08 311 06:30 11.12.2022
705 Clouds 32 1009 76 10000 1.85 296 00:34 11.12.2022
706 Clouds 30 1008 84 10000 1.03 260 22:53 10.12.2022
707 Clouds 29 1007 84 10000 1.54 270 22:33 10.12.2022
708 Clouds 29 1007 84 10000 1.54 270 21:19 10.12.2022
709 Clouds 29 1006 84 10000 2.06 250 20:26 10.12.2022
710 Clouds 29 1006 84 10000 2.06 240 18:46 10.12.2022
711 Clouds 30 1007 79 10000 3.09 270 16:48 10.12.2022
712 Clouds 30 1008 79 10000 4.12 280 15:58 10.12.2022
713 Clouds 30 1007 79 10000 4.63 290 15:37 10.12.2022
714 Rain 31 1007 70 10000 4.63 290 14:22 10.12.2022
715 Rain 31 1007 74 10000 4.63 300 12:49 10.12.2022
716 Rain 30 1006 71 10000 2.57 270 11:35 10.12.2022
717 Rain 31 1006 70 10000 3.6 270 10:34 10.12.2022
718 Clouds 33 1005 58 10000 4.12 300 08:55 10.12.2022
719 Clouds 33 1006 62 10000 4.63 310 07:19 10.12.2022
720 Clouds 31 1009 74 10000 1.03 290 00:40 10.12.2022
721 Clouds 30 1008 79 10000 0 0 23:18 09.12.2022
722 Clouds 27 1007 89 10000 1.03 130 22:37 09.12.2022
723 Clouds 27 1006 89 10000 1.03 90 21:24 09.12.2022
724 Clouds 28 1006 83 10000 1.03 170 20:42 09.12.2022
725 Clouds 29 1005 84 10000 1.54 230 18:52 09.12.2022
726 Clouds 29 1005 79 10000 1.54 230 17:53 09.12.2022
727 Clouds 30 1006 74 10000 2.06 250 16:31 09.12.2022
728 Clouds 29 1007 80 10000 2.49 279 15:42 09.12.2022
729 Clouds 30 1007 74 10000 2.57 240 15:18 09.12.2022
730 Clear 31 1005 66 10000 4.12 280 11:32 09.12.2022
731 Clouds 31 1005 66 10000 5.14 290 10:34 09.12.2022
732 Clouds 30 1004 67 10000 4.72 288 08:42 09.12.2022
733 Clouds 33 1007 62 10000 4.12 320 03:19 09.12.2022
734 Clouds 31 1008 66 10000 2.57 270 00:25 09.12.2022
735 Clouds 26 1007 89 10000 1.54 260 21:54 08.12.2022
736 Clouds 27 1006 83 10000 1.54 300 20:30 08.12.2022
737 Clouds 29 1006 70 10000 2.06 280 17:37 08.12.2022
738 Clouds 29 1007 70 10000 1.54 260 15:36 08.12.2022
739 Clouds 30 1007 66 10000 2.06 260 14:25 08.12.2022
740 Clouds 31 1005 62 10000 2.57 270 11:19 08.12.2022
741 Clouds 33 1003 52 10000 4.63 300 09:51 08.12.2022
742 Clouds 33 1003 52 10000 4.63 300 09:21 08.12.2022
743 Clouds 30 1008 70 10000 1.54 360 23:56 07.12.2022
744 Clouds 25 1008 94 10000 1.54 90 22:19 07.12.2022
745 Clear 25 1007 94 10000 0.51 90 21:48 07.12.2022
746 Clouds 26 1007 89 10000 2.06 110 21:29 07.12.2022
747 Clouds 26 1007 89 10000 1.03 20 19:35 07.12.2022
748 Clouds 28 1007 78 10000 3.09 330 17:22 07.12.2022
749 Clouds 28 1008 78 10000 2.57 240 14:41 07.12.2022
750 Clear 29 1006 74 10000 1.03 290 11:41 07.12.2022
751 Clouds 29 1006 74 10000 2.06 260 10:40 07.12.2022
752 Clouds 29 1005 74 10000 2.24 300 09:48 07.12.2022
753 Clouds 27 1005 78 10000 2.06 230 08:46 07.12.2022
754 Clouds 34 1006 46 10000 4.12 320 06:46 07.12.2022
755 Clouds 34 1007 55 10000 4.63 290 05:23 07.12.2022
756 Clouds 26 1008 90 10000 2.34 19 22:40 06.12.2022
757 Clouds 26 1007 89 10000 0 0 20:35 06.12.2022
758 Clouds 27 1006 84 10000 1.54 340 18:21 06.12.2022
759 Clouds 28 1006 80 10000 2.06 320 16:42 06.12.2022
760 Clear 28 1007 78 10000 2.57 340 15:52 06.12.2022
761 Clear 29 1007 75 10000 2.57 320 15:33 06.12.2022
762 Clear 30 1007 71 10000 2.57 320 14:28 06.12.2022
763 Clear 30 1007 67 10000 3.6 330 12:58 06.12.2022
764 Clouds 30 1007 71 10000 3.6 330 12:40 06.12.2022
765 Clouds 32 1005 63 10000 5.66 310 09:41 06.12.2022
766 Clouds 34 1005 42 10000 4.47 310 06:32 06.12.2022
767 Clouds 30 1009 75 10000 2.57 290 01:26 06.12.2022
768 Clouds 29 1008 79 10000 2.57 40 22:36 05.12.2022
769 Clouds 29 1007 79 10000 2.57 360 20:56 05.12.2022
770 Clouds 29 1007 79 10000 2.57 350 20:36 05.12.2022
771 Clouds 29 1007 80 10000 3.6 340 19:45 05.12.2022
772 Clouds 30 1006 75 10000 4.12 330 17:56 05.12.2022
773 Clouds 30 1007 75 10000 4.12 330 16:48 05.12.2022
774 Clouds 30 1007 72 10000 3.6 300 15:22 05.12.2022
775 Clouds 30 1006 72 10000 5.66 290 13:22 05.12.2022
776 Clouds 30 1006 72 10000 5.66 290 12:51 05.12.2022
777 Clouds 30 1006 72 10000 5.66 290 12:33 05.12.2022
778 Clouds 31 1006 68 10000 5.14 290 10:58 05.12.2022
779 Clouds 31 1009 66 10000 2.57 280 00:44 05.12.2022
780 Clouds 30 1008 75 10000 2.57 270 22:58 04.12.2022
781 Clouds 29 1008 75 10000 3.09 280 22:36 04.12.2022
782 Clouds 29 1008 74 10000 3.09 280 22:18 04.12.2022
783 Clouds 29 1008 79 10000 3.09 290 21:27 04.12.2022
784 Clouds 29 1007 75 10000 4.63 300 19:47 04.12.2022
785 Clouds 29 1007 75 10000 4.63 290 19:22 04.12.2022
786 Clouds 30 1006 73 10000 5.14 290 17:24 04.12.2022
787 Clouds 29 1006 73 10000 5.14 300 16:59 04.12.2022
788 Clouds 29 1007 73 10000 4.02 290 16:36 04.12.2022
789 Clouds 29 1007 73 10000 4.02 290 16:18 04.12.2022
790 Clear 29 1007 75 10000 4.12 290 14:49 04.12.2022
791 Clear 29 1007 76 10000 3.6 270 13:38 04.12.2022
792 Clear 29 1007 72 10000 3.09 270 12:44 04.12.2022
793 Clear 29 1006 70 10000 3.6 270 11:59 04.12.2022
794 Clouds 33 1005 52 10000 5.66 280 09:40 04.12.2022
795 Clouds 34 1006 56 10000 6.71 290 07:34 04.12.2022
796 Clouds 33 1008 52 10000 4.12 300 02:22 04.12.2022
797 Clouds 31 1008 66 10000 2.68 310 23:43 03.12.2022
798 Clear 26 1007 83 10000 2.06 310 22:24 03.12.2022
799 Clouds 27 1006 78 10000 2.24 310 21:41 03.12.2022
800 Clouds 27 1009 78 10000 3.6 310 20:35 03.12.2022
801 Clouds 29 1008 71 10000 3.09 300 18:40 03.12.2022
802 Clouds 29 1006 76 10000 3.6 280 17:27 03.12.2022
803 Clear 29 1006 72 10000 3.6 270 15:49 03.12.2022
804 Clear 30 1006 68 10000 4.12 280 12:56 03.12.2022
805 Clear 30 1006 68 10000 3.6 290 12:28 03.12.2022
806 Clear 31 1005 67 10000 4.12 270 10:30 03.12.2022
807 Clouds 33 1004 59 10000 7.72 300 07:58 03.12.2022
808 Clouds 31 1008 68 10000 2.68 250 01:31 03.12.2022
809 Clear 27 1006 82 10000 1.03 350 23:26 02.12.2022
810 Clear 25 1005 88 10000 1.03 260 21:34 02.12.2022
811 Clouds 28 1005 75 10000 2.57 260 19:37 02.12.2022
812 Clouds 28 1006 74 10000 2.57 260 16:23 02.12.2022
813 Clear 29 1007 71 10000 3.6 290 14:48 02.12.2022
814 Clear 29 1006 73 10000 4.12 290 14:28 02.12.2022
815 Clear 30 1006 68 10000 3.6 280 13:41 02.12.2022
816 Clear 30 1005 71 10000 4.12 290 11:48 02.12.2022
817 Clouds 32 1003 63 10000 4.63 280 09:52 02.12.2022
818 Clear 34 1003 57 10000 7.72 300 07:25 02.12.2022
819 Clear 35 1003 48 10000 5.66 290 06:23 02.12.2022
820 Clear 27 1005 94 10000 2.06 210 22:49 01.12.2022
821 Clear 27 1004 89 10000 2.06 220 21:41 01.12.2022
822 Clouds 26 1004 94 10000 2.06 230 20:36 01.12.2022
823 Clouds 27 1004 88 10000 1.54 250 18:58 01.12.2022
824 Clouds 27 1006 85 10000 1.54 260 16:31 01.12.2022
825 Clouds 28 1005 75 10000 2.24 240 13:50 01.12.2022
826 Clear 30 1004 66 10000 2.24 240 10:43 01.12.2022
827 Clear 32 1003 57 10000 1.54 250 09:54 01.12.2022
828 Clouds 31 1003 65 10000 3.05 303 09:36 01.12.2022
829 Clear 34 1004 38 10000 2.57 210 05:49 01.12.2022
830 Clouds 26 1005 84 10000 2.06 170 22:41 30.11.2022
831 Clear 26 1004 89 10000 2.06 170 21:40 30.11.2022
832 Clear 26 1004 89 10000 2.06 170 21:18 30.11.2022
833 Clouds 26 1004 85 10000 2.06 170 20:23 30.11.2022
834 Clouds 26 1003 83 10000 2.06 240 18:36 30.11.2022
835 Clouds 25 1004 83 10000 1.34 240 17:40 30.11.2022
836 Clouds 25 1004 88 10000 0 0 16:26 30.11.2022
837 Clear 26 1005 87 10000 0 0 14:45 30.11.2022
838 Clear 27 1005 87 10000 0.51 60 14:25 30.11.2022
839 Clear 29 1004 72 10000 1.03 170 11:58 30.11.2022
840 Clouds 33 1005 55 10000 3.6 150 09:21 30.11.2022
841 Clouds 33 1005 55 10000 3.6 150 09:21 30.11.2022
842 Clouds 33 1002 55 10000 4.63 140 07:59 30.11.2022
843 Clouds 33 1006 56 10000 5.66 130 05:22 30.11.2022
844 Clear 26 1005 93 10000 0.51 230 23:26 29.11.2022
845 Rain 25 1004 94 10000 2.68 220 21:50 29.11.2022
846 Rain 25 1004 94 10000 3.09 220 20:52 29.11.2022
847 Rain 25 1004 94 10000 1.54 300 19:48 29.11.2022
848 Rain 24 1004 94 10000 1.03 230 17:53 29.11.2022
849 Thunderstorm 24 1006 98 2900 3.6 130 16:31 29.11.2022
850 Clouds 25 1006 95 10000 1.34 50 15:22 29.11.2022
851 Rain 25 1006 97 10000 1.54 50 14:25 29.11.2022
852 Rain 25 1005 93 10000 0 0 12:37 29.11.2022
853 Rain 25 1005 93 10000 3.6 100 11:31 29.11.2022
854 Rain 26 1004 90 10000 1.03 240 10:26 29.11.2022
855 Rain 26 1005 89 10000 2.06 120 09:26 29.11.2022
856 Thunderstorm 27 1003 88 3000 7.2 260 06:47 29.11.2022
857 Clouds 26 1006 89 10000 3.6 220 00:27 29.11.2022
858 Rain 25 1006 89 10000 3.6 230 23:23 28.11.2022
859 Rain 24 1005 88 10000 2.68 270 21:56 28.11.2022
860 Rain 24 1006 88 10000 3.09 270 21:38 28.11.2022
861 Rain 24 1005 94 10000 5.14 260 20:24 28.11.2022
862 Rain 25 1006 89 10000 7.72 240 19:25 28.11.2022
863 Clouds 27 1007 82 10000 4.92 280 18:28 28.11.2022
864 Clouds 27 1008 83 10000 5.14 280 17:23 28.11.2022
865 Clouds 27 1008 84 10000 6.69 280 14:57 28.11.2022
866 Clouds 27 1008 84 10000 5.14 270 13:54 28.11.2022
867 Clouds 28 1007 81 10000 3.6 270 13:18 28.11.2022
868 Clouds 29 1006 79 10000 6.17 290 11:32 28.11.2022
869 Clouds 31 1004 70 10000 4.63 300 08:20 28.11.2022
870 Clouds 28 1006 78 10000 3.6 230 04:56 28.11.2022
871 Clouds 28 1006 82 10000 4.63 220 04:37 28.11.2022
872 Clouds 26 1007 94 10000 2.57 200 03:21 28.11.2022
873 Rain 25 1008 91 10000 3.6 270 00:29 28.11.2022
874 Rain 25 1006 94 10000 2.06 240 21:55 27.11.2022
875 Rain 25 1007 94 10000 2.68 260 20:43 27.11.2022
876 Thunderstorm 25 1007 94 10000 3.58 40 18:37 27.11.2022
877 Rain 28 1007 84 10000 1.03 200 16:22 27.11.2022
878 Clouds 29 1008 77 10000 4.12 300 13:47 27.11.2022
879 Rain 29 1007 80 10000 2.57 290 12:20 27.11.2022
880 Clouds 30 1005 80 10000 6.71 310 09:21 27.11.2022
881 Clouds 32 1006 62 10000 4.12 280 06:30 27.11.2022
882 Clouds 28 1008 90 10000 0.45 290 23:22 26.11.2022
883 Clouds 26 1007 91 10000 1.03 260 20:59 26.11.2022
884 Clouds 26 1007 91 10000 2.06 280 19:50 26.11.2022
885 Clouds 26 1007 91 10000 1.79 330 18:38 26.11.2022
886 Clouds 26 1008 91 10000 2.92 330 16:34 26.11.2022
887 Clouds 27 1009 89 10000 3.09 350 14:48 26.11.2022
888 Clouds 27 1009 90 10000 0.51 330 12:50 26.11.2022
889 Clouds 28 1008 84 10000 1.54 330 10:53 26.11.2022
890 Clouds 29 1006 80 10000 2.57 340 09:40 26.11.2022
891 Clouds 29 1006 79 10000 2.57 150 07:47 26.11.2022
892 Clouds 25 1011 99 10000 2.57 160 22:43 25.11.2022
893 Mist 25 1011 94 8000 2.24 100 21:34 25.11.2022
894 Clouds 26 1009 94 10000 3.09 120 20:20 25.11.2022
895 Rain 26 1010 94 10000 1.03 160 16:51 25.11.2022
896 Clouds 25 1011 94 10000 2.06 140 15:31 25.11.2022
897 Rain 26 1009 94 10000 3.09 140 09:51 25.11.2022
898 Rain 25 1008 94 10000 0 0 08:43 25.11.2022
899 Rain 24 1009 100 10000 1.03 190 07:27 25.11.2022
900 Rain 24 1009 100 10000 1.54 190 06:41 25.11.2022
901 Clouds 31 1012 68 10000 1.54 270 01:25 25.11.2022
902 Clouds 28 1012 78 10000 3.09 30 23:22 24.11.2022
903 Clouds 27 1012 79 10000 3.09 20 22:22 24.11.2022
904 Clouds 27 1011 83 10000 1.6 122 21:32 24.11.2022
905 Clouds 27 1010 84 10000 2.06 170 19:40 24.11.2022
906 Clouds 27 1013 88 10000 1.54 170 17:47 24.11.2022
907 Clouds 28 1012 84 10000 2.06 180 17:23 24.11.2022
908 Clouds 28 1011 80 10000 2.06 190 16:27 24.11.2022
909 Clouds 28 1011 80 10000 2.57 190 14:23 24.11.2022
910 Clouds 30 1011 76 10000 1.03 260 12:39 24.11.2022
911 Clear 30 1010 74 10000 2.06 270 10:52 24.11.2022
912 Rain 32 1011 62 10000 2.57 270 08:45 24.11.2022
913 Clouds 33 1010 59 10000 3.6 270 04:42 24.11.2022
914 Clouds 29 1012 74 10000 2.57 90 00:40 24.11.2022
915 Clouds 26 1013 83 10000 2.57 100 23:32 23.11.2022
916 Rain 25 1012 88 10000 1.54 120 21:47 23.11.2022
917 Clouds 25 1012 88 10000 1.54 130 20:49 23.11.2022
918 Clouds 25 1010 87 10000 1.03 130 19:34 23.11.2022
919 Clouds 25 1011 86 10000 1.79 130 18:54 23.11.2022
920 Clouds 25 1012 88 10000 2.06 140 17:29 23.11.2022
921 Rain 27 1012 88 10000 3.09 130 13:42 23.11.2022
922 Clouds 27 1012 89 10000 3.09 130 13:23 23.11.2022
923 Clouds 28 1011 85 10000 1.54 150 12:23 23.11.2022
924 Clouds 28 1011 85 10000 2.57 170 11:45 23.11.2022
925 Clouds 29 1009 81 10000 2.06 260 10:48 23.11.2022
926 Clouds 29 1009 79 10000 3.6 300 09:57 23.11.2022
927 Rain 29 1010 79 10000 5.81 330 09:27 23.11.2022
928 Rain 29 1010 79 10000 5.81 330 08:58 23.11.2022
929 Rain 29 1010 79 10000 6.17 330 08:35 23.11.2022
930 Rain 30 1009 76 10000 2.57 290 05:19 23.11.2022
931 Clouds 29 1012 78 10000 2.57 140 01:22 23.11.2022
932 Clouds 25 1010 93 10000 2.57 130 22:37 22.11.2022
933 Clouds 26 1009 89 10000 3.09 130 21:49 22.11.2022
934 Rain 26 1009 89 10000 2.57 140 21:23 22.11.2022
935 Rain 26 1009 89 10000 2.57 150 20:43 22.11.2022
936 Clouds 26 1009 93 10000 3.09 140 19:45 22.11.2022
937 Clouds 28 1009 81 10000 1.54 260 17:54 22.11.2022
938 Clouds 28 1010 79 10000 3.6 290 16:38 22.11.2022
939 Clouds 28 1010 83 10000 1.97 297 14:31 22.11.2022
940 Clouds 29 1009 80 10000 4.63 320 12:30 22.11.2022
941 Clouds 31 1007 67 10000 3.09 350 09:28 22.11.2022
942 Clouds 31 1007 67 10000 3.09 350 09:28 22.11.2022
943 Clouds 30 1007 74 10000 5.14 10 07:59 22.11.2022
944 Rain 28 1008 83 10000 3.6 20 06:43 22.11.2022
945 Clouds 29 1012 76 10000 4.12 120 00:23 22.11.2022
946 Clouds 26 1010 88 10000 3.6 130 22:52 21.11.2022
947 Clouds 26 1010 88 10000 3.6 130 22:52 21.11.2022
948 Clouds 26 1010 89 10000 3.58 130 22:23 21.11.2022
949 Clouds 26 1009 89 10000 2.57 130 21:31 21.11.2022
950 Clouds 26 1009 89 10000 2.57 140 19:54 21.11.2022
951 Clouds 26 1009 89 10000 2.57 130 19:35 21.11.2022
952 Clouds 26 1009 89 10000 2.06 130 18:51 21.11.2022
953 Clouds 27 1010 86 10000 2.06 140 17:28 21.11.2022
954 Clouds 27 1011 89 10000 2.57 140 16:42 21.11.2022
955 Clear 27 1011 89 10000 2.57 130 15:58 21.11.2022
956 Clouds 27 1010 89 10000 2.06 100 15:23 21.11.2022
957 Rain 27 1010 92 10000 1.54 150 13:53 21.11.2022
958 Clear 27 1010 85 10000 0 0 12:50 21.11.2022
959 Rain 29 1007 75 10000 2.06 330 09:35 21.11.2022
960 Rain 27 1007 83 10000 1.54 130 07:52 21.11.2022
961 Clouds 28 1009 78 10000 3.09 100 23:57 20.11.2022
962 Clear 26 1007 85 10000 3.09 100 21:39 20.11.2022
963 Clouds 26 1008 86 10000 3.09 100 20:47 20.11.2022
964 Clouds 26 1007 90 10000 2.06 120 19:18 20.11.2022
965 Rain 26 1009 90 10000 2.06 100 17:24 20.11.2022
966 Clouds 27 1010 90 10000 1.54 150 15:44 20.11.2022
967 Clouds 27 1010 90 10000 1.54 150 15:21 20.11.2022
968 Rain 27 1010 89 10000 1.54 140 14:18 20.11.2022
969 Rain 27 1010 85 10000 1.54 270 13:32 20.11.2022
970 Rain 27 1008 83 10000 3.09 190 11:46 20.11.2022
971 Rain 27 1008 83 10000 4.63 190 10:58 20.11.2022
972 Rain 27 1007 76 10000 4.63 180 09:44 20.11.2022
973 Rain 27 1007 76 10000 4.63 180 09:44 20.11.2022
974 Rain 31 1006 69 10000 5.81 320 08:55 20.11.2022
975 Rain 32 1006 67 10000 6.17 320 08:32 20.11.2022
976 Clouds 33 1005 63 10000 5.66 310 07:26 20.11.2022
977 Clouds 32 1009 66 10000 2.57 360 01:28 20.11.2022
978 Clouds 32 1008 68 10000 3.09 30 00:55 20.11.2022
979 Clouds 32 1008 69 10000 3.09 10 00:36 20.11.2022
980 Clouds 31 1008 70 10000 3.09 10 00:18 20.11.2022
981 Clouds 29 1008 82 10000 1.03 20 23:26 19.11.2022
982 Clouds 29 1008 82 10000 1.03 20 23:26 19.11.2022
983 Clouds 28 1008 89 10000 0 0 22:48 19.11.2022
984 Clouds 27 1007 94 10000 0 0 21:57 19.11.2022
985 Clouds 27 1006 89 10000 1.03 350 21:25 19.11.2022
986 Clouds 28 1006 87 10000 1.54 360 20:41 19.11.2022
987 Clouds 28 1006 85 10000 2.06 10 19:51 19.11.2022
988 Clouds 28 1006 83 10000 2.06 360 18:54 19.11.2022
989 Clouds 29 1006 81 10000 2.06 350 17:39 19.11.2022
990 Clouds 29 1006 80 10000 2.06 350 17:18 19.11.2022
991 Clouds 29 1007 80 10000 2.06 350 14:58 19.11.2022
992 Clouds 29 1008 82 10000 1.54 350 13:34 19.11.2022
993 Rain 30 1006 76 10000 3.6 360 11:54 19.11.2022
994 Rain 30 1006 75 10000 4.12 340 09:51 19.11.2022
995 Clouds 33 1006 64 10000 6.17 340 07:53 19.11.2022
996 Clouds 33 1006 58 10000 5.14 260 04:45 19.11.2022
997 Clouds 31 1010 72 10000 1.34 110 00:50 19.11.2022
998 Clouds 28 1008 91 10000 1.54 110 23:34 18.11.2022
999 Clouds 28 1008 91 10000 1.54 110 23:34 18.11.2022
1000 Clouds 28 1008 91 10000 1.54 110 23:34 18.11.2022
1001 Clouds 26 1008 93 10000 1.03 130 22:24 18.11.2022
1002 Clouds 26 1007 93 10000 2.57 150 21:36 18.11.2022
1003 Clouds 26 1007 93 10000 1.03 180 20:58 18.11.2022
1004 Clouds 27 1006 93 10000 0 0 20:25 18.11.2022
1005 Clouds 26 1006 93 10000 1.03 180 19:37 18.11.2022
1006 Clouds 26 1006 93 10000 0.51 180 17:45 18.11.2022
1007 Clouds 27 1009 93 10000 2.06 170 16:32 18.11.2022
1008 Clear 27 1007 85 10000 1.54 240 12:39 18.11.2022
1009 Rain 27 1006 89 10000 2.06 310 10:45 18.11.2022
1010 Thunderstorm 29 1005 79 10000 6.17 150 07:52 18.11.2022
1011 Clouds 33 1006 66 10000 4.12 340 05:37 18.11.2022
1012 Clouds 33 1008 68 10000 3.09 40 02:49 18.11.2022
1013 Clouds 28 1008 78 10000 3.6 110 23:48 17.11.2022
1014 Clouds 25 1008 89 10000 1.54 100 20:48 17.11.2022
1015 Clouds 25 1008 89 10000 1.54 60 19:57 17.11.2022
1016 Clouds 25 1008 89 10000 1.54 70 19:31 17.11.2022
1017 Clouds 25 1008 86 10000 1.03 180 18:34 17.11.2022
1018 Clouds 26 1009 84 10000 2.06 140 17:32 17.11.2022
1019 Clouds 26 1008 84 10000 2.57 130 16:32 17.11.2022
1020 Clear 27 1008 83 10000 2.06 90 12:24 17.11.2022
1021 Clouds 27 1007 78 10000 3.6 90 11:19 17.11.2022
1022 Clouds 32 1005 59 10000 2.06 190 07:35 17.11.2022
1023 Clouds 33 1009 73 10000 0.74 355 01:30 17.11.2022
1024 Clouds 28 1008 78 10000 2.57 160 23:32 16.11.2022
1025 Clouds 26 1007 88 10000 2.06 150 22:24 16.11.2022
1026 Clouds 27 1007 88 10000 3.09 160 20:33 16.11.2022
1027 Clouds 27 1008 91 10000 1.03 220 18:53 16.11.2022
1028 Clouds 27 1008 91 10000 0 0 18:32 16.11.2022
1029 Clouds 28 1008 83 10000 0 0 16:30 16.11.2022
1030 Clear 30 1007 76 10000 4.12 300 12:20 16.11.2022
1031 Clouds 29 1005 76 10000 3.09 190 07:55 16.11.2022
1032 Clouds 31 1009 67 10000 1.54 190 01:46 16.11.2022
1033 Clouds 27 1009 87 10000 2.57 120 23:47 15.11.2022
1034 Clouds 25 1007 93 10000 2.24 150 21:44 15.11.2022
1035 Clouds 25 1007 93 10000 3.6 150 20:25 15.11.2022
1036 Clouds 26 1007 94 10000 2.06 170 18:56 15.11.2022
1037 Clouds 26 1006 90 10000 1.03 330 17:37 15.11.2022
1038 Clouds 26 1007 92 10000 0 0 16:22 15.11.2022
1039 Clouds 26 1008 90 10000 0 0 15:40 15.11.2022
1040 Clouds 26 1008 89 10000 0.51 150 14:41 15.11.2022
1041 Clouds 28 1008 80 10000 2.57 170 12:58 15.11.2022
1042 Rain 28 1006 83 10000 1.54 60 11:22 15.11.2022
1043 Clouds 29 1006 79 10000 1.54 150 09:53 15.11.2022
1044 Rain 32 1007 66 10000 3.6 350 03:48 15.11.2022
1045 Clouds 30 1009 80 10000 1.03 20 00:26 15.11.2022
1046 Clouds 27 1008 89 10000 1.54 50 22:52 14.11.2022
1047 Clouds 26 1007 93 10000 2.06 100 20:53 14.11.2022
1048 Clouds 26 1006 93 10000 1.54 130 20:30 14.11.2022
1049 Clouds 27 1006 90 10000 0 0 18:28 14.11.2022
1050 Rain 27 1008 94 10000 1.03 350 13:21 14.11.2022
1051 Rain 27 1007 89 10000 0 0 11:49 14.11.2022
1052 Rain 27 1007 89 10000 0 0 11:25 14.11.2022
1053 Rain 28 1006 86 10000 3.65 271 08:34 14.11.2022
1054 Rain 28 1006 86 10000 3.65 271 08:34 14.11.2022
1055 Rain 30 1005 79 8000 7.6 300 07:52 14.11.2022
1056 Clouds 33 1008 60 10000 4.12 290 04:31 14.11.2022
1057 Clouds 27 1009 78 10000 2.24 140 23:23 13.11.2022
1058 Rain 26 1009 79 10000 3.09 120 21:42 13.11.2022
1059 Rain 27 1008 79 10000 2.57 120 20:50 13.11.2022
1060 Clouds 27 1007 83 10000 0 0 18:59 13.11.2022
1061 Clouds 28 1008 81 10000 1.54 140 17:50 13.11.2022
1062 Clouds 29 1009 80 10000 1.03 130 16:25 13.11.2022
1063 Clouds 30 1009 76 10000 2.57 210 14:44 13.11.2022
1064 Clouds 30 1009 73 10000 2.06 250 12:58 13.11.2022
1065 Rain 30 1008 70 10000 2.57 250 12:24 13.11.2022
1066 Rain 31 1007 67 10000 4.12 310 10:42 13.11.2022
1067 Clouds 31 1007 66 10000 3.6 260 06:29 13.11.2022
1068 Clouds 31 1010 67 10000 2.57 350 00:34 13.11.2022
1069 Clouds 27 1009 87 10000 1.54 330 21:59 12.11.2022
1070 Clouds 27 1008 89 10000 1.03 340 21:23 12.11.2022
1071 Clouds 28 1010 83 10000 1.54 330 19:52 12.11.2022
1072 Clouds 29 1008 75 10000 2.57 350 17:33 12.11.2022
1073 Clouds 29 1009 75 10000 2.57 350 16:21 12.11.2022
1074 Clouds 30 1009 75 10000 3.09 350 14:50 12.11.2022
1075 Clear 30 1007 72 10000 2.57 340 11:23 12.11.2022
1076 Clouds 32 1006 67 10000 5.14 340 08:25 12.11.2022
1077 Clouds 30 1010 79 10000 2.06 80 00:41 12.11.2022
1078 Clouds 26 1008 92 10000 1.54 70 21:35 11.11.2022
1079 Clouds 26 1008 92 10000 1.03 50 20:45 11.11.2022
1080 Clouds 26 1007 94 10000 0.51 50 19:29 11.11.2022
1081 Clouds 27 1007 89 10000 1.54 50 18:41 11.11.2022
1082 Clouds 27 1008 94 10000 0.51 20 17:41 11.11.2022
1083 Clouds 26 1010 92 10000 0 0 15:36 11.11.2022
1084 Clouds 27 1011 88 10000 1.54 180 14:20 11.11.2022
1085 Clouds 27 1008 88 10000 0 0 12:46 11.11.2022
1086 Clouds 29 1006 80 10000 1.54 230 09:37 11.11.2022
1087 Rain 30 1007 75 10000 2.57 250 08:27 11.11.2022
1088 Clouds 33 1012 59 10000 4.63 340 03:55 11.11.2022
1089 Clouds 27 1009 81 10000 1.03 70 22:55 10.11.2022
1090 Clouds 26 1008 83 10000 0.89 60 21:51 10.11.2022
1091 Clear 26 1008 83 10000 1.03 60 21:30 10.11.2022
1092 Clouds 26 1010 84 10000 1.03 60 20:49 10.11.2022
1093 Clouds 26 1010 84 10000 1.54 90 20:20 10.11.2022
1094 Clouds 26 1010 82 10000 3.58 60 19:34 10.11.2022
1095 Clouds 27 1008 83 10000 3.6 50 18:19 10.11.2022
1096 Clouds 28 1011 88 10000 2.06 40 16:26 10.11.2022
1097 Clouds 29 1009 81 10000 2.57 340 13:43 10.11.2022
1098 Clouds 29 1008 76 10000 3.09 320 11:33 10.11.2022
1099 Thunderstorm 29 1007 61 10000 6.17 120 08:33 10.11.2022
1100 Clouds 32 1010 63 10000 1.79 250 01:31 10.11.2022
1101 Clouds 29 1010 70 10000 1.54 280 23:34 09.11.2022
1102 Clouds 29 1013 77 10000 2.24 330 22:35 09.11.2022
1103 Clouds 29 1012 78 10000 1.54 280 20:48 09.11.2022
1104 Clouds 29 1011 78 10000 3.58 310 20:29 09.11.2022
1105 Clouds 29 1011 78 10000 3.6 310 19:42 09.11.2022
1106 Clouds 29 1008 78 10000 4.12 310 18:51 09.11.2022
1107 Clouds 29 1012 77 10000 4.12 310 16:19 09.11.2022
1108 Clouds 29 1010 76 10000 2.06 290 14:48 09.11.2022
1109 Clouds 30 1010 76 10000 3.6 290 14:25 09.11.2022
1110 Clear 30 1009 76 10000 3.6 280 13:19 09.11.2022
1111 Clear 29 1008 77 10000 4.92 300 11:46 09.11.2022
1112 Clouds 33 1007 61 10000 6.17 300 08:42 09.11.2022
1113 Clouds 33 1007 54 10000 6.17 310 07:46 09.11.2022
1114 Clouds 33 1007 54 10000 6.17 310 07:46 09.11.2022
1115 Clouds 33 1007 54 10000 6.17 310 07:46 09.11.2022
1116 Clouds 31 1011 66 10000 3.58 270 00:56 09.11.2022
1117 Clouds 29 1010 74 10000 2.06 280 21:46 08.11.2022
1118 Clouds 30 1013 70 10000 2.57 300 21:28 08.11.2022
1119 Clouds 30 1008 74 10000 3.09 290 20:41 08.11.2022
1120 Clouds 30 1011 76 10000 4.12 300 19:37 08.11.2022
1121 Clouds 30 1008 75 10000 4.63 300 18:50 08.11.2022
1122 Clouds 30 1009 76 10000 3.6 320 17:26 08.11.2022
1123 Clouds 30 1013 76 10000 4.63 310 14:56 08.11.2022
1124 Clouds 30 1009 77 10000 4.63 290 13:42 08.11.2022
1125 Clouds 29 1009 74 10000 4.63 290 13:23 08.11.2022
1126 Clouds 32 1011 61 10000 6.17 290 09:43 08.11.2022
1127 Clouds 33 1006 59 10000 8.23 300 07:25 08.11.2022
1128 Clouds 32 1010 66 10000 2.57 260 00:34 08.11.2022
1129 Clouds 29 1009 80 10000 1.03 260 22:44 07.11.2022
1130 Clouds 29 1008 79 10000 2.57 290 21:32 07.11.2022
1131 Clouds 29 1008 79 10000 2.57 280 20:44 07.11.2022
1132 Clouds 30 1011 73 10000 4.63 280 19:30 07.11.2022
1133 Clouds 29 1008 80 10000 3.6 280 17:39 07.11.2022
1134 Clear 29 1010 80 10000 3.09 270 15:36 07.11.2022
1135 Clear 30 1010 76 10000 4.12 270 14:54 07.11.2022
1136 Clouds 29 1009 74 10000 3.09 260 12:59 07.11.2022
1137 Clouds 28 1009 71 10000 1.03 310 11:49 07.11.2022
1138 Clouds 30 1009 54 10000 5.66 70 09:49 07.11.2022
1139 Clouds 34 1011 55 10000 7.6 300 08:18 07.11.2022
1140 Clouds 34 1008 52 10000 5.14 290 06:27 07.11.2022
1141 Clouds 31 1012 67 10000 1.54 320 01:42 07.11.2022
1142 Clouds 26 1011 94 10000 0 0 22:39 06.11.2022
1143 Clouds 26 1010 94 10000 0.51 340 21:21 06.11.2022
1144 Clear 26 1014 94 10000 2.06 340 20:36 06.11.2022
1145 Clear 27 1014 83 10000 1.54 340 19:56 06.11.2022
1146 Clear 27 1009 89 10000 2.06 330 18:47 06.11.2022
1147 Clear 27 1009 89 10000 2.06 330 18:20 06.11.2022
1148 Clear 28 1009 85 10000 2.06 350 17:22 06.11.2022
1149 Clear 27 1010 85 10000 2.24 360 16:53 06.11.2022
1150 Clear 27 1010 89 10000 1.54 360 15:56 06.11.2022
1151 Clear 26 1010 89 10000 1.54 360 14:43 06.11.2022
1152 Clear 25 1010 88 10000 2.06 10 12:43 06.11.2022
1153 Clouds 23 1009 88 9000 4.63 100 10:52 06.11.2022
1154 Clouds 32 1013 64 10000 5.14 300 09:51 06.11.2022
1155 Clouds 34 1009 55 10000 5.66 310 06:40 06.11.2022
1156 Clouds 27 1012 83 10000 2.06 70 23:23 05.11.2022
1157 Clouds 26 1010 78 10000 2.06 190 20:40 05.11.2022
1158 Clouds 26 1010 73 10000 0 0 18:22 05.11.2022
1159 Clouds 26 1010 73 10000 0 0 18:22 05.11.2022
1160 Clouds 28 1015 63 10000 2.06 310 16:26 05.11.2022
1161 Clear 28 1012 59 10000 0.51 90 14:34 05.11.2022
1162 Clouds 28 1012 57 10000 1.54 150 13:29 05.11.2022
1163 Clear 31 1010 67 10000 3.6 300 10:54 05.11.2022
1164 Clouds 33 1009 62 10000 6.17 300 08:54 05.11.2022
1165 Clouds 33 1009 62 10000 5.66 310 07:23 05.11.2022
1166 Clouds 34 1009 60 10000 6.17 310 06:54 05.11.2022
1167 Clouds 27 1013 88 10000 1.54 50 23:45 04.11.2022
1168 Clouds 27 1013 88 10000 1.54 50 23:18 04.11.2022
1169 Clouds 26 1011 94 10000 1.03 360 20:33 04.11.2022
1170 Clouds 26 1011 94 10000 1.03 360 20:32 04.11.2022
1171 Clouds 26 1010 93 10000 1.03 50 19:24 04.11.2022
1172 Clouds 26 1011 89 10000 1.03 60 17:24 04.11.2022
1173 Clear 27 1012 94 10000 2.06 160 13:53 04.11.2022
1174 Rain 28 1011 89 10000 1.54 200 12:27 04.11.2022
1175 Rain 28 1011 83 10000 3.09 200 10:51 04.11.2022
1176 Rain 31 1009 65 10000 4.63 360 08:53 04.11.2022
1177 Clouds 32 1009 63 10000 4.63 360 07:46 04.11.2022
1178 Clouds 34 1010 60 10000 3.6 30 05:24 04.11.2022
1179 Clouds 27 1013 79 10000 2.57 140 23:28 03.11.2022
1180 Clouds 26 1012 79 10000 4.02 150 20:51 03.11.2022
1181 Clouds 26 1012 79 10000 4.12 150 20:29 03.11.2022
1182 Rain 26 1012 79 10000 4.63 170 19:40 03.11.2022
1183 Rain 26 1012 84 10000 5.66 150 17:51 03.11.2022
1184 Rain 25 1012 82 10000 2.57 130 16:53 03.11.2022
1185 Clouds 29 1012 76 10000 4.63 20 14:20 03.11.2022
1186 Clouds 30 1011 74 10000 5.14 360 12:39 03.11.2022
1187 Clear 31 1010 70 10000 3.6 350 11:51 03.11.2022
1188 Clouds 33 1008 55 10000 4.63 350 09:43 03.11.2022
1189 Clouds 35 1008 49 10000 4.63 320 07:43 03.11.2022
1190 Clouds 27 1009 89 10000 2.06 40 21:30 02.11.2022
1191 Clouds 27 1008 88 10000 3.09 20 20:40 02.11.2022
1192 Clouds 27 1008 89 10000 2.57 30 19:59 02.11.2022
1193 Clouds 29 1010 81 10000 2.57 90 17:29 02.11.2022
1194 Clouds 29 1010 77 10000 5.14 110 16:19 02.11.2022
1195 Clear 30 1009 77 10000 6.17 290 14:53 02.11.2022
1196 Clear 30 1009 75 10000 5.66 290 12:45 02.11.2022
1197 Clear 30 1008 76 10000 5.14 280 11:50 02.11.2022
1198 Clear 32 1006 69 10000 7.6 290 09:22 02.11.2022
1199 Clouds 34 1007 62 10000 8.23 300 05:36 02.11.2022
1200 Clouds 31 1010 76 10000 3.09 220 00:27 02.11.2022
1201 Clouds 29 1008 80 10000 2.57 270 22:19 01.11.2022
1202 Clouds 29 1008 80 10000 2.06 280 21:41 01.11.2022
1203 Clouds 28 1007 81 10000 2.68 250 20:26 01.11.2022
1204 Clouds 28 1007 82 10000 3.09 250 19:54 01.11.2022
1205 Clouds 29 1007 82 10000 2.57 270 19:35 01.11.2022
1206 Clear 29 1007 81 10000 4.12 270 17:33 01.11.2022
1207 Clear 29 1008 80 10000 4.02 270 16:22 01.11.2022
1208 Clear 29 1009 77 10000 3.6 280 14:26 01.11.2022
1209 Clear 30 1008 77 10000 4.12 270 12:28 01.11.2022
1210 Clear 31 1007 72 10000 5.14 270 11:24 01.11.2022
1211 Clouds 31 1006 68 10000 5.36 290 10:57 01.11.2022
1212 Clouds 34 1005 63 10000 7.72 290 08:44 01.11.2022
1213 Clouds 34 1002 64 10000 7.6 300 07:31 01.11.2022
1214 Clouds 34 1003 61 10000 7.2 300 06:48 01.11.2022
1215 Clouds 35 1006 62 10000 7.2 310 05:58 01.11.2022
1216 Clouds 34 1009 63 10000 4.12 310 03:38 01.11.2022
1217 Clouds 28 1008 83 10000 2.57 270 21:59 31.10.2022
1218 Clouds 27 1008 84 10000 2.57 270 20:52 31.10.2022
1219 Clouds 28 1007 82 10000 2.57 270 19:55 31.10.2022
1220 Clouds 29 1008 80 10000 3.6 260 17:58 31.10.2022
1221 Clouds 29 1008 80 10000 4.63 260 16:43 31.10.2022
1222 Clear 30 1009 72 10000 3.6 270 13:49 31.10.2022
1223 Clear 30 1007 71 10000 3.6 270 11:54 31.10.2022
1224 Clear 34 1006 49 10000 5.66 300 09:18 31.10.2022
1225 Clear 35 1007 38 10000 4.63 310 05:34 31.10.2022
1226 Clouds 32 1010 58 10000 1.54 270 02:27 31.10.2022
1227 Clouds 28 1010 85 10000 1.34 140 23:19 30.10.2022
1228 Clouds 27 1009 89 10000 1.03 230 21:44 30.10.2022
1229 Clouds 28 1007 83 10000 2.06 230 20:37 30.10.2022
1230 Clouds 28 1007 85 10000 1.54 250 18:40 30.10.2022
1231 Clouds 29 1009 76 10000 2.57 260 16:18 30.10.2022
1232 Clouds 29 1009 75 10000 3.6 270 14:22 30.10.2022
1233 Clear 30 1007 72 10000 4.12 270 13:21 30.10.2022
1234 Clear 30 1007 71 10000 4.12 280 11:47 30.10.2022
1235 Clear 34 1005 38 10000 5.14 300 09:38 30.10.2022
1236 Clear 34 1005 40 10000 5.66 300 08:39 30.10.2022
1237 Clouds 34 1008 49 10000 3.6 300 04:30 30.10.2022
1238 Clouds 29 1008 78 10000 2.57 250 00:28 30.10.2022
1239 Clouds 28 1008 84 10000 2.06 250 23:45 29.10.2022
1240 Clouds 28 1007 82 10000 2.06 300 21:29 29.10.2022
1241 Clouds 29 1007 82 10000 2.06 260 18:34 29.10.2022
1242 Clouds 29 1008 76 10000 2.24 260 17:21 29.10.2022
1243 Clouds 29 1008 70 10000 2.24 330 15:38 29.10.2022
1244 Rain 30 1008 68 10000 2.57 330 14:51 29.10.2022
1245 Rain 29 1007 71 10000 4.12 290 12:36 29.10.2022
1246 Rain 29 1006 68 10000 7.15 330 11:54 29.10.2022
1247 Clouds 36 1006 50 10000 4.73 355 07:38 29.10.2022
1248 Clouds 34 1006 56 10000 5.66 290 06:46 29.10.2022
1249 Clouds 33 1007 56 10000 5.14 320 05:53 29.10.2022
1250 Clouds 27 1007 88 10000 0.51 310 23:43 28.10.2022
1251 Clouds 26 1005 89 10000 2.06 330 21:29 28.10.2022
1252 Clouds 27 1006 86 10000 1.03 320 19:36 28.10.2022
1253 Clouds 28 1006 78 10000 1.54 310 18:32 28.10.2022
1254 Clouds 29 1007 77 10000 2.57 290 17:26 28.10.2022
1255 Clear 30 1007 75 10000 2.57 300 14:46 28.10.2022
1256 Clear 30 1006 72 10000 3.58 300 13:20 28.10.2022
1257 Clear 31 1005 64 10000 3.6 300 11:54 28.10.2022
1258 Clear 31 1005 64 10000 3.6 300 11:31 28.10.2022
1259 Clouds 31 1005 60 10000 3.6 310 10:44 28.10.2022
1260 Clouds 34 1004 53 10000 3.6 330 08:40 28.10.2022
1261 Clouds 34 1007 55 10000 4.63 320 05:59 28.10.2022
1262 Clouds 31 1008 71 10000 3.6 330 00:47 28.10.2022
1263 Clouds 29 1007 80 10000 3.09 310 23:45 27.10.2022
1264 Clouds 28 1006 83 10000 3.09 300 22:32 27.10.2022
1265 Clouds 28 1006 82 10000 3.6 300 20:53 27.10.2022
1266 Clouds 28 1007 80 10000 3.09 290 18:30 27.10.2022
1267 Clouds 29 1006 79 10000 4.63 300 16:38 27.10.2022
1268 Clear 30 1004 76 10000 5.36 300 11:35 27.10.2022
1269 Clouds 33 1005 63 10000 5.66 320 07:41 27.10.2022
1270 Clouds 32 1007 67 10000 4.63 300 02:50 27.10.2022
1271 Clouds 29 1007 79 10000 4.63 300 23:53 26.10.2022
1272 Clouds 29 1007 80 10000 4.63 310 22:41 26.10.2022
1273 Clouds 28 1006 78 10000 4.12 310 21:33 26.10.2022
1274 Clouds 29 1006 81 10000 3.6 300 18:21 26.10.2022
1275 Clouds 29 1006 78 10000 4.63 310 14:54 26.10.2022
1276 Clouds 29 1006 77 10000 4.63 290 13:34 26.10.2022
1277 Clouds 30 1006 75 10000 4.63 290 12:32 26.10.2022
1278 Clouds 32 1005 68 10000 6.71 300 09:20 26.10.2022
1279 Clouds 32 1004 67 10000 6.71 310 08:53 26.10.2022
1280 Clouds 33 1004 64 10000 6.17 310 07:30 26.10.2022
1281 Clouds 30 1009 72 10000 5.66 310 00:38 26.10.2022
1282 Clouds 29 1008 74 10000 4.63 300 22:59 25.10.2022
1283 Clouds 28 1007 81 10000 4.63 300 21:46 25.10.2022
1284 Clouds 28 1006 81 10000 4.63 310 20:46 25.10.2022
1285 Clouds 28 1007 82 10000 4.63 300 18:57 25.10.2022
1286 Clouds 29 1009 81 10000 4.12 290 17:49 25.10.2022
1287 Clouds 29 1007 77 10000 4.12 280 13:26 25.10.2022
1288 Clouds 30 1006 71 10000 5.14 300 11:38 25.10.2022
1289 Clouds 30 1006 71 10000 5.14 300 11:38 25.10.2022
1290 Clouds 31 1006 67 10000 6.17 300 10:36 25.10.2022
1291 Clouds 33 1006 62 10000 7.72 300 08:44 25.10.2022
1292 Clouds 33 1006 61 10000 7.72 300 08:18 25.10.2022
1293 Clouds 33 1006 59 10000 7.72 300 07:54 25.10.2022
1294 Clouds 33 1007 59 10000 7.72 300 06:53 25.10.2022
1295 Clouds 32 1010 64 10000 7.2 290 03:38 25.10.2022
1296 Clouds 30 1009 75 10000 6.17 290 00:33 25.10.2022
1297 Clouds 29 1007 74 10000 6.71 310 22:29 24.10.2022
1298 Clouds 29 1007 78 10000 6.71 310 21:50 24.10.2022
1299 Clouds 29 1006 80 10000 6.69 310 21:32 24.10.2022
1300 Clouds 29 1006 80 10000 4.63 330 20:41 24.10.2022
1301 Clouds 29 1006 80 10000 4.12 310 18:52 24.10.2022
1302 Clouds 29 1007 81 10000 2.57 300 16:59 24.10.2022
1303 Clouds 29 1007 81 10000 3.6 290 16:20 24.10.2022
1304 Clouds 30 1007 80 10000 3.09 250 14:21 24.10.2022
1305 Clouds 29 1006 78 10000 3.09 290 12:59 24.10.2022
1306 Clouds 32 1004 72 10000 7.6 290 10:27 24.10.2022
1307 Clouds 33 1005 68 10000 8.23 310 07:56 24.10.2022
1308 Clouds 29 1007 78 10000 6.17 300 23:46 23.10.2022
1309 Clouds 29 1005 81 10000 6.71 290 20:42 23.10.2022
1310 Clouds 29 1005 80 10000 7.2 300 19:34 23.10.2022
1311 Clouds 29 1006 78 10000 5.66 310 17:30 23.10.2022
1312 Clouds 29 1006 78 10000 5.66 310 17:30 23.10.2022
1313 Clouds 29 1007 78 10000 6.17 310 16:41 23.10.2022
1314 Clouds 29 1007 78 10000 4.63 300 15:19 23.10.2022
1315 Clouds 30 1005 80 10000 5.36 290 12:31 23.10.2022
1316 Clouds 31 1005 71 10000 6.71 290 10:58 23.10.2022
1317 Clouds 33 1006 67 10000 7.72 310 06:59 23.10.2022
1318 Clouds 28 1007 84 10000 3.6 280 23:35 22.10.2022
1319 Clouds 29 1007 79 10000 5.14 280 22:30 22.10.2022
1320 Clouds 28 1006 85 10000 4.12 270 21:41 22.10.2022
1321 Clouds 29 1006 82 10000 5.66 270 20:29 22.10.2022
1322 Clouds 29 1006 84 10000 5.14 280 19:31 22.10.2022
1323 Clouds 29 1007 80 10000 4.63 280 18:23 22.10.2022
1324 Clouds 30 1008 78 10000 5.36 290 16:50 22.10.2022
1325 Clear 29 1008 77 10000 5.36 300 15:21 22.10.2022
1326 Clouds 29 1008 78 10000 4.92 310 14:34 22.10.2022
1327 Clear 30 1008 75 10000 3.6 280 12:35 22.10.2022
1328 Clouds 33 1006 60 10000 8.75 290 09:49 22.10.2022
1329 Clouds 33 1007 61 10000 8.23 300 08:37 22.10.2022
1330 Clouds 34 1008 60 10000 7.72 300 06:28 22.10.2022
1331 Clouds 31 1012 73 10000 2.57 170 01:43 22.10.2022
1332 Clouds 29 1009 83 10000 1.54 260 22:53 21.10.2022
1333 Clouds 29 1007 82 10000 2.57 260 21:34 21.10.2022
1334 Clouds 29 1007 80 10000 2.57 260 20:47 21.10.2022
1335 Clouds 29 1008 81 10000 3.09 270 18:30 21.10.2022
1336 Clouds 30 1009 80 10000 4.63 280 14:47 21.10.2022
1337 Clouds 30 1008 80 10000 4.47 270 13:43 21.10.2022
1338 Clouds 31 1007 75 10000 4.92 280 11:55 21.10.2022
1339 Clouds 32 1007 69 10000 7.15 290 10:26 21.10.2022
1340 Clouds 33 1007 71 10000 6.4 272 09:33 21.10.2022
1341 Clouds 34 1007 67 10000 7.2 300 08:26 21.10.2022
1342 Clouds 34 1010 68 10000 4.63 290 05:56 21.10.2022
1343 Clear 25 1011 88 10000 0.51 90 23:59 20.10.2022
1344 Clouds 25 1009 88 10000 1.03 190 21:23 20.10.2022
1345 Clouds 25 1009 83 10000 0 0 19:45 20.10.2022
1346 Clouds 25 1010 88 10000 0 0 18:51 20.10.2022
1347 Clouds 25 1011 83 10000 2.57 50 17:48 20.10.2022
1348 Clouds 27 1012 83 10000 1.54 150 15:37 20.10.2022
1349 Rain 28 1011 76 10000 5.66 160 12:33 20.10.2022
1350 Clouds 31 1009 65 10000 4.47 290 11:53 20.10.2022
1351 Clouds 32 1009 66 10000 4.63 290 10:56 20.10.2022
1352 Clouds 33 1008 54 10000 6.17 300 09:35 20.10.2022
1353 Clouds 33 1010 53 10000 4.47 320 07:44 20.10.2022
1354 Clouds 32 1012 64 10000 2.06 290 03:30 20.10.2022
1355 Clouds 26 1012 83 10000 2.06 140 23:53 19.10.2022
1356 Clear 25 1011 88 10000 1.34 110 22:32 19.10.2022
1357 Clouds 25 1010 88 10000 1.54 110 21:39 19.10.2022
1358 Clouds 25 1010 88 10000 1.54 90 20:23 19.10.2022
1359 Clouds 25 1011 88 10000 2.06 130 17:52 19.10.2022
1360 Clear 26 1011 88 10000 1.03 140 16:49 19.10.2022
1361 Clear 27 1011 84 10000 2.06 130 14:35 19.10.2022
1362 Clouds 27 1010 79 10000 0.99 331 12:42 19.10.2022
1363 Clouds 30 1009 65 10000 3.09 190 09:26 19.10.2022
1364 Clouds 28 1010 77 10000 4.12 170 07:31 19.10.2022
1365 Clouds 31 1012 67 10000 3.6 300 02:46 19.10.2022
1366 Clouds 28 1011 83 10000 1.54 360 00:21 19.10.2022
1367 Clouds 26 1009 94 10000 0 0 22:41 18.10.2022
1368 Clouds 26 1009 94 10000 0.89 40 21:32 18.10.2022
1369 Clouds 26 1013 94 10000 1.03 40 20:31 18.10.2022
1370 Clouds 26 1009 94 10000 1.03 40 19:22 18.10.2022
1371 Clouds 27 1010 88 10000 0 0 16:59 18.10.2022
1372 Clouds 27 1010 88 10000 1.03 330 16:19 18.10.2022
1373 Clouds 29 1010 81 10000 1.54 310 13:49 18.10.2022
1374 Clouds 29 1008 80 10000 3.58 290 11:48 18.10.2022
1375 Clouds 29 1008 78 10000 4.47 310 11:19 18.10.2022
1376 Clouds 33 1007 56 10000 3.09 330 09:27 18.10.2022
1377 Clouds 31 1012 65 10000 2.06 50 07:20 18.10.2022
1378 Clouds 27 1012 87 5000 2.06 10 00:49 18.10.2022
1379 Clouds 27 1012 87 10000 1.54 350 21:50 17.10.2022
1380 Clouds 27 1008 85 10000 1.79 330 20:50 17.10.2022
1381 Clouds 27 1008 85 10000 2.06 330 20:30 17.10.2022
1382 Clouds 27 1011 85 10000 1.54 330 19:49 17.10.2022
1383 Clouds 27 1009 85 10000 1.54 330 18:42 17.10.2022
1384 Clouds 28 1010 85 10000 1.03 320 16:38 17.10.2022
1385 Clear 28 1009 82 10000 2.06 290 15:29 17.10.2022
1386 Clear 29 1009 77 10000 2.06 290 13:59 17.10.2022
1387 Clouds 32 1008 58 10000 5.14 30 10:29 17.10.2022
1388 Clouds 33 1012 59 10000 0 0 03:58 17.10.2022
1389 Clouds 26 1011 89 10000 2.06 100 23:25 16.10.2022
1390 Clouds 26 1010 94 10000 1.03 70 21:46 16.10.2022
1391 Clouds 27 1010 89 10000 1.54 100 20:33 16.10.2022
1392 Clouds 27 1010 89 10000 1.03 100 19:45 16.10.2022
1393 Clouds 27 1011 89 10000 0.89 250 17:50 16.10.2022
1394 Clouds 28 1011 78 10000 1.03 250 16:33 16.10.2022
1395 Clear 28 1011 78 10000 1.03 250 15:56 16.10.2022
1396 Clear 28 1011 78 10000 0.51 90 14:23 16.10.2022
1397 Clear 29 1010 70 10000 1.54 240 12:21 16.10.2022
1398 Rain 29 1011 53 10000 5.36 150 10:27 16.10.2022
1399 Clouds 32 1008 67 10000 5.14 320 08:35 16.10.2022
1400 Clouds 30 1012 79 10000 1.54 250 00:48 16.10.2022
1401 Clouds 27 1010 88 10000 0.51 140 22:42 15.10.2022
1402 Clouds 28 1009 86 10000 1.54 250 21:25 15.10.2022
1403 Clouds 27 1009 89 10000 1.34 290 20:43 15.10.2022
1404 Clouds 28 1012 84 10000 1.54 290 18:44 15.10.2022
1405 Clouds 29 1010 78 10000 2.57 270 15:49 15.10.2022
1406 Clouds 28 1010 83 10000 4.16 317 14:39 15.10.2022
1407 Clouds 30 1008 70 10000 5.81 20 11:57 15.10.2022
1408 Clouds 31 1011 62 10000 6.17 20 10:47 15.10.2022
1409 Clouds 33 1011 59 10000 4.63 340 08:54 15.10.2022
1410 Clouds 32 1011 63 10000 0.89 204 02:42 15.10.2022
1411 Clouds 27 1010 85 10000 1.54 140 23:56 14.10.2022
1412 Clouds 27 1009 89 10000 1.54 70 22:23 14.10.2022
1413 Clouds 27 1008 90 10000 0 0 21:29 14.10.2022
1414 Clouds 27 1008 90 10000 2.57 80 20:18 14.10.2022
1415 Clouds 28 1009 84 10000 1.54 110 16:49 14.10.2022
1416 Clouds 30 1008 76 10000 3.09 300 13:28 14.10.2022
1417 Clouds 31 1008 65 10000 3.09 320 12:19 14.10.2022
1418 Clouds 33 1006 57 10000 4.02 320 09:40 14.10.2022
1419 Clouds 33 1007 56 10000 3.6 340 07:22 14.10.2022
1420 Clouds 33 1008 59 10000 4.47 320 06:18 14.10.2022
1421 Clouds 32 1009 60 10000 4.63 320 05:42 14.10.2022
1422 Clouds 32 1010 57 10000 3.09 340 04:29 14.10.2022
1423 Clear 29 1010 78 10000 1.03 30 00:41 14.10.2022
1424 Clear 27 1009 88 10000 0.51 360 22:31 13.10.2022
1425 Clouds 27 1008 88 10000 2.06 360 21:26 13.10.2022
1426 Clouds 27 1008 83 10000 1.54 340 20:18 13.10.2022
1427 Clouds 28 1008 84 10000 2.06 340 19:37 13.10.2022
1428 Clouds 28 1008 83 10000 2.06 340 18:43 13.10.2022
1429 Clouds 28 1009 78 10000 3.09 340 17:20 13.10.2022
1430 Clouds 29 1009 78 10000 3.58 300 15:48 13.10.2022
1431 Clouds 29 1008 78 10000 3.6 310 14:25 13.10.2022
1432 Clear 30 1008 67 10000 4.63 290 12:50 13.10.2022
1433 Clear 31 1007 60 10000 6.17 310 11:36 13.10.2022
1434 Clouds 33 1017 55 10000 5.36 310 09:40 13.10.2022
1435 Clouds 33 1006 55 10000 4.63 310 08:19 13.10.2022
1436 Clouds 32 1007 62 10000 4.63 310 07:33 13.10.2022
1437 Clouds 31 1015 70 10000 2.57 300 01:53 13.10.2022
1438 Clouds 30 1010 74 10000 3.09 310 00:57 13.10.2022
1439 Clouds 27 1008 89 10000 2.06 290 22:47 12.10.2022
1440 Clouds 27 1008 89 10000 1.54 300 22:28 12.10.2022
1441 Clouds 28 1007 87 10000 2.68 320 21:22 12.10.2022
1442 Clouds 27 1007 89 10000 3.09 320 20:52 12.10.2022
1443 Clouds 27 1007 86 10000 3.09 300 19:38 12.10.2022
1444 Clouds 27 1009 86 10000 2.57 290 18:26 12.10.2022
1445 Clouds 27 1009 86 10000 3.09 280 17:47 12.10.2022
1446 Clouds 27 1009 86 10000 3.09 280 17:47 12.10.2022
1447 Clear 28 1009 84 10000 2.57 270 15:45 12.10.2022
1448 Clouds 29 1008 81 10000 3.6 280 13:57 12.10.2022
1449 Clear 29 1008 80 10000 3.6 270 13:22 12.10.2022
1450 Clouds 32 1007 60 10000 6.69 290 09:45 12.10.2022
1451 Clouds 31 1012 66 10000 5.66 300 07:59 12.10.2022
1452 Clouds 32 1013 66 10000 3.6 280 07:39 12.10.2022
1453 Clouds 31 1012 69 10000 3.09 250 06:43 12.10.2022
1454 Clouds 29 1010 79 10000 2.57 290 00:59 12.10.2022
1455 Clouds 27 1008 89 10000 2.06 310 22:19 11.10.2022
1456 Clouds 27 1011 89 10000 2.24 320 20:54 11.10.2022
1457 Clouds 28 1007 83 10000 2.06 310 19:43 11.10.2022
1458 Clouds 29 1008 76 10000 3.6 270 16:50 11.10.2022
1459 Clouds 29 1008 80 10000 4.63 280 14:48 11.10.2022
1460 Clouds 29 1008 80 10000 4.12 280 13:23 11.10.2022
1461 Clouds 32 1006 64 10000 5.66 290 10:29 11.10.2022
1462 Clouds 33 1006 51 10000 6.17 300 09:36 11.10.2022
1463 Clouds 33 1006 58 10000 6.17 300 07:53 11.10.2022
1464 Clouds 31 1016 64 10000 2.57 330 02:35 11.10.2022
1465 Clouds 28 1010 87 10000 0.51 120 00:31 11.10.2022
1466 Clouds 27 1008 89 10000 1.54 330 21:40 10.10.2022
1467 Clouds 28 1008 84 10000 2.06 330 20:30 10.10.2022
1468 Clouds 29 1009 81 10000 3.6 320 18:38 10.10.2022
1469 Clouds 29 1014 80 10000 4.12 330 17:24 10.10.2022
1470 Clouds 29 1010 80 10000 4.12 330 16:20 10.10.2022
1471 Clear 30 1009 76 10000 3.09 270 13:31 10.10.2022
1472 Clear 30 1009 76 10000 2.57 270 12:21 10.10.2022
1473 Clouds 33 1007 55 10000 4.63 320 09:23 10.10.2022
1474 Clouds 34 1009 49 10000 5.14 120 05:52 10.10.2022
1475 Clouds 33 1010 52 10000 4.63 120 05:27 10.10.2022
1476 Clouds 28 1011 88 10000 2.06 160 00:41 10.10.2022
1477 Clouds 26 1010 94 10000 1.54 90 23:36 09.10.2022
1478 Clear 27 1010 89 10000 0 0 22:24 09.10.2022
1479 Rain 27 1015 89 10000 0.45 20 21:26 09.10.2022
1480 Rain 27 1010 89 10000 1.03 20 20:35 09.10.2022
1481 Clouds 27 1010 89 10000 0 0 19:47 09.10.2022
1482 Clouds 27 1010 86 10000 1.54 330 18:48 09.10.2022
1483 Clouds 27 1011 90 10000 2.57 300 17:35 09.10.2022
1484 Clouds 27 1011 90 10000 2.06 330 16:44 09.10.2022
1485 Clouds 27 1011 89 10000 1.54 330 16:19 09.10.2022
1486 Clear 27 1011 89 10000 0 0 14:49 09.10.2022
1487 Clear 27 1011 89 10000 1.03 320 14:26 09.10.2022
1488 Clear 27 1010 89 10000 4.12 140 12:48 09.10.2022
1489 Rain 27 1009 89 10000 3.6 110 11:22 09.10.2022
1490 Clouds 32 1010 70 10000 4.12 350 08:32 09.10.2022
1491 Rain 29 1013 73 10000 3.58 110 05:44 09.10.2022
1492 Clouds 32 1012 62 10000 3.6 100 03:22 09.10.2022
1493 Clouds 25 1011 93 10000 1.79 150 00:42 09.10.2022
1494 Clouds 25 1011 89 10000 1.54 120 23:32 08.10.2022
1495 Clouds 25 1010 88 6396 1.79 110 22:35 08.10.2022
1496 Clouds 25 1009 88 10000 1.54 50 20:37 08.10.2022
1497 Clouds 25 1010 88 10000 0.51 80 19:37 08.10.2022
1498 Rain 25 1011 88 10000 2.06 60 17:39 08.10.2022
1499 Rain 23 1012 94 10000 3.09 360 15:35 08.10.2022
1500 Clouds 30 1013 75 10000 2.06 270 13:33 08.10.2022
1501 Clouds 30 1008 76 10000 4.63 300 11:24 08.10.2022
1502 Clouds 32 1008 69 10000 5.66 300 10:33 08.10.2022
1503 Clouds 33 1007 58 10000 5.66 310 09:35 08.10.2022
1504 Clouds 33 1008 60 10000 5.14 310 07:25 08.10.2022
1505 Clouds 30 1013 68 10000 2.57 210 02:34 08.10.2022
1506 Clouds 27 1011 85 10000 0.98 39 23:49 07.10.2022
1507 Clouds 27 1010 86 10000 2.57 190 23:20 07.10.2022
1508 Clouds 27 1010 84 10000 1.54 210 22:19 07.10.2022
1509 Clouds 26 1010 88 10000 1.03 90 20:23 07.10.2022
1510 Clouds 26 1010 85 10000 1.34 190 18:22 07.10.2022
1511 Clouds 27 1014 84 10000 4.63 180 16:53 07.10.2022
1512 Clouds 28 1014 81 10000 2.06 240 15:44 07.10.2022
1513 Clear 28 1010 79 10000 1.54 10 14:23 07.10.2022
1514 Clouds 31 1008 62 10000 2.06 250 11:42 07.10.2022
1515 Clouds 32 1007 66 10000 5.14 310 09:25 07.10.2022
1516 Clouds 32 1008 64 10000 5.66 320 08:29 07.10.2022
1517 Clouds 33 1011 62 10000 4.63 310 05:27 07.10.2022
1518 Clouds 27 1011 88 10000 0 0 00:23 07.10.2022
1519 Clouds 26 1010 94 10000 0 0 22:50 06.10.2022
1520 Clouds 26 1009 94 10000 1.03 180 21:41 06.10.2022
1521 Clouds 27 1009 89 10000 3.58 200 20:54 06.10.2022
1522 Clouds 27 1010 89 10000 3.6 200 19:46 06.10.2022
1523 Clouds 26 1010 89 10000 1.54 200 18:37 06.10.2022
1524 Clouds 27 1011 89 10000 1.54 210 16:58 06.10.2022
1525 Clouds 28 1010 84 10000 2.06 220 13:51 06.10.2022
1526 Clouds 30 1008 69 10000 3.6 360 11:24 06.10.2022
1527 Clouds 33 1011 54 10000 2.57 40 05:47 06.10.2022
1528 Clouds 32 1013 60 10000 5.66 100 03:24 06.10.2022
1529 Clouds 27 1011 89 10000 1.54 140 22:34 05.10.2022
1530 Clouds 26 1010 86 10000 1.54 360 19:57 05.10.2022
1531 Clear 27 1010 84 10000 2.57 340 17:58 05.10.2022
1532 Clear 27 1011 84 10000 2.06 350 17:33 05.10.2022
1533 Clouds 28 1012 84 10000 3.09 340 15:54 05.10.2022
1534 Clouds 27 1011 82 10000 0.51 240 14:46 05.10.2022
1535 Clouds 27 1011 78 10000 0.89 240 13:52 05.10.2022
1536 Clouds 28 1010 77 10000 2.57 220 12:19 05.10.2022
1537 Clouds 32 1008 61 10000 5.66 360 08:45 05.10.2022
1538 Clouds 32 1008 62 10000 4.63 330 07:29 05.10.2022
1539 Clouds 33 1011 54 10000 3.09 90 05:35 05.10.2022
1540 Clouds 31 1012 67 10000 3.09 50 02:42 05.10.2022
1541 Clear 26 1010 83 10000 2.57 110 00:41 05.10.2022
1542 Clear 26 1010 83 10000 2.57 110 00:23 05.10.2022
1543 Clouds 24 1009 90 10000 1.54 130 21:48 04.10.2022
1544 Clouds 25 1009 89 10000 1.54 140 20:29 04.10.2022
1545 Clouds 25 1009 89 10000 1.54 150 18:57 04.10.2022
1546 Clouds 25 1010 89 10000 1.54 150 18:35 04.10.2022
1547 Clouds 25 1011 89 10000 2.06 120 17:41 04.10.2022
1548 Clear 25 1011 89 10000 2.06 160 16:28 04.10.2022
1549 Rain 26 1011 88 10000 1.03 110 12:24 04.10.2022
1550 Clouds 25 1009 94 6000 6.69 180 08:52 04.10.2022
1551 Clouds 29 1010 74 10000 3.6 50 06:28 04.10.2022
1552 Rain 27 1012 88 10000 1.54 140 01:28 04.10.2022
1553 Clouds 27 1010 85 10000 1.54 280 23:37 03.10.2022
1554 Clouds 28 1009 83 10000 1.54 270 21:52 03.10.2022
1555 Clouds 28 1008 81 10000 1.54 290 20:52 03.10.2022
1556 Clouds 28 1009 81 10000 3.09 290 19:34 03.10.2022
1557 Clouds 28 1009 83 10000 3.09 280 17:53 03.10.2022
1558 Clouds 28 1009 83 10000 2.68 270 16:43 03.10.2022
1559 Clear 28 1009 80 10000 2.57 270 15:27 03.10.2022
1560 Clear 29 1009 78 10000 3.09 290 13:44 03.10.2022
1561 Clear 29 1008 76 10000 4.12 310 12:20 03.10.2022
1562 Clouds 30 1011 70 10000 4.47 330 10:38 03.10.2022
1563 Clouds 31 1011 63 10000 4.63 330 09:35 03.10.2022
1564 Clouds 32 1008 67 10000 5.14 300 05:34 03.10.2022
1565 Rain 30 1010 74 10000 3.09 20 02:36 03.10.2022
1566 Clear 26 1008 89 10000 0.51 70 22:24 02.10.2022
1567 Rain 26 1008 82 10000 1.03 290 20:37 02.10.2022
1568 Clouds 27 1008 79 10000 2.06 10 18:31 02.10.2022
1569 Clouds 27 1009 79 10000 2.06 350 17:35 02.10.2022
1570 Clear 27 1009 76 10000 3.09 360 16:33 02.10.2022
1571 Clear 27 1009 76 10000 3.09 360 16:33 02.10.2022
1572 Clear 27 1010 77 10000 1.54 320 15:41 02.10.2022
1573 Clear 28 1010 73 10000 1.54 270 13:51 02.10.2022
1574 Clear 28 1010 75 10000 3.09 300 12:52 02.10.2022
1575 Clear 28 1010 75 10000 3.09 300 12:28 02.10.2022
1576 Clouds 29 1008 72 10000 4.12 340 11:36 02.10.2022
1577 Clouds 30 1008 61 10000 3.6 340 10:37 02.10.2022
1578 Clear 32 1007 52 10000 3.09 330 09:27 02.10.2022
1579 Clear 32 1008 46 10000 2.06 360 07:30 02.10.2022
1580 Clear 28 1011 61 10000 4.63 180 02:55 02.10.2022
1581 Clear 25 1011 78 10000 4.12 190 00:46 02.10.2022
1582 Clear 24 1011 83 10000 4.12 190 00:20 02.10.2022
1583 Clear 23 1009 83 10000 2.06 100 22:37 01.10.2022
1584 Clouds 23 1009 83 10000 2.57 130 20:34 01.10.2022
1585 Clouds 23 1009 88 10000 3.6 130 18:30 01.10.2022
1586 Clear 24 1011 88 10000 3.6 160 16:35 01.10.2022
1587 Rain 24 1011 88 10000 5.66 210 14:35 01.10.2022
1588 Rain 24 1011 89 10000 5.14 200 13:31 01.10.2022
1589 Rain 24 1010 89 10000 4.63 210 12:32 01.10.2022
1590 Rain 24 1010 89 10000 4.63 190 11:20 01.10.2022
1591 Rain 24 1009 92 10000 4.47 180 10:31 01.10.2022
1592 Rain 26 1009 89 10000 4.63 190 09:28 01.10.2022
1593 Rain 26 1009 85 10000 4.63 180 08:58 01.10.2022
1594 Clouds 28 1013 82 10000 2.57 160 04:27 01.10.2022
1595 Clouds 29 1012 75 10000 1.03 90 03:31 01.10.2022
1596 Clouds 25 1011 94 10000 3.09 140 00:18 01.10.2022
1597 Clouds 24 1013 94 10000 2.06 30 22:37 30.09.2022
1598 Rain 24 1010 95 2600 6.69 40 21:29 30.09.2022
1599 Clouds 25 1010 86 2400 4.63 40 20:44 30.09.2022
1600 Clouds 26 1012 83 10000 2.57 170 20:18 30.09.2022
1601 Clouds 28 1011 79 10000 2.57 270 17:38 30.09.2022
1602 Clouds 28 1011 84 10000 2.57 260 15:56 30.09.2022
1603 Rain 29 1010 73 10000 4.63 10 13:30 30.09.2022
1604 Clear 30 1009 61 10000 5.14 20 11:58 30.09.2022
1605 Clouds 31 1008 57 10000 0.45 185 10:40 30.09.2022
1606 Clear 34 1008 46 10000 8.75 30 08:26 30.09.2022
1607 Clear 34 1009 40 10000 4.63 60 05:54 30.09.2022
1608 Clouds 31 1012 57 10000 5.14 80 02:39 30.09.2022
1609 Clear 26 1011 80 10000 2.06 80 22:40 29.09.2022
1610 Clouds 26 1010 80 10000 2.57 90 21:28 29.09.2022
1611 Clouds 26 1010 84 10000 3.09 120 20:57 29.09.2022
1612 Clouds 28 1011 76 10000 1.54 100 18:45 29.09.2022
1613 Clouds 28 1011 76 10000 3.6 50 17:32 29.09.2022
1614 Clear 28 1012 75 10000 3.6 40 16:28 29.09.2022
1615 Clear 29 1012 73 10000 4.63 50 15:36 29.09.2022
1616 Clear 28 1012 76 10000 3.6 50 14:31 29.09.2022
1617 Clouds 31 1009 57 10000 6.17 60 10:29 29.09.2022
1618 Clouds 32 1010 56 10000 6.71 50 06:58 29.09.2022
1619 Clouds 27 1012 78 10000 5.66 70 02:51 29.09.2022
1620 Clouds 24 1011 94 10000 3.09 100 23:56 28.09.2022
1621 Clear 24 1010 93 10000 2.06 60 22:44 28.09.2022
1622 Clouds 25 1009 89 10000 3.09 90 21:29 28.09.2022
1623 Clouds 25 1009 90 10000 3.6 80 20:24 28.09.2022
1624 Rain 25 1011 94 10000 5.14 80 18:41 28.09.2022
1625 Clouds 25 1011 94 10000 2.06 120 15:26 28.09.2022
1626 Clouds 24 1009 88 10000 2.57 20 13:26 28.09.2022
1627 Thunderstorm 24 1008 88 6000 5.14 90 10:59 28.09.2022
1628 Clouds 30 1007 71 10000 3.6 290 09:18 28.09.2022
1629 Clouds 31 1007 69 10000 3.6 340 07:20 28.09.2022
1630 Clouds 31 1011 62 10000 2.57 130 03:18 28.09.2022
1631 Clouds 29 1010 72 10000 3.09 90 01:35 28.09.2022
1632 Clouds 26 1008 84 10000 1.54 90 23:27 27.09.2022
1633 Clouds 26 1008 80 10000 0 0 21:47 27.09.2022
1634 Clouds 26 1008 84 10000 0.51 70 20:39 27.09.2022
1635 Clouds 26 1008 80 10000 0 0 19:48 27.09.2022
1636 Clouds 26 1008 79 10000 0.51 60 18:45 27.09.2022
1637 Clouds 27 1009 76 10000 1.03 270 17:45 27.09.2022
1638 Clouds 28 1010 71 10000 1.54 280 15:40 27.09.2022
1639 Clear 28 1009 71 10000 2.57 280 14:58 27.09.2022
1640 Clear 30 1008 63 10000 3.58 310 12:53 27.09.2022
1641 Clear 30 1007 60 10000 3.6 310 11:34 27.09.2022
1642 Clouds 32 1006 62 10000 3.92 294 09:34 27.09.2022
1643 Smoke 32 1008 51 10000 4.12 330 06:56 27.09.2022
1644 Clouds 30 1011 68 10000 3.6 310 02:41 27.09.2022
1645 Clouds 29 1010 73 10000 2.06 340 01:35 27.09.2022
1646 Clouds 26 1008 83 10000 0 0 23:35 26.09.2022
1647 Clouds 26 1008 83 10000 0 0 22:40 26.09.2022
1648 Clouds 27 1007 81 10000 1.54 320 20:46 26.09.2022
1649 Clear 28 1008 77 10000 2.06 320 19:32 26.09.2022
1650 Clouds 27 1008 81 10000 2.57 280 18:34 26.09.2022
1651 Clouds 29 1009 76 10000 3.09 270 16:41 26.09.2022
1652 Clouds 29 1009 77 10000 3.6 270 14:41 26.09.2022
1653 Clear 30 1008 71 10000 5.66 300 11:35 26.09.2022
1654 Rain 31 1007 59 10000 4.12 350 10:41 26.09.2022
1655 Rain 31 1007 58 10000 4.12 350 10:21 26.09.2022
1656 Rain 33 1006 47 10000 4.63 330 09:55 26.09.2022
1657 Clouds 34 1006 40 10000 6.17 340 09:24 26.09.2022
1658 Clouds 34 1006 40 10000 6.17 340 08:57 26.09.2022
1659 Clouds 32 1010 54 10000 3.09 20 02:57 26.09.2022
1660 Clouds 26 1010 93 10000 1.54 100 00:35 26.09.2022
1661 Clouds 25 1009 94 10000 1.54 80 23:20 25.09.2022
1662 Clear 25 1008 90 10000 1.54 140 21:44 25.09.2022
1663 Clear 25 1008 93 10000 1.54 140 20:54 25.09.2022
1664 Clouds 27 1008 90 10000 1.54 200 19:55 25.09.2022
1665 Clouds 26 1009 89 10000 2.06 220 18:44 25.09.2022
1666 Clouds 26 1009 89 10000 2.06 220 18:21 25.09.2022
1667 Clouds 28 1012 85 10000 1.54 260 16:55 25.09.2022
1668 Clouds 28 1013 80 10000 2.06 270 15:46 25.09.2022
1669 Clear 28 1009 80 10000 2.06 280 14:31 25.09.2022
1670 Clear 29 1009 76 10000 2.57 270 13:45 25.09.2022
1671 Clouds 31 1012 60 10000 6.71 300 10:37 25.09.2022
1672 Clouds 32 1007 68 10000 7.72 300 09:21 25.09.2022
1673 Clouds 33 1009 64 10000 5.66 310 06:28 25.09.2022
1674 Clouds 31 1012 75 10000 4.63 310 04:28 25.09.2022
1675 Clouds 28 1010 83 10000 2.06 330 23:36 24.09.2022
1676 Clouds 27 1009 87 10000 1.03 330 21:19 24.09.2022
1677 Clouds 28 1009 80 10000 1.03 330 19:24 24.09.2022
1678 Clouds 28 1009 84 10000 2.57 340 18:44 24.09.2022
1679 Clouds 28 1010 78 10000 2.57 270 16:43 24.09.2022
1680 Clouds 29 1010 76 10000 3.09 280 15:23 24.09.2022
1681 Clouds 29 1009 76 10000 3.09 270 14:18 24.09.2022
1682 Clouds 30 1008 72 10000 4.12 270 12:59 24.09.2022
1683 Clouds 29 1008 73 10000 4.12 280 12:22 24.09.2022
1684 Clouds 32 1006 61 10000 5.66 300 09:58 24.09.2022
1685 Clouds 34 1006 52 10000 4.63 310 08:51 24.09.2022
1686 Clouds 34 1007 52 10000 4.63 320 07:40 24.09.2022
1687 Clouds 32 1010 58 10000 3.09 310 04:50 24.09.2022
1688 Clouds 31 1011 67 10000 3.09 340 03:48 24.09.2022
1689 Clouds 27 1009 83 10000 1.34 320 22:54 23.09.2022
1690 Clouds 27 1009 85 10000 1.54 350 21:33 23.09.2022
1691 Clouds 27 1009 88 10000 2.06 360 20:57 23.09.2022
1692 Clouds 27 1008 89 10000 2.57 10 20:26 23.09.2022
1693 Clouds 27 1008 87 10000 2.06 340 19:19 23.09.2022
1694 Clouds 29 1010 80 10000 2.57 270 15:31 23.09.2022
1695 Clouds 29 1008 75 10000 3.6 250 11:47 23.09.2022
1696 Clouds 31 1008 63 10000 6.17 290 09:36 23.09.2022
1697 Clouds 32 1009 58 10000 4.92 340 06:51 23.09.2022
1698 Clouds 27 1012 79 10000 1.54 60 00:42 23.09.2022
1699 Clouds 26 1011 84 10000 0 0 23:23 22.09.2022
1700 Clouds 26 1011 83 10000 0 0 22:27 22.09.2022
1701 Clouds 26 1010 84 10000 0.51 230 21:23 22.09.2022
1702 Clouds 27 1011 79 10000 1.03 290 19:58 22.09.2022
1703 Clouds 28 1011 78 10000 2.57 270 17:41 22.09.2022
1704 Clear 29 1011 72 10000 2.06 360 13:38 22.09.2022
1705 Clear 33 1009 49 10000 5.66 360 10:37 22.09.2022
1706 Clear 33 1009 49 10000 5.66 360 10:18 22.09.2022
1707 Clouds 34 1010 49 10000 5.66 330 07:36 22.09.2022
1708 Clouds 32 1013 49 10000 1.79 110 04:37 22.09.2022
1709 Clouds 26 1013 83 10000 0 0 23:46 21.09.2022
1710 Clouds 26 1011 83 10000 0.51 20 22:26 21.09.2022
1711 Clouds 26 1011 83 10000 1.03 20 20:54 21.09.2022
1712 Clouds 28 1012 74 10000 2.57 20 18:30 21.09.2022
1713 Clouds 28 1012 80 10000 2.06 350 17:22 21.09.2022
1714 Clouds 29 1012 80 10000 5.66 310 15:18 21.09.2022
1715 Clear 30 1010 72 10000 4.63 330 13:38 21.09.2022
1716 Clear 31 1009 59 10000 5.14 30 11:34 21.09.2022
1717 Clear 32 1008 54 10000 6.17 20 10:50 21.09.2022
1718 Clear 32 1008 54 10000 6.17 20 10:50 21.09.2022
1719 Clear 34 1008 46 10000 8.23 20 09:38 21.09.2022
1720 Clear 34 1008 47 10000 8.75 10 08:23 21.09.2022
1721 Clouds 32 1012 55 10000 3.09 70 02:51 21.09.2022
1722 Clouds 31 1015 59 10000 3.09 100 02:33 21.09.2022
1723 Clouds 31 1013 61 10000 3.09 70 01:49 21.09.2022
1724 Clouds 26 1012 73 10000 2.06 80 23:50 20.09.2022
1725 Clouds 26 1010 69 10000 1.54 160 21:34 20.09.2022
1726 Clouds 27 1011 71 10000 2.57 120 20:23 20.09.2022
1727 Clouds 28 1012 71 10000 2.06 120 17:53 20.09.2022
1728 Clear 29 1012 71 10000 2.06 170 15:18 20.09.2022
1729 Clear 30 1011 64 10000 2.57 30 13:59 20.09.2022
1730 Clouds 32 1013 53 10000 4.12 20 11:24 20.09.2022
1731 Clouds 34 1009 49 10000 4.12 350 08:29 20.09.2022
1732 Clouds 34 1009 49 10000 4.12 350 08:29 20.09.2022
1733 Clouds 34 1010 49 10000 3.09 340 07:31 20.09.2022
1734 Clouds 32 1013 56 10000 2.57 270 04:30 20.09.2022
1735 Clouds 29 1014 73 10000 3.09 190 01:28 20.09.2022
1736 Clouds 27 1011 85 10000 2.57 190 22:33 19.09.2022
1737 Clouds 26 1011 86 10000 2.06 190 21:28 19.09.2022
1738 Clouds 27 1011 84 10000 1.54 190 20:39 19.09.2022
1739 Clouds 28 1011 79 10000 2.57 240 18:42 19.09.2022
1740 Clouds 29 1014 72 10000 3.6 270 16:29 19.09.2022
1741 Clouds 29 1011 71 10000 4.12 10 13:44 19.09.2022
1742 Clear 31 1009 57 10000 5.14 30 11:43 19.09.2022
1743 Clear 34 1008 45 10000 6.17 360 09:35 19.09.2022
1744 Clear 33 1009 49 10000 5.66 350 08:20 19.09.2022
1745 Clouds 30 1012 64 10000 2.06 230 02:46 19.09.2022
1746 Clouds 26 1012 89 10000 2.06 210 23:26 18.09.2022
1747 Clouds 25 1011 90 10000 1.03 230 21:53 18.09.2022
1748 Clouds 26 1011 87 10000 1.03 100 20:34 18.09.2022
1749 Clouds 27 1011 84 10000 1.03 250 19:26 18.09.2022
1750 Clouds 28 1012 82 10000 2.06 280 17:49 18.09.2022
1751 Clouds 27 1012 83 10000 2.06 270 16:43 18.09.2022
1752 Clouds 28 1012 81 10000 2.57 270 14:39 18.09.2022
1753 Clear 29 1011 75 10000 4.12 270 12:56 18.09.2022
1754 Clouds 30 1012 68 10000 4.12 290 11:51 18.09.2022
1755 Clouds 33 1010 52 10000 4.63 310 06:45 18.09.2022
1756 Clouds 29 1014 77 10000 1.79 160 01:32 18.09.2022
1757 Clouds 28 1013 82 10000 2.06 160 00:49 18.09.2022
1758 Clouds 25 1013 88 10000 0 0 22:54 17.09.2022
1759 Clouds 25 1012 88 10000 0.89 20 20:50 17.09.2022
1760 Clouds 26 1011 88 10000 1.03 340 19:28 17.09.2022
1761 Clouds 28 1012 78 10000 2.06 330 17:21 17.09.2022
1762 Clouds 29 1012 74 10000 3.09 330 14:18 17.09.2022
1763 Clear 29 1011 73 10000 3.09 280 12:33 17.09.2022
1764 Clouds 30 1009 65 10000 6.71 300 10:47 17.09.2022
1765 Clouds 32 1010 58 10000 5.66 290 06:31 17.09.2022
1766 Clouds 31 1012 62 10000 2.06 280 03:55 17.09.2022
1767 Clouds 26 1011 89 10000 0 0 23:23 16.09.2022
1768 Clouds 26 1010 89 10000 0 0 21:46 16.09.2022
1769 Clouds 25 1010 88 10000 1.54 320 20:41 16.09.2022
1770 Clear 27 1010 86 10000 1.54 280 18:28 16.09.2022
1771 Clouds 28 1011 80 10000 2.57 280 16:21 16.09.2022
1772 Clear 27 1011 78 10000 2.24 280 14:44 16.09.2022
1773 Clear 28 1010 74 10000 4.63 270 12:35 16.09.2022
1774 Clear 31 1008 59 10000 4.47 310 09:37 16.09.2022
1775 Clouds 32 1010 58 10000 5.81 310 07:22 16.09.2022
1776 Clouds 32 1010 59 10000 6.17 310 06:47 16.09.2022
1777 Clouds 31 1011 62 10000 4.63 310 05:43 16.09.2022
1778 Clouds 29 1012 76 10000 2.06 290 01:30 16.09.2022
1779 Clouds 25 1010 88 10000 1.03 250 21:24 15.09.2022
1780 Clouds 26 1009 90 10000 1.03 250 20:28 15.09.2022
1781 Clouds 27 1010 84 10000 1.34 250 18:57 15.09.2022
1782 Clouds 26 1011 85 10000 1.54 230 17:38 15.09.2022
1783 Clouds 26 1011 85 10000 1.54 230 17:18 15.09.2022
1784 Clear 28 1011 79 10000 3.09 240 15:22 15.09.2022
1785 Clear 29 1010 64 10000 2.57 290 12:49 15.09.2022
1786 Clear 31 1009 56 10000 5.36 20 10:42 15.09.2022
1787 Clear 32 1009 52 10000 5.36 10 09:42 15.09.2022
1788 Clouds 34 1013 46 10000 5.66 340 05:22 15.09.2022
1789 Clouds 30 1015 68 10000 3.6 360 02:57 15.09.2022
1790 Clouds 25 1013 88 10000 0 0 22:44 14.09.2022
1791 Clouds 25 1012 89 10000 0 0 20:24 14.09.2022
1792 Clouds 25 1013 93 10000 2.06 60 19:32 14.09.2022
1793 Clear 26 1013 83 10000 1.03 190 17:28 14.09.2022
1794 Clear 27 1013 84 10000 2.57 200 15:58 14.09.2022
1795 Clear 27 1013 81 10000 3.09 200 14:46 14.09.2022
1796 Clear 29 1012 72 10000 4.12 270 12:24 14.09.2022
1797 Clouds 31 1011 58 10000 4.63 310 09:49 14.09.2022
1798 Clouds 33 1012 55 10000 5.14 350 07:47 14.09.2022
1799 Clouds 34 1013 57 10000 7.2 340 06:48 14.09.2022
1800 Clouds 34 1018 44 10000 2.68 170 05:22 14.09.2022
1801 Clouds 30 1016 73 10000 3.09 200 01:53 14.09.2022
1802 Clouds 28 1015 79 10000 3.09 170 01:30 14.09.2022
1803 Clouds 27 1015 86 10000 2.57 180 00:52 14.09.2022
1804 Clouds 26 1015 89 10000 1.54 160 23:54 13.09.2022
1805 Fog 26 1019 89 10000 1.54 170 23:36 13.09.2022
1806 Fog 26 1014 89 10000 1.54 170 23:18 13.09.2022
1807 Clouds 26 1014 89 10000 2.06 190 22:22 13.09.2022
1808 Clouds 25 1014 89 10000 2.06 170 20:29 13.09.2022
1809 Clouds 27 1014 83 10000 2.24 260 18:21 13.09.2022
1810 Clear 28 1014 78 10000 3.58 310 15:58 13.09.2022
1811 Clear 29 1014 75 10000 3.6 310 14:50 13.09.2022
1812 Clear 28 1014 67 10000 3.6 330 13:25 13.09.2022
1813 Clouds 32 1011 52 10000 5.14 20 09:49 13.09.2022
1814 Clouds 33 1012 59 10000 5.66 350 07:31 13.09.2022
1815 Clouds 27 1015 82 10000 2.06 30 00:52 13.09.2022
1816 Clear 25 1013 86 10000 2.06 20 22:52 12.09.2022
1817 Clear 26 1013 84 10000 1.54 20 22:26 12.09.2022
1818 Clouds 25 1013 85 10000 1.54 360 20:46 12.09.2022
1819 Clouds 26 1012 81 10000 2.57 360 19:22 12.09.2022
1820 Clouds 26 1013 85 10000 1.54 350 17:42 12.09.2022
1821 Clouds 27 1015 84 10000 2.06 340 15:22 12.09.2022
1822 Clear 29 1010 75 10000 3.6 290 11:57 12.09.2022
1823 Clouds 31 1009 63 10000 3.6 310 10:20 12.09.2022
1824 Clouds 32 1013 63 10000 5.14 310 05:50 12.09.2022
1825 Clouds 31 1014 65 10000 2.24 320 04:30 12.09.2022
1826 Clouds 26 1012 83 10000 1.03 80 23:59 11.09.2022
1827 Clear 26 1012 84 10000 1.03 300 22:45 11.09.2022
1828 Clouds 27 1011 78 10000 1.03 270 21:19 11.09.2022
1829 Clouds 27 1011 82 10000 1.03 240 20:42 11.09.2022
1830 Clouds 26 1012 82 10000 1.03 240 19:26 11.09.2022
1831 Clouds 26 1012 82 10000 1.54 260 18:38 11.09.2022
1832 Clear 27 1013 79 10000 2.57 240 16:58 11.09.2022
1833 Clear 27 1012 79 10000 3.09 240 15:44 11.09.2022
1834 Clouds 28 1013 76 10000 3.6 270 13:18 11.09.2022
1835 Clouds 30 1009 62 10000 4.63 320 10:51 11.09.2022
1836 Clouds 32 1011 50 10000 4.12 300 07:49 11.09.2022
1837 Clouds 31 1012 55 10000 4.12 320 04:36 11.09.2022
1838 Clouds 25 1012 88 10000 1.54 10 23:48 10.09.2022
1839 Clouds 26 1011 84 10000 2.06 360 21:38 10.09.2022
1840 Clouds 27 1011 80 10000 0.51 350 20:24 10.09.2022
1841 Clouds 27 1012 84 10000 1.54 270 19:42 10.09.2022
1842 Clouds 26 1012 85 10000 1.54 270 19:24 10.09.2022
1843 Clouds 27 1012 83 10000 2.57 280 17:19 10.09.2022
1844 Clouds 28 1012 80 10000 3.58 280 15:35 10.09.2022
1845 Clear 28 1011 72 10000 3.09 280 13:29 10.09.2022
1846 Clouds 28 1010 72 10000 1.54 300 12:26 10.09.2022
1847 Clouds 30 1009 65 10000 4.12 340 10:28 10.09.2022
1848 Clouds 31 1009 59 10000 5.14 330 08:41 10.09.2022
1849 Clouds 31 1009 56 10000 5.14 330 08:20 10.09.2022
1850 Clouds 31 1014 50 10000 3.09 290 03:43 10.09.2022
1851 Clouds 25 1013 88 10000 0 0 23:36 09.09.2022
1852 Clouds 26 1013 83 10000 1.03 350 22:31 09.09.2022
1853 Clouds 26 1012 82 10000 2.06 340 20:49 09.09.2022
1854 Clouds 27 1013 77 10000 2.06 350 19:58 09.09.2022
1855 Clouds 27 1013 81 10000 2.06 340 19:22 09.09.2022
1856 Clouds 28 1014 78 10000 3.58 320 16:52 09.09.2022
1857 Clouds 27 1013 78 10000 4.02 310 14:47 09.09.2022
1858 Clouds 28 1012 76 10000 4.63 300 13:19 09.09.2022
1859 Clouds 30 1010 63 10000 4.63 300 10:41 09.09.2022
1860 Clouds 31 1011 58 10000 5.66 310 07:25 09.09.2022
1861 Clouds 31 1015 56 10000 3.6 350 03:31 09.09.2022
1862 Clouds 23 1012 93 10000 0 0 22:34 08.09.2022
1863 Clouds 24 1012 88 10000 0 0 21:51 08.09.2022
1864 Clouds 24 1012 89 10000 1.54 350 20:46 08.09.2022
1865 Clouds 24 1012 89 10000 1.03 340 20:24 08.09.2022
1866 Clouds 26 1013 81 10000 2.06 360 18:34 08.09.2022
1867 Clear 26 1013 81 10000 2.68 360 17:23 08.09.2022
1868 Clouds 26 1013 81 10000 3.09 330 15:18 08.09.2022
1869 Clear 27 1012 75 10000 2.06 320 13:28 08.09.2022
1870 Clear 27 1011 75 10000 2.57 320 12:39 08.09.2022
1871 Clouds 29 1011 67 10000 5.66 310 10:59 08.09.2022
1872 Clouds 31 1010 63 10000 6.71 290 09:26 08.09.2022
1873 Clouds 32 1012 59 10000 5.66 300 06:53 08.09.2022
1874 Clouds 30 1015 65 10000 2.57 260 03:23 08.09.2022
1875 Clouds 29 1015 68 10000 2.06 260 02:36 08.09.2022
1876 Clouds 28 1015 69 10000 2.06 260 02:18 08.09.2022
1877 Clouds 23 1012 89 10000 0 0 22:56 07.09.2022
1878 Clouds 23 1012 86 10000 1.03 280 21:44 07.09.2022
1879 Clouds 24 1012 83 10000 1.03 260 21:21 07.09.2022
1880 Clouds 25 1012 80 10000 2.24 270 20:25 07.09.2022
1881 Clouds 25 1013 80 10000 2.06 270 18:54 07.09.2022
1882 Clouds 25 1014 80 10000 2.57 270 15:51 07.09.2022
1883 Clear 30 1011 57 10000 3.6 330 10:51 07.09.2022
1884 Clear 30 1011 56 10000 4.12 310 10:32 07.09.2022
1885 Clouds 32 1011 45 10000 4.12 290 08:23 07.09.2022
1886 Clouds 30 1017 51 10000 3.09 30 04:59 07.09.2022
1887 Clouds 23 1014 91 10000 1.79 100 00:27 07.09.2022
1888 Clouds 24 1017 86 10000 2.06 100 21:48 06.09.2022
1889 Clouds 24 1017 85 10000 2.06 100 21:30 06.09.2022
1890 Clouds 24 1015 86 10000 1.03 260 19:27 06.09.2022
1891 Clouds 24 1012 83 10000 1.54 270 18:34 06.09.2022
1892 Clouds 25 1012 82 10000 1.54 290 17:37 06.09.2022
1893 Clouds 25 1012 81 10000 2.57 290 16:44 06.09.2022
1894 Clouds 25 1012 79 10000 2.24 270 15:55 06.09.2022
1895 Clear 26 1012 72 10000 2.57 270 13:47 06.09.2022
1896 Clear 26 1011 68 10000 2.06 240 13:27 06.09.2022
1897 Clear 26 1011 64 10000 2.57 260 12:56 06.09.2022
1898 Clear 30 1009 46 10000 3.6 340 10:54 06.09.2022
1899 Clouds 31 1009 48 10000 5.14 350 09:18 06.09.2022
1900 Clouds 31 1009 51 10000 4.92 330 07:52 06.09.2022
1901 Clouds 31 1009 51 10000 4.92 330 07:52 06.09.2022
1902 Clouds 31 1011 54 10000 5.14 300 06:18 06.09.2022
1903 Clouds 25 1013 82 10000 2.06 100 00:45 06.09.2022
1904 Clouds 24 1012 86 10000 2.24 100 22:49 05.09.2022
1905 Clouds 24 1011 89 10000 2.06 80 21:38 05.09.2022
1906 Clouds 25 1011 85 10000 0.51 240 20:18 05.09.2022
1907 Clouds 25 1014 84 10000 1.54 230 18:53 05.09.2022
1908 Clouds 26 1012 84 10000 2.06 220 18:24 05.09.2022
1909 Clouds 26 1015 82 10000 2.57 260 17:47 05.09.2022
1910 Clouds 25 1012 81 10000 2.57 260 15:53 05.09.2022
1911 Clear 26 1012 78 10000 2.57 270 14:34 05.09.2022
1912 Clear 28 1011 52 10000 2.57 290 12:50 05.09.2022
1913 Clear 30 1009 48 10000 4.63 340 10:35 05.09.2022
1914 Clouds 31 1009 55 10000 5.14 350 08:36 05.09.2022
1915 Clouds 31 1013 56 10000 1.03 50 03:47 05.09.2022
1916 Clouds 24 1013 94 8000 1.54 100 00:18 05.09.2022
1917 Clouds 24 1011 93 10000 1.54 60 22:28 04.09.2022
1918 Clouds 24 1011 88 10000 0 0 21:49 04.09.2022
1919 Clouds 26 1011 85 10000 1.79 250 19:50 04.09.2022
1920 Clouds 26 1012 84 10000 3.09 240 18:34 04.09.2022
1921 Clear 26 1013 84 10000 3.09 260 17:26 04.09.2022
1922 Clouds 26 1012 82 10000 2.57 280 15:42 04.09.2022
1923 Clear 26 1012 73 10000 2.57 250 14:25 04.09.2022
1924 Clear 28 1010 60 10000 3.09 10 12:34 04.09.2022
1925 Clouds 29 1009 62 10000 4.12 360 10:59 04.09.2022
1926 Clouds 31 1009 54 10000 5.14 10 09:25 04.09.2022
1927 Clear 32 1010 53 10000 5.14 260 06:34 04.09.2022
1928 Clouds 28 1013 68 10000 4.12 120 02:51 04.09.2022
1929 Clear 23 1011 88 10000 0.51 60 22:34 03.09.2022
1930 Clear 23 1011 88 10000 0.51 70 21:26 03.09.2022
1931 Clear 23 1011 89 10000 1.03 60 20:55 03.09.2022
1932 Clouds 26 1012 80 10000 2.57 230 18:31 03.09.2022
1933 Clouds 26 1012 84 10000 3.6 240 17:19 03.09.2022
1934 Clear 26 1011 84 10000 2.68 230 15:35 03.09.2022
1935 Clear 26 1011 83 10000 2.68 240 14:41 03.09.2022
1936 Clear 26 1010 83 10000 2.68 270 13:44 03.09.2022
1937 Clear 27 1008 79 10000 3.6 330 11:32 03.09.2022
1938 Clouds 31 1008 62 10000 4.12 340 09:32 03.09.2022
1939 Clear 33 1008 46 10000 4.12 80 07:48 03.09.2022
1940 Clouds 28 1012 70 10000 4.63 140 04:50 03.09.2022
1941 Clouds 26 1013 88 10000 3.09 150 02:35 03.09.2022
1942 Rain 25 1011 94 10000 3.09 50 23:42 02.09.2022
1943 Rain 26 1012 94 10000 0.51 90 22:21 02.09.2022
1944 Clouds 26 1011 90 10000 0 0 20:42 02.09.2022
1945 Clouds 26 1011 89 10000 0.51 330 19:47 02.09.2022
1946 Clouds 26 1011 90 10000 0 0 18:50 02.09.2022
1947 Clouds 26 1011 88 10000 0.51 230 18:25 02.09.2022
1948 Clouds 26 1012 88 10000 1.79 270 17:24 02.09.2022
1949 Clouds 27 1012 85 10000 1.54 280 16:31 02.09.2022
1950 Clouds 28 1011 70 10000 0.51 270 13:32 02.09.2022
1951 Clouds 29 1010 67 10000 4.12 280 10:57 02.09.2022
1952 Clouds 30 1009 65 10000 5.14 300 09:45 02.09.2022
1953 Clouds 31 1009 62 10000 4.63 340 08:46 02.09.2022
1954 Clouds 31 1011 63 10000 5.66 320 06:46 02.09.2022
1955 Clouds 31 1011 63 10000 5.14 310 06:21 02.09.2022
1956 Clouds 25 1013 90 10000 0.51 90 00:26 02.09.2022
1957 Clear 25 1012 88 10000 1.54 40 22:21 01.09.2022
1958 Clouds 25 1012 88 10000 1.54 20 21:38 01.09.2022
1959 Clear 25 1012 88 10000 1.54 20 21:19 01.09.2022
1960 Clouds 25 1012 89 10000 1.54 50 20:23 01.09.2022
1961 Clear 26 1012 85 10000 1.79 180 18:20 01.09.2022
1962 Clear 25 1012 89 10000 1.03 230 16:54 01.09.2022
1963 Clear 26 1011 85 10000 2.57 190 15:22 01.09.2022
1964 Clear 27 1011 75 10000 1.54 220 13:27 01.09.2022
1965 Clear 28 1011 72 10000 1.54 260 12:55 01.09.2022
1966 Clear 28 1010 71 10000 3.58 300 11:51 01.09.2022
1967 Clouds 29 1010 70 10000 3.6 300 11:19 01.09.2022
1968 Clouds 31 1009 59 10000 6.17 350 09:31 01.09.2022
1969 Clouds 32 1011 58 10000 5.14 330 06:41 01.09.2022
1970 Clouds 30 1013 66 10000 2.57 60 02:39 01.09.2022
1971 Clouds 28 1013 74 10000 2.06 60 01:30 01.09.2022
1972 Clouds 28 1013 74 10000 2.06 60 01:30 01.09.2022
1973 Clouds 28 1013 74 10000 2.06 60 01:30 01.09.2022
1974 Clouds 28 1013 74 10000 2.06 60 01:30 01.09.2022
1975 Clouds 28 1013 74 10000 2.06 60 01:30 01.09.2022
1976 Clouds 28 1013 74 10000 2.06 60 01:30 01.09.2022
1977 Clouds 26 1011 83 10000 1.03 160 22:43 31.08.2022
1978 Clouds 25 1010 89 10000 1.34 170 20:43 31.08.2022
1979 Clouds 26 1014 89 10000 0.51 170 18:46 31.08.2022
1980 Clear 26 1011 89 10000 3.09 190 16:41 31.08.2022
1981 Clear 26 1010 85 10000 3.6 190 15:25 31.08.2022
1982 Clear 28 1010 72 10000 2.57 250 13:28 31.08.2022
1983 Clouds 28 1008 76 10000 3.09 290 11:54 31.08.2022
1984 Clouds 32 1007 57 10000 5.14 350 09:36 31.08.2022
1985 Clear 32 1009 59 10000 5.66 350 07:39 31.08.2022
1986 Clouds 28 1012 72 10000 2.24 160 02:47 31.08.2022
1987 Clouds 26 1010 89 10000 2.57 170 22:24 30.08.2022
1988 Clouds 26 1010 89 10000 1.54 200 21:28 30.08.2022
1989 Clouds 26 1009 90 10000 0 0 20:35 30.08.2022
1990 Clouds 27 1010 85 10000 1.54 290 16:58 30.08.2022
1991 Clear 27 1009 79 10000 2.06 240 13:51 30.08.2022
1992 Clear 28 1007 66 10000 2.06 320 11:58 30.08.2022
1993 Clouds 29 1007 63 10000 2.57 340 11:20 30.08.2022
1994 Clouds 31 1007 62 10000 5.14 350 09:39 30.08.2022
1995 Clouds 32 1008 55 10000 4.63 340 06:48 30.08.2022
1996 Clear 23 1011 90 10000 1.91 80 00:33 30.08.2022
1997 Clouds 24 1015 83 10000 0 0 22:38 29.08.2022
1998 Clear 23 1010 88 10000 0 0 21:53 29.08.2022
1999 Clear 23 1010 88 10000 0 0 20:47 29.08.2022
2000 Clear 24 1011 87 10000 1.03 230 18:59 29.08.2022
2001 Clear 25 1011 82 10000 1.54 240 17:33 29.08.2022
2002 Clear 25 1012 84 10000 2.06 250 16:58 29.08.2022
2003 Clear 26 1012 81 10000 2.57 200 15:19 29.08.2022
2004 Clouds 28 1010 72 10000 0 0 13:54 29.08.2022
2005 Clear 28 1009 67 10000 2.06 350 12:24 29.08.2022
2006 Clear 30 1008 64 10000 2.36 314 10:43 29.08.2022
2007 Clouds 32 1008 51 10000 6.17 350 09:19 29.08.2022
2008 Clouds 32 1009 55 10000 4.12 350 07:20 29.08.2022
2009 Clouds 29 1013 69 10000 2.57 50 02:31 29.08.2022
2010 Fog 23 1011 94 10000 0 0 23:36 28.08.2022
2011 Clouds 24 1009 88 10000 0.89 30 21:48 28.08.2022
2012 Clouds 24 1009 88 10000 1.03 30 21:27 28.08.2022
2013 Clear 24 1010 86 10000 1.79 20 20:19 28.08.2022
2014 Clear 24 1011 84 10000 1.03 20 18:22 28.08.2022
2015 Clouds 24 1017 84 10000 1.54 30 17:59 28.08.2022
2016 Clear 25 1012 80 10000 1.03 170 16:44 28.08.2022
2017 Clear 25 1011 83 10000 3.6 200 15:34 28.08.2022
2018 Clear 26 1010 79 10000 3.09 220 13:32 28.08.2022
2019 Clear 27 1009 67 10000 2.57 290 11:59 28.08.2022
2020 Clouds 30 1008 57 10000 4.47 350 10:22 28.08.2022
2021 Clouds 31 1008 52 10000 4.63 340 09:24 28.08.2022
2022 Clouds 31 1009 51 10000 5.14 340 07:56 28.08.2022
2023 Clouds 32 1009 48 10000 4.63 340 07:26 28.08.2022
2024 Clouds 23 1013 83 9000 2.06 140 00:37 28.08.2022
2025 Clouds 21 1012 84 10000 0 0 23:28 27.08.2022
2026 Clouds 22 1012 83 10000 1.03 60 22:27 27.08.2022
2027 Clear 24 1011 80 10000 2.57 190 20:35 27.08.2022
2028 Clear 24 1011 84 10000 3.09 190 19:29 27.08.2022
2029 Clear 26 1011 84 10000 3.6 280 16:30 27.08.2022
2030 Clear 25 1011 78 10000 3.58 30 15:31 27.08.2022
2031 Clear 27 1010 63 10000 3.09 40 13:30 27.08.2022
2032 Clear 27 1009 64 10000 2.57 10 12:20 27.08.2022
2033 Clear 30 1009 48 10000 7.2 20 10:30 27.08.2022
2034 Clear 32 1008 40 10000 5.66 30 09:36 27.08.2022
2035 Clear 33 1010 33 10000 5.14 30 06:54 27.08.2022
2036 Clear 25 1013 73 10000 1.54 20 01:21 27.08.2022
2037 Clear 19 1012 88 10000 1.03 50 23:49 26.08.2022
2038 Clear 18 1011 77 10000 1.54 10 21:49 26.08.2022
2039 Clear 18 1012 82 10000 1.54 10 20:22 26.08.2022
2040 Clear 22 1013 68 10000 2.06 200 18:19 26.08.2022
2041 Clear 23 1013 60 10000 2.57 190 16:36 26.08.2022
2042 Clear 24 1013 60 10000 2.06 210 15:25 26.08.2022
2043 Clear 25 1012 61 10000 2.06 240 13:20 26.08.2022
2044 Clear 26 1010 53 10000 3.09 360 11:48 26.08.2022
2045 Clear 27 1010 47 10000 3.09 350 11:22 26.08.2022
2046 Clear 30 1009 30 10000 3.09 330 09:45 26.08.2022
2047 Clear 29 1012 19 10000 5.14 100 04:56 26.08.2022
2048 Clear 19 1013 29 10000 5.66 150 00:44 26.08.2022
2049 Clear 19 1012 33 10000 3.6 140 22:45 25.08.2022
2050 Clear 20 1016 32 10000 4.12 150 20:57 25.08.2022
2051 Clear 19 1013 41 10000 3.09 160 19:36 25.08.2022
2052 Clear 19 1014 47 10000 2.57 160 18:36 25.08.2022
2053 Clear 19 1014 62 10000 1.03 150 17:32 25.08.2022
2054 Clear 19 1014 63 10000 2.06 140 16:45 25.08.2022
2055 Clear 20 1014 68 10000 0 0 15:37 25.08.2022
2056 Clear 22 1014 60 10000 1.54 270 13:59 25.08.2022
2057 Clear 26 1012 44 10000 3.58 350 11:25 25.08.2022
2058 Clear 27 1012 41 10000 3.6 350 10:44 25.08.2022
2059 Clear 31 1012 15 10000 2.06 210 07:55 25.08.2022
2060 Clear 26 1014 16 10000 6.71 130 03:54 25.08.2022
2061 Clear 19 1018 26 10000 5.66 130 23:38 24.08.2022
2062 Clear 19 1018 26 10000 5.66 130 23:18 24.08.2022
2063 Clear 21 1013 21 10000 6.69 140 21:56 24.08.2022
2064 Clear 21 1013 23 10000 6.17 140 21:30 24.08.2022
2065 Clear 22 1014 25 10000 5.14 150 19:56 24.08.2022
2066 Clear 23 1015 29 10000 5.14 150 17:32 24.08.2022
2067 Clear 24 1015 34 10000 4.12 170 15:55 24.08.2022
2068 Clear 25 1015 33 10000 3.6 160 15:35 24.08.2022
2069 Clear 25 1014 31 10000 1.54 150 12:52 24.08.2022
2070 Clear 25 1014 31 10000 1.54 150 12:52 24.08.2022
2071 Clear 30 1012 23 10000 3.09 150 11:21 24.08.2022
2072 Clear 31 1012 21 10000 6.17 150 08:59 24.08.2022
2073 Clear 30 1014 20 10000 5.66 170 06:40 24.08.2022
2074 Clouds 23 1016 39 10000 6.17 140 00:55 24.08.2022
2075 Clouds 22 1013 93 10000 3.6 160 22:41 23.08.2022
2076 Clouds 22 1013 93 10000 3.6 160 22:18 23.08.2022
2077 Clear 21 1013 93 10000 0 0 20:49 23.08.2022
2078 Clear 23 1013 90 10000 1.54 60 19:24 23.08.2022
2079 Clear 21 1014 92 10000 1.34 30 18:18 23.08.2022
2080 Clear 22 1014 89 10000 1.03 50 17:28 23.08.2022
2081 Clear 22 1014 88 10000 1.54 30 16:26 23.08.2022
2082 Clear 25 1013 80 10000 2.24 260 14:30 23.08.2022
2083 Clear 25 1012 77 10000 3.6 270 12:46 23.08.2022
2084 Clear 28 1010 64 10000 5.66 300 11:19 23.08.2022
2085 Clear 29 1010 59 10000 5.66 290 10:33 23.08.2022
2086 Smoke 30 1009 49 10000 4.63 340 09:38 23.08.2022
2087 Clear 34 1009 20 10000 2.06 320 08:47 23.08.2022
2088 Clear 34 1010 27 10000 5.66 120 08:19 23.08.2022
2089 Smoke 33 1010 27 10000 3.6 100 07:33 23.08.2022
2090 Clear 32 1011 31 10000 5.66 120 06:25 23.08.2022
2091 Clear 26 1016 70 8000 1.03 60 01:49 23.08.2022
2092 Smoke 20 1016 85 5000 1.54 130 00:27 23.08.2022
2093 Smoke 19 1014 82 5000 1.03 140 23:32 22.08.2022
2094 Clear 20 1013 77 10000 1.54 130 22:25 22.08.2022
2095 Clear 19 1014 88 10000 1.03 110 20:53 22.08.2022
2096 Clear 20 1014 83 10000 0 0 19:46 22.08.2022
2097 Clear 20 1014 83 6000 0 0 18:37 22.08.2022
2098 Clear 22 1014 80 10000 0.51 90 16:23 22.08.2022
2099 Clear 23 1014 78 10000 1.03 200 15:22 22.08.2022
2100 Clear 24 1012 60 10000 1.79 350 12:53 22.08.2022
2101 Clear 30 1010 43 10000 5.66 20 09:57 22.08.2022
2102 Clear 33 1011 17 10000 5.66 120 07:20 22.08.2022
2103 Clear 27 1015 29 10000 5.66 120 02:42 22.08.2022
2104 Clear 21 1014 46 10000 2.57 130 00:37 22.08.2022
2105 Clear 21 1013 43 10000 3.6 100 23:34 21.08.2022
2106 Clear 22 1013 40 10000 3.6 90 21:56 21.08.2022
2107 Clear 22 1013 40 9000 3.6 90 21:21 21.08.2022
2108 Clear 21 1013 51 10000 3.09 110 20:21 21.08.2022
2109 Clear 20 1014 84 10000 1.54 150 18:59 21.08.2022
2110 Clear 23 1014 81 10000 3.6 180 16:52 21.08.2022
2111 Clear 24 1014 75 10000 2.57 190 15:52 21.08.2022
2112 Clear 24 1014 67 10000 2.06 110 14:59 21.08.2022
2113 Clear 24 1013 67 10000 1.03 40 13:51 21.08.2022
2114 Clear 25 1013 62 10000 3.09 30 12:56 21.08.2022
2115 Clear 31 1011 38 10000 4.63 20 10:48 21.08.2022
2116 Clear 32 1010 39 10000 5.14 110 09:21 21.08.2022
2117 Clear 33 1010 30 10000 5.14 110 08:56 21.08.2022
2118 Clear 32 1010 35 10000 0.45 253 08:38 21.08.2022
2119 Clear 32 1011 29 10000 7.2 70 06:59 21.08.2022
2120 Clear 26 1015 34 10000 5.66 130 02:35 21.08.2022
2121 Clear 20 1015 64 10000 4.12 130 23:44 20.08.2022
2122 Clear 20 1013 88 10000 3.09 140 22:23 20.08.2022
2123 Clear 20 1013 88 10000 3.09 140 21:22 20.08.2022
2124 Clear 21 1013 88 10000 2.57 110 19:49 20.08.2022
2125 Clear 21 1014 82 10000 1.54 90 19:21 20.08.2022
2126 Clear 22 1014 75 10000 2.57 120 18:26 20.08.2022
2127 Clear 21 1015 78 10000 2.06 120 17:21 20.08.2022
2128 Clear 24 1015 72 10000 2.57 140 16:23 20.08.2022
2129 Clear 24 1015 66 10000 2.06 50 14:35 20.08.2022
2130 Clear 26 1013 54 10000 4.47 50 12:19 20.08.2022
2131 Clear 27 1013 52 10000 4.47 30 11:42 20.08.2022
2132 Clear 32 1012 40 10000 6.69 20 09:20 20.08.2022
2133 Clear 32 1013 25 10000 3.6 40 07:31 20.08.2022
2134 Clear 31 1014 29 10000 7.72 90 05:48 20.08.2022
2135 Clear 22 1016 82 10000 2.06 100 00:58 20.08.2022
2136 Clear 19 1016 89 10000 2.57 120 23:51 19.08.2022
2137 Clear 19 1015 88 10000 2.06 110 22:45 19.08.2022
2138 Clear 20 1015 88 10000 1.54 130 21:30 19.08.2022
2139 Clouds 20 1015 89 10000 3.09 120 19:22 19.08.2022
2140 Clear 21 1015 88 10000 0.51 210 16:28 19.08.2022
2141 Clear 23 1014 78 10000 1.54 230 13:56 19.08.2022
2142 Clear 24 1013 68 10000 2.06 310 12:19 19.08.2022
2143 Clear 28 1011 56 10000 4.12 360 10:39 19.08.2022
2144 Clear 29 1011 55 10000 4.63 340 08:48 19.08.2022
2145 Clear 30 1014 44 10000 3.09 120 04:43 19.08.2022
2146 Clouds 21 1016 78 10000 1.54 70 00:42 19.08.2022
2147 Clouds 21 1016 79 10000 1.54 70 00:19 19.08.2022
2148 Clear 20 1014 83 10000 2.57 90 22:58 18.08.2022
2149 Clear 19 1013 88 10000 2.06 90 22:26 18.08.2022
2150 Clear 20 1013 88 10000 1.03 60 21:50 18.08.2022
2151 Clear 20 1013 88 10000 1.03 50 20:55 18.08.2022
2152 Clouds 20 1014 83 10000 2.06 70 19:39 18.08.2022
2153 Clouds 20 1014 83 10000 2.06 70 19:20 18.08.2022
2154 Clouds 21 1014 83 10000 2.57 210 17:38 18.08.2022
2155 Clear 20 1014 83 10000 1.03 270 16:18 18.08.2022
2156 Clear 21 1013 76 10000 0.89 270 14:22 18.08.2022
2157 Clear 22 1013 75 10000 1.03 270 13:44 18.08.2022
2158 Clear 22 1013 75 10000 1.03 270 13:44 18.08.2022
2159 Clear 22 1013 75 10000 1.03 270 13:44 18.08.2022
2160 Clear 24 1012 71 10000 1.03 310 12:30 18.08.2022
2161 Clear 25 1012 62 10000 2.57 340 11:20 18.08.2022
2162 Clear 29 1011 48 10000 5.36 350 09:43 18.08.2022
2163 Clear 31 1011 35 10000 4.12 340 07:53 18.08.2022
2164 Clear 32 1013 37 10000 4.63 300 06:37 18.08.2022
2165 Clouds 25 1017 69 10000 2.57 170 02:22 18.08.2022
2166 Clear 18 1014 88 10000 1.03 140 22:47 17.08.2022
2167 Clouds 19 1014 82 10000 1.03 190 20:37 17.08.2022
2168 Clear 19 1014 85 10000 0 0 19:59 17.08.2022
2169 Clear 19 1014 87 10000 1.54 230 18:39 17.08.2022
2170 Clear 19 1015 79 10000 0 0 17:21 17.08.2022
2171 Clear 19 1015 77 10000 0 0 16:20 17.08.2022
2172 Clear 21 1015 74 10000 1.54 230 14:46 17.08.2022
2173 Clear 25 1014 53 10000 1.54 290 12:36 17.08.2022
2174 Clear 26 1013 49 10000 3.6 10 11:36 17.08.2022
2175 Clear 30 1013 34 10000 5.66 350 09:29 17.08.2022
2176 Clear 32 1014 13 10000 4.02 80 06:50 17.08.2022
2177 Clear 24 1016 44 10000 3.6 90 01:23 17.08.2022
2178 Clear 18 1015 72 10000 1.54 100 23:33 16.08.2022
2179 Clouds 19 1014 72 10000 2.57 110 21:48 16.08.2022
2180 Clouds 20 1014 73 10000 3.09 120 20:25 16.08.2022
2181 Clouds 19 1013 82 10000 2.06 160 19:40 16.08.2022
2182 Clouds 20 1014 83 10000 1.03 160 18:18 16.08.2022
2183 Clouds 19 1014 72 10000 1.79 170 17:28 16.08.2022
2184 Clear 20 1014 64 10000 0.51 70 15:46 16.08.2022
2185 Clear 21 1013 60 10000 0 0 14:55 16.08.2022
2186 Clear 21 1013 60 10000 0 0 14:37 16.08.2022
2187 Clear 24 1012 50 10000 2.06 20 12:41 16.08.2022
2188 Clear 29 1011 37 10000 5.14 360 10:35 16.08.2022
2189 Clear 30 1011 36 10000 6.71 360 09:31 16.08.2022
2190 Clear 34 1011 8 10000 1.03 150 08:43 16.08.2022
2191 Clear 32 1010 12 10000 3.6 90 07:23 16.08.2022
2192 Clear 22 1015 38 10000 2.57 130 01:35 16.08.2022
2193 Clear 17 1013 88 10000 2.06 150 22:29 15.08.2022
2194 Clouds 17 1013 94 10000 2.57 160 21:53 15.08.2022
2195 Clouds 18 1013 87 10000 1.54 150 20:48 15.08.2022
2196 Clouds 19 1012 87 10000 2.06 160 20:19 15.08.2022
2197 Clouds 20 1013 88 10000 2.57 180 18:36 15.08.2022
2198 Clear 20 1013 71 10000 1.79 170 16:47 15.08.2022
2199 Clear 20 1013 73 10000 1.54 180 16:21 15.08.2022
2200 Clear 23 1012 56 10000 0 0 13:56 15.08.2022
2201 Clear 24 1011 56 10000 2.57 10 12:29 15.08.2022
2202 Clear 28 1010 44 10000 4.63 10 10:18 15.08.2022
2203 Clear 32 1010 27 10000 3.6 330 08:27 15.08.2022
2204 Clear 31 1012 29 10000 1.54 0 06:20 15.08.2022
2205 Clouds 26 1012 62 10000 4.63 130 02:19 15.08.2022
2206 Clouds 23 1014 94 10000 1.54 180 22:39 14.08.2022
2207 Clouds 23 1013 93 10000 0.51 30 21:39 14.08.2022
2208 Clouds 22 1012 94 10000 0.51 70 20:24 14.08.2022
2209 Clouds 23 1012 94 10000 1.54 30 19:31 14.08.2022
2210 Clouds 22 1013 93 10000 0 0 18:20 14.08.2022
2211 Clear 25 1013 89 10000 2.06 210 16:55 14.08.2022
2212 Clear 25 1013 85 10000 2.06 220 15:51 14.08.2022
2213 Clear 25 1012 82 10000 2.57 240 14:38 14.08.2022
2214 Clear 26 1012 80 10000 2.06 240 13:50 14.08.2022
2215 Clear 26 1012 76 10000 1.54 270 13:24 14.08.2022
2216 Clear 27 1011 72 10000 3.09 300 12:34 14.08.2022
2217 Clear 27 1011 70 10000 4.12 310 11:18 14.08.2022
2218 Clouds 31 1009 60 10000 5.66 350 08:56 14.08.2022
2219 Clouds 32 1012 44 10000 4.12 120 06:23 14.08.2022
2220 Clouds 32 1012 44 10000 4.12 120 06:23 14.08.2022
2221 Clouds 32 1012 44 10000 4.12 120 06:23 14.08.2022
2222 Clouds 30 1012 54 10000 4.63 120 04:21 14.08.2022
2223 Clouds 23 1013 94 10000 0.51 60 00:42 14.08.2022
2224 Fog 22 1012 94 10000 0 0 22:56 13.08.2022
2225 Clear 23 1012 88 10000 0 0 21:55 13.08.2022
2226 Clear 23 1013 90 10000 0 0 20:49 13.08.2022
2227 Clear 22 1013 91 10000 1.54 320 19:47 13.08.2022
2228 Clear 24 1013 86 10000 1.54 360 18:47 13.08.2022
2229 Clear 23 1014 84 10000 1.03 120 16:23 13.08.2022
2230 Clear 24 1013 82 10000 0 0 14:41 13.08.2022
2231 Clear 26 1012 74 10000 2.24 250 13:48 13.08.2022
2232 Clear 27 1012 72 10000 2.57 250 13:25 13.08.2022
2233 Clear 27 1010 62 10000 2.57 320 11:27 13.08.2022
2234 Clouds 29 1010 62 10000 5.14 350 09:23 13.08.2022
2235 Clouds 30 1012 59 10000 5.14 330 06:44 13.08.2022
2236 Clouds 26 1014 79 10000 1.54 90 01:37 13.08.2022
2237 Clouds 22 1013 88 10000 0 0 23:32 12.08.2022
2238 Clear 22 1012 94 10000 1.03 90 21:37 12.08.2022
2239 Clear 23 1013 88 10000 0 0 19:48 12.08.2022
2240 Clear 23 1013 88 10000 0 0 19:23 12.08.2022
2241 Clear 23 1013 86 10000 0.51 90 18:21 12.08.2022
2242 Clear 25 1013 81 10000 2.24 180 16:27 12.08.2022
2243 Clear 25 1012 80 10000 2.06 190 15:19 12.08.2022
2244 Clear 26 1012 72 10000 0.51 250 13:43 12.08.2022
2245 Clear 26 1011 72 10000 3.09 10 12:32 12.08.2022
2246 Clouds 30 1010 58 10000 5.14 350 08:52 12.08.2022
2247 Clouds 31 1010 59 10000 6.17 350 07:45 12.08.2022
2248 Clouds 32 1011 55 10000 2.57 340 06:23 12.08.2022
2249 Clear 23 1013 94 10000 1.03 70 00:32 12.08.2022
2250 Fog 23 1013 93 10000 2.57 70 23:58 11.08.2022
2251 Clouds 23 1013 93 10000 2.57 60 23:22 11.08.2022
2252 Clear 23 1013 93 10000 1.54 60 21:53 11.08.2022
2253 Clear 23 1011 93 10000 1.54 60 21:28 11.08.2022
2254 Clear 23 1011 93 10000 1.54 60 21:28 11.08.2022
2255 Clouds 23 1013 94 10000 1.03 50 20:31 11.08.2022
2256 Clouds 23 1013 94 10000 1.03 50 20:31 11.08.2022
2257 Clouds 23 1014 92 10000 0 0 19:33 11.08.2022
2258 Clouds 23 1012 91 10000 0.45 280 18:56 11.08.2022
2259 Clouds 24 1014 86 10000 1.54 270 17:22 11.08.2022
2260 Clouds 24 1012 84 10000 1.79 240 15:48 11.08.2022
2261 Clear 26 1013 80 10000 2.06 250 14:40 11.08.2022
2262 Clouds 26 1012 74 10000 2.57 320 11:59 11.08.2022
2263 Clouds 31 1009 51 10000 4.63 350 09:22 11.08.2022
2264 Clouds 29 1011 65 10000 5.14 350 06:52 11.08.2022
2265 Clouds 28 1014 70 10000 4.12 60 02:49 11.08.2022
2266 Fog 21 1013 89 10000 1.03 110 23:57 10.08.2022
2267 Clear 21 1013 93 10000 1.54 160 21:49 10.08.2022
2268 Clouds 21 1016 92 10000 1.03 100 21:19 10.08.2022
2269 Clouds 21 1016 94 10000 1.03 100 20:36 10.08.2022
2270 Clear 23 1017 89 10000 1.34 160 18:53 10.08.2022
2271 Clear 24 1017 89 10000 2.57 160 17:28 10.08.2022
2272 Clear 24 1012 78 10000 1.79 230 14:57 10.08.2022
2273 Clear 25 1012 69 10000 0 0 13:34 10.08.2022
2274 Clear 27 1011 62 10000 3.09 10 11:47 10.08.2022
2275 Clouds 30 1010 53 10000 6.17 350 08:44 10.08.2022
2276 Clouds 31 1011 52 10000 5.66 330 07:36 10.08.2022
2277 Clear 30 1012 58 10000 4.63 320 05:46 10.08.2022
2278 Clouds 27 1014 69 10000 2.06 60 02:22 10.08.2022
2279 Clouds 21 1013 88 10000 0 0 23:33 09.08.2022
2280 Clear 21 1012 88 10000 0 0 22:48 09.08.2022
2281 Clouds 21 1012 84 10000 0 0 21:34 09.08.2022
2282 Clouds 22 1012 83 10000 1.03 100 19:33 09.08.2022
2283 Clouds 24 1012 82 10000 1.54 190 17:59 09.08.2022
2284 Clouds 24 1012 81 10000 2.06 220 17:26 09.08.2022
2285 Clear 24 1012 77 10000 1.54 270 16:40 09.08.2022
2286 Clear 25 1012 73 10000 0 0 15:31 09.08.2022
2287 Clear 26 1010 63 10000 4.63 40 12:20 09.08.2022
2288 Clear 31 1009 46 10000 6.71 20 08:55 09.08.2022
2289 Clear 32 1009 44 10000 6.69 20 08:26 09.08.2022
2290 Clear 34 1010 27 10000 4.12 110 07:18 09.08.2022
2291 Clouds 29 1014 61 10000 4.63 100 02:54 09.08.2022
2292 Clear 22 1011 89 10000 1.03 170 23:26 08.08.2022
2293 Clear 23 1011 89 10000 0.51 150 22:52 08.08.2022
2294 Clear 22 1011 90 10000 1.54 300 21:48 08.08.2022
2295 Clear 23 1011 88 10000 0 0 20:52 08.08.2022
2296 Clear 23 1015 86 10000 0 0 19:50 08.08.2022
2297 Clear 24 1014 83 10000 1.54 150 18:19 08.08.2022
2298 Clear 24 1012 74 10000 1.54 130 15:57 08.08.2022
2299 Clear 25 1011 72 10000 2.06 160 15:38 08.08.2022
2300 Clear 26 1010 67 10000 1.54 40 12:50 08.08.2022
2301 Clouds 27 1008 62 10000 4.12 40 11:48 08.08.2022
2302 Clouds 31 1008 54 10000 5.66 360 09:29 08.08.2022
2303 Clouds 32 1011 45 10000 5.66 100 05:35 08.08.2022
2304 Clouds 29 1013 69 10000 3.09 90 02:24 08.08.2022
2305 Clear 23 1011 90 10000 0 0 22:20 07.08.2022
2306 Clear 23 1013 90 10000 0 0 21:38 07.08.2022
2307 Clouds 24 1011 94 10000 1.54 350 20:25 07.08.2022
2308 Clouds 24 1011 94 10000 1.54 350 19:54 07.08.2022
2309 Clouds 24 1011 90 10000 1.54 360 19:29 07.08.2022
2310 Clouds 24 1011 87 10000 1.54 340 18:21 07.08.2022
2311 Clear 24 1011 87 10000 2.06 30 16:53 07.08.2022
2312 Clear 24 1011 84 10000 1.03 180 15:49 07.08.2022
2313 Clear 25 1011 82 10000 1.03 260 14:39 07.08.2022
2314 Clear 26 1010 79 10000 1.54 320 12:59 07.08.2022
2315 Clouds 29 1009 66 10000 3.09 330 10:57 07.08.2022
2316 Clouds 30 1008 61 10000 4.12 340 10:21 07.08.2022
2317 Clouds 31 1011 56 10000 2.57 10 04:58 07.08.2022
2318 Clear 30 1012 66 10000 2.06 40 03:18 07.08.2022
2319 Clear 24 1011 89 10000 1.54 20 23:29 06.08.2022
2320 Clouds 24 1010 94 10000 0 0 22:20 06.08.2022
2321 Clouds 23 1010 91 10000 0 0 20:20 06.08.2022
2322 Clear 23 1010 91 10000 0 0 19:38 06.08.2022
2323 Clear 24 1011 90 10000 1.54 360 18:19 06.08.2022
2324 Clear 24 1011 86 10000 2.06 350 16:33 06.08.2022
2325 Clear 25 1011 81 10000 2.06 270 14:31 06.08.2022
2326 Clear 26 1010 77 10000 2.06 290 13:39 06.08.2022
2327 Clear 27 1008 69 10000 4.63 320 11:21 06.08.2022
2328 Clouds 30 1008 60 10000 5.66 310 09:50 06.08.2022
2329 Clouds 32 1008 48 10000 6.17 290 07:51 06.08.2022
2330 Clouds 30 1012 58 10000 1.54 200 03:24 06.08.2022
2331 Clouds 23 1011 94 10000 1.03 70 23:27 05.08.2022
2332 Clouds 23 1010 94 10000 1.03 50 21:54 05.08.2022
2333 Clear 23 1010 90 10000 1.03 240 19:32 05.08.2022
2334 Clouds 24 1010 93 10000 1.54 210 18:44 05.08.2022
2335 Clouds 25 1011 89 10000 2.24 230 17:27 05.08.2022
2336 Clear 25 1010 89 10000 2.68 230 16:48 05.08.2022
2337 Clear 25 1011 89 10000 2.57 230 15:21 05.08.2022
2338 Clear 25 1010 85 10000 1.54 250 13:53 05.08.2022
2339 Clear 25 1010 85 10000 2.57 270 13:22 05.08.2022
2340 Clear 26 1009 85 10000 2.57 280 12:24 05.08.2022
2341 Clouds 29 1008 65 10000 4.63 320 10:35 05.08.2022
2342 Clouds 29 1008 61 10000 4.63 320 07:58 05.08.2022
2343 Clouds 29 1009 62 10000 4.73 301 05:32 05.08.2022
2344 Clouds 24 1011 88 10000 1.54 170 00:30 05.08.2022
2345 Clouds 24 1010 94 10000 2.06 200 22:26 04.08.2022
2346 Clouds 24 1010 94 10000 1.54 190 21:26 04.08.2022
2347 Clouds 23 1010 94 10000 1.03 230 20:42 04.08.2022
2348 Clouds 23 1010 94 10000 0.51 210 19:40 04.08.2022
2349 Clouds 23 1011 94 10000 0 0 18:36 04.08.2022
2350 Clouds 24 1011 90 10000 2.57 230 17:38 04.08.2022
2351 Clear 25 1010 81 10000 2.57 230 14:18 04.08.2022
2352 Clear 26 1009 74 10000 2.57 260 12:44 04.08.2022
2353 Clouds 28 1009 67 10000 3.58 300 11:18 04.08.2022
2354 Clouds 30 1009 58 10000 3.6 340 07:53 04.08.2022
2355 Clouds 30 1011 61 10000 3.09 330 05:46 04.08.2022
2356 Clouds 28 1013 67 10000 1.54 210 02:29 04.08.2022
2357 Clear 23 1012 88 10000 0.89 160 23:45 03.08.2022
2358 Clear 23 1011 94 10000 1.54 170 22:55 03.08.2022
2359 Clouds 23 1011 90 10000 3.09 180 20:50 03.08.2022
2360 Clouds 23 1011 90 10000 3.09 190 19:44 03.08.2022
2361 Clouds 24 1012 89 10000 2.57 200 18:37 03.08.2022
2362 Clouds 24 1011 85 10000 2.06 230 16:25 03.08.2022
2363 Clouds 24 1012 83 10000 2.24 250 15:32 03.08.2022
2364 Clouds 26 1010 72 10000 2.57 30 12:41 03.08.2022
2365 Clouds 30 1012 60 10000 3.6 340 09:46 03.08.2022
2366 Clouds 29 1012 64 10000 2.57 50 04:51 03.08.2022
2367 Clouds 27 1013 69 10000 2.06 190 03:52 03.08.2022
2368 Clouds 26 1013 75 10000 2.57 190 01:45 03.08.2022
2369 Clouds 23 1010 88 10000 1.54 160 23:41 02.08.2022
2370 Clouds 22 1011 91 10000 1.54 170 21:59 02.08.2022
2371 Clouds 22 1011 91 10000 1.54 170 21:40 02.08.2022
2372 Clouds 22 1011 94 10000 1.03 220 19:39 02.08.2022
2373 Clear 22 1012 86 10000 1.03 110 16:42 02.08.2022
2374 Clear 25 1011 70 10000 2.06 20 13:40 02.08.2022
2375 Clouds 29 1009 53 10000 4.12 360 10:34 02.08.2022
2376 Clouds 30 1009 54 10000 4.12 350 08:27 02.08.2022
2377 Clouds 30 1010 56 10000 4.92 350 07:50 02.08.2022
2378 Clouds 30 1012 58 10000 4.12 330 04:56 02.08.2022
2379 Clear 26 1014 69 10000 2.57 50 01:58 02.08.2022
2380 Clear 22 1010 83 10000 1.54 150 23:23 01.08.2022
2381 Clouds 21 1012 88 10000 1.03 140 21:37 01.08.2022
2382 Clouds 21 1012 87 10000 1.54 130 19:45 01.08.2022
2383 Clouds 22 1012 86 10000 2.06 150 18:53 01.08.2022
2384 Clear 22 1012 81 10000 1.03 200 16:56 01.08.2022
2385 Clear 22 1012 81 10000 1.03 270 16:33 01.08.2022
2386 Clear 24 1012 74 10000 1.54 170 15:34 01.08.2022
2387 Clear 24 1012 74 10000 1.03 160 14:45 01.08.2022
2388 Clear 25 1011 66 10000 2.57 20 13:29 01.08.2022
2389 Clouds 28 1009 51 10000 4.63 30 10:48 01.08.2022
2390 Clear 30 1008 48 10000 6.17 10 08:53 01.08.2022
2391 Clouds 32 1010 48 10000 4.63 30 06:51 01.08.2022
2392 Clouds 30 1011 58 10000 4.63 70 04:32 01.08.2022
2393 Clouds 25 1013 83 10000 2.06 90 01:23 01.08.2022
2394 Clouds 21 1009 94 9000 1.79 90 22:44 31.07.2022
2395 Clouds 22 1009 94 9000 2.06 90 22:25 31.07.2022
2396 Clouds 22 1011 91 10000 1.03 250 20:28 31.07.2022
2397 Clouds 23 1011 85 10000 3.09 350 18:39 31.07.2022
2398 Clouds 23 1011 82 10000 1.39 59 16:55 31.07.2022
2399 Clouds 23 1011 81 10000 1.72 343 14:37 31.07.2022
2400 Clear 25 1011 76 10000 2.06 10 12:58 31.07.2022
2401 Clear 26 1010 65 10000 4.12 360 11:38 31.07.2022
2402 Clear 30 1009 46 10000 3.6 330 08:46 31.07.2022
2403 Clear 31 1011 42 10000 3.6 260 05:38 31.07.2022
2404 Clear 23 1013 82 10000 1.03 180 01:21 31.07.2022
2405 Clear 20 1012 88 10000 0 0 22:46 30.07.2022
2406 Clouds 22 1012 88 10000 2.06 180 21:52 30.07.2022
2407 Clouds 22 1012 88 10000 3.09 190 21:33 30.07.2022
2408 Clouds 21 1012 91 10000 1.54 200 20:33 30.07.2022
2409 Clouds 21 1012 91 10000 2.57 190 19:50 30.07.2022
2410 Clouds 22 1012 88 10000 3.09 180 18:19 30.07.2022
2411 Clear 21 1012 83 10000 0 0 16:38 30.07.2022
2412 Clear 22 1012 81 10000 1.54 230 15:33 30.07.2022
2413 Clear 24 1011 70 10000 1.54 250 13:23 30.07.2022
2414 Clear 24 1011 68 10000 2.06 360 12:22 30.07.2022
2415 Clear 25 1010 61 10000 3.09 360 11:53 30.07.2022
2416 Clouds 29 1010 47 10000 3.6 350 10:20 30.07.2022
2417 Clouds 30 1010 39 10000 3.6 320 08:55 30.07.2022
2418 Clear 31 1011 42 10000 4.12 310 07:33 30.07.2022
2419 Clear 27 1014 57 10000 1.03 10 02:33 30.07.2022
2420 Clear 19 1013 88 10000 1.03 90 00:30 30.07.2022
2421 Clouds 19 1017 94 10000 0 0 21:38 29.07.2022
2422 Clouds 20 1017 88 10000 1.03 20 20:51 29.07.2022
2423 Clouds 20 1016 90 10000 1.54 80 19:47 29.07.2022
2424 Clouds 21 1013 86 10000 1.03 200 17:34 29.07.2022
2425 Clear 24 1012 73 10000 1.03 220 14:50 29.07.2022
2426 Clear 24 1011 72 10000 2.57 360 12:55 29.07.2022
2427 Clear 29 1010 51 10000 5.14 340 09:34 29.07.2022
2428 Clear 30 1010 43 10000 6.71 300 08:41 29.07.2022
2429 Clear 30 1012 30 10000 4.63 100 06:40 29.07.2022
2430 Clear 23 1014 54 10000 4.12 90 01:19 29.07.2022
2431 Clouds 20 1016 72 10000 3.09 120 21:45 28.07.2022
2432 Clouds 20 1015 80 10000 2.06 150 20:54 28.07.2022
2433 Clouds 20 1015 86 10000 2.06 160 20:21 28.07.2022
2434 Clouds 20 1017 87 10000 2.24 170 19:40 28.07.2022
2435 Clouds 21 1013 86 10000 3.6 190 18:25 28.07.2022
2436 Clouds 22 1013 88 10000 2.57 190 17:42 28.07.2022
2437 Clear 22 1014 84 10000 1.03 190 16:41 28.07.2022
2438 Clear 23 1013 79 10000 3.09 190 14:30 28.07.2022
2439 Clear 24 1012 73 10000 2.57 360 12:41 28.07.2022
2440 Clear 29 1010 52 10000 5.14 30 09:34 28.07.2022
2441 Clear 30 1013 31 10000 6.71 100 05:45 28.07.2022
2442 Clear 29 1013 32 10000 7.2 110 05:24 28.07.2022
2443 Clear 19 1015 63 10000 3.6 150 00:29 28.07.2022
2444 Clear 19 1014 67 10000 3.09 140 22:25 27.07.2022
2445 Clouds 19 1013 78 10000 2.57 110 20:20 27.07.2022
2446 Clouds 20 1014 88 10000 1.54 130 19:32 27.07.2022
2447 Clear 22 1014 83 10000 2.06 210 16:34 27.07.2022
2448 Clear 21 1014 76 10000 2.06 200 15:51 27.07.2022
2449 Clear 21 1013 73 10000 0 0 14:46 27.07.2022
2450 Clear 22 1013 68 10000 0.51 40 14:27 27.07.2022
2451 Clear 24 1011 64 10000 1.03 30 12:19 27.07.2022
2452 Clear 31 1011 33 10000 6.17 130 07:53 27.07.2022
2453 Clear 29 1013 38 10000 7.72 100 05:33 27.07.2022
2454 Fog 20 1015 94 10000 2.57 150 00:28 27.07.2022
2455 Fog 20 1013 97 10000 2.06 140 22:24 26.07.2022
2456 Clouds 20 1012 93 8000 1.54 140 21:19 26.07.2022
2457 Clouds 20 1013 92 10000 0 0 19:40 26.07.2022
2458 Clouds 21 1013 93 10000 1.54 170 18:41 26.07.2022
2459 Clouds 21 1013 92 10000 2.06 160 17:57 26.07.2022
2460 Clear 21 1013 84 10000 0 0 15:47 26.07.2022
2461 Clear 22 1013 86 10000 0 0 14:44 26.07.2022
2462 Clear 24 1012 82 10000 1.54 290 12:50 26.07.2022
2463 Clear 27 1010 63 10000 3.6 350 10:57 26.07.2022
2464 Clear 30 1010 58 10000 4.12 340 08:43 26.07.2022
2465 Clouds 31 1013 45 10000 4.92 90 05:30 26.07.2022
2466 Clear 19 1013 91 10000 1.03 50 00:27 26.07.2022
2467 Clear 18 1012 94 10000 2.57 60 22:51 25.07.2022
2468 Clear 18 1012 94 10000 2.06 40 22:22 25.07.2022
2469 Clear 18 1012 89 10000 2.06 70 21:38 25.07.2022
2470 Clear 18 1012 90 10000 1.54 130 20:40 25.07.2022
2471 Clear 19 1012 88 10000 1.03 120 19:27 25.07.2022
2472 Clear 20 1013 88 10000 3.09 180 18:18 25.07.2022
2473 Clear 21 1012 89 10000 2.06 200 17:26 25.07.2022
2474 Clear 22 1012 89 10000 1.54 340 14:32 25.07.2022
2475 Clear 24 1011 78 10000 2.06 340 11:50 25.07.2022
2476 Clear 28 1010 58 10000 5.14 360 08:32 25.07.2022
2477 Clear 24 1014 54 10000 2.57 180 02:21 25.07.2022
2478 Clear 17 1012 88 10000 2.06 140 23:51 24.07.2022
2479 Clear 17 1012 88 10000 1.03 170 22:56 24.07.2022
2480 Clear 17 1012 91 10000 1.03 170 22:26 24.07.2022
2481 Clear 18 1012 88 10000 2.06 180 21:19 24.07.2022
2482 Clear 18 1015 83 10000 2.57 190 20:47 24.07.2022
2483 Clear 18 1012 89 10000 2.57 180 19:54 24.07.2022
2484 Clear 20 1012 84 10000 1.54 200 18:30 24.07.2022
2485 Clear 21 1012 79 10000 1.54 200 16:28 24.07.2022
2486 Clear 21 1012 88 10000 2.57 200 15:45 24.07.2022
2487 Clear 21 1012 85 10000 0.51 360 14:19 24.07.2022
2488 Clear 22 1011 73 10000 1.54 350 12:52 24.07.2022
2489 Clear 24 1010 64 10000 3.6 10 11:38 24.07.2022
2490 Clear 25 1010 56 10000 4.12 10 10:59 24.07.2022
2491 Clear 29 1010 34 10000 3.6 310 08:32 24.07.2022
2492 Clear 29 1010 32 10000 3.09 290 07:52 24.07.2022
2493 Clear 27 1015 36 10000 3.09 300 05:44 24.07.2022
2494 Fog 15 1013 94 8000 0 0 00:28 24.07.2022
2495 Clouds 16 1012 94 10000 1.54 170 21:37 23.07.2022
2496 Clouds 17 1012 89 10000 1.34 200 20:19 23.07.2022
2497 Clouds 19 1014 92 10000 2.06 200 18:50 23.07.2022
2498 Clouds 19 1012 82 10000 2.57 190 17:28 23.07.2022
2499 Clear 18 1012 83 10000 2.06 180 16:35 23.07.2022
2500 Clear 19 1012 66 10000 1.79 200 15:22 23.07.2022
2501 Clear 20 1012 64 10000 2.06 200 14:58 23.07.2022
2502 Clear 20 1012 64 10000 0.51 30 14:28 23.07.2022
2503 Clear 20 1012 64 10000 2.57 30 13:26 23.07.2022
2504 Clouds 25 1011 50 9000 4.63 10 10:45 23.07.2022
2505 Clouds 26 1010 52 9000 5.14 10 10:21 23.07.2022
2506 Clear 28 1011 45 10000 4.63 340 08:39 23.07.2022
2507 Clear 25 1015 42 10000 3.09 60 03:40 23.07.2022
2508 Clear 19 1015 72 10000 3.09 130 01:33 23.07.2022
2509 Mist 16 1013 94 1500 1.54 170 22:56 22.07.2022
2510 Clouds 16 1013 94 10000 1.54 170 20:56 22.07.2022
2511 Clouds 17 1013 88 10000 2.06 170 19:46 22.07.2022
2512 Clouds 18 1011 82 10000 1.34 180 18:28 22.07.2022
2513 Clouds 18 1012 82 10000 1.54 180 17:28 22.07.2022
2514 Clear 19 1013 68 10000 1.03 230 14:55 22.07.2022
2515 Clear 25 1012 47 10000 2.57 10 11:36 22.07.2022
2516 Clear 28 1011 33 10000 4.47 350 09:26 22.07.2022
2517 Clear 28 1011 34 10000 4.63 350 08:43 22.07.2022
2518 Clouds 29 1012 46 10000 4.63 300 07:20 22.07.2022
2519 Clouds 27 1016 54 10000 2.06 90 03:43 22.07.2022
2520 Clear 17 1014 94 10000 1.03 60 22:45 21.07.2022
2521 Clouds 21 1013 88 10000 1.34 190 21:34 21.07.2022
2522 Clouds 19 1013 90 10000 1.34 190 19:30 21.07.2022
2523 Clouds 19 1013 91 10000 1.34 190 17:45 21.07.2022
2524 Clear 20 1013 89 10000 1.54 190 17:19 21.07.2022
2525 Clear 22 1013 78 10000 2.06 200 15:22 21.07.2022
2526 Clear 23 1013 73 10000 2.06 200 14:39 21.07.2022
2527 Clear 24 1012 59 10000 1.54 240 12:46 21.07.2022
2528 Clear 26 1011 52 10000 3.6 10 11:19 21.07.2022
2529 Clear 29 1010 42 10000 4.12 350 09:41 21.07.2022
2530 Clear 29 1011 42 10000 4.63 350 08:52 21.07.2022
2531 Clear 31 1011 27 10000 4.63 330 07:50 21.07.2022
2532 Clear 31 1012 29 10000 4.63 120 06:24 21.07.2022
2533 Clear 22 1014 82 10000 1.54 130 01:42 21.07.2022
2534 Clear 19 1013 82 10000 1.03 80 22:22 20.07.2022
2535 Clouds 19 1013 88 10000 2.06 70 21:30 20.07.2022
2536 Clouds 19 1013 88 10000 1.54 80 19:54 20.07.2022
2537 Clouds 19 1013 88 10000 1.54 110 19:25 20.07.2022
2538 Clouds 20 1013 88 10000 1.03 80 18:52 20.07.2022
2539 Clouds 20 1013 88 10000 1.54 50 18:27 20.07.2022
2540 Clear 21 1013 85 10000 2.57 190 16:46 20.07.2022
2541 Clear 22 1013 82 10000 1.54 210 15:32 20.07.2022
2542 Clear 22 1014 84 10000 2.06 190 14:26 20.07.2022
2543 Clear 25 1012 61 10000 1.54 310 11:55 20.07.2022
2544 Clear 29 1011 52 10000 5.14 360 09:43 20.07.2022
2545 Clear 30 1013 46 10000 2.57 270 04:50 20.07.2022
2546 Clear 20 1013 78 10000 2.57 70 00:54 20.07.2022
2547 Clear 19 1013 84 10000 3.09 70 00:25 20.07.2022
2548 Clear 20 1013 88 10000 2.06 170 22:33 19.07.2022
2549 Clouds 19 1012 89 10000 2.57 180 21:53 19.07.2022
2550 Clouds 20 1012 89 10000 2.57 190 20:48 19.07.2022
2551 Clouds 20 1013 84 10000 2.57 190 19:21 19.07.2022
2552 Clouds 21 1013 84 10000 2.57 210 18:34 19.07.2022
2553 Clouds 21 1013 84 10000 2.57 180 17:51 19.07.2022
2554 Clear 22 1013 83 10000 2.57 220 15:21 19.07.2022
2555 Clear 23 1012 69 10000 2.57 270 12:27 19.07.2022
2556 Clear 24 1011 66 10000 2.57 310 11:31 19.07.2022
2557 Clear 27 1011 55 10000 4.12 320 09:44 19.07.2022
2558 Clear 30 1011 42 10000 4.12 330 08:42 19.07.2022
2559 Clear 30 1011 42 10000 3.6 310 07:19 19.07.2022
2560 Clear 29 1012 42 10000 4.12 320 05:50 19.07.2022
2561 Clear 28 1013 44 10000 1.03 150 05:18 19.07.2022
2562 Clear 24 1015 59 10000 3.6 130 02:33 19.07.2022
2563 Clear 19 1013 88 10000 3.09 170 23:52 18.07.2022
2564 Clear 19 1013 88 10000 2.57 160 23:19 18.07.2022
2565 Clear 19 1013 88 10000 2.06 160 22:26 18.07.2022
2566 Clouds 19 1013 90 10000 2.06 160 21:20 18.07.2022
2567 Clouds 19 1013 90 10000 3.09 190 19:54 18.07.2022
2568 Clouds 20 1014 86 10000 2.57 190 18:29 18.07.2022
2569 Clear 21 1014 88 10000 1.54 210 16:30 18.07.2022
2570 Clear 22 1014 83 10000 1.54 190 15:26 18.07.2022
2571 Clear 23 1013 70 10000 2.57 250 13:31 18.07.2022
2572 Clear 25 1012 60 10000 2.57 360 11:43 18.07.2022
2573 Clear 28 1011 53 10000 4.12 350 09:55 18.07.2022
2574 Clear 28 1011 51 10000 5.14 310 07:54 18.07.2022
2575 Clouds 28 1014 46 10000 5.14 90 05:25 18.07.2022
2576 Clear 18 1014 88 10000 2.57 170 22:57 17.07.2022
2577 Clear 18 1013 88 10000 2.06 170 22:31 17.07.2022
2578 Clouds 17 1013 94 10000 1.54 170 21:40 17.07.2022
2579 Clouds 17 1016 88 10000 2.68 170 20:46 17.07.2022
2580 Clouds 18 1013 88 10000 2.57 170 19:50 17.07.2022
2581 Clouds 18 1014 94 10000 1.03 170 19:24 17.07.2022
2582 Clouds 18 1014 91 10000 2.06 170 17:54 17.07.2022
2583 Clouds 18 1014 88 10000 1.54 180 17:36 17.07.2022
2584 Clear 18 1014 88 10000 1.03 180 16:45 17.07.2022
2585 Clear 19 1014 88 10000 2.06 180 16:22 17.07.2022
2586 Clear 21 1014 68 10000 1.03 40 13:58 17.07.2022
2587 Clear 22 1013 68 10000 3.6 40 12:56 17.07.2022
2588 Clear 25 1012 56 10000 5.14 360 10:21 17.07.2022
2589 Clouds 28 1017 47 10000 5.66 340 07:55 17.07.2022
2590 Clouds 23 1020 63 10000 5.14 90 02:35 17.07.2022
2591 Clear 19 1016 72 10000 2.57 110 00:33 17.07.2022
2592 Clouds 18 1013 88 10000 3.58 160 22:43 16.07.2022
2593 Clouds 19 1015 85 10000 2.57 180 20:45 16.07.2022
2594 Clouds 20 1015 83 10000 3.6 180 18:59 16.07.2022
2595 Clouds 20 1015 90 10000 2.57 200 17:48 16.07.2022
2596 Clouds 20 1013 89 10000 1.03 190 16:23 16.07.2022
2597 Clear 21 1014 77 10000 1.54 10 13:35 16.07.2022
2598 Clear 26 1013 51 10000 5.14 30 10:34 16.07.2022
2599 Clear 27 1013 49 10000 4.63 290 09:28 16.07.2022
2600 Clear 29 1013 42 10000 3.6 330 08:41 16.07.2022
2601 Clear 29 1013 40 10000 4.12 100 07:40 16.07.2022
2602 Clear 24 1016 54 10000 6.17 100 03:38 16.07.2022
2603 Clear 20 1016 72 10000 6.71 100 01:39 16.07.2022
2604 Clear 20 1015 68 10000 5.66 110 23:21 15.07.2022
2605 Clouds 20 1015 68 10000 3.6 110 22:37 15.07.2022
2606 Clouds 19 1015 71 10000 2.06 150 20:47 15.07.2022
2607 Clouds 18 1015 82 10000 2.06 170 19:49 15.07.2022
2608 Clouds 19 1015 88 10000 2.06 170 18:30 15.07.2022
2609 Clouds 19 1015 85 10000 2.06 180 17:25 15.07.2022
2610 Clear 19 1015 79 10000 1.54 40 14:35 15.07.2022
2611 Clear 21 1014 64 10000 3.09 40 12:43 15.07.2022
2612 Clear 26 1012 47 10000 5.14 50 10:53 15.07.2022
2613 Clear 28 1012 37 10000 3.6 130 08:42 15.07.2022
2614 Clear 25 1014 39 10000 5.66 110 05:55 15.07.2022
2615 Clear 18 1016 57 10000 4.63 100 00:51 15.07.2022
2616 Clear 18 1015 55 10000 4.63 100 23:35 14.07.2022
2617 Clear 18 1015 55 10000 4.63 100 22:42 14.07.2022
2618 Clear 18 1015 52 10000 4.63 120 21:43 14.07.2022
2619 Clear 18 1015 52 10000 4.63 120 21:24 14.07.2022
2620 Clear 18 1015 52 10000 3.6 130 20:43 14.07.2022
2621 Clouds 18 1015 52 10000 3.6 130 20:19 14.07.2022
2622 Clouds 17 1016 79 10000 3.09 160 18:41 14.07.2022
2623 Clear 17 1016 77 10000 2.06 180 16:21 14.07.2022
2624 Clear 17 1016 77 10000 0 0 15:29 14.07.2022
2625 Clear 19 1015 63 10000 1.54 210 13:53 14.07.2022
2626 Clear 20 1014 66 10000 1.54 30 12:48 14.07.2022
2627 Clear 22 1013 54 10000 2.06 360 11:42 14.07.2022
2628 Clear 22 1013 53 10000 2.06 360 11:22 14.07.2022
2629 Clear 25 1012 40 10000 3.6 330 09:49 14.07.2022
2630 Clear 25 1015 25 10000 6.17 80 05:25 14.07.2022
2631 Clear 17 1015 35 10000 4.63 130 01:24 14.07.2022
2632 Clear 16 1015 37 10000 3.6 140 00:53 14.07.2022
2633 Clear 17 1013 30 10000 4.63 120 22:33 13.07.2022
2634 Clouds 17 1013 30 10000 4.12 120 21:55 13.07.2022
2635 Clouds 18 1013 30 10000 3.6 130 20:53 13.07.2022
2636 Clouds 17 1014 34 10000 5.14 140 19:30 13.07.2022
2637 Clouds 17 1014 37 10000 3.09 150 17:51 13.07.2022
2638 Clouds 19 1014 37 10000 2.68 160 16:39 13.07.2022
2639 Clear 20 1014 37 10000 2.57 160 15:24 13.07.2022
2640 Clear 20 1013 33 10000 2.57 150 12:55 13.07.2022
2641 Clear 24 1012 27 10000 3.6 150 10:46 13.07.2022
2642 Clear 25 1011 26 10000 4.63 150 10:24 13.07.2022
2643 Clear 25 1011 26 10000 4.63 150 10:24 13.07.2022
2644 Clear 27 1011 25 10000 4.12 150 09:24 13.07.2022
2645 Clear 27 1012 24 10000 4.47 130 06:46 13.07.2022
2646 Clear 20 1015 33 10000 6.17 140 02:38 13.07.2022
2647 Clear 16 1013 39 10000 5.66 140 23:52 12.07.2022
2648 Clouds 16 1012 45 10000 3.6 150 21:58 12.07.2022
2649 Clouds 17 1012 43 10000 3.6 150 21:34 12.07.2022
2650 Clouds 17 1012 47 10000 3.6 160 20:42 12.07.2022
2651 Clouds 17 1013 47 10000 3.6 150 19:36 12.07.2022
2652 Clouds 18 1013 72 10000 2.57 170 17:54 12.07.2022
2653 Clear 17 1014 82 10000 0 0 16:20 12.07.2022
2654 Clear 17 1014 82 10000 0 0 16:20 12.07.2022
2655 Clear 18 1013 78 10000 0 0 14:31 12.07.2022
2656 Clear 19 1013 68 10000 1.54 320 13:20 12.07.2022
2657 Clear 22 1012 56 10000 2.57 360 11:37 12.07.2022
2658 Clear 26 1011 37 10000 4.12 340 10:18 12.07.2022
2659 Clear 26 1011 37 10000 4.12 340 10:18 12.07.2022
2660 Clear 28 1011 24 10000 3.58 160 08:26 12.07.2022
2661 Clear 28 1011 23 10000 4.12 160 07:38 12.07.2022
2662 Clear 27 1013 25 10000 5.66 140 05:42 12.07.2022
2663 Clear 23 1015 28 10000 6.71 130 03:29 12.07.2022
2664 Clear 17 1013 69 10000 3.6 170 23:43 11.07.2022
2665 Clear 16 1013 68 10000 3.09 160 22:36 11.07.2022
2666 Clouds 17 1013 65 10000 3.09 160 20:54 11.07.2022
2667 Clouds 16 1013 68 10000 2.57 150 20:25 11.07.2022
2668 Clouds 18 1014 77 10000 2.57 180 18:38 11.07.2022
2669 Clouds 18 1014 78 10000 2.57 180 17:55 11.07.2022
2670 Clear 18 1015 81 10000 1.54 230 16:22 11.07.2022
2671 Clear 20 1015 76 10000 2.06 230 14:52 11.07.2022
2672 Clear 21 1013 74 10000 1.54 330 12:28 11.07.2022
2673 Clear 24 1012 57 10000 2.57 350 10:54 11.07.2022
2674 Clear 26 1012 48 10000 3.6 350 09:54 11.07.2022
2675 Clear 29 1012 34 10000 3.6 310 08:36 11.07.2022
2676 Clear 29 1012 32 10000 3.58 160 07:32 11.07.2022
2677 Clear 18 1015 49 10000 2.57 130 00:47 11.07.2022
2678 Clear 16 1014 52 10000 3.6 130 23:53 10.07.2022
2679 Clear 17 1013 52 10000 3.6 150 22:34 10.07.2022
2680 Clouds 18 1013 56 10000 3.09 150 20:55 10.07.2022
2681 Clouds 18 1013 62 10000 3.09 160 20:00 10.07.2022
2682 Clouds 17 1013 77 10000 3.6 160 19:21 10.07.2022
2683 Clouds 18 1014 88 10000 2.06 180 17:59 10.07.2022
2684 Clear 18 1014 92 10000 2.06 160 16:59 10.07.2022
2685 Clear 18 1014 91 10000 1.54 190 16:20 10.07.2022
2686 Clear 19 1014 77 10000 1.03 260 14:44 10.07.2022
2687 Clear 21 1014 73 10000 1.34 290 13:18 10.07.2022
2688 Clear 23 1013 63 10000 2.06 340 11:36 10.07.2022
2689 Clear 25 1012 51 10000 3.6 350 09:45 10.07.2022
2690 Clear 28 1012 41 10000 4.47 350 08:43 10.07.2022
2691 Clear 28 1013 31 10000 4.63 140 06:39 10.07.2022
2692 Clear 18 1014 49 10000 5.14 140 23:47 09.07.2022
2693 Clear 18 1014 49 10000 5.14 140 22:26 09.07.2022
2694 Clouds 19 1013 49 10000 4.63 140 21:41 09.07.2022
2695 Clouds 19 1013 53 10000 3.6 150 19:44 09.07.2022
2696 Clouds 20 1014 58 10000 3.09 160 18:26 09.07.2022
2697 Clouds 20 1014 58 10000 3.09 160 18:26 09.07.2022
2698 Clouds 19 1014 88 10000 2.06 170 17:27 09.07.2022
2699 Clear 19 1014 88 10000 0 0 16:25 09.07.2022
2700 Clear 19 1014 82 10000 0 0 15:38 09.07.2022
2701 Clear 20 1014 79 10000 0 0 14:23 09.07.2022
2702 Clear 20 1013 79 10000 0 0 13:48 09.07.2022
2703 Clear 23 1012 67 10000 1.54 340 11:54 09.07.2022
2704 Clear 25 1011 55 10000 2.57 340 10:27 09.07.2022
2705 Clear 26 1011 49 10000 3.6 350 09:56 09.07.2022
2706 Clear 29 1011 30 10000 1.54 100 07:44 09.07.2022
2707 Clear 26 1013 38 10000 5.66 110 04:45 09.07.2022
2708 Clear 18 1013 54 10000 6.17 140 00:38 09.07.2022
2709 Clear 18 1012 56 10000 4.63 150 22:34 08.07.2022
2710 Clouds 18 1012 63 10000 4.12 160 21:27 08.07.2022
2711 Clouds 18 1012 63 10000 2.57 160 20:40 08.07.2022
2712 Clouds 19 1012 64 10000 3.6 160 19:48 08.07.2022
2713 Clouds 19 1013 84 10000 2.06 180 17:56 08.07.2022
2714 Clear 20 1014 83 10000 2.57 180 16:37 08.07.2022
2715 Clear 19 1013 77 10000 0 0 14:51 08.07.2022
2716 Clear 21 1012 70 10000 1.54 10 12:42 08.07.2022
2717 Clear 23 1011 59 10000 3.09 30 11:24 08.07.2022
2718 Clear 25 1011 46 10000 4.63 350 10:21 08.07.2022
2719 Clear 29 1011 24 10000 2.06 150 07:55 08.07.2022
2720 Clear 28 1012 28 10000 2.57 190 06:47 08.07.2022
2721 Clear 19 1014 48 10000 3.6 160 01:19 08.07.2022
2722 Clear 17 1013 52 10000 3.6 160 22:57 07.07.2022
2723 Clouds 17 1013 60 10000 3.09 160 21:57 07.07.2022
2724 Clouds 17 1013 69 10000 2.57 170 19:47 07.07.2022
2725 Clouds 19 1013 83 10000 2.06 180 17:56 07.07.2022
2726 Clear 19 1014 84 10000 2.06 190 16:32 07.07.2022
2727 Clear 19 1014 72 10000 0 0 14:32 07.07.2022
2728 Clear 20 1013 68 10000 0.51 40 12:46 07.07.2022
2729 Clear 21 1013 64 10000 0.51 10 12:23 07.07.2022
2730 Clear 23 1013 57 10000 1.03 360 11:34 07.07.2022
2731 Clear 24 1012 51 10000 2.06 340 10:46 07.07.2022
2732 Clear 25 1012 46 10000 2.57 350 10:28 07.07.2022
2733 Clear 26 1012 44 10000 3.6 330 09:32 07.07.2022
2734 Clear 27 1013 29 10000 4.12 50 06:31 07.07.2022
2735 Clouds 17 1014 54 10000 2.68 140 00:31 07.07.2022
2736 Clouds 16 1014 55 10000 2.68 140 23:36 06.07.2022
2737 Clouds 16 1014 53 10000 3.09 140 23:18 06.07.2022
2738 Clouds 16 1014 54 10000 3.58 150 22:52 06.07.2022
2739 Clouds 16 1014 56 10000 3.6 150 22:33 06.07.2022
2740 Clouds 17 1013 54 10000 3.6 150 20:23 06.07.2022
2741 Clouds 17 1014 59 10000 3.09 160 19:22 06.07.2022
2742 Clouds 17 1014 82 10000 1.54 170 17:21 06.07.2022
2743 Clear 17 1014 77 10000 1.54 190 15:57 06.07.2022
2744 Clear 20 1013 64 10000 1.54 350 12:44 06.07.2022
2745 Clear 21 1013 59 10000 1.54 350 11:52 06.07.2022
2746 Clear 23 1012 50 10000 4.12 360 10:55 06.07.2022
2747 Clear 27 1011 33 10000 1.54 280 09:27 06.07.2022
2748 Clear 27 1011 33 10000 1.54 280 09:27 06.07.2022
2749 Clear 27 1012 28 10000 3.6 160 07:44 06.07.2022
2750 Clear 27 1012 28 10000 3.6 160 07:44 06.07.2022
2751 Clear 26 1012 29 10000 3.6 110 06:44 06.07.2022
2752 Clear 16 1015 48 10000 4.63 140 00:38 06.07.2022
2753 Clear 15 1014 45 10000 4.12 130 22:43 05.07.2022
2754 Clouds 16 1014 46 10000 3.09 130 20:49 05.07.2022
2755 Clouds 16 1014 47 10000 3.09 130 20:31 05.07.2022
2756 Clouds 17 1013 48 10000 3.6 150 19:38 05.07.2022
2757 Clouds 17 1014 54 10000 3.09 160 17:51 05.07.2022
2758 Clouds 18 1014 48 10000 3.09 170 17:19 05.07.2022
2759 Clear 17 1014 52 10000 2.06 150 16:32 05.07.2022
2760 Clear 18 1014 62 10000 1.54 130 14:54 05.07.2022
2761 Clear 19 1013 66 10000 0 0 13:36 05.07.2022
2762 Clear 20 1013 60 10000 1.54 360 12:24 05.07.2022
2763 Clear 25 1011 38 10000 2.57 150 10:46 05.07.2022
2764 Clear 25 1011 34 10000 2.57 150 09:57 05.07.2022
2765 Clear 26 1010 30 10000 3.09 160 08:23 05.07.2022
2766 Clear 24 1011 34 10000 3.6 110 06:59 05.07.2022
2767 Clear 22 1013 36 10000 5.66 120 04:37 05.07.2022
2768 Clear 17 1014 45 10000 6.71 140 01:33 05.07.2022
2769 Clear 15 1013 51 10000 6.71 150 23:37 04.07.2022
2770 Clear 16 1013 50 10000 6.71 150 22:57 04.07.2022
2771 Clear 16 1013 50 10000 6.71 150 22:19 04.07.2022
2772 Clear 17 1012 49 10000 7.2 150 20:56 04.07.2022
2773 Clear 17 1013 49 10000 6.71 150 20:36 04.07.2022
2774 Clear 18 1013 50 10000 6.17 150 19:57 04.07.2022
2775 Clear 18 1013 51 10000 5.66 160 19:37 04.07.2022
2776 Clear 19 1013 51 10000 6.17 160 18:51 04.07.2022
2777 Clear 19 1013 54 10000 5.14 170 16:54 04.07.2022
2778 Clear 21 1013 53 10000 4.63 170 15:35 04.07.2022
2779 Clear 21 1013 53 10000 5.14 160 13:47 04.07.2022
2780 Clear 23 1012 51 10000 4.12 170 12:42 04.07.2022
2781 Clear 25 1010 42 10000 4.12 170 10:57 04.07.2022
2782 Clear 26 1010 42 10000 4.63 180 10:27 04.07.2022
2783 Clear 27 1010 38 10000 4.92 190 09:21 04.07.2022
2784 Clear 26 1011 37 10000 6.71 170 06:27 04.07.2022
2785 Clear 20 1013 50 10000 7.72 140 01:49 04.07.2022
2786 Clear 18 1012 57 10000 6.71 150 23:39 03.07.2022
2787 Clear 19 1012 55 10000 5.66 150 22:29 03.07.2022
2788 Clouds 19 1011 55 10000 6.17 160 20:45 03.07.2022
2789 Clouds 20 1011 57 10000 5.81 160 19:43 03.07.2022
2790 Clouds 20 1011 56 10000 6.17 160 19:24 03.07.2022
2791 Clouds 21 1012 60 10000 4.63 160 18:23 03.07.2022
2792 Clouds 21 1012 61 10000 4.12 160 17:31 03.07.2022
2793 Clear 22 1013 60 10000 4.63 170 15:26 03.07.2022
2794 Clear 23 1013 59 10000 4.12 170 14:49 03.07.2022
2795 Clear 23 1012 61 10000 3.6 160 13:49 03.07.2022
2796 Clear 24 1011 59 10000 3.09 150 12:44 03.07.2022
2797 Clear 25 1011 55 10000 3.58 170 11:47 03.07.2022
2798 Clear 27 1010 50 10000 4.02 190 10:51 03.07.2022
2799 Clear 27 1010 49 10000 4.12 190 10:33 03.07.2022
2800 Clear 29 1009 45 10000 4.12 190 07:38 03.07.2022
2801 Clear 26 1011 48 10000 6.17 160 05:34 03.07.2022
2802 Clear 19 1012 68 10000 6.71 150 00:26 03.07.2022
2803 Clear 20 1012 64 10000 6.71 150 23:36 02.07.2022
2804 Clear 20 1012 64 10000 5.66 140 22:31 02.07.2022
2805 Clouds 20 1012 69 10000 5.14 150 20:26 02.07.2022
2806 Clouds 20 1012 70 10000 4.63 150 19:49 02.07.2022
2807 Clouds 21 1012 70 10000 3.6 150 18:20 02.07.2022
2808 Clouds 21 1013 70 10000 3.6 160 17:38 02.07.2022
2809 Clear 22 1013 69 10000 3.6 150 15:46 02.07.2022
2810 Clear 24 1013 62 10000 5.14 160 13:35 02.07.2022
2811 Clear 25 1011 56 10000 3.09 160 11:48 02.07.2022
2812 Clear 26 1010 50 10000 4.12 160 10:50 02.07.2022
2813 Clear 28 1010 45 10000 4.47 110 09:49 02.07.2022
2814 Clear 27 1010 47 10000 5.14 120 08:37 02.07.2022
2815 Clear 27 1010 47 10000 5.36 110 08:19 02.07.2022
2816 Clouds 18 1015 72 10000 6.69 140 02:53 02.07.2022
2817 Clouds 17 1014 77 10000 4.63 140 00:28 02.07.2022
2818 Clouds 17 1013 82 10000 6.71 140 23:21 01.07.2022
2819 Clouds 18 1013 77 10000 6.71 140 22:29 01.07.2022
2820 Clouds 18 1013 82 10000 6.17 140 21:37 01.07.2022
2821 Clouds 19 1013 80 10000 5.14 140 20:58 01.07.2022
2822 Clouds 19 1013 79 10000 6.17 140 20:20 01.07.2022
2823 Clouds 19 1013 80 10000 5.66 140 19:36 01.07.2022
2824 Clouds 20 1014 80 10000 6.71 150 16:42 01.07.2022
2825 Clear 20 1014 79 10000 5.14 150 14:31 01.07.2022
2826 Clear 21 1014 75 10000 6.17 160 13:39 01.07.2022
2827 Clouds 25 1012 68 10000 5.66 150 10:54 01.07.2022
2828 Clouds 25 1011 67 10000 5.66 150 10:19 01.07.2022
2829 Clouds 24 1012 69 10000 8.75 140 06:31 01.07.2022
2830 Clouds 20 1015 84 10000 6.17 140 02:43 01.07.2022
2831 Clouds 20 1015 84 10000 6.17 140 02:43 01.07.2022
2832 Clouds 19 1014 87 10000 8.05 140 23:52 30.06.2022
2833 Drizzle 19 1013 87 10000 7.2 140 22:51 30.06.2022
2834 Rain 19 1017 83 10000 7.72 150 22:32 30.06.2022
2835 Rain 19 1017 83 10000 7.2 150 21:54 30.06.2022
2836 Rain 19 1016 82 10000 8.94 160 20:49 30.06.2022
2837 Rain 19 1016 83 10000 8.94 160 20:21 30.06.2022
2838 Rain 19 1013 83 10000 9.26 160 19:48 30.06.2022
2839 Clouds 19 1014 84 10000 7.72 160 18:54 30.06.2022
2840 Clouds 19 1014 84 10000 7.2 160 18:22 30.06.2022
2841 Rain 19 1014 84 10000 8.75 160 17:34 30.06.2022
2842 Clouds 19 1017 82 10000 7.72 160 16:20 30.06.2022
2843 Clear 21 1014 69 10000 6.17 170 14:20 30.06.2022
2844 Rain 22 1013 66 10000 5.81 170 13:29 30.06.2022
2845 Rain 23 1011 64 10000 5.66 170 12:34 30.06.2022
2846 Rain 23 1011 64 10000 5.66 170 12:34 30.06.2022
2847 Clear 24 1011 61 10000 4.63 150 11:21 30.06.2022
2848 Clear 25 1010 57 10000 5.14 150 09:52 30.06.2022
2849 Clear 25 1010 57 10000 5.14 160 09:26 30.06.2022
2850 Clouds 25 1010 57 10000 6.17 150 07:41 30.06.2022
2851 Clouds 24 1011 61 10000 6.17 150 05:46 30.06.2022
2852 Clear 21 1011 75 10000 5.66 150 00:26 30.06.2022
2853 Clear 21 1011 75 10000 6.17 150 22:54 29.06.2022
2854 Clear 21 1010 79 10000 6.17 150 22:33 29.06.2022
2855 Rain 21 1010 80 10000 5.66 140 21:31 29.06.2022
2856 Rain 21 1011 80 10000 6.17 140 20:33 29.06.2022
2857 Clouds 21 1011 81 10000 5.14 140 19:34 29.06.2022
2858 Clouds 20 1012 88 10000 5.36 160 17:40 29.06.2022
2859 Clouds 20 1012 89 10000 5.14 170 16:33 29.06.2022
2860 Rain 20 1013 89 10000 3.6 130 14:50 29.06.2022
2861 Rain 20 1011 88 10000 6.71 150 12:39 29.06.2022
2862 Rain 21 1011 83 6000 4.63 130 10:25 29.06.2022
2863 Rain 24 1009 62 10000 6.17 150 09:31 29.06.2022
2864 Clouds 25 1010 56 10000 5.66 150 07:30 29.06.2022
2865 Clear 23 1012 55 10000 7.6 140 04:50 29.06.2022
2866 Clear 20 1011 60 10000 7.72 150 00:56 29.06.2022
2867 Clear 20 1011 61 10000 7.72 140 00:35 29.06.2022
2868 Clear 21 1010 58 10000 7.72 150 22:53 28.06.2022
2869 Clear 21 1010 58 10000 7.72 150 22:23 28.06.2022
2870 Clouds 21 1010 56 10000 6.69 150 21:53 28.06.2022
2871 Clouds 22 1010 54 10000 7.2 150 21:31 28.06.2022
2872 Clouds 22 1011 51 10000 6.17 150 20:27 28.06.2022
2873 Clouds 23 1010 49 10000 6.71 150 19:32 28.06.2022
2874 Clouds 23 1010 49 10000 6.71 150 19:32 28.06.2022
2875 Clouds 23 1010 49 10000 6.71 150 18:44 28.06.2022
2876 Clouds 24 1015 46 10000 5.66 150 17:39 28.06.2022
2877 Clear 25 1011 44 10000 5.66 160 15:57 28.06.2022
2878 Clear 25 1011 44 10000 5.66 150 15:21 28.06.2022
2879 Clear 26 1012 44 10000 5.14 150 14:20 28.06.2022
2880 Clear 26 1011 43 10000 4.63 150 13:50 28.06.2022
2881 Clear 26 1011 45 10000 5.14 150 12:54 28.06.2022
2882 Clear 27 1009 45 10000 5.14 150 10:57 28.06.2022
2883 Clear 29 1009 38 10000 6.17 160 09:25 28.06.2022
2884 Clear 29 1009 40 10000 5.66 160 08:43 28.06.2022
2885 Clear 29 1010 41 10000 6.71 150 07:42 28.06.2022
2886 Clouds 28 1017 39 10000 6.17 130 05:58 28.06.2022
2887 Clear 24 1012 44 10000 5.14 150 00:00 28.06.2022
2888 Clear 24 1012 44 10000 5.66 140 23:36 27.06.2022
2889 Clear 24 1012 44 10000 5.14 150 22:51 27.06.2022
2890 Clouds 24 1011 49 10000 6.17 160 21:33 27.06.2022
2891 Clouds 24 1011 49 10000 6.17 150 20:48 27.06.2022
2892 Clouds 25 1016 50 10000 5.66 150 18:58 27.06.2022
2893 Clouds 25 1016 50 10000 5.66 150 18:19 27.06.2022
2894 Clear 25 1013 49 10000 4.63 150 16:19 27.06.2022
2895 Clear 25 1013 50 10000 5.66 150 14:44 27.06.2022
2896 Clear 25 1013 50 10000 4.12 160 13:25 27.06.2022
2897 Clear 25 1012 52 10000 4.47 160 12:52 27.06.2022
2898 Clear 27 1011 51 10000 4.12 150 10:23 27.06.2022
2899 Clear 28 1011 49 10000 5.66 130 08:48 27.06.2022
2900 Clear 28 1011 50 10000 5.81 140 08:19 27.06.2022
2901 Clouds 27 1012 51 10000 8.05 130 06:38 27.06.2022
2902 Clear 26 1013 49 10000 5.14 150 02:23 27.06.2022
2903 Clear 25 1012 53 10000 3.09 130 23:55 26.06.2022
2904 Clouds 25 1012 52 10000 4.63 140 21:58 26.06.2022
2905 Clouds 25 1012 55 10000 4.12 140 20:43 26.06.2022
2906 Clouds 25 1012 55 10000 4.12 150 19:27 26.06.2022
2907 Clouds 25 1012 55 10000 3.09 160 18:28 26.06.2022
2908 Clouds 25 1013 65 10000 3.09 170 16:33 26.06.2022
2909 Clear 25 1012 70 10000 1.54 240 14:40 26.06.2022
2910 Clear 26 1012 73 10000 1.54 250 13:38 26.06.2022
2911 Clear 26 1012 72 10000 2.68 240 13:18 26.06.2022
2912 Clear 26 1011 72 10000 2.57 300 11:26 26.06.2022
2913 Clear 28 1010 61 10000 1.54 330 10:26 26.06.2022
2914 Clear 29 1009 58 10000 2.57 330 09:19 26.06.2022
2915 Clear 32 1009 40 10000 1.54 110 07:41 26.06.2022
2916 Clear 25 1012 56 10000 5.14 110 01:53 26.06.2022
2917 Clear 21 1011 58 10000 3.6 130 00:20 26.06.2022
2918 Clear 21 1011 55 10000 3.6 140 23:41 25.06.2022
2919 Clear 21 1011 58 10000 3.6 140 22:57 25.06.2022
2920 Clear 21 1010 55 10000 3.6 140 22:27 25.06.2022
2921 Clouds 21 1010 56 10000 4.12 140 21:40 25.06.2022
2922 Clouds 21 1010 56 10000 4.12 140 21:18 25.06.2022
2923 Clouds 21 1010 57 10000 4.12 160 20:27 25.06.2022
2924 Clear 23 1010 57 10000 4.12 160 19:20 25.06.2022
2925 Clear 22 1011 89 10000 3.09 180 17:53 25.06.2022
2926 Clear 22 1011 89 10000 2.68 180 17:19 25.06.2022
2927 Clear 23 1011 73 10000 1.54 170 15:26 25.06.2022
2928 Clear 24 1011 74 10000 1.54 50 13:27 25.06.2022
2929 Clear 25 1010 73 10000 2.57 30 12:37 25.06.2022
2930 Clear 30 1009 52 10000 4.12 120 10:34 25.06.2022
2931 Clear 31 1009 44 10000 4.12 100 08:58 25.06.2022
2932 Clear 31 1009 45 10000 4.63 80 08:35 25.06.2022
2933 Clear 31 1009 43 10000 5.66 130 07:45 25.06.2022
2934 Clear 26 1013 64 10000 6.17 80 03:33 25.06.2022
2935 Clear 22 1011 67 10000 4.12 100 00:34 25.06.2022
2936 Clear 19 1010 68 10000 2.06 100 22:53 24.06.2022
2937 Clouds 19 1009 83 10000 2.06 150 21:34 24.06.2022
2938 Clouds 19 1009 84 10000 1.54 130 20:44 24.06.2022
2939 Clouds 20 1009 81 10000 2.57 180 20:18 24.06.2022
2940 Clouds 22 1010 75 10000 2.57 180 19:20 24.06.2022
2941 Clouds 21 1010 76 10000 2.57 190 18:48 24.06.2022
2942 Clouds 22 1011 76 10000 3.09 190 18:30 24.06.2022
2943 Clouds 22 1011 76 10000 4.12 190 17:19 24.06.2022
2944 Clear 23 1012 60 10000 1.03 60 15:29 24.06.2022
2945 Clear 23 1012 64 10000 1.03 60 14:26 24.06.2022
2946 Clear 22 1012 69 10000 2.06 60 13:54 24.06.2022
2947 Clear 25 1011 57 10000 2.57 30 11:43 24.06.2022
2948 Clear 28 1011 46 10000 2.57 90 10:55 24.06.2022
2949 Clear 30 1010 36 10000 4.12 80 09:49 24.06.2022
2950 Clear 30 1010 35 10000 4.63 70 09:28 24.06.2022
2951 Clear 31 1010 34 10000 4.12 70 08:51 24.06.2022
2952 Clear 30 1011 33 10000 5.36 80 06:48 24.06.2022
2953 Clear 30 1011 34 10000 5.66 80 06:30 24.06.2022
2954 Clear 29 1012 36 10000 5.66 90 05:52 24.06.2022
2955 Clear 21 1014 67 10000 5.66 130 01:21 24.06.2022
2956 Clear 21 1012 66 10000 4.63 100 22:44 23.06.2022
2957 Clear 22 1012 61 10000 6.17 110 21:54 23.06.2022
2958 Clear 23 1012 56 10000 5.14 110 20:54 23.06.2022
2959 Clear 23 1012 56 10000 5.14 120 20:32 23.06.2022
2960 Clouds 23 1013 49 10000 4.12 140 18:49 23.06.2022
2961 Clear 23 1013 51 10000 3.6 150 17:45 23.06.2022
2962 Clear 23 1013 58 10000 2.57 170 16:36 23.06.2022
2963 Clear 23 1013 54 10000 2.06 170 15:43 23.06.2022
2964 Clear 23 1013 52 10000 2.06 170 15:23 23.06.2022
2965 Clear 26 1013 41 10000 1.54 120 12:43 23.06.2022
2966 Clear 28 1012 39 10000 2.06 130 11:20 23.06.2022
2967 Clear 30 1011 33 10000 4.63 120 09:30 23.06.2022
2968 Clear 31 1012 33 10000 6.71 150 07:51 23.06.2022
2969 Clear 23 1016 62 10000 4.12 130 01:29 23.06.2022
2970 Clear 21 1015 68 10000 3.6 110 00:25 23.06.2022
2971 Clear 21 1014 67 10000 3.6 110 23:23 22.06.2022
2972 Clouds 22 1014 68 10000 4.12 110 21:45 22.06.2022
2973 Clouds 23 1014 65 10000 5.66 110 20:57 22.06.2022
2974 Clouds 23 1014 62 10000 5.66 110 20:21 22.06.2022
2975 Clouds 24 1014 59 10000 5.66 110 19:48 22.06.2022
2976 Clouds 24 1014 52 10000 4.63 130 18:21 22.06.2022
2977 Clouds 23 1014 52 10000 4.63 140 17:20 22.06.2022
2978 Clear 23 1015 64 10000 2.06 160 15:53 22.06.2022
2979 Clear 23 1015 64 10000 2.06 160 15:24 22.06.2022
2980 Clear 24 1014 73 10000 1.03 50 13:50 22.06.2022
2981 Clear 24 1014 69 10000 1.34 30 13:25 22.06.2022
2982 Clear 25 1014 67 10000 1.54 30 12:44 22.06.2022
2983 Clear 28 1013 44 10000 2.68 90 11:47 22.06.2022
2984 Clear 30 1012 35 10000 4.12 110 10:54 22.06.2022
2985 Clear 31 1011 33 10000 6.17 100 09:44 22.06.2022
2986 Clear 31 1011 37 10000 6.17 130 07:56 22.06.2022
2987 Clear 27 1015 45 10000 7.72 110 03:30 22.06.2022
2988 Clear 21 1015 52 10000 4.12 140 01:22 22.06.2022
2989 Clear 20 1013 50 10000 3.09 120 23:41 21.06.2022
2990 Clouds 22 1012 43 10000 4.12 120 21:32 21.06.2022
2991 Clouds 22 1012 50 10000 3.09 120 19:47 21.06.2022
2992 Clouds 22 1012 57 10000 3.09 150 18:30 21.06.2022
2993 Clear 22 1013 64 10000 2.57 160 16:52 21.06.2022
2994 Clear 24 1012 57 10000 2.06 70 13:33 21.06.2022
2995 Clear 29 1011 45 10000 2.57 90 11:30 21.06.2022
2996 Clear 31 1010 35 10000 5.66 100 09:48 21.06.2022
2997 Clear 32 1010 35 10000 5.66 100 08:22 21.06.2022
2998 Clear 30 1012 41 10000 7.2 110 05:41 21.06.2022
2999 Clear 23 1011 89 10000 1.34 170 00:43 21.06.2022
3000 Clouds 22 1010 88 10000 1.54 170 22:25 20.06.2022
3001 Clouds 22 1010 88 10000 1.54 170 21:50 20.06.2022
3002 Clouds 22 1010 84 10000 2.06 170 20:47 20.06.2022
3003 Clouds 22 1010 86 10000 2.06 170 19:38 20.06.2022
3004 Clouds 23 1011 81 10000 2.06 170 18:44 20.06.2022
3005 Clouds 23 1011 84 10000 1.54 150 17:52 20.06.2022
3006 Clouds 23 1011 82 10000 1.03 160 17:29 20.06.2022
3007 Clear 24 1012 78 10000 1.54 180 15:55 20.06.2022
3008 Clear 26 1010 72 10000 3.09 40 12:44 20.06.2022
3009 Clear 28 1009 60 10000 5.14 40 10:41 20.06.2022
3010 Clear 30 1009 49 10000 4.63 90 09:41 20.06.2022
3011 Clear 30 1009 49 10000 4.63 90 09:41 20.06.2022
3012 Clear 32 1008 38 10000 4.63 80 08:44 20.06.2022
3013 Clear 32 1009 39 10000 4.12 80 05:55 20.06.2022
3014 Clear 26 1011 65 10000 2.57 60 02:27 20.06.2022
3015 Clear 20 1010 89 10000 2.06 90 00:26 20.06.2022
3016 Clear 20 1009 88 10000 1.54 90 22:59 19.06.2022
3017 Clouds 20 1009 87 10000 2.57 180 21:58 19.06.2022
3018 Clouds 20 1009 89 10000 2.06 190 21:40 19.06.2022
3019 Clouds 20 1010 89 10000 0.51 110 20:39 19.06.2022
3020 Clouds 22 1010 85 10000 2.57 180 19:48 19.06.2022
3021 Clouds 23 1010 77 10000 3.09 200 18:57 19.06.2022
3022 Clouds 23 1010 80 10000 3.6 210 18:30 19.06.2022
3023 Clouds 23 1011 88 10000 3.09 220 17:22 19.06.2022
3024 Clear 24 1011 88 10000 2.06 210 16:35 19.06.2022
3025 Clear 23 1011 87 10000 2.57 210 15:42 19.06.2022
3026 Clear 24 1012 85 10000 2.57 220 14:58 19.06.2022
3027 Clear 24 1011 84 10000 1.03 230 14:20 19.06.2022
3028 Clear 24 1011 84 10000 1.03 230 14:20 19.06.2022
3029 Clear 24 1011 79 10000 1.54 340 13:36 19.06.2022
3030 Clear 27 1009 66 10000 2.24 350 11:40 19.06.2022
3031 Clear 29 1009 57 10000 2.57 350 10:47 19.06.2022
3032 Clear 31 1008 52 10000 3.6 350 08:54 19.06.2022
3033 Clear 31 1009 54 10000 4.92 330 08:22 19.06.2022
3034 Clear 32 1011 35 10000 4.12 90 05:44 19.06.2022
3035 Clear 28 1013 51 10000 3.09 60 02:59 19.06.2022
3036 Clear 19 1013 86 10000 2.06 160 00:26 19.06.2022
3037 Fog 21 1012 83 10000 1.54 160 23:36 18.06.2022
3038 Clear 20 1012 84 10000 2.06 170 22:55 18.06.2022
3039 Clear 22 1011 80 10000 3.09 190 21:52 18.06.2022
3040 Clear 22 1012 89 10000 3.09 190 20:49 18.06.2022
3041 Clear 21 1016 87 10000 0.51 190 19:48 18.06.2022
3042 Clear 22 1015 89 10000 2.06 250 18:54 18.06.2022
3043 Clear 23 1015 86 10000 2.06 240 17:54 18.06.2022
3044 Clear 24 1013 87 10000 2.57 230 17:23 18.06.2022
3045 Clear 25 1013 83 10000 2.57 210 15:38 18.06.2022
3046 Clear 25 1012 78 10000 1.54 230 14:49 18.06.2022
3047 Clear 24 1012 78 10000 0.51 10 13:54 18.06.2022
3048 Clear 25 1011 73 10000 1.54 350 12:25 18.06.2022
3049 Clear 28 1010 60 10000 3.6 350 10:59 18.06.2022
3050 Clear 32 1009 42 10000 4.12 300 09:29 18.06.2022
3051 Clear 32 1009 29 10000 3.09 50 08:37 18.06.2022
3052 Clear 33 1009 33 10000 4.12 110 07:33 18.06.2022
3053 Clear 30 1012 34 10000 6.17 80 04:43 18.06.2022
3054 Smoke 24 1012 60 10000 4.12 110 01:27 18.06.2022
3055 Smoke 24 1012 60 10000 4.12 110 01:27 18.06.2022
3056 Clear 23 1012 59 10000 3.6 100 00:55 18.06.2022
3057 Clear 23 1012 53 10000 3.09 110 00:22 18.06.2022
3058 Clear 22 1011 50 10000 4.12 120 23:33 17.06.2022
3059 Clear 21 1011 56 10000 3.09 130 21:57 17.06.2022
3060 Clouds 22 1011 65 10000 2.57 150 20:29 17.06.2022
3061 Clouds 22 1011 77 10000 3.09 180 19:20 17.06.2022
3062 Clouds 23 1012 86 10000 2.06 190 17:47 17.06.2022
3063 Clear 24 1012 82 10000 1.54 220 16:44 17.06.2022
3064 Clear 24 1012 81 10000 2.06 210 16:21 17.06.2022
3065 Clouds 23 1012 85 10000 0.45 240 15:37 17.06.2022
3066 Clear 24 1012 79 10000 1.03 260 14:23 17.06.2022
3067 Clear 25 1012 75 10000 1.03 270 13:58 17.06.2022
3068 Clear 25 1012 72 10000 1.03 270 13:38 17.06.2022
3069 Clear 26 1011 69 10000 1.54 300 12:24 17.06.2022
3070 Clear 27 1011 64 10000 1.03 310 11:54 17.06.2022
3071 Clear 28 1011 56 10000 1.03 100 11:33 17.06.2022
3072 Clear 33 1010 40 10000 5.66 100 08:58 17.06.2022
3073 Clear 32 1010 38 10000 3.6 90 08:25 17.06.2022
3074 Clear 31 1010 40 10000 5.66 90 06:44 17.06.2022
3075 Clear 28 1013 50 10000 6.17 120 03:45 17.06.2022
3076 Clear 25 1013 56 10000 4.12 140 01:55 17.06.2022
3077 Clear 22 1012 57 10000 4.12 140 23:35 16.06.2022
3078 Clear 22 1011 56 10000 3.6 130 22:42 16.06.2022
3079 Clouds 23 1011 56 10000 3.09 140 21:22 16.06.2022
3080 Clouds 22 1011 60 10000 3.6 160 20:51 16.06.2022
3081 Clouds 22 1011 64 10000 3.09 170 20:32 16.06.2022
3082 Clouds 23 1011 64 10000 2.57 180 19:32 16.06.2022
3083 Clouds 23 1012 78 10000 3.09 180 18:24 16.06.2022
3084 Clouds 24 1012 80 10000 2.57 210 17:35 16.06.2022
3085 Clear 25 1012 83 10000 3.09 220 16:30 16.06.2022
3086 Clear 25 1012 85 10000 2.06 220 15:21 16.06.2022
3087 Clear 25 1012 81 10000 1.03 10 14:28 16.06.2022
3088 Clear 25 1012 82 10000 0 0 13:19 16.06.2022
3089 Clear 26 1011 76 10000 1.54 320 12:35 16.06.2022
3090 Clear 27 1011 70 10000 2.06 330 11:49 16.06.2022
3091 Clear 28 1010 64 10000 2.57 330 10:51 16.06.2022
3092 Clear 32 1010 45 10000 2.57 330 09:43 16.06.2022
3093 Clear 32 1010 42 10000 4.12 90 09:20 16.06.2022
3094 Clear 32 1011 43 10000 5.36 90 07:57 16.06.2022
3095 Clear 32 1011 42 10000 5.66 90 07:24 16.06.2022
3096 Clear 29 1014 47 10000 7.72 90 04:33 16.06.2022
3097 Clear 25 1014 44 10000 4.63 130 01:54 16.06.2022
3098 Clear 23 1014 48 10000 4.63 150 01:34 16.06.2022
3099 Clear 23 1014 48 10000 4.63 150 01:34 16.06.2022
3100 Clear 21 1013 59 10000 3.6 140 00:38 16.06.2022
3101 Clear 21 1013 56 10000 3.09 130 23:25 15.06.2022
3102 Clear 21 1013 64 10000 3.09 160 22:35 15.06.2022
3103 Clear 20 1012 77 10000 2.06 170 21:21 15.06.2022
3104 Clear 21 1012 78 10000 1.54 160 20:38 15.06.2022
3105 Clouds 21 1012 78 10000 1.54 160 20:19 15.06.2022
3106 Clouds 21 1012 83 10000 2.57 180 19:19 15.06.2022
3107 Clouds 22 1013 88 6000 1.03 160 17:55 15.06.2022
3108 Clear 23 1013 83 10000 1.54 170 16:40 15.06.2022
3109 Clear 24 1013 78 10000 2.57 180 15:36 15.06.2022
3110 Clear 24 1013 78 10000 0.45 30 13:44 15.06.2022
3111 Clear 25 1013 72 10000 1.54 30 12:54 15.06.2022
3112 Clear 26 1012 64 10000 2.57 30 11:52 15.06.2022
3113 Clear 29 1011 57 10000 4.63 10 10:24 15.06.2022
3114 Clear 31 1011 41 10000 3.09 130 09:42 15.06.2022
3115 Clear 32 1011 31 10000 3.6 100 08:37 15.06.2022
3116 Clear 31 1012 36 10000 4.63 90 06:34 15.06.2022
3117 Clear 28 1014 45 10000 7.2 100 03:59 15.06.2022
3118 Clear 24 1014 58 10000 5.14 100 01:54 15.06.2022
3119 Clear 22 1014 60 10000 3.6 120 00:50 15.06.2022
3120 Clear 21 1013 60 10000 2.06 150 23:39 14.06.2022
3121 Clear 21 1013 57 10000 2.24 140 23:19 14.06.2022
3122 Clear 21 1013 60 10000 2.57 120 22:21 14.06.2022
3123 Clouds 20 1013 69 7000 2.06 150 21:36 14.06.2022
3124 Haze 20 1013 86 4200 2.06 150 20:54 14.06.2022
3125 Haze 20 1013 85 5000 2.06 160 20:28 14.06.2022
3126 Haze 21 1013 85 5000 2.06 180 19:18 14.06.2022
3127 Clouds 22 1014 81 10000 2.57 180 17:54 14.06.2022
3128 Clear 22 1014 77 10000 1.03 200 16:47 14.06.2022
3129 Clear 22 1015 73 10000 1.03 220 15:50 14.06.2022
3130 Clear 22 1015 73 10000 1.54 220 15:28 14.06.2022
3131 Clear 23 1014 68 10000 1.79 60 14:33 14.06.2022
3132 Clear 23 1014 64 10000 2.06 60 13:46 14.06.2022
3133 Clear 24 1013 59 10000 2.24 40 12:45 14.06.2022
3134 Clouds 27 1012 50 9000 2.57 20 11:38 14.06.2022
3135 Smoke 28 1012 45 10000 2.06 360 10:48 14.06.2022
3136 Smoke 29 1012 42 10000 1.54 30 10:22 14.06.2022
3137 Clear 32 1011 22 10000 4.63 80 08:49 14.06.2022
3138 Clear 32 1011 21 10000 4.12 80 07:49 14.06.2022
3139 Clear 30 1012 25 10000 5.66 70 05:46 14.06.2022
3140 Clear 27 1014 35 10000 6.71 90 03:20 14.06.2022
3141 Clear 22 1013 47 10000 4.63 110 00:54 14.06.2022
3142 Clear 21 1012 46 10000 4.63 110 23:41 13.06.2022
3143 Clear 21 1012 43 10000 3.6 120 22:26 13.06.2022
3144 Clouds 21 1011 43 10000 4.12 130 21:54 13.06.2022
3145 Clouds 21 1011 44 10000 4.63 150 20:42 13.06.2022
3146 Clouds 21 1012 46 6000 4.12 150 19:35 13.06.2022
3147 Haze 22 1012 48 5000 3.6 160 18:31 13.06.2022
3148 Clouds 22 1013 54 6000 2.57 160 17:48 13.06.2022
3149 Clear 23 1013 55 10000 2.57 180 16:54 13.06.2022
3150 Clear 22 1013 62 10000 1.54 140 15:41 13.06.2022
3151 Clear 22 1014 56 10000 1.03 150 14:47 13.06.2022
3152 Clear 23 1013 56 10000 1.03 50 13:55 13.06.2022
3153 Clear 24 1013 52 10000 2.06 140 12:59 13.06.2022
3154 Clear 26 1012 45 10000 1.54 70 11:38 13.06.2022
3155 Clear 30 1011 33 10000 3.09 80 10:28 13.06.2022
3156 Clear 30 1011 31 10000 2.06 70 09:42 13.06.2022
3157 Clear 31 1011 30 10000 3.6 70 08:25 13.06.2022
3158 Clear 30 1012 29 10000 4.12 120 06:34 13.06.2022
3159 Clear 27 1014 30 10000 5.66 130 04:18 13.06.2022
3160 Clear 22 1014 40 10000 4.12 140 01:39 13.06.2022
3161 Clear 20 1014 42 10000 4.12 140 00:59 13.06.2022
3162 Clear 20 1013 42 10000 4.63 150 23:33 12.06.2022
3163 Clear 21 1013 38 10000 4.12 140 22:23 12.06.2022
3164 Clear 20 1012 45 10000 3.6 150 21:40 12.06.2022
3165 Clear 20 1012 47 10000 3.6 150 20:40 12.06.2022
3166 Clear 20 1012 55 10000 2.57 170 19:42 12.06.2022
3167 Clear 21 1013 57 10000 3.09 180 18:44 12.06.2022
3168 Clear 22 1013 59 10000 3.09 180 16:57 12.06.2022
3169 Clear 22 1013 78 10000 2.57 190 15:33 12.06.2022
3170 Clear 23 1013 71 10000 2.57 160 14:41 12.06.2022
3171 Clear 23 1013 71 10000 2.57 160 14:18 12.06.2022
3172 Clear 23 1013 72 10000 0.51 360 13:43 12.06.2022
3173 Clear 25 1012 62 10000 2.06 330 11:58 12.06.2022
3174 Clear 28 1011 49 10000 2.06 330 10:46 12.06.2022
3175 Clear 30 1010 36 10000 3.09 150 09:36 12.06.2022
3176 Clear 30 1010 35 10000 1.54 120 08:49 12.06.2022
3177 Clear 31 1011 34 10000 3.09 110 07:47 12.06.2022
3178 Clear 29 1012 32 10000 4.12 110 05:51 12.06.2022
3179 Clear 25 1014 31 10000 6.71 120 03:38 12.06.2022
3180 Clear 21 1015 34 10000 5.14 140 01:49 12.06.2022
3181 Clear 20 1014 34 10000 5.14 140 01:22 12.06.2022
3182 Clouds 19 1013 36 10000 4.12 140 00:36 12.06.2022
3183 Clouds 18 1013 36 10000 4.12 140 00:18 12.06.2022
3184 Clouds 18 1013 35 10000 4.12 150 22:53 11.06.2022
3185 Clouds 19 1013 34 10000 4.12 140 22:29 11.06.2022
3186 Clouds 19 1012 34 10000 4.12 140 21:18 11.06.2022
3187 Clouds 19 1012 34 10000 4.12 150 20:26 11.06.2022
3188 Clouds 19 1012 36 10000 3.6 150 19:33 11.06.2022
3189 Clouds 20 1013 34 10000 3.09 150 18:42 11.06.2022
3190 Clouds 20 1013 34 10000 3.09 150 18:24 11.06.2022
3191 Clouds 21 1013 31 10000 3.09 150 17:38 11.06.2022
3192 Clouds 21 1013 31 10000 3.09 150 17:19 11.06.2022
3193 Clear 22 1013 34 10000 2.57 150 16:42 11.06.2022
3194 Clear 22 1013 34 10000 3.6 160 15:47 11.06.2022
3195 Clear 22 1013 64 10000 2.57 190 14:23 11.06.2022
3196 Clear 21 1013 64 10000 0 0 13:47 11.06.2022
3197 Clear 24 1012 46 10000 1.54 310 11:46 11.06.2022
3198 Clear 28 1011 26 10000 2.57 310 10:30 11.06.2022
3199 Clouds 28 1010 29 10000 0.4 322 09:40 11.06.2022
3200 Clear 30 1011 22 10000 1.54 190 08:21 11.06.2022
3201 Clear 28 1013 25 10000 2.57 90 06:32 11.06.2022
3202 Clear 26 1013 27 10000 4.63 130 05:26 11.06.2022
3203 Clear 22 1014 32 10000 5.14 140 02:42 11.06.2022
3204 Clear 20 1014 37 10000 4.63 140 01:41 11.06.2022
3205 Clear 18 1014 41 10000 4.12 140 00:54 11.06.2022
3206 Clear 18 1013 40 10000 3.6 130 22:55 10.06.2022
3207 Clear 18 1012 40 10000 3.6 140 22:20 10.06.2022
3208 Clouds 19 1012 38 10000 4.63 140 21:22 10.06.2022
3209 Clouds 20 1012 38 10000 4.12 140 20:37 10.06.2022
3210 Clouds 20 1012 38 10000 4.12 140 20:19 10.06.2022
3211 Clouds 20 1013 41 10000 4.12 140 19:19 10.06.2022
3212 Clouds 21 1013 38 10000 4.12 150 18:29 10.06.2022
3213 Clouds 21 1013 39 10000 3.6 150 17:42 10.06.2022
3214 Clear 21 1013 39 10000 3.6 150 16:59 10.06.2022
3215 Clear 22 1013 38 10000 5.14 160 16:25 10.06.2022
3216 Clear 22 1014 38 10000 4.63 160 15:37 10.06.2022
3217 Clear 24 1014 40 10000 3.09 140 13:57 10.06.2022
3218 Clear 25 1013 36 10000 2.57 160 12:50 10.06.2022
3219 Clear 27 1012 31 10000 2.06 150 11:43 10.06.2022
3220 Clear 28 1011 29 10000 4.12 140 10:45 10.06.2022
3221 Clear 30 1010 24 10000 4.12 140 09:54 10.06.2022
3222 Clouds 30 1010 24 10000 5.36 150 08:42 10.06.2022
3223 Clear 31 1010 24 10000 5.14 140 07:26 10.06.2022
3224 Clear 30 1011 25 10000 6.17 140 06:44 10.06.2022
3225 Clear 29 1011 25 10000 5.66 120 06:25 10.06.2022
3226 Clear 26 1014 29 10000 6.17 130 03:55 10.06.2022
3227 Clear 21 1014 37 10000 5.66 150 01:41 10.06.2022
3228 Clouds 20 1013 43 10000 4.02 140 00:32 10.06.2022
3229 Clear 20 1013 44 10000 4.12 140 23:47 09.06.2022
3230 Clear 21 1012 41 10000 5.14 150 22:18 09.06.2022
3231 Clouds 22 1012 39 10000 4.63 130 21:33 09.06.2022
3232 Clouds 22 1012 38 10000 4.63 130 20:54 09.06.2022
3233 Clouds 22 1012 39 10000 3.6 130 20:21 09.06.2022
3234 Clouds 22 1013 43 10000 4.12 130 19:21 09.06.2022
3235 Clouds 22 1013 46 10000 4.12 140 18:28 09.06.2022
3236 Clear 23 1013 48 10000 2.57 150 16:56 09.06.2022
3237 Clear 24 1013 51 10000 4.12 150 15:49 09.06.2022
3238 Clear 23 1013 56 10000 1.54 80 14:35 09.06.2022
3239 Clear 24 1013 53 10000 1.54 70 13:54 09.06.2022
3240 Clear 24 1012 53 10000 2.06 70 13:28 09.06.2022
3241 Clear 27 1011 45 10000 2.06 90 11:54 09.06.2022
3242 Clear 29 1011 37 10000 3.6 110 11:19 09.06.2022
3243 Clear 31 1010 35 10000 5.14 130 09:45 09.06.2022
3244 Clear 31 1009 34 10000 5.14 110 09:24 09.06.2022
3245 Clear 31 1009 34 10000 6.71 120 07:52 09.06.2022
3246 Clear 30 1010 37 10000 6.71 130 06:41 09.06.2022
3247 Clear 26 1013 45 10000 7.2 120 03:19 09.06.2022
3248 Clear 22 1012 59 10000 4.63 140 23:48 08.06.2022
3249 Clear 22 1012 61 10000 4.63 140 22:58 08.06.2022
3250 Clear 23 1011 58 10000 4.12 140 22:27 08.06.2022
3251 Clouds 23 1011 57 10000 3.6 130 21:55 08.06.2022
3252 Clouds 24 1011 57 10000 4.63 130 21:23 08.06.2022
3253 Clouds 24 1011 59 10000 4.63 120 20:22 08.06.2022
3254 Clouds 24 1011 63 10000 3.6 130 19:39 08.06.2022
3255 Clouds 25 1012 64 10000 3.6 130 18:47 08.06.2022
3256 Clouds 27 1013 64 10000 4.02 110 17:25 08.06.2022
3257 Clear 26 1012 78 10000 2.57 120 15:48 08.06.2022
3258 Clear 26 1012 74 10000 2.57 50 13:52 08.06.2022
3259 Clear 28 1011 69 10000 3.6 50 12:22 08.06.2022
3260 Clouds 29 1012 64 10000 4.63 40 11:33 08.06.2022
3261 Clear 31 1009 55 10000 4.63 70 10:20 08.06.2022
3262 Clear 32 1009 48 10000 4.63 90 09:22 08.06.2022
3263 Clear 33 1009 47 10000 4.12 100 08:40 08.06.2022
3264 Clouds 32 1012 49 10000 7.72 90 05:55 08.06.2022
3265 Clouds 30 1013 57 10000 7.2 110 03:58 08.06.2022
3266 Clear 27 1013 81 10000 3.6 90 00:45 08.06.2022
3267 Clear 25 1011 89 10000 2.57 110 23:29 07.06.2022
3268 Clouds 25 1011 94 10000 2.57 130 22:45 07.06.2022
3269 Clouds 25 1013 94 10000 2.06 130 22:26 07.06.2022
3270 Clouds 25 1010 90 10000 2.57 150 21:34 07.06.2022
3271 Clouds 24 1010 94 10000 1.54 110 20:58 07.06.2022
3272 Clouds 25 1011 94 10000 1.54 90 20:32 07.06.2022
3273 Clouds 25 1011 93 10000 1.54 70 19:38 07.06.2022
3274 Clouds 25 1011 91 10000 1.54 70 18:23 07.06.2022
3275 Clouds 26 1013 89 10000 2.06 190 17:27 07.06.2022
3276 Clouds 26 1011 89 10000 1.34 210 16:43 07.06.2022
3277 Clear 26 1011 89 10000 1.54 210 15:54 07.06.2022
3278 Clear 27 1011 86 10000 2.57 210 15:26 07.06.2022
3279 Clouds 26 1011 87 10000 1.89 77 14:51 07.06.2022
3280 Clouds 26 1011 87 10000 1.89 77 14:32 07.06.2022
3281 Clear 28 1011 78 10000 0 0 13:31 07.06.2022
3282 Clear 28 1010 80 10000 2.06 20 12:52 07.06.2022
3283 Clear 28 1010 78 10000 2.06 360 11:47 07.06.2022
3284 Clouds 30 1009 72 10000 4.12 350 10:27 07.06.2022
3285 Clear 33 1008 56 10000 3.6 350 08:50 07.06.2022
3286 Clouds 34 1008 50 10000 0.89 231 07:34 07.06.2022
3287 Clouds 33 1011 52 10000 5.14 140 06:22 07.06.2022
3288 Clear 31 1014 67 10000 2.24 70 03:32 07.06.2022
3289 Clouds 25 1011 94 10000 2.06 100 00:45 07.06.2022
3290 Clouds 25 1011 94 10000 2.06 90 23:46 06.06.2022
3291 Clouds 25 1010 94 10000 2.06 80 22:54 06.06.2022
3292 Clear 25 1010 94 10000 1.54 70 22:28 06.06.2022
3293 Clouds 24 1009 94 10000 1.54 160 20:42 06.06.2022
3294 Clouds 25 1010 94 10000 1.54 140 19:24 06.06.2022
3295 Clouds 25 1010 92 10000 1.54 140 18:48 06.06.2022
3296 Clouds 25 1010 92 10000 0 0 17:59 06.06.2022
3297 Clouds 25 1010 90 10000 0 0 16:57 06.06.2022
3298 Clouds 25 1010 90 10000 0 0 16:57 06.06.2022
3299 Clear 26 1010 87 10000 1.54 230 15:57 06.06.2022
3300 Clear 27 1010 87 10000 2.06 250 14:59 06.06.2022
3301 Clear 27 1010 87 10000 1.54 260 14:26 06.06.2022
3302 Clear 27 1010 83 10000 1.03 280 13:20 06.06.2022
3303 Clear 28 1009 80 10000 2.57 300 12:35 06.06.2022
3304 Clear 28 1009 78 10000 2.57 330 11:49 06.06.2022
3305 Clouds 30 1009 70 10000 4.63 350 09:53 06.06.2022
3306 Clouds 31 1009 69 10000 4.12 350 09:23 06.06.2022
3307 Clouds 32 1007 70 10000 4.02 318 08:31 06.06.2022
3308 Clouds 32 1008 62 10000 2.06 290 07:24 06.06.2022
3309 Clouds 31 1010 66 10000 2.57 170 04:42 06.06.2022
3310 Clouds 29 1010 81 10000 2.57 150 02:27 06.06.2022
3311 Clouds 26 1010 93 10000 2.06 130 00:57 06.06.2022
3312 Clouds 25 1010 93 10000 2.06 130 00:35 06.06.2022
3313 Clouds 25 1010 93 10000 1.03 130 23:28 05.06.2022
3314 Clouds 25 1010 93 10000 2.06 140 22:33 05.06.2022
3315 Clouds 25 1010 91 10000 1.54 210 20:40 05.06.2022
3316 Clouds 26 1011 89 10000 1.03 250 19:26 05.06.2022
3317 Clouds 25 1011 91 10000 1.54 260 18:26 05.06.2022
3318 Clouds 26 1011 89 10000 1.54 260 17:50 05.06.2022
3319 Clouds 26 1011 87 10000 1.54 260 17:23 05.06.2022
3320 Clear 26 1011 87 10000 1.54 270 16:49 05.06.2022
3321 Clouds 26 1011 90 10000 0 0 15:50 05.06.2022
3322 Clouds 26 1011 86 10000 0.51 340 14:22 05.06.2022
3323 Clouds 27 1011 83 10000 0.51 340 12:43 05.06.2022
3324 Clouds 28 1011 78 10000 3.09 350 11:35 05.06.2022
3325 Clouds 29 1011 74 10000 4.63 360 10:25 05.06.2022
3326 Clouds 29 1009 74 10000 4.63 360 09:58 05.06.2022
3327 Clouds 30 1009 71 10000 4.63 360 08:26 05.06.2022
3328 Clouds 32 1011 62 10000 4.63 320 06:54 05.06.2022
3329 Clouds 32 1012 64 10000 2.68 80 05:20 05.06.2022
3330 Clouds 30 1012 72 10000 3.6 90 03:43 05.06.2022
3331 Clouds 27 1014 85 10000 3.09 120 01:32 05.06.2022
3332 Clouds 25 1014 94 10000 1.54 120 23:58 04.06.2022
3333 Clouds 25 1010 93 10000 1.54 160 21:58 04.06.2022
3334 Clouds 25 1012 91 10000 1.03 130 20:21 04.06.2022
3335 Clouds 25 1011 91 10000 0.51 360 18:18 04.06.2022
3336 Clouds 26 1011 89 10000 2.06 360 16:43 04.06.2022
3337 Clouds 26 1012 89 10000 1.54 340 16:18 04.06.2022
3338 Clouds 28 1011 83 10000 3.6 330 14:47 04.06.2022
3339 Clear 28 1010 77 10000 2.57 10 12:28 04.06.2022
3340 Clear 29 1010 77 10000 4.12 360 11:18 04.06.2022
3341 Clouds 29 1011 73 10000 3.6 20 10:43 04.06.2022
3342 Clouds 30 1009 68 10000 5.14 360 09:42 04.06.2022
3343 Thunderstorm 32 1009 61 10000 4.92 360 08:41 04.06.2022
3344 Clouds 32 1009 57 10000 4.12 310 07:40 04.06.2022
3345 Clouds 32 1012 59 10000 2.57 320 04:57 04.06.2022
3346 Clouds 27 1011 82 10000 1.03 140 01:27 04.06.2022
3347 Clouds 25 1012 94 10000 1.34 150 23:59 03.06.2022
3348 Clouds 25 1011 94 10000 1.03 150 22:40 03.06.2022
3349 Clouds 26 1011 89 10000 1.03 160 21:24 03.06.2022
3350 Clouds 26 1011 94 10000 1.54 160 20:33 03.06.2022
3351 Clouds 25 1011 93 10000 1.03 190 18:27 03.06.2022
3352 Clear 26 1011 85 10000 0.51 210 16:47 03.06.2022
3353 Clear 26 1011 83 10000 1.03 10 15:23 03.06.2022
3354 Clear 28 1011 76 10000 2.57 20 13:22 03.06.2022
3355 Clouds 28 1009 76 10000 2.57 360 11:40 03.06.2022
3356 Clouds 32 1008 60 10000 3.09 340 09:45 03.06.2022
3357 Clouds 32 1008 60 10000 3.09 340 09:24 03.06.2022
3358 Clouds 32 1009 51 10000 4.63 250 07:27 03.06.2022
3359 Clouds 32 1010 56 10000 3.09 120 06:35 03.06.2022
3360 Clouds 32 1011 57 10000 3.09 50 05:52 03.06.2022
3361 Clouds 25 1015 89 10000 2.06 110 00:41 03.06.2022
3362 Clouds 25 1015 89 10000 2.06 130 22:47 02.06.2022
3363 Clouds 25 1015 88 10000 2.06 140 21:51 02.06.2022
3364 Clouds 24 1011 91 10000 1.54 100 20:22 02.06.2022
3365 Clouds 24 1011 91 10000 1.54 100 20:22 02.06.2022
3366 Clouds 24 1011 91 10000 1.54 110 19:50 02.06.2022
3367 Clouds 24 1011 91 10000 1.03 150 19:32 02.06.2022
3368 Clear 26 1011 85 10000 1.54 90 17:35 02.06.2022
3369 Clear 25 1011 86 10000 1.54 50 16:28 02.06.2022
3370 Clear 27 1011 79 10000 2.06 40 14:22 02.06.2022
3371 Clear 27 1011 79 10000 2.57 40 13:30 02.06.2022
3372 Clouds 28 1010 70 10000 4.12 40 12:21 02.06.2022
3373 Clear 30 1010 57 10000 4.63 60 10:20 02.06.2022
3374 Clouds 31 1012 53 10000 4.63 60 09:28 02.06.2022
3375 Clouds 32 1012 56 10000 5.14 50 08:27 02.06.2022
3376 Clouds 32 1010 55 10000 5.14 50 07:33 02.06.2022
3377 Clouds 31 1011 63 10000 5.66 60 04:54 02.06.2022
3378 Clouds 30 1012 70 10000 5.66 50 03:45 02.06.2022
3379 Clouds 25 1015 89 10000 3.6 110 23:52 01.06.2022
3380 Clear 25 1011 89 10000 1.54 80 22:51 01.06.2022
3381 Clouds 25 1011 93 10000 1.54 70 21:39 01.06.2022
3382 Clouds 25 1011 92 10000 1.54 70 21:19 01.06.2022
3383 Clouds 25 1011 90 10000 2.57 40 20:37 01.06.2022
3384 Clouds 26 1011 91 10000 1.54 20 19:31 01.06.2022
3385 Clouds 25 1011 92 10000 0 0 17:46 01.06.2022
3386 Clear 26 1011 90 10000 0 0 16:40 01.06.2022
3387 Clear 26 1011 86 10000 2.06 40 15:18 01.06.2022
3388 Clear 27 1011 84 10000 2.57 60 13:54 01.06.2022
3389 Clear 28 1010 77 10000 2.06 60 12:29 01.06.2022
3390 Clear 30 1009 68 10000 4.63 30 10:25 01.06.2022
3391 Clouds 31 1009 66 10000 4.63 10 09:25 01.06.2022
3392 Clouds 32 1009 58 10000 5.14 20 07:25 01.06.2022
3393 Clouds 31 1009 61 10000 5.66 60 06:40 01.06.2022
3394 Clouds 26 1012 89 10000 2.57 120 01:30 01.06.2022
3395 Clouds 25 1011 93 10000 1.54 100 23:41 31.05.2022
3396 Clear 25 1010 93 10000 0 0 22:37 31.05.2022
3397 Clouds 25 1010 93 10000 0 0 21:46 31.05.2022
3398 Clouds 25 1010 91 10000 0 0 20:52 31.05.2022
3399 Clouds 25 1010 91 10000 1.03 340 20:31 31.05.2022
3400 Clouds 26 1011 86 10000 1.54 330 18:54 31.05.2022
3401 Clouds 27 1010 85 10000 2.57 10 17:51 31.05.2022
3402 Clouds 27 1011 85 10000 2.57 360 17:31 31.05.2022
3403 Clouds 26 1011 87 10000 2.06 20 15:42 31.05.2022
3404 Clouds 27 1010 87 10000 3.32 12 14:34 31.05.2022
3405 Clear 28 1009 77 10000 1.54 60 12:22 31.05.2022
3406 Clouds 29 1008 71 10000 3.58 50 11:42 31.05.2022
3407 Clouds 31 1008 61 10000 4.63 30 09:50 31.05.2022
3408 Clouds 29 1009 79 10000 3.09 240 07:41 31.05.2022
3409 Clouds 29 1009 79 10000 3.09 240 07:41 31.05.2022
3410 Clouds 31 1010 68 10000 3.09 360 05:24 31.05.2022
3411 Clouds 30 1011 75 10000 3.09 40 02:33 31.05.2022
3412 Fog 25 1008 93 10000 1.03 40 23:29 30.05.2022
3413 Clouds 25 1009 93 10000 1.03 10 22:59 30.05.2022
3414 Clear 25 1009 89 10000 1.54 10 22:31 30.05.2022
3415 Clouds 25 1009 92 10000 1.54 360 21:35 30.05.2022
3416 Clouds 26 1009 89 10000 2.06 10 20:31 30.05.2022
3417 Clouds 26 1009 89 10000 1.54 350 19:26 30.05.2022
3418 Clouds 26 1010 85 10000 2.06 10 17:44 30.05.2022
3419 Clouds 25 1010 86 10000 2.06 10 17:18 30.05.2022
3420 Clear 26 1010 81 10000 2.06 30 15:44 30.05.2022
3421 Clouds 28 1006 78 10000 2.57 360 12:58 30.05.2022
3422 Clouds 28 1009 71 10000 3.09 340 11:26 30.05.2022
3423 Clouds 31 1008 62 10000 3.6 330 09:39 30.05.2022
3424 Clouds 28 1006 69 10000 2.57 60 07:24 30.05.2022
3425 Clouds 30 1009 66 10000 5.14 340 05:51 30.05.2022
3426 Clouds 30 1011 67 10000 1.03 10 03:18 30.05.2022
3427 Clouds 24 1010 89 10000 1.79 150 23:32 29.05.2022
3428 Clouds 24 1008 89 10000 1.54 150 22:40 29.05.2022
3429 Clouds 24 1009 92 10000 2.57 150 21:40 29.05.2022
3430 Clouds 25 1010 90 10000 2.57 170 20:18 29.05.2022
3431 Clouds 25 1010 88 10000 2.06 180 19:28 29.05.2022
3432 Clouds 25 1010 85 10000 1.79 10 17:56 29.05.2022
3433 Clear 25 1010 82 10000 1.03 40 15:59 29.05.2022
3434 Clear 24 1010 85 10000 1.54 20 15:40 29.05.2022
3435 Clear 25 1010 81 10000 1.54 30 14:49 29.05.2022
3436 Clear 26 1009 73 10000 2.57 30 12:21 29.05.2022
3437 Clouds 28 1008 66 10000 3.6 30 10:56 29.05.2022
3438 Clouds 30 1007 62 10000 4.12 20 09:54 29.05.2022
3439 Clouds 33 1008 54 10000 4.12 10 07:55 29.05.2022
3440 Clouds 31 1011 55 10000 5.36 80 04:58 29.05.2022
3441 Clouds 30 1011 56 10000 5.36 80 04:32 29.05.2022
3442 Clouds 25 1012 77 10000 4.12 110 01:23 29.05.2022
3443 Clouds 23 1011 85 10000 2.57 140 23:47 28.05.2022
3444 Clouds 23 1010 85 10000 2.57 150 23:19 28.05.2022
3445 Clear 21 1010 94 10000 1.03 160 21:52 28.05.2022
3446 Clouds 22 1010 91 10000 1.03 160 20:53 28.05.2022
3447 Clear 22 1010 91 10000 0 0 19:20 28.05.2022
3448 Clear 23 1011 91 10000 2.06 160 18:23 28.05.2022
3449 Clear 23 1011 87 10000 0.51 60 17:33 28.05.2022
3450 Clear 24 1011 83 10000 1.03 40 15:50 28.05.2022
3451 Clear 24 1011 83 10000 1.03 40 15:20 28.05.2022
3452 Clear 25 1010 72 10000 1.54 10 13:36 28.05.2022
3453 Clear 26 1010 73 10000 1.54 10 12:43 28.05.2022
3454 Clear 27 1009 66 10000 2.57 360 11:37 28.05.2022
3455 Clear 29 1009 59 10000 2.57 360 10:39 28.05.2022
3456 Clear 31 1008 54 10000 3.09 10 09:54 28.05.2022
3457 Clear 32 1008 38 10000 2.06 110 08:33 28.05.2022
3458 Clear 32 1009 33 10000 3.6 60 06:50 28.05.2022
3459 Clear 31 1011 39 10000 5.66 90 05:18 28.05.2022
3460 Clear 27 1012 57 10000 5.14 80 02:26 28.05.2022
3461 Clear 22 1011 67 10000 4.12 100 23:57 27.05.2022
3462 Clear 22 1011 67 10000 3.6 130 22:48 27.05.2022
3463 Clouds 21 1011 74 10000 2.57 130 21:29 27.05.2022
3464 Clouds 21 1011 81 10000 1.54 130 20:45 27.05.2022
3465 Clouds 21 1011 84 10000 1.54 120 20:19 27.05.2022
3466 Clouds 21 1011 89 10000 1.54 170 19:38 27.05.2022
3467 Clouds 22 1011 87 10000 1.54 170 19:19 27.05.2022
3468 Clouds 23 1012 78 10000 1.54 200 17:19 27.05.2022
3469 Clear 24 1012 73 10000 1.54 150 15:57 27.05.2022
3470 Clear 24 1012 76 10000 0.51 70 14:57 27.05.2022
3471 Clear 24 1011 71 10000 1.54 70 13:40 27.05.2022
3472 Clear 26 1011 60 10000 1.54 70 12:20 27.05.2022
3473 Clouds 26 1010 61 10000 2.41 3 11:30 27.05.2022
3474 Clear 30 1009 42 10000 3.09 70 10:41 27.05.2022
3475 Clear 31 1009 37 10000 4.12 70 09:59 27.05.2022
3476 Clouds 31 1011 37 10000 3.58 120 09:30 27.05.2022
3477 Clear 32 1010 34 10000 5.66 110 07:39 27.05.2022
3478 Clear 32 1010 34 10000 5.66 110 07:39 27.05.2022
3479 Clear 29 1013 44 10000 5.14 120 03:59 27.05.2022
3480 Clear 26 1012 61 10000 5.14 80 01:27 27.05.2022
3481 Clear 23 1011 78 10000 1.54 90 23:23 26.05.2022
3482 Clouds 23 1010 88 10000 1.54 90 21:57 26.05.2022
3483 Clouds 23 1010 90 10000 2.06 130 21:27 26.05.2022
3484 Clouds 24 1010 92 10000 2.06 190 19:34 26.05.2022
3485 Clouds 24 1010 91 10000 2.57 180 18:51 26.05.2022
3486 Clouds 24 1011 85 10000 1.79 170 17:36 26.05.2022
3487 Clear 24 1011 83 10000 1.54 180 16:30 26.05.2022
3488 Clear 25 1011 73 10000 1.54 180 15:28 26.05.2022
3489 Clear 25 1011 78 10000 1.03 60 14:19 26.05.2022
3490 Clear 26 1009 77 10000 1.54 30 12:18 26.05.2022
3491 Clouds 28 1012 67 10000 3.6 20 11:20 26.05.2022
3492 Clouds 31 1008 61 10000 4.63 350 09:39 26.05.2022
3493 Clouds 31 1009 62 10000 4.12 350 08:48 26.05.2022
3494 Clouds 31 1009 62 10000 4.12 350 08:48 26.05.2022
3495 Clouds 32 1010 43 10000 2.06 280 06:47 26.05.2022
3496 Clouds 28 1013 78 10000 2.57 110 02:51 26.05.2022
3497 Clouds 24 1011 94 10000 1.03 50 23:58 25.05.2022
3498 Clear 24 1010 94 10000 1.03 50 22:53 25.05.2022
3499 Clouds 23 1010 94 10000 1.03 50 21:42 25.05.2022
3500 Clouds 23 1010 93 10000 1.03 50 20:50 25.05.2022
3501 Clouds 24 1010 91 10000 1.34 50 19:45 25.05.2022
3502 Clouds 24 1011 89 10000 1.54 50 18:48 25.05.2022
3503 Clear 25 1011 87 10000 0 0 17:26 25.05.2022
3504 Clear 24 1012 89 10000 0 0 16:34 25.05.2022
3505 Clear 25 1012 87 10000 0.45 10 15:36 25.05.2022
3506 Clouds 25 1012 85 10000 0.51 10 14:50 25.05.2022
3507 Clear 26 1012 82 10000 1.03 360 14:32 25.05.2022
3508 Clear 27 1011 78 10000 1.54 320 13:23 25.05.2022
3509 Clear 28 1009 72 10000 3.58 10 11:50 25.05.2022
3510 Clear 29 1009 66 10000 4.12 360 10:42 25.05.2022
3511 Clear 31 1009 62 10000 4.12 360 09:46 25.05.2022
3512 Clouds 33 1009 53 10000 1.79 160 08:21 25.05.2022
3513 Clouds 34 1009 44 10000 1.54 14 06:37 25.05.2022
3514 Clear 31 1013 63 10000 3.6 180 02:46 25.05.2022
3515 Fog 24 1012 93 10000 1.54 190 23:52 24.05.2022
3516 Fog 25 1012 89 10000 1.03 200 23:23 24.05.2022
3517 Clear 26 1012 88 10000 2.57 190 22:18 24.05.2022
3518 Clouds 26 1012 84 10000 2.57 190 21:38 24.05.2022
3519 Clouds 26 1012 84 10000 2.57 190 21:19 24.05.2022
3520 Clouds 25 1012 91 10000 2.06 200 19:32 24.05.2022
3521 Clouds 25 1013 91 10000 1.54 190 18:40 24.05.2022
3522 Clouds 25 1014 87 10000 3.79 204 16:40 24.05.2022
3523 Clouds 26 1014 83 10000 1.54 180 15:54 24.05.2022
3524 Clouds 26 1014 82 10000 0 0 14:45 24.05.2022
3525 Clear 26 1014 81 10000 1.54 360 13:48 24.05.2022
3526 Clear 27 1012 77 10000 3.09 10 12:35 24.05.2022
3527 Clouds 30 1011 60 10000 3.09 350 10:18 24.05.2022
3528 Clear 32 1010 58 10000 3.6 330 09:41 24.05.2022
3529 Clear 33 1010 51 10000 4.12 330 08:43 24.05.2022
3530 Clear 33 1011 44 10000 2.57 100 06:45 24.05.2022
3531 Clear 31 1013 52 10000 5.14 80 03:48 24.05.2022
3532 Clouds 27 1013 66 10000 5.14 80 01:49 24.05.2022
3533 Clouds 26 1013 76 10000 2.57 100 00:57 24.05.2022
3534 Clouds 23 1012 73 10000 1.54 170 22:50 23.05.2022
3535 Clouds 23 1011 80 10000 1.54 80 21:54 23.05.2022
3536 Clouds 22 1011 89 10000 0.51 80 20:59 23.05.2022
3537 Clouds 22 1011 86 10000 1.03 170 20:26 23.05.2022
3538 Clouds 23 1011 83 10000 1.03 160 19:31 23.05.2022
3539 Clouds 23 1011 86 10000 0 0 18:54 23.05.2022
3540 Clouds 24 1011 83 10000 1.54 160 18:27 23.05.2022
3541 Clouds 25 1012 79 10000 2.06 190 17:18 23.05.2022
3542 Clear 26 1012 73 10000 0 0 14:52 23.05.2022
3543 Clear 26 1011 72 10000 2.57 40 12:50 23.05.2022
3544 Clear 29 1010 54 10000 2.06 80 11:31 23.05.2022
3545 Clear 33 1009 38 10000 4.12 110 09:50 23.05.2022
3546 Clear 33 1009 38 10000 3.09 130 09:28 23.05.2022
3547 Clear 34 1009 39 10000 3.09 120 08:20 23.05.2022
3548 Clear 34 1010 36 10000 3.09 100 06:45 23.05.2022
3549 Clear 32 1011 40 10000 3.6 110 05:25 23.05.2022
3550 Clouds 29 1013 67 10000 4.12 70 02:23 23.05.2022
3551 Clear 27 1013 72 10000 2.57 70 01:37 23.05.2022
3552 Clouds 22 1012 68 10000 2.57 120 23:51 22.05.2022
3553 Clear 23 1011 67 10000 2.06 140 22:36 22.05.2022
3554 Clouds 23 1011 74 10000 2.57 130 21:55 22.05.2022
3555 Clouds 22 1011 86 10000 2.06 90 20:54 22.05.2022
3556 Clouds 22 1010 89 10000 1.54 90 20:31 22.05.2022
3557 Clouds 23 1010 86 10000 1.03 100 19:56 22.05.2022
3558 Clouds 25 1011 80 10000 2.57 160 18:55 22.05.2022
3559 Clouds 25 1011 86 10000 3.09 190 18:25 22.05.2022
3560 Clouds 25 1011 86 10000 3.09 200 17:34 22.05.2022
3561 Clouds 25 1011 80 10000 1.54 170 16:36 22.05.2022
3562 Clear 25 1011 80 10000 2.57 140 14:49 22.05.2022
3563 Clear 26 1011 74 10000 1.54 40 13:48 22.05.2022
3564 Clear 27 1010 69 10000 2.57 40 12:52 22.05.2022
3565 Clear 28 1009 66 10000 3.09 20 11:47 22.05.2022
3566 Clear 32 1008 40 10000 3.6 100 09:45 22.05.2022
3567 Clear 33 1008 37 10000 4.63 90 08:54 22.05.2022
3568 Clear 33 1009 37 10000 4.63 100 07:22 22.05.2022
3569 Clear 33 1010 39 10000 5.14 100 06:24 22.05.2022
3570 Clear 29 1013 58 10000 4.12 130 02:33 22.05.2022
3571 Clouds 25 1012 80 10000 2.57 150 00:44 22.05.2022
3572 Clouds 25 1012 80 10000 2.57 150 00:44 22.05.2022
3573 Clouds 25 1012 83 10000 2.57 150 23:55 21.05.2022
3574 Clear 25 1011 82 10000 1.54 170 23:21 21.05.2022
3575 Clouds 25 1009 81 10000 2.06 80 21:47 21.05.2022
3576 Clouds 25 1009 88 10000 1.03 70 21:26 21.05.2022
3577 Clouds 24 1010 90 10000 0 0 20:25 21.05.2022
3578 Clouds 24 1011 89 10000 1.03 40 19:37 21.05.2022
3579 Clouds 25 1011 89 10000 1.03 40 18:21 21.05.2022
3580 Clear 26 1011 82 10000 1.54 230 16:55 21.05.2022
3581 Clear 26 1011 77 10000 0 0 14:38 21.05.2022
3582 Clear 26 1011 78 10000 0.51 50 13:54 21.05.2022
3583 Clear 27 1010 72 10000 2.57 50 12:57 21.05.2022
3584 Clear 27 1010 72 10000 2.57 40 12:37 21.05.2022
3585 Clouds 30 1009 63 10000 4.63 30 10:53 21.05.2022
3586 Clear 32 1008 45 10000 4.12 90 09:49 21.05.2022
3587 Clear 33 1008 41 10000 5.66 110 08:58 21.05.2022
3588 Clear 33 1009 42 10000 5.36 110 08:34 21.05.2022
3589 Clear 32 1011 51 10000 5.81 110 05:29 21.05.2022
3590 Clouds 27 1013 79 10000 2.57 120 01:24 21.05.2022
3591 Clouds 25 1012 89 10000 1.54 150 23:29 20.05.2022
3592 Clouds 25 1012 93 10000 1.03 140 22:24 20.05.2022
3593 Clear 25 1012 94 10000 1.54 120 21:55 20.05.2022
3594 Clouds 25 1011 90 10000 1.03 140 20:58 20.05.2022
3595 Clouds 25 1011 90 10000 1.03 140 20:58 20.05.2022
3596 Clouds 25 1016 90 10000 1.54 150 20:29 20.05.2022
3597 Clouds 26 1012 90 10000 2.06 160 19:29 20.05.2022
3598 Clouds 25 1012 90 10000 1.54 170 18:47 20.05.2022
3599 Clouds 26 1012 85 10000 1.34 140 17:43 20.05.2022
3600 Clear 26 1012 79 10000 1.54 170 16:21 20.05.2022
3601 Clear 26 1012 83 10000 0 0 15:53 20.05.2022
3602 Clear 27 1012 78 10000 1.54 190 14:31 20.05.2022
3603 Clear 26 1012 80 10000 2.57 180 13:56 20.05.2022
3604 Clear 28 1011 73 10000 3.6 40 11:49 20.05.2022
3605 Clouds 30 1010 64 10000 5.14 40 10:24 20.05.2022
3606 Clear 33 1009 48 10000 5.14 90 08:58 20.05.2022
3607 Clear 32 1010 48 10000 4.63 90 07:40 20.05.2022
3608 Clear 33 1011 50 10000 3.58 70 06:38 20.05.2022
3609 Clouds 32 1012 54 10000 4.12 100 05:28 20.05.2022
3610 Clouds 25 1014 80 10000 1.34 110 00:54 20.05.2022
3611 Clouds 23 1013 84 10000 1.54 80 23:28 19.05.2022
3612 Clear 23 1012 88 10000 1.03 80 22:33 19.05.2022
3613 Clear 23 1012 85 10000 1.03 60 21:49 19.05.2022
3614 Clear 23 1012 85 10000 1.03 60 21:23 19.05.2022
3615 Clear 23 1012 87 10000 0 0 20:40 19.05.2022
3616 Clear 23 1012 86 10000 1.03 60 19:54 19.05.2022
3617 Clear 24 1013 85 10000 2.57 50 18:58 19.05.2022
3618 Clear 24 1013 84 10000 1.03 220 17:35 19.05.2022
3619 Clear 25 1013 83 10000 0 0 15:33 19.05.2022
3620 Clear 25 1013 77 10000 1.23 197 14:30 19.05.2022
3621 Clear 25 1013 76 10000 0 0 13:53 19.05.2022
3622 Clear 27 1012 72 10000 2.06 350 11:52 19.05.2022
3623 Clouds 29 1011 66 10000 3.6 360 10:25 19.05.2022
3624 Clouds 32 1010 57 10000 3.6 320 08:31 19.05.2022
3625 Clouds 32 1012 57 10000 4.12 310 06:39 19.05.2022
3626 Clouds 29 1014 58 10000 2.06 170 02:59 19.05.2022
3627 Clouds 25 1014 90 10000 2.06 140 00:56 19.05.2022
3628 Clouds 24 1013 94 10000 1.03 170 23:00 18.05.2022
3629 Clouds 24 1013 89 10000 0 0 22:40 18.05.2022
3630 Clouds 23 1013 93 10000 1.54 170 21:32 18.05.2022
3631 Clouds 24 1013 92 10000 2.57 170 20:55 18.05.2022
3632 Clouds 24 1013 91 10000 3.09 170 20:19 18.05.2022
3633 Clouds 24 1013 91 10000 2.06 160 18:47 18.05.2022
3634 Clouds 25 1014 87 10000 2.06 170 17:41 18.05.2022
3635 Clouds 25 1014 86 10000 2.06 170 17:23 18.05.2022
3636 Clear 24 1014 86 10000 1.54 170 16:36 18.05.2022
3637 Clear 25 1014 82 10000 0.89 30 15:43 18.05.2022
3638 Clear 25 1014 84 10000 0.51 30 15:19 18.05.2022
3639 Clear 26 1013 76 10000 0 0 13:53 18.05.2022
3640 Clear 26 1013 73 10000 1.54 30 12:53 18.05.2022
3641 Clear 28 1012 68 10000 3.6 40 11:47 18.05.2022
3642 Clear 28 1012 65 10000 4.12 40 11:29 18.05.2022
3643 Clear 31 1011 60 10000 5.66 20 10:36 18.05.2022
3644 Clear 33 1011 41 10000 4.92 70 07:56 18.05.2022
3645 Clear 33 1012 41 10000 6.17 80 06:52 18.05.2022
3646 Clouds 30 1015 61 10000 5.14 90 03:34 18.05.2022
3647 Clear 25 1014 83 10000 2.57 100 00:41 18.05.2022
3648 Clear 25 1013 85 10000 2.06 130 23:21 17.05.2022
3649 Clear 24 1013 86 10000 2.57 140 21:21 17.05.2022
3650 Clear 24 1013 87 10000 2.57 130 20:38 17.05.2022
3651 Clear 24 1013 86 10000 0 0 19:30 17.05.2022
3652 Clear 24 1013 88 10000 0.51 140 18:43 17.05.2022
3653 Clear 25 1013 81 10000 2.06 140 17:31 17.05.2022
3654 Clear 25 1013 80 10000 1.03 160 16:55 17.05.2022
3655 Clear 26 1013 80 10000 0.51 80 15:49 17.05.2022
3656 Clear 26 1013 77 10000 2.06 60 14:52 17.05.2022
3657 Clear 27 1012 78 10000 2.06 50 14:28 17.05.2022
3658 Clear 28 1011 76 10000 3.09 30 12:37 17.05.2022
3659 Clouds 30 1010 69 10000 4.63 10 10:23 17.05.2022
3660 Clouds 31 1009 67 10000 4.63 10 08:51 17.05.2022
3661 Clouds 32 1009 65 10000 4.12 30 07:46 17.05.2022
3662 Clouds 32 1010 58 10000 4.12 40 06:21 17.05.2022
3663 Clouds 28 1012 85 10000 3.6 90 01:23 17.05.2022
3664 Clouds 25 1012 90 10000 2.06 120 23:43 16.05.2022
3665 Clouds 26 1010 90 10000 1.54 130 22:33 16.05.2022
3666 Clear 25 1011 90 10000 1.03 130 21:18 16.05.2022
3667 Clear 25 1011 93 10000 1.54 90 20:37 16.05.2022
3668 Clear 26 1010 90 10000 2.06 210 18:46 16.05.2022
3669 Clear 27 1012 85 10000 1.54 250 17:18 16.05.2022
3670 Clouds 27 1012 84 10000 1.54 260 15:29 16.05.2022
3671 Clear 27 1011 82 10000 1.54 250 13:45 16.05.2022
3672 Clouds 28 1009 78 10000 2.57 260 12:37 16.05.2022
3673 Clouds 30 1009 67 10000 4.63 290 10:36 16.05.2022
3674 Clouds 32 1009 62 10000 4.63 310 07:59 16.05.2022
3675 Clouds 33 1011 55 10000 3.09 290 05:46 16.05.2022
3676 Clouds 26 1011 92 10000 1.34 190 00:49 16.05.2022
3677 Clear 25 1010 89 10000 1.03 250 22:44 15.05.2022
3678 Clear 25 1010 94 10000 1.03 250 22:20 15.05.2022
3679 Clear 25 1010 94 10000 1.03 250 21:37 15.05.2022
3680 Clear 25 1010 94 10000 1.03 260 20:47 15.05.2022
3681 Clear 26 1011 86 10000 2.57 240 18:46 15.05.2022
3682 Clear 26 1012 86 10000 2.06 250 16:54 15.05.2022
3683 Clear 27 1012 82 10000 1.54 240 14:58 15.05.2022
3684 Clear 28 1011 81 10000 2.06 270 13:46 15.05.2022
3685 Clear 28 1010 78 10000 3.09 250 12:19 15.05.2022
3686 Clouds 29 1010 76 10000 3.6 270 11:27 15.05.2022
3687 Clouds 31 1009 69 10000 5.14 290 09:58 15.05.2022
3688 Clouds 33 1009 64 10000 5.14 320 07:25 15.05.2022
3689 Clouds 33 1010 63 10000 4.63 310 06:56 15.05.2022
3690 Clouds 29 1013 74 10000 2.06 270 03:40 15.05.2022
3691 Clouds 26 1012 92 10000 1.54 180 00:42 15.05.2022
3692 Fog 25 1012 92 10000 1.54 180 23:38 14.05.2022
3693 Clouds 25 1011 93 10000 1.54 210 22:41 14.05.2022
3694 Clouds 25 1011 89 10000 1.54 240 21:27 14.05.2022
3695 Clouds 25 1011 90 10000 2.06 270 20:30 14.05.2022
3696 Clouds 25 1012 90 10000 1.54 250 19:21 14.05.2022
3697 Clouds 26 1012 88 10000 2.06 280 18:59 14.05.2022
3698 Clouds 26 1012 89 10000 1.54 300 17:53 14.05.2022
3699 Clouds 26 1012 83 10000 1.03 260 16:23 14.05.2022
3700 Clouds 27 1012 83 10000 1.54 240 14:56 14.05.2022
3701 Clear 26 1012 82 10000 2.06 310 14:30 14.05.2022
3702 Clouds 28 1011 76 10000 2.06 310 12:18 14.05.2022
3703 Clouds 30 1009 69 10000 3.09 340 10:53 14.05.2022
3704 Clouds 30 1009 65 10000 3.6 350 10:20 14.05.2022
3705 Clouds 32 1008 62 10000 4.12 350 09:46 14.05.2022
3706 Clouds 33 1008 52 10000 2.68 310 08:22 14.05.2022
3707 Clouds 31 1011 62 10000 4.12 330 05:26 14.05.2022
3708 Clear 29 1012 64 10000 1.03 40 01:57 14.05.2022
3709 Clear 23 1011 92 10000 1.54 150 23:32 13.05.2022
3710 Clear 24 1011 88 10000 1.54 140 22:57 13.05.2022
3711 Clear 24 1010 93 10000 1.54 130 22:23 13.05.2022
3712 Clouds 24 1010 93 10000 0.51 120 21:35 13.05.2022
3713 Clouds 24 1010 92 10000 1.03 130 20:44 13.05.2022
3714 Clouds 25 1010 89 10000 1.34 160 20:23 13.05.2022
3715 Clouds 25 1011 88 10000 1.54 160 19:21 13.05.2022
3716 Clouds 25 1011 86 10000 2.06 170 17:50 13.05.2022
3717 Clouds 25 1011 86 10000 2.06 150 17:26 13.05.2022
3718 Clouds 26 1012 84 10000 1.54 180 16:18 13.05.2022
3719 Clouds 26 1012 82 10000 1.03 180 14:54 13.05.2022
3720 Clouds 26 1011 79 10000 0.51 180 13:27 13.05.2022
3721 Clouds 27 1010 78 10000 2.06 180 12:25 13.05.2022
3722 Clouds 29 1009 74 10000 2.57 160 10:46 13.05.2022
3723 Clouds 30 1008 71 10000 3.58 160 09:33 13.05.2022
3724 Clouds 30 1008 71 10000 3.6 160 08:23 13.05.2022
3725 Clouds 30 1009 72 10000 2.57 70 07:42 13.05.2022
3726 Clouds 28 1010 78 10000 4.63 90 05:59 13.05.2022
3727 Clouds 30 1011 76 10000 1.54 50 02:44 13.05.2022
3728 Clouds 25 1010 93 10000 1.03 80 23:46 12.05.2022
3729 Clouds 25 1009 93 10000 0 0 22:44 12.05.2022
3730 Clouds 25 1009 90 10000 0 0 21:54 12.05.2022
3731 Clouds 25 1009 90 10000 1.54 120 20:27 12.05.2022
3732 Clouds 25 1009 90 10000 1.54 90 18:50 12.05.2022
3733 Clear 25 1010 89 10000 1.54 70 16:58 12.05.2022
3734 Clear 26 1010 85 10000 1.03 240 15:50 12.05.2022
3735 Clear 27 1010 82 10000 1.54 240 14:40 12.05.2022
3736 Clear 27 1009 81 10000 2.06 260 13:38 12.05.2022
3737 Clouds 30 1007 64 10000 3.6 300 10:45 12.05.2022
3738 Clouds 32 1006 61 10000 4.12 310 09:28 12.05.2022
3739 Clouds 33 1007 57 10000 4.12 310 08:50 12.05.2022
3740 Clouds 33 1007 52 10000 4.12 320 07:40 12.05.2022
3741 Clear 33 1009 44 10000 2.57 280 05:46 12.05.2022
3742 Clouds 30 1011 71 10000 3.09 170 02:49 12.05.2022
3743 Clear 26 1009 89 10000 2.06 180 00:35 12.05.2022
3744 Clear 26 1008 89 10000 3.09 190 22:35 11.05.2022
3745 Clouds 26 1007 90 10000 2.57 190 21:46 11.05.2022
3746 Clouds 26 1007 89 10000 2.06 200 21:21 11.05.2022
3747 Clouds 25 1008 86 10000 1.54 270 18:34 11.05.2022
3748 Clear 26 1009 82 10000 1.54 240 16:53 11.05.2022
3749 Clear 26 1009 83 10000 1.54 250 15:31 11.05.2022
3750 Clear 26 1009 83 10000 1.54 250 15:31 11.05.2022
3751 Clear 26 1009 83 10000 1.54 250 15:31 11.05.2022
3752 Clear 26 1009 83 10000 1.54 250 15:31 11.05.2022
3753 Clear 26 1009 83 10000 1.54 250 15:31 11.05.2022
3754 Clear 27 1009 82 10000 1.03 220 14:38 11.05.2022
3755 Clear 27 1009 82 10000 1.03 220 14:18 11.05.2022
3756 Clear 29 1006 72 10000 2.24 350 11:54 11.05.2022
3757 Clouds 30 1006 62 10000 3.6 320 10:44 11.05.2022
3758 Clear 33 1005 52 10000 4.63 350 08:40 11.05.2022
3759 Clear 33 1008 43 10000 3.6 190 05:28 11.05.2022
3760 Clear 26 1008 73 10000 2.06 200 00:43 11.05.2022
3761 Clear 26 1007 70 10000 2.57 210 22:32 10.05.2022
3762 Clouds 26 1007 70 10000 2.06 220 21:57 10.05.2022
3763 Clouds 26 1007 73 10000 3.09 220 20:57 10.05.2022
3764 Clouds 26 1007 78 10000 2.57 230 19:37 10.05.2022
3765 Clouds 26 1008 79 10000 1.54 240 17:58 10.05.2022
3766 Clouds 26 1008 78 10000 2.06 240 17:29 10.05.2022
3767 Clear 27 1008 75 10000 2.57 250 15:31 10.05.2022
3768 Clear 28 1007 78 10000 3.6 280 12:45 10.05.2022
3769 Clear 28 1007 78 10000 2.57 280 11:51 10.05.2022
3770 Clouds 29 1006 74 10000 2.57 330 11:20 10.05.2022
3771 Clouds 30 1006 72 10000 2.57 330 10:53 10.05.2022
3772 Clouds 33 1005 59 10000 3.6 290 09:26 10.05.2022
3773 Clouds 33 1006 51 10000 3.09 90 07:22 10.05.2022
3774 Clear 30 1009 40 10000 5.81 150 03:57 10.05.2022
3775 Clear 26 1009 42 10000 6.17 150 01:18 10.05.2022
3776 Clear 26 1007 48 10000 3.6 170 22:57 09.05.2022
3777 Clouds 25 1007 63 10000 3.6 170 21:51 09.05.2022
3778 Clouds 25 1007 67 10000 3.6 190 20:54 09.05.2022
3779 Clouds 26 1007 69 10000 3.6 200 19:29 09.05.2022
3780 Clouds 26 1008 65 10000 2.57 200 17:52 09.05.2022
3781 Clear 26 1008 70 10000 1.54 220 16:38 09.05.2022
3782 Clear 27 1009 70 10000 2.57 220 15:52 09.05.2022
3783 Clear 26 1009 77 10000 1.03 210 15:27 09.05.2022
3784 Clear 26 1009 80 10000 1.03 290 14:31 09.05.2022
3785 Clear 27 1009 76 10000 0 0 13:50 09.05.2022
3786 Clear 29 1008 64 10000 2.57 270 12:26 09.05.2022
3787 Clear 30 1008 60 10000 3.6 280 11:37 09.05.2022
3788 Clear 32 1007 49 10000 3.09 190 10:43 09.05.2022
3789 Clear 34 1006 40 10000 2.06 120 08:51 09.05.2022
3790 Clear 34 1006 38 10000 3.58 80 07:54 09.05.2022
3791 Clear 30 1010 42 10000 5.14 130 03:36 09.05.2022
3792 Clear 24 1009 53 10000 4.63 150 00:20 09.05.2022
3793 Clear 23 1009 60 10000 3.6 160 22:56 08.05.2022
3794 Clear 24 1009 58 10000 3.6 150 21:56 08.05.2022
3795 Clear 24 1009 65 10000 2.57 170 20:37 08.05.2022
3796 Clear 24 1009 64 10000 2.57 170 19:45 08.05.2022
3797 Clear 25 1009 59 10000 3.09 170 18:54 08.05.2022
3798 Clear 25 1009 58 10000 2.57 180 18:18 08.05.2022
3799 Clear 26 1009 55 10000 2.06 170 16:44 08.05.2022
3800 Clear 25 1009 74 10000 2.06 200 15:40 08.05.2022
3801 Clear 27 1009 69 10000 2.24 200 14:57 08.05.2022
3802 Clear 27 1009 60 10000 1.54 120 12:33 08.05.2022
3803 Clear 31 1008 47 10000 4.12 90 10:32 08.05.2022
3804 Clear 32 1007 43 10000 4.63 80 09:58 08.05.2022
3805 Clear 32 1007 43 10000 4.63 80 09:58 08.05.2022
3806 Clear 33 1007 39 10000 5.14 90 08:57 08.05.2022
3807 Clear 32 1008 38 10000 5.66 110 07:25 08.05.2022
3808 Clear 28 1011 34 10000 7.2 130 03:55 08.05.2022
3809 Clear 27 1012 38 10000 7.72 140 02:47 08.05.2022
3810 Clear 22 1011 53 10000 4.63 150 00:28 08.05.2022
3811 Clear 22 1011 55 10000 4.12 150 23:51 07.05.2022
3812 Clear 22 1010 56 10000 3.6 150 22:48 07.05.2022
3813 Clear 23 1010 52 10000 4.63 150 21:59 07.05.2022
3814 Clear 23 1009 52 10000 3.09 130 21:34 07.05.2022
3815 Clear 24 1009 53 10000 5.14 140 20:34 07.05.2022
3816 Clear 24 1010 53 10000 5.14 140 19:57 07.05.2022
3817 Clear 24 1010 57 10000 4.12 150 17:43 07.05.2022
3818 Clear 25 1011 54 10000 3.6 150 15:47 07.05.2022
3819 Clear 26 1011 54 10000 2.57 150 14:19 07.05.2022
3820 Clear 30 1009 40 10000 3.6 110 10:56 07.05.2022
3821 Clear 32 1008 35 10000 6.17 100 09:20 07.05.2022
3822 Clear 32 1009 34 10000 6.71 90 07:51 07.05.2022
3823 Clear 32 1009 37 10000 6.71 130 06:43 07.05.2022
3824 Clear 30 1011 37 10000 7.2 120 04:59 07.05.2022
3825 Clear 26 1012 52 10000 6.17 130 01:46 07.05.2022
3826 Clear 24 1011 62 10000 5.14 140 23:38 06.05.2022
3827 Clear 25 1010 60 10000 4.63 110 22:28 06.05.2022
3828 Clouds 25 1010 59 10000 4.63 110 21:43 06.05.2022
3829 Clouds 26 1010 56 10000 5.66 100 20:34 06.05.2022
3830 Clouds 26 1010 53 10000 5.14 130 19:31 06.05.2022
3831 Clouds 26 1010 54 10000 4.63 130 18:59 06.05.2022
3832 Clouds 26 1011 61 10000 4.12 140 18:19 06.05.2022
3833 Clear 26 1011 80 10000 3.6 160 16:44 06.05.2022
3834 Clear 26 1011 81 10000 2.57 170 15:41 06.05.2022
3835 Clear 26 1011 82 10000 2.06 140 14:50 06.05.2022
3836 Clear 28 1010 74 10000 2.06 50 12:55 06.05.2022
3837 Clear 28 1010 74 10000 2.06 60 12:36 06.05.2022
3838 Clouds 29 1009 73 10000 2.68 40 11:42 06.05.2022
3839 Clouds 31 1007 62 10000 4.02 70 10:30 06.05.2022
3840 Clouds 31 1007 56 10000 4.02 70 09:45 06.05.2022
3841 Clouds 32 1007 52 10000 5.36 100 08:27 06.05.2022
3842 Clouds 31 1008 58 10000 5.36 80 06:48 06.05.2022
3843 Clouds 31 1009 56 10000 6.71 100 05:23 06.05.2022
3844 Clear 29 1011 58 10000 6.17 120 02:47 06.05.2022
3845 Clear 26 1010 82 10000 4.12 100 00:25 06.05.2022
3846 Clear 26 1009 80 10000 4.63 100 22:28 05.05.2022
3847 Clouds 26 1009 85 10000 4.12 110 21:22 05.05.2022
3848 Clouds 26 1009 86 10000 2.57 130 19:54 05.05.2022
3849 Clouds 27 1010 85 10000 2.06 80 18:34 05.05.2022
3850 Clear 27 1010 82 10000 1.03 70 16:33 05.05.2022
3851 Clear 27 1010 78 10000 1.54 60 14:50 05.05.2022
3852 Clear 28 1009 74 10000 2.57 60 13:22 05.05.2022
3853 Clear 29 1009 73 10000 2.57 50 12:49 05.05.2022
3854 Clear 31 1008 61 10000 4.63 50 10:48 05.05.2022
3855 Clouds 33 1007 54 10000 4.12 70 09:40 05.05.2022
3856 Clouds 32 1008 56 10000 4.47 60 07:35 05.05.2022
3857 Clouds 32 1009 58 10000 3.6 90 05:19 05.05.2022
3858 Clear 28 1010 77 10000 1.34 50 01:56 05.05.2022
3859 Clear 27 1010 81 10000 1.54 50 01:27 05.05.2022
3860 Clear 25 1010 93 10000 2.57 130 23:52 04.05.2022
3861 Clear 25 1009 89 10000 2.57 120 22:42 04.05.2022
3862 Clear 25 1009 89 10000 2.24 150 21:50 04.05.2022
3863 Clear 25 1009 89 10000 2.57 150 21:29 04.05.2022
3864 Clear 25 1009 92 10000 2.06 130 20:25 04.05.2022
3865 Clear 25 1009 92 10000 2.06 140 19:53 04.05.2022
3866 Clear 25 1009 92 10000 2.06 180 19:18 04.05.2022
3867 Clear 26 1009 92 10000 1.54 80 18:22 04.05.2022
3868 Clear 25 1010 93 10000 2.06 70 17:51 04.05.2022
3869 Clear 26 1010 85 10000 0.89 20 15:42 04.05.2022
3870 Clear 26 1010 84 10000 1.03 20 15:23 04.05.2022
3871 Clear 27 1011 74 10000 2.06 40 14:21 04.05.2022
3872 Clear 27 1010 73 10000 2.06 50 13:35 04.05.2022
3873 Clear 29 1009 68 10000 3.09 40 12:33 04.05.2022
3874 Clear 29 1009 68 10000 3.09 40 12:33 04.05.2022
3875 Clouds 31 1008 58 10000 5.14 60 10:41 04.05.2022
3876 Clear 33 1008 54 10000 4.12 60 09:44 04.05.2022
3877 Clear 33 1007 49 10000 4.92 100 08:48 04.05.2022
3878 Clear 34 1008 46 10000 6.17 90 06:49 04.05.2022
3879 Clouds 31 1011 68 10000 4.12 70 02:59 04.05.2022
3880 Clear 27 1010 83 10000 2.06 70 00:48 04.05.2022
3881 Clouds 25 1013 90 10000 1.54 90 22:50 03.05.2022
3882 Clear 25 1009 90 10000 1.54 80 21:47 03.05.2022
3883 Clear 25 1009 90 10000 2.06 60 20:56 03.05.2022
3884 Clear 25 1009 90 10000 2.57 70 20:31 03.05.2022
3885 Clouds 25 1009 91 10000 1.03 70 18:54 03.05.2022
3886 Clouds 26 1009 88 10000 1.03 60 18:34 03.05.2022
3887 Clear 27 1009 84 10000 2.24 230 17:19 03.05.2022
3888 Clear 28 1009 79 10000 2.06 210 15:43 03.05.2022
3889 Clear 28 1010 77 10000 1.54 20 13:32 03.05.2022
3890 Clear 28 1009 74 10000 2.06 360 12:30 03.05.2022
3891 Clouds 30 1008 66 10000 3.09 350 10:58 03.05.2022
3892 Clouds 32 1008 56 10000 3.6 350 09:58 03.05.2022
3893 Clear 34 1008 45 10000 3.09 110 07:59 03.05.2022
3894 Clear 33 1008 47 10000 3.09 110 06:45 03.05.2022
3895 Clouds 29 1011 67 10000 3.09 80 01:53 03.05.2022
3896 Clear 25 1009 80 10000 1.54 90 22:45 02.05.2022
3897 Clear 25 1009 80 10000 1.54 100 22:25 02.05.2022
3898 Clouds 25 1009 78 10000 1.54 140 21:26 02.05.2022
3899 Clouds 25 1013 83 10000 1.54 170 18:57 02.05.2022
3900 Clouds 25 1013 83 10000 1.03 170 18:25 02.05.2022
3901 Clouds 25 1014 80 10000 0 0 17:38 02.05.2022
3902 Clear 25 1009 83 10000 0 0 16:25 02.05.2022
3903 Clear 25 1009 83 10000 0.45 60 15:40 02.05.2022
3904 Clear 26 1009 78 10000 1.54 70 14:19 02.05.2022
3905 Clear 27 1009 70 10000 1.03 60 12:45 02.05.2022
3906 Clear 29 1008 59 10000 2.06 80 11:24 02.05.2022
3907 Clear 33 1007 42 10000 5.14 100 09:32 02.05.2022
3908 Clear 34 1008 38 10000 5.66 130 07:57 02.05.2022
3909 Clear 32 1009 42 10000 8.23 120 05:37 02.05.2022
3910 Clouds 26 1011 73 10000 5.66 80 00:40 02.05.2022
3911 Clouds 26 1011 74 10000 5.66 90 00:21 02.05.2022
3912 Clear 25 1009 85 10000 3.09 100 22:49 01.05.2022
3913 Clouds 25 1009 91 10000 1.03 90 21:41 01.05.2022
3914 Clouds 26 1009 90 10000 2.06 160 20:23 01.05.2022
3915 Clouds 27 1009 86 10000 2.57 190 19:19 01.05.2022
3916 Clouds 27 1009 86 10000 2.06 190 18:50 01.05.2022
3917 Clouds 27 1009 81 10000 2.57 220 17:47 01.05.2022
3918 Clear 27 1010 82 10000 2.57 230 16:26 01.05.2022
3919 Clear 27 1013 81 10000 1.79 250 15:45 01.05.2022
3920 Clear 26 1010 84 10000 0.45 20 14:41 01.05.2022
3921 Clear 29 1008 72 10000 1.54 360 11:53 01.05.2022
3922 Clear 33 1007 52 10000 3.6 100 09:33 01.05.2022
3923 Clear 33 1007 49 10000 4.63 110 08:49 01.05.2022
3924 Clouds 33 1009 47 10000 7.2 90 05:42 01.05.2022
3925 Clear 29 1011 76 10000 3.09 130 01:32 01.05.2022
3926 Clouds 25 1008 93 10000 2.06 150 21:59 30.04.2022
3927 Clouds 26 1012 89 10000 1.54 150 21:30 30.04.2022
3928 Clouds 26 1012 89 10000 1.54 150 21:30 30.04.2022
3929 Clear 26 1009 89 10000 1.54 160 19:48 30.04.2022
3930 Clear 26 1010 86 10000 2.06 170 18:52 30.04.2022
3931 Clouds 26 1011 86 10000 1.54 130 17:26 30.04.2022
3932 Clear 27 1011 83 10000 0 0 15:51 30.04.2022
3933 Clear 27 1011 80 10000 1.03 50 14:58 30.04.2022
3934 Clear 28 1010 78 10000 2.24 40 13:41 30.04.2022
3935 Clouds 30 1009 71 10000 4.47 40 11:39 30.04.2022
3936 Clouds 31 1008 66 10000 5.14 40 10:55 30.04.2022
3937 Clouds 32 1008 59 10000 6.17 20 09:54 30.04.2022
3938 Clouds 34 1008 46 10000 3.6 80 07:36 30.04.2022
3939 Clouds 32 1011 61 10000 4.12 70 03:53 30.04.2022
3940 Clouds 25 1011 93 10000 0 0 23:54 29.04.2022
3941 Clear 25 1009 85 10000 2.06 90 22:36 29.04.2022
3942 Rain 25 1010 85 10000 1.54 50 21:55 29.04.2022
3943 Rain 25 1010 85 10000 2.57 60 21:21 29.04.2022
3944 Clouds 26 1009 92 10000 1.54 90 19:55 29.04.2022
3945 Clouds 26 1010 92 10000 1.03 60 19:26 29.04.2022
3946 Clouds 26 1010 90 10000 0 0 17:34 29.04.2022
3947 Clouds 26 1010 89 10000 0.51 230 16:36 29.04.2022
3948 Clouds 28 1015 77 10000 2.06 260 14:34 29.04.2022
3949 Clouds 28 1009 79 10000 1.54 300 13:27 29.04.2022
3950 Clouds 28 1008 78 10000 1.54 300 12:36 29.04.2022
3951 Clouds 31 1008 63 10000 3.6 340 10:29 29.04.2022
3952 Clouds 32 1013 58 10000 3.09 330 07:52 29.04.2022
3953 Clouds 33 1009 60 10000 3.6 320 07:25 29.04.2022
3954 Clouds 32 1013 59 10000 2.06 160 06:30 29.04.2022
3955 Clear 27 1012 80 10000 3.09 190 01:47 29.04.2022
3956 Rain 25 1011 81 10000 4.63 220 23:55 28.04.2022
3957 Rain 24 1011 92 10000 8.75 150 23:25 28.04.2022
3958 Clouds 26 1010 93 10000 2.57 120 22:24 28.04.2022
3959 Clouds 26 1009 91 10000 1.54 130 21:41 28.04.2022
3960 Clouds 26 1009 91 10000 1.03 180 20:45 28.04.2022
3961 Clouds 26 1009 90 10000 1.54 210 19:52 28.04.2022
3962 Clouds 26 1010 91 10000 1.54 230 19:24 28.04.2022
3963 Clouds 27 1010 91 10000 2.06 250 18:51 28.04.2022
3964 Clouds 27 1011 90 10000 2.57 280 17:42 28.04.2022
3965 Clouds 27 1010 86 10000 2.06 270 16:51 28.04.2022
3966 Clouds 27 1010 85 10000 2.06 270 16:20 28.04.2022
3967 Clouds 27 1010 85 10000 2.06 270 16:20 28.04.2022
3968 Clouds 27 1011 86 10000 1.03 260 15:48 28.04.2022
3969 Clouds 27 1010 91 10000 2.06 280 14:58 28.04.2022
3970 Clouds 28 1013 88 10000 0 0 13:33 28.04.2022
3971 Clouds 28 1009 85 10000 1.03 250 12:29 28.04.2022
3972 Clouds 29 1008 80 10000 0 0 10:59 28.04.2022
3973 Rain 28 1008 83 10000 1.54 40 10:26 28.04.2022
3974 Rain 28 1007 74 10000 1.54 70 09:50 28.04.2022
3975 Clouds 28 1008 89 10000 1.54 290 07:41 28.04.2022
3976 Clouds 28 1008 83 2000 3.6 300 06:43 28.04.2022
3977 Clouds 33 1009 61 10000 3.6 290 05:52 28.04.2022
3978 Clouds 32 1010 67 10000 2.57 290 04:42 28.04.2022
3979 Clouds 30 1010 72 10000 2.06 80 01:53 28.04.2022
3980 Clouds 27 1009 89 10000 2.06 90 23:25 27.04.2022
3981 Clouds 26 1013 89 10000 1.54 120 22:18 27.04.2022
3982 Clouds 27 1013 89 10000 0 0 21:43 27.04.2022
3983 Rain 27 1013 89 10000 2.57 90 20:45 27.04.2022
3984 Clouds 27 1013 89 10000 0 0 19:55 27.04.2022
3985 Clouds 27 1013 88 10000 0.51 290 19:34 27.04.2022
3986 Clouds 28 1008 84 10000 1.54 290 18:39 27.04.2022
3987 Clouds 28 1008 84 10000 1.34 230 17:55 27.04.2022
3988 Clouds 28 1009 78 10000 1.54 240 15:57 27.04.2022
3989 Clouds 30 1007 74 10000 2.57 290 12:59 27.04.2022
3990 Clouds 30 1006 69 10000 2.06 290 11:25 27.04.2022
3991 Clouds 31 1006 63 10000 2.06 300 10:45 27.04.2022
3992 Clouds 32 1006 62 10000 4.12 300 08:22 27.04.2022
3993 Clouds 32 1007 62 10000 4.63 300 06:41 27.04.2022
3994 Clouds 31 1010 66 10000 1.03 300 02:31 27.04.2022
3995 Clouds 29 1009 80 10000 0 0 01:21 27.04.2022
3996 Rain 27 1009 89 10000 3.6 210 00:27 27.04.2022
3997 Clouds 27 1007 85 10000 3.6 310 23:24 26.04.2022
3998 Clouds 26 1007 89 10000 1.03 310 22:45 26.04.2022
3999 Clouds 27 1007 89 10000 0 0 21:59 26.04.2022
4000 Clouds 27 1007 89 10000 0 0 21:19 26.04.2022
4001 Clouds 27 1007 88 10000 1.03 310 20:37 26.04.2022
4002 Clouds 27 1007 88 10000 1.54 320 19:45 26.04.2022
4003 Clouds 27 1007 88 10000 1.54 320 19:26 26.04.2022
4004 Clouds 27 1007 87 10000 2.06 310 18:31 26.04.2022
4005 Clouds 28 1007 84 10000 0.51 290 17:39 26.04.2022
4006 Clouds 29 1007 80 10000 1.54 300 15:32 26.04.2022
4007 Clouds 30 1007 76 10000 2.06 280 13:40 26.04.2022
4008 Clouds 30 1006 76 10000 2.57 270 12:57 26.04.2022
4009 Clouds 30 1005 74 10000 4.12 300 11:23 26.04.2022
4010 Clouds 31 1005 69 10000 4.63 300 10:30 26.04.2022
4011 Clouds 31 1005 69 10000 4.63 300 10:30 26.04.2022
4012 Rain 32 1005 63 10000 3.6 310 08:33 26.04.2022
4013 Clouds 33 1007 61 10000 3.09 330 04:53 26.04.2022
4014 Clouds 33 1008 58 10000 2.57 330 03:59 26.04.2022
4015 Clouds 28 1007 84 10000 0.89 300 00:46 26.04.2022
4016 Clouds 26 1006 89 10000 0 0 23:48 25.04.2022
4017 Clouds 27 1005 80 10000 1.54 270 21:51 25.04.2022
4018 Clouds 27 1005 84 10000 1.03 300 21:23 25.04.2022
4019 Clouds 28 1006 84 10000 2.06 270 19:47 25.04.2022
4020 Clouds 28 1006 84 10000 2.06 290 18:31 25.04.2022
4021 Clouds 28 1006 84 10000 1.54 340 17:39 25.04.2022
4022 Clear 29 1007 80 10000 2.57 320 16:30 25.04.2022
4023 Clear 29 1007 80 10000 3.09 330 15:19 25.04.2022
4024 Clear 29 1007 76 10000 2.06 340 14:23 25.04.2022
4025 Clouds 30 1006 61 10000 2.57 340 12:40 25.04.2022
4026 Clouds 32 1005 54 10000 4.12 330 10:29 25.04.2022
4027 Clouds 33 1004 55 10000 4.12 340 09:39 25.04.2022
4028 Clouds 33 1005 58 10000 3.6 340 07:34 25.04.2022
4029 Clear 35 1006 34 10000 2.06 80 05:53 25.04.2022
4030 Clouds 30 1008 75 10000 2.06 240 01:28 25.04.2022
4031 Clear 27 1007 89 10000 1.54 250 23:54 24.04.2022
4032 Clear 27 1006 87 10000 2.24 270 23:22 24.04.2022
4033 Clear 28 1006 84 10000 2.06 280 22:38 24.04.2022
4034 Clouds 28 1006 85 10000 2.06 280 21:54 24.04.2022
4035 Clouds 27 1006 89 10000 1.54 290 21:21 24.04.2022
4036 Clouds 27 1006 89 10000 1.54 290 21:21 24.04.2022
4037 Clouds 27 1006 85 10000 2.06 260 20:41 24.04.2022
4038 Clouds 27 1014 81 10000 1.54 270 19:57 24.04.2022
4039 Clouds 26 1008 80 10000 2.06 270 18:37 24.04.2022
4040 Clouds 26 1007 84 10000 1.54 270 17:41 24.04.2022
4041 Clouds 26 1007 84 10000 1.54 270 17:20 24.04.2022
4042 Clear 26 1007 84 10000 1.54 280 16:51 24.04.2022
4043 Clear 26 1007 80 10000 2.57 270 16:22 24.04.2022
4044 Clear 26 1007 83 10000 1.03 290 15:39 24.04.2022
4045 Clear 26 1007 83 10000 1.54 310 14:31 24.04.2022
4046 Clear 27 1007 78 10000 2.06 300 13:26 24.04.2022
4047 Clear 28 1006 69 10000 2.06 290 12:46 24.04.2022
4048 Clear 30 1006 57 10000 3.58 310 11:46 24.04.2022
4049 Clouds 31 1005 56 10000 4.12 310 10:37 24.04.2022
4050 Clouds 32 1005 51 10000 6.17 300 09:42 24.04.2022
4051 Clouds 34 1005 54 10000 4.63 300 07:41 24.04.2022
4052 Clouds 33 1007 62 10000 4.12 310 05:32 24.04.2022
4053 Clouds 30 1009 79 10000 0.51 220 01:51 24.04.2022
4054 Clouds 27 1009 85 10000 1.54 210 00:45 24.04.2022
4055 Clear 25 1008 88 10000 0 0 23:46 23.04.2022
4056 Clear 25 1008 88 10000 0 0 23:25 23.04.2022
4057 Clouds 25 1008 88 10000 0.51 270 21:56 23.04.2022
4058 Clouds 26 1007 89 10000 1.54 280 21:36 23.04.2022
4059 Clouds 26 1007 89 10000 2.06 290 20:58 23.04.2022
4060 Clouds 26 1007 89 10000 2.06 290 19:55 23.04.2022
4061 Clouds 26 1008 89 10000 2.06 310 19:20 23.04.2022
4062 Clouds 26 1008 89 10000 2.06 310 18:53 23.04.2022
4063 Clouds 26 1008 89 10000 2.06 340 18:31 23.04.2022
4064 Clouds 26 1008 89 10000 1.54 330 17:44 23.04.2022
4065 Clear 26 1009 89 10000 1.54 250 16:44 23.04.2022
4066 Clouds 27 1009 78 10000 0 0 15:35 23.04.2022
4067 Clouds 30 1008 64 10000 2.24 360 12:54 23.04.2022
4068 Clear 32 1007 55 10000 2.57 350 11:24 23.04.2022
4069 Clear 34 1006 36 10000 3.6 80 09:38 23.04.2022
4070 Clouds 35 1008 40 10000 3.58 90 07:52 23.04.2022
4071 Clear 32 1009 47 10000 4.47 130 03:56 23.04.2022
4072 Clear 28 1009 54 10000 3.6 150 01:55 23.04.2022
4073 Clear 25 1008 78 10000 3.09 190 23:33 22.04.2022
4074 Clear 26 1008 75 10000 3.09 180 22:32 22.04.2022
4075 Clear 26 1008 74 10000 3.6 190 21:44 22.04.2022
4076 Clouds 26 1008 74 10000 3.6 200 21:20 22.04.2022
4077 Clouds 26 1008 82 10000 3.09 210 20:28 22.04.2022
4078 Clouds 26 1008 87 10000 2.06 190 19:23 22.04.2022
4079 Clouds 26 1008 88 10000 1.03 250 18:52 22.04.2022
4080 Clouds 26 1009 87 10000 1.79 250 18:20 22.04.2022
4081 Clear 27 1010 88 10000 1.03 260 16:53 22.04.2022
4082 Clear 28 1010 77 10000 1.54 250 15:56 22.04.2022
4083 Clear 29 1010 80 10000 2.06 260 15:22 22.04.2022
4084 Clear 29 1010 79 10000 2.06 280 14:21 22.04.2022
4085 Clear 30 1010 75 10000 3.09 280 13:27 22.04.2022
4086 Clear 30 1009 75 10000 3.09 280 12:30 22.04.2022
4087 Clouds 30 1008 71 10000 3.09 290 11:23 22.04.2022
4088 Clouds 31 1008 68 10000 4.12 290 10:53 22.04.2022
4089 Clouds 31 1008 65 10000 4.12 300 10:32 22.04.2022
4090 Clouds 33 1008 62 10000 4.63 300 09:54 22.04.2022
4091 Clear 33 1008 55 10000 3.6 320 08:56 22.04.2022
4092 Clear 35 1008 36 10000 2.57 310 08:29 22.04.2022
4093 Clouds 33 1010 59 10000 2.57 280 05:31 22.04.2022
4094 Clouds 28 1011 89 10000 1.03 120 00:53 22.04.2022
4095 Clouds 26 1010 93 10000 0 0 23:29 21.04.2022
4096 Clouds 26 1009 93 10000 0 0 22:34 21.04.2022
4097 Clear 26 1009 91 10000 0.51 40 21:22 21.04.2022
4098 Clear 26 1008 93 10000 0 0 20:27 21.04.2022
4099 Clear 27 1009 89 10000 1.54 180 18:49 21.04.2022
4100 Clear 27 1009 87 10000 1.34 170 18:19 21.04.2022
4101 Clear 27 1009 89 10000 0 0 16:53 21.04.2022
4102 Clear 27 1009 84 10000 0 0 15:24 21.04.2022
4103 Clear 27 1009 88 10000 0.51 360 14:51 21.04.2022
4104 Clear 28 1009 80 10000 0 0 13:56 21.04.2022
4105 Clear 28 1009 80 10000 0.51 350 13:20 21.04.2022
4106 Clear 30 1008 62 10000 2.57 60 11:37 21.04.2022
4107 Clouds 33 1007 49 10000 5.66 100 09:23 21.04.2022
4108 Clear 34 1008 45 10000 5.14 120 08:29 21.04.2022
4109 Clouds 33 1009 52 10000 4.63 90 06:26 21.04.2022
4110 Clear 30 1011 64 10000 6.17 100 03:37 21.04.2022
4111 Clouds 30 1011 70 10000 5.14 120 02:56 21.04.2022
4112 Clouds 29 1011 73 10000 4.63 130 02:38 21.04.2022
4113 Clouds 26 1010 88 10000 2.57 140 00:25 21.04.2022
4114 Clear 25 1009 89 10000 1.54 120 23:24 20.04.2022
4115 Clear 25 1009 89 10000 2.06 150 22:58 20.04.2022
4116 Rain 25 1009 89 10000 1.54 110 22:32 20.04.2022
4117 Clouds 26 1008 90 10000 2.57 100 21:35 20.04.2022
4118 Clouds 26 1009 90 10000 2.57 100 20:43 20.04.2022
4119 Clouds 26 1009 90 10000 1.54 90 20:20 20.04.2022
4120 Clouds 25 1009 90 10000 2.57 50 19:38 20.04.2022
4121 Clouds 25 1010 94 10000 4.63 70 18:43 20.04.2022
4122 Clouds 28 1013 81 10000 1.54 60 16:59 20.04.2022
4123 Clouds 29 1013 79 10000 2.06 70 16:39 20.04.2022
4124 Clear 29 1010 84 10000 1.54 50 14:55 20.04.2022
4125 Clear 30 1008 76 10000 3.6 40 12:18 20.04.2022
4126 Clear 30 1007 73 10000 3.09 40 11:36 20.04.2022
4127 Clouds 31 1007 66 10000 4.12 60 10:30 20.04.2022
4128 Clouds 31 1010 64 10000 6.69 50 09:28 20.04.2022
4129 Clouds 33 1007 55 10000 5.66 80 08:25 20.04.2022
4130 Clouds 33 1010 52 10000 6.17 110 07:44 20.04.2022
4131 Clouds 32 1009 60 10000 4.63 90 05:19 20.04.2022
4132 Clouds 28 1010 85 10000 3.6 140 01:35 20.04.2022
4133 Clouds 26 1013 91 10000 2.06 150 00:21 20.04.2022
4134 Clear 26 1009 89 10000 2.57 160 22:44 19.04.2022
4135 Clear 26 1009 85 10000 2.06 170 22:23 19.04.2022
4136 Clouds 27 1011 88 10000 3.09 180 21:46 19.04.2022
4137 Clouds 27 1011 93 10000 2.57 190 20:57 19.04.2022
4138 Clouds 27 1011 93 10000 2.57 190 20:37 19.04.2022
4139 Clouds 28 1008 89 10000 3.6 190 19:32 19.04.2022
4140 Clouds 28 1009 89 10000 2.57 180 18:27 19.04.2022
4141 Clear 28 1009 83 10000 2.06 230 16:50 19.04.2022
4142 Clear 28 1009 83 10000 2.06 230 16:25 19.04.2022
4143 Clear 28 1009 83 10000 2.57 220 15:57 19.04.2022
4144 Clear 29 1009 76 10000 2.57 230 14:40 19.04.2022
4145 Clear 29 1008 83 10000 2.57 270 12:52 19.04.2022
4146 Clear 30 1008 80 10000 2.57 270 12:31 19.04.2022
4147 Clouds 30 1012 73 10000 3.6 280 11:27 19.04.2022
4148 Clouds 32 1007 68 10000 4.63 300 09:31 19.04.2022
4149 Clouds 33 1012 62 10000 3.09 340 07:43 19.04.2022
4150 Clouds 32 1014 63 10000 3.6 190 04:24 19.04.2022
4151 Clouds 29 1010 89 10000 2.57 170 01:24 19.04.2022
4152 Clouds 26 1014 94 10000 0.51 200 23:49 18.04.2022
4153 Clouds 26 1014 93 10000 1.54 270 22:46 18.04.2022
4154 Clouds 26 1008 93 10000 0 0 21:25 18.04.2022
4155 Clouds 26 1008 93 10000 0 0 20:39 18.04.2022
4156 Clouds 26 1009 92 10000 1.03 270 19:59 18.04.2022
4157 Clouds 27 1009 89 10000 1.54 260 19:32 18.04.2022
4158 Clouds 27 1009 89 10000 2.06 250 18:43 18.04.2022
4159 Clouds 27 1010 82 10000 2.06 240 17:40 18.04.2022
4160 Clouds 27 1010 81 10000 2.06 240 17:19 18.04.2022
4161 Clear 27 1010 87 10000 2.57 240 16:38 18.04.2022
4162 Clear 27 1010 83 10000 1.34 180 15:32 18.04.2022
4163 Clear 28 1010 79 10000 1.54 180 14:27 18.04.2022
4164 Clouds 27 1009 81 10000 1.03 230 12:56 18.04.2022
4165 Rain 27 1009 78 10000 3.6 260 12:24 18.04.2022
4166 Rain 31 1008 72 10000 5.36 300 10:46 18.04.2022
4167 Clouds 32 1012 69 10000 5.14 310 09:32 18.04.2022
4168 Clouds 32 1012 68 10000 5.66 300 08:46 18.04.2022
4169 Clouds 33 1013 63 10000 4.12 290 06:52 18.04.2022
4170 Clouds 31 1010 74 10000 3.09 340 02:29 18.04.2022
4171 Clouds 26 1009 93 10000 1.54 30 23:23 17.04.2022
4172 Clouds 26 1009 93 10000 2.57 60 22:37 17.04.2022
4173 Clouds 26 1009 93 10000 1.54 70 21:34 17.04.2022
4174 Clouds 26 1009 90 10000 1.03 90 20:52 17.04.2022
4175 Rain 27 1009 89 10000 1.03 70 20:19 17.04.2022
4176 Clouds 27 1009 88 10000 1.54 330 18:45 17.04.2022
4177 Clouds 27 1010 88 10000 0 0 17:31 17.04.2022
4178 Clear 28 1009 80 10000 1.03 350 15:37 17.04.2022
4179 Clear 28 1009 79 10000 1.54 10 14:45 17.04.2022
4180 Clear 28 1009 79 10000 3.09 30 13:37 17.04.2022
4181 Clear 28 1008 79 10000 3.09 30 12:49 17.04.2022
4182 Clouds 30 1012 73 10000 4.12 20 10:58 17.04.2022
4183 Clouds 30 1012 69 10000 4.63 10 10:29 17.04.2022
4184 Clouds 31 1007 67 10000 4.63 20 09:55 17.04.2022
4185 Clouds 32 1007 63 10000 3.6 20 09:21 17.04.2022
4186 Clouds 33 1007 56 10000 3.6 20 08:41 17.04.2022
4187 Clear 33 1008 55 10000 4.63 60 06:32 17.04.2022
4188 Clouds 29 1010 70 10000 1.54 130 02:31 17.04.2022
4189 Clouds 25 1009 88 10000 2.57 110 00:42 17.04.2022
4190 Clouds 25 1009 89 10000 3.6 130 23:38 16.04.2022
4191 Clouds 25 1008 88 10000 2.57 100 21:54 16.04.2022
4192 Clouds 25 1008 88 10000 2.06 90 21:19 16.04.2022
4193 Clouds 25 1008 91 10000 1.54 110 19:30 16.04.2022
4194 Clouds 25 1009 90 10000 1.54 80 18:44 16.04.2022
4195 Rain 25 1009 93 10000 1.54 120 17:21 16.04.2022
4196 Clouds 25 1010 90 10000 4.63 110 16:30 16.04.2022
4197 Clouds 29 1009 81 10000 1.54 250 14:59 16.04.2022
4198 Clouds 29 1009 81 10000 2.06 270 14:41 16.04.2022
4199 Clouds 29 1008 80 10000 2.24 270 13:50 16.04.2022
4200 Clear 29 1008 80 10000 2.68 280 13:18 16.04.2022
4201 Clouds 30 1006 76 10000 4.12 300 11:50 16.04.2022
4202 Clouds 30 1006 73 10000 5.66 300 10:35 16.04.2022
4203 Clouds 32 1006 70 10000 5.14 310 09:38 16.04.2022
4204 Clouds 33 1006 58 10000 4.63 310 08:52 16.04.2022
4205 Clouds 33 1007 58 10000 2.68 220 07:23 16.04.2022
4206 Clouds 32 1012 59 10000 2.06 160 05:45 16.04.2022
4207 Clouds 29 1010 84 10000 2.57 130 01:52 16.04.2022
4208 Clouds 26 1009 93 10000 1.03 150 23:53 15.04.2022
4209 Clouds 26 1013 93 10000 1.79 160 22:51 15.04.2022
4210 Clouds 26 1008 93 10000 2.06 160 22:31 15.04.2022
4211 Clouds 26 1008 93 10000 2.06 140 21:34 15.04.2022
4212 Clouds 26 1008 90 10000 1.54 130 20:44 15.04.2022
4213 Clouds 26 1009 92 10000 1.03 190 19:49 15.04.2022
4214 Clouds 26 1009 89 10000 0.51 190 19:30 15.04.2022
4215 Clouds 26 1009 89 10000 1.03 190 18:45 15.04.2022
4216 Clouds 26 1009 89 10000 1.03 190 18:23 15.04.2022
4217 Clouds 26 1009 88 10000 0 0 17:28 15.04.2022
4218 Clouds 27 1010 88 10000 1.34 20 16:25 15.04.2022
4219 Clouds 27 1010 88 10000 1.34 20 16:25 15.04.2022
4220 Clear 27 1010 88 10000 1.54 20 15:54 15.04.2022
4221 Clear 28 1009 80 10000 2.57 50 14:22 15.04.2022
4222 Clear 28 1009 76 10000 2.06 40 12:53 15.04.2022
4223 Clear 29 1008 79 10000 2.57 50 12:28 15.04.2022
4224 Clouds 29 1007 79 10000 2.57 40 11:54 15.04.2022
4225 Clear 30 1013 67 10000 3.6 30 10:48 15.04.2022
4226 Clouds 31 1012 65 10000 3.6 30 10:21 15.04.2022
4227 Clouds 32 1012 59 10000 3.09 80 09:23 15.04.2022
4228 Clouds 33 1007 59 10000 3.6 70 08:57 15.04.2022
4229 Clouds 33 1008 57 10000 4.12 90 06:55 15.04.2022
4230 Clouds 32 1009 63 10000 3.6 80 05:56 15.04.2022
4231 Clouds 28 1010 86 10000 3.09 140 01:33 15.04.2022
4232 Clouds 26 1009 94 10000 1.54 140 23:30 14.04.2022
4233 Clouds 26 1008 93 10000 2.57 150 22:46 14.04.2022
4234 Clouds 26 1008 93 10000 2.06 160 22:27 14.04.2022
4235 Clouds 26 1008 93 10000 2.06 160 22:27 14.04.2022
4236 Clouds 26 1013 93 10000 2.06 140 21:53 14.04.2022
4237 Clouds 26 1009 92 10000 2.06 140 19:57 14.04.2022
4238 Rain 26 1009 92 10000 2.57 110 19:22 14.04.2022
4239 Clouds 26 1010 93 10000 0.51 360 17:58 14.04.2022
4240 Clouds 26 1010 93 10000 1.54 350 17:27 14.04.2022
4241 Clouds 27 1014 92 10000 1.79 350 16:33 14.04.2022
4242 Clouds 27 1011 90 10000 3.09 350 14:20 14.04.2022
4243 Clouds 27 1014 92 10000 1.54 360 13:31 14.04.2022
4244 Clouds 27 1009 94 10000 3.09 50 12:42 14.04.2022
4245 Clouds 27 1009 94 10000 3.09 50 12:22 14.04.2022
4246 Rain 27 1009 93 10000 3.09 20 11:21 14.04.2022
4247 Clouds 29 1009 82 1500 4.63 20 10:36 14.04.2022
4248 Clouds 30 1007 77 10000 2.06 70 09:56 14.04.2022
4249 Clouds 32 1007 64 10000 3.6 60 08:40 14.04.2022
4250 Clouds 33 1007 60 10000 3.6 100 06:50 14.04.2022
4251 Clear 29 1010 76 10000 3.58 130 02:45 14.04.2022
4252 Clear 25 1008 94 10000 2.57 150 22:52 13.04.2022
4253 Clouds 25 1008 94 10000 2.06 150 21:44 13.04.2022
4254 Clouds 24 1008 94 10000 2.06 150 20:55 13.04.2022
4255 Clouds 24 1008 94 10000 3.09 160 20:22 13.04.2022
4256 Clouds 25 1007 88 10000 2.57 110 19:24 13.04.2022
4257 Clouds 25 1008 93 10000 3.6 100 18:19 13.04.2022
4258 Clouds 25 1008 94 10000 2.06 120 17:23 13.04.2022
4259 Rain 24 1010 100 10000 3.09 140 16:33 13.04.2022
4260 Rain 24 1011 94 10000 4.12 140 15:35 13.04.2022
4261 Rain 24 1011 94 10000 5.14 140 14:50 13.04.2022
4262 Rain 24 1011 94 10000 5.14 140 14:19 13.04.2022
4263 Rain 25 1010 88 10000 7.72 90 13:19 13.04.2022
4264 Rain 24 1010 88 9000 12.86 80 12:25 13.04.2022
4265 Clouds 28 1006 85 10000 2.06 350 10:49 13.04.2022
4266 Clouds 27 1007 78 10000 3.6 120 09:41 13.04.2022
4267 Clouds 27 1007 83 3000 2.06 310 08:42 13.04.2022
4268 Clouds 33 1007 65 10000 4.12 80 06:51 13.04.2022
4269 Clouds 33 1007 65 10000 4.63 70 06:25 13.04.2022
4270 Clouds 32 1008 69 10000 5.66 100 05:20 13.04.2022
4271 Clouds 25 1009 94 10000 3.6 140 00:22 13.04.2022
4272 Clouds 25 1009 94 10000 3.09 140 23:45 12.04.2022
4273 Clouds 25 1008 94 10000 4.12 130 22:19 12.04.2022
4274 Clouds 25 1007 94 10000 3.09 150 21:18 12.04.2022
4275 Clouds 24 1008 94 10000 2.06 140 20:41 12.04.2022
4276 Rain 24 1008 94 10000 2.57 140 19:50 12.04.2022
4277 Rain 24 1008 94 10000 3.6 140 19:31 12.04.2022
4278 Rain 25 1008 98 10000 3.09 150 18:31 12.04.2022
4279 Rain 25 1009 94 10000 2.57 160 17:28 12.04.2022
4280 Rain 25 1009 94 10000 2.57 160 17:28 12.04.2022
4281 Rain 25 1012 94 10000 2.57 150 16:22 12.04.2022
4282 Rain 25 1010 94 10000 2.57 170 15:33 12.04.2022
4283 Rain 26 1010 92 10000 1.79 360 14:26 12.04.2022
4284 Rain 26 1010 94 10000 5.14 360 13:36 12.04.2022
4285 Rain 25 1009 94 10000 3.09 50 12:52 12.04.2022
4286 Thunderstorm 24 1009 100 7000 5.66 40 11:47 12.04.2022
4287 Clouds 31 1010 67 10000 4.63 40 10:47 12.04.2022
4288 Clouds 32 1005 61 10000 5.14 50 09:21 12.04.2022
4289 Clouds 33 1006 64 10000 4.02 340 07:56 12.04.2022
4290 Clouds 34 1006 55 10000 3.09 90 06:24 12.04.2022
4291 Clouds 34 1007 56 10000 1.54 300 05:31 12.04.2022
4292 Clouds 29 1008 84 10000 1.03 120 00:46 12.04.2022
4293 Clouds 26 1006 90 10000 0 0 22:47 11.04.2022
4294 Clouds 27 1006 93 10000 0 0 21:41 11.04.2022
4295 Clouds 26 1006 90 10000 1.54 110 20:57 11.04.2022
4296 Clouds 27 1006 90 10000 1.54 120 20:29 11.04.2022
4297 Clouds 27 1007 89 10000 1.54 90 19:54 11.04.2022
4298 Clouds 27 1007 92 10000 2.06 90 19:18 11.04.2022
4299 Clouds 27 1007 89 10000 2.06 70 18:47 11.04.2022
4300 Clouds 27 1007 89 10000 1.54 220 17:57 11.04.2022
4301 Clear 28 1007 82 10000 2.57 230 16:54 11.04.2022
4302 Clear 29 1008 81 10000 3.6 240 15:56 11.04.2022
4303 Clear 29 1008 78 10000 2.57 240 14:24 11.04.2022
4304 Clouds 29 1008 76 10000 2.68 270 12:53 11.04.2022
4305 Clouds 29 1007 75 10000 3.09 270 12:33 11.04.2022
4306 Clouds 30 1007 71 10000 3.09 270 11:33 11.04.2022
4307 Clouds 32 1006 65 10000 3.6 300 10:28 11.04.2022
4308 Clouds 33 1006 58 10000 5.66 300 09:20 11.04.2022
4309 Clouds 34 1007 58 10000 5.66 290 06:24 11.04.2022
4310 Clear 30 1009 71 10000 2.06 260 01:55 11.04.2022
4311 Clear 26 1007 89 10000 2.57 180 22:37 10.04.2022
4312 Clouds 26 1007 89 10000 1.54 190 21:55 10.04.2022
4313 Clouds 26 1007 90 10000 2.57 210 21:29 10.04.2022
4314 Clouds 27 1007 90 10000 2.06 210 20:31 10.04.2022
4315 Clouds 26 1008 91 10000 1.03 230 19:44 10.04.2022
4316 Clouds 26 1008 89 10000 1.54 230 19:20 10.04.2022
4317 Clouds 27 1008 88 10000 1.54 240 18:42 10.04.2022
4318 Clear 27 1008 87 10000 1.54 250 17:52 10.04.2022
4319 Clear 27 1009 86 10000 1.54 260 17:33 10.04.2022
4320 Clear 27 1009 86 10000 2.06 260 16:21 10.04.2022
4321 Clear 28 1009 83 10000 1.54 260 15:19 10.04.2022
4322 Clear 28 1009 77 10000 2.57 270 13:58 10.04.2022
4323 Clouds 29 1009 70 10000 3.09 280 12:33 10.04.2022
4324 Clouds 29 1007 70 10000 3.09 280 11:46 10.04.2022
4325 Clouds 30 1007 70 10000 4.12 300 11:28 10.04.2022
4326 Clouds 31 1007 64 10000 4.12 310 10:48 10.04.2022
4327 Clouds 32 1011 64 10000 4.63 300 09:55 10.04.2022
4328 Clouds 33 1011 61 10000 4.63 300 09:21 10.04.2022
4329 Clouds 33 1006 59 10000 5.36 300 08:21 10.04.2022
4330 Clouds 33 1007 60 10000 4.63 300 07:21 10.04.2022
4331 Clouds 33 1008 55 10000 2.06 250 05:27 10.04.2022
4332 Clouds 29 1010 78 10000 3.09 170 02:20 10.04.2022
4333 Clouds 26 1009 94 10000 1.54 180 23:55 09.04.2022
4334 Clouds 25 1008 94 10000 1.03 210 23:35 09.04.2022
4335 Clouds 25 1007 93 10000 0.51 210 22:43 09.04.2022
4336 Clouds 25 1007 94 10000 0.51 210 21:34 09.04.2022
4337 Clouds 25 1007 93 10000 1.03 210 20:48 09.04.2022
4338 Clouds 25 1007 93 10000 0 0 20:23 09.04.2022
4339 Clouds 26 1007 90 10000 2.06 210 19:41 09.04.2022
4340 Clouds 26 1007 88 10000 2.57 230 18:54 09.04.2022
4341 Clouds 26 1011 85 10000 2.06 230 18:18 09.04.2022
4342 Clouds 26 1011 88 10000 1.54 210 17:34 09.04.2022
4343 Clear 27 1008 86 10000 1.54 210 16:47 09.04.2022
4344 Clear 27 1008 88 10000 1.54 230 15:55 09.04.2022
4345 Clear 28 1008 84 10000 1.54 230 15:28 09.04.2022
4346 Clouds 27 1008 89 10000 1.54 280 14:27 09.04.2022
4347 Clouds 27 1008 89 10000 1.54 280 14:27 09.04.2022
4348 Clouds 27 1008 86 10000 1.54 290 13:54 09.04.2022
4349 Clouds 28 1007 83 10000 1.54 310 12:59 09.04.2022
4350 Clouds 28 1007 82 10000 1.54 300 12:34 09.04.2022
4351 Clouds 30 1007 69 10000 2.06 290 11:21 09.04.2022
4352 Clouds 30 1006 66 10000 4.02 300 10:20 09.04.2022
4353 Clouds 31 1006 70 10000 4.63 300 09:37 09.04.2022
4354 Clouds 33 1006 67 10000 4.12 320 08:51 09.04.2022
4355 Clouds 33 1007 61 10000 5.66 300 06:48 09.04.2022
4356 Clouds 29 1010 83 10000 2.06 140 01:31 09.04.2022
4357 Clouds 26 1009 93 10000 0 0 23:25 08.04.2022
4358 Clouds 25 1007 93 10000 0 0 21:58 08.04.2022
4359 Clouds 25 1007 93 10000 1.03 310 20:48 08.04.2022
4360 Clouds 26 1007 89 10000 1.54 310 20:23 08.04.2022
4361 Clouds 27 1007 87 10000 2.06 320 19:18 08.04.2022
4362 Clouds 26 1008 86 10000 2.06 340 18:28 08.04.2022
4363 Clouds 26 1011 87 10000 1.54 310 17:46 08.04.2022
4364 Clouds 26 1008 87 10000 1.03 300 17:22 08.04.2022
4365 Clear 26 1008 88 10000 1.03 300 16:47 08.04.2022
4366 Clear 27 1008 85 10000 1.54 300 15:56 08.04.2022
4367 Clear 27 1008 85 10000 1.54 300 15:25 08.04.2022
4368 Clear 28 1007 82 10000 1.54 310 14:26 08.04.2022
4369 Clear 29 1007 78 10000 1.54 320 13:45 08.04.2022
4370 Clear 29 1007 77 10000 2.06 330 13:27 08.04.2022
4371 Clouds 31 1006 72 10000 2.57 340 11:54 08.04.2022
4372 Clouds 32 1006 66 10000 3.6 340 10:33 08.04.2022
4373 Clouds 33 1005 59 10000 3.6 330 09:37 08.04.2022
4374 Clouds 33 1005 55 10000 4.12 320 08:44 08.04.2022
4375 Clouds 34 1006 49 10000 4.63 300 06:54 08.04.2022
4376 Clouds 33 1007 57 10000 2.06 230 05:18 08.04.2022
4377 Clouds 29 1008 88 10000 1.54 160 01:27 08.04.2022
4378 Clouds 27 1008 94 10000 0.51 170 00:25 08.04.2022
4379 Clouds 26 1007 94 10000 1.03 90 22:59 07.04.2022
4380 Clouds 26 1006 94 10000 0 0 22:39 07.04.2022
4381 Clouds 26 1006 94 10000 0 0 22:21 07.04.2022
4382 Clouds 26 1007 91 10000 1.34 270 21:51 07.04.2022
4383 Clouds 26 1006 91 10000 1.54 270 21:19 07.04.2022
4384 Clouds 26 1006 94 10000 1.03 270 20:31 07.04.2022
4385 Clouds 27 1006 90 10000 2.06 240 18:34 07.04.2022
4386 Clouds 27 1007 89 10000 1.54 260 17:26 07.04.2022
4387 Clear 28 1007 86 10000 2.06 240 16:44 07.04.2022
4388 Clear 28 1007 85 10000 2.06 240 16:22 07.04.2022
4389 Clouds 29 1008 83 10000 2.57 240 14:50 07.04.2022
4390 Clouds 29 1007 79 10000 2.57 270 13:43 07.04.2022
4391 Clouds 29 1007 82 10000 2.57 280 12:46 07.04.2022
4392 Clouds 31 1006 76 10000 3.6 290 11:34 07.04.2022
4393 Clouds 32 1005 67 10000 3.6 340 09:37 07.04.2022
4394 Clouds 35 1005 49 10000 2.57 170 08:38 07.04.2022
4395 Clear 33 1006 60 10000 2.57 180 06:42 07.04.2022
4396 Clear 28 1010 82 10000 3.09 160 02:54 07.04.2022
4397 Clear 27 1010 88 10000 2.57 150 02:25 07.04.2022
4398 Clear 25 1008 94 10000 0.51 290 00:27 07.04.2022
4399 Clear 24 1008 94 10000 1.54 210 22:51 06.04.2022
4400 Clouds 24 1009 94 10000 1.03 80 22:27 06.04.2022
4401 Rain 24 1009 94 10000 4.63 70 21:45 06.04.2022
4402 Clouds 25 1008 90 10000 2.57 90 20:40 06.04.2022
4403 Clouds 25 1008 88 10000 1.54 50 19:54 06.04.2022
4404 Rain 25 1008 88 10000 3.09 360 18:52 06.04.2022
4405 Clouds 24 1009 94 10000 1.54 30 18:32 06.04.2022
4406 Clouds 24 1010 88 3300 8.75 70 17:35 06.04.2022
4407 Clouds 25 1011 89 10000 2.57 60 16:38 06.04.2022
4408 Rain 25 1010 92 10000 2.06 70 15:48 06.04.2022
4409 Clouds 25 1010 89 10000 4.02 60 15:21 06.04.2022
4410 Clouds 25 1010 89 10000 4.02 60 15:21 06.04.2022
4411 Clouds 28 1008 80 10000 3.58 200 13:28 06.04.2022
4412 Clouds 29 1008 80 10000 3.6 200 12:27 06.04.2022
4413 Clouds 30 1007 71 10000 4.63 290 10:52 06.04.2022
4414 Clouds 30 1006 71 10000 4.12 300 10:30 06.04.2022
4415 Clouds 32 1006 66 10000 5.14 310 09:41 06.04.2022
4416 Clouds 33 1006 58 10000 4.63 310 08:36 06.04.2022
4417 Clouds 33 1006 58 10000 4.12 310 07:54 06.04.2022
4418 Clear 31 1010 68 10000 2.06 240 04:31 06.04.2022
4419 Clouds 24 1009 94 10000 2.06 130 23:56 05.04.2022
4420 Clouds 24 1011 91 10000 1.79 140 23:22 05.04.2022
4421 Rain 24 1009 88 10000 6.17 70 21:29 05.04.2022
4422 Clouds 26 1008 83 10000 7.72 90 20:26 05.04.2022
4423 Clouds 25 1008 85 10000 1.54 40 19:52 05.04.2022
4424 Clouds 26 1009 88 10000 1.03 230 18:18 05.04.2022
4425 Clouds 26 1010 91 10000 1.54 230 16:55 05.04.2022
4426 Clouds 26 1010 88 10000 0 0 16:35 05.04.2022
4427 Clear 26 1010 87 10000 0 0 15:43 05.04.2022
4428 Clear 26 1010 87 10000 0 0 15:43 05.04.2022
4429 Clear 26 1010 87 10000 0 0 15:24 05.04.2022
4430 Clouds 25 1009 86 10000 3.6 260 13:38 05.04.2022
4431 Clouds 30 1007 71 10000 4.02 300 11:51 05.04.2022
4432 Clouds 30 1007 68 10000 4.02 300 11:33 05.04.2022
4433 Clouds 31 1007 61 10000 4.12 300 10:52 05.04.2022
4434 Clouds 33 1007 55 10000 3.6 330 08:55 05.04.2022
4435 Clouds 32 1008 58 10000 3.09 330 07:25 05.04.2022
4436 Clouds 30 1012 74 10000 2.57 60 02:43 05.04.2022
4437 Clouds 26 1010 94 10000 1.54 70 23:18 04.04.2022
4438 Clouds 26 1010 94 10000 1.03 70 22:29 04.04.2022
4439 Clear 26 1011 94 10000 1.03 70 21:22 04.04.2022
4440 Clear 26 1011 94 10000 1.03 70 20:53 04.04.2022
4441 Clouds 26 1010 92 10000 1.03 30 20:35 04.04.2022
4442 Clouds 26 1010 93 10000 1.03 30 19:26 04.04.2022
4443 Clouds 26 1010 92 10000 1.03 330 18:39 04.04.2022
4444 Clouds 27 1012 89 10000 1.54 340 16:41 04.04.2022
4445 Clouds 27 1012 89 10000 1.54 340 16:23 04.04.2022
4446 Clouds 27 1010 89 10000 2.57 330 15:33 04.04.2022
4447 Rain 26 1010 90 10000 3.09 330 14:46 04.04.2022
4448 Rain 26 1009 94 10000 0 0 13:58 04.04.2022
4449 Clouds 26 1009 89 10000 0.51 360 12:41 04.04.2022
4450 Clouds 26 1009 83 10000 6.69 100 11:29 04.04.2022
4451 Clouds 32 1007 67 10000 4.12 290 09:53 04.04.2022
4452 Clouds 30 1010 78 10000 3.6 320 05:33 04.04.2022
4453 Clouds 31 1011 70 10000 1.03 120 02:47 04.04.2022
4454 Clouds 26 1009 93 10000 0 0 22:49 03.04.2022
4455 Clouds 26 1008 92 10000 0.51 230 21:59 03.04.2022
4456 Clouds 26 1009 94 10000 0.51 230 21:25 03.04.2022
4457 Clouds 26 1008 93 10000 2.06 270 20:21 03.04.2022
4458 Clouds 27 1008 88 10000 2.57 270 18:37 03.04.2022
4459 Clouds 27 1009 87 10000 3.09 270 17:50 03.04.2022
4460 Clouds 27 1009 85 10000 2.57 270 17:32 03.04.2022
4461 Clouds 27 1011 86 10000 2.06 270 16:49 03.04.2022
4462 Clear 27 1009 89 10000 1.54 270 15:46 03.04.2022
4463 Clear 28 1009 78 10000 2.68 290 14:20 03.04.2022
4464 Clear 28 1008 73 10000 3.09 290 12:59 03.04.2022
4465 Clouds 30 1011 68 10000 2.57 300 11:39 03.04.2022
4466 Clouds 31 1007 65 10000 3.6 20 09:52 03.04.2022
4467 Clouds 31 1007 60 10000 1.54 260 08:57 03.04.2022
4468 Clouds 33 1011 58 10000 3.58 290 05:45 03.04.2022
4469 Clouds 31 1011 70 10000 3.09 210 02:55 03.04.2022
4470 Clouds 27 1008 89 10000 0 0 23:48 02.04.2022
4471 Clouds 28 1010 85 10000 3.6 270 22:45 02.04.2022
4472 Clouds 27 1007 86 10000 3.6 280 21:56 02.04.2022
4473 Clouds 27 1007 86 10000 3.6 270 21:20 02.04.2022
4474 Clouds 27 1008 86 10000 3.09 280 20:36 02.04.2022
4475 Clouds 27 1008 86 10000 3.09 280 20:36 02.04.2022
4476 Clouds 28 1008 87 10000 4.63 310 18:47 02.04.2022
4477 Clouds 28 1009 85 10000 4.63 310 18:19 02.04.2022
4478 Clouds 28 1009 85 10000 4.12 320 17:23 02.04.2022
4479 Clouds 29 1009 84 10000 2.57 330 15:55 02.04.2022
4480 Clouds 29 1009 83 10000 3.09 320 15:20 02.04.2022
4481 Clouds 29 1009 82 10000 3.09 340 14:31 02.04.2022
4482 Clouds 29 1008 78 10000 2.57 330 13:34 02.04.2022
4483 Rain 28 1007 76 10000 2.57 350 12:21 02.04.2022
4484 Thunderstorm 27 1006 78 10000 2.57 190 10:31 02.04.2022
4485 Clouds 33 1006 67 10000 4.63 270 08:26 02.04.2022
4486 Clouds 33 1008 65 10000 4.12 250 05:24 02.04.2022
4487 Clouds 31 1010 74 10000 2.57 230 02:56 02.04.2022
4488 Clouds 27 1009 89 10000 1.54 250 23:54 01.04.2022
4489 Clouds 28 1008 84 10000 2.57 250 22:51 01.04.2022
4490 Clouds 28 1010 84 10000 2.68 270 21:27 01.04.2022
4491 Clouds 27 1009 87 10000 3.09 270 20:49 01.04.2022
4492 Clouds 26 1008 90 10000 3.09 270 19:50 01.04.2022
4493 Clouds 26 1008 90 10000 3.09 270 19:26 01.04.2022
4494 Clouds 26 1009 90 10000 2.24 280 18:42 01.04.2022
4495 Clouds 26 1009 89 10000 2.06 310 17:43 01.04.2022
4496 Clear 27 1009 83 10000 1.03 170 16:33 01.04.2022
4497 Clouds 26 1009 84 10000 2.06 280 15:18 01.04.2022
4498 Clear 28 1009 80 10000 3.09 230 14:18 01.04.2022
4499 Clear 27 1008 82 10000 2.57 290 13:32 01.04.2022
4500 Clouds 27 1007 74 10000 2.06 270 12:30 01.04.2022
4501 Rain 24 1007 88 10000 6.17 320 10:54 01.04.2022
4502 Thunderstorm 31 1007 74 10000 7.2 300 09:53 01.04.2022
4503 Clouds 32 1007 69 10000 6.17 310 07:50 01.04.2022
4504 Clouds 32 1008 70 10000 4.63 310 06:30 01.04.2022
4505 Clouds 31 1010 72 10000 4.12 320 04:44 01.04.2022
4506 Clouds 31 1011 74 10000 3.6 240 03:21 01.04.2022
4507 Clouds 30 1011 79 10000 4.63 230 01:52 01.04.2022
4508 Clouds 28 1008 88 10000 2.57 240 22:56 31.03.2022
4509 Clouds 28 1008 84 10000 2.06 260 21:49 31.03.2022
4510 Clear 27 1007 86 10000 2.06 260 21:22 31.03.2022
4511 Clouds 27 1007 86 10000 3.09 270 20:28 31.03.2022
4512 Clouds 27 1007 86 10000 3.09 280 19:46 31.03.2022
4513 Clouds 28 1008 85 10000 2.57 270 18:38 31.03.2022
4514 Clouds 28 1009 84 10000 2.57 270 17:32 31.03.2022
4515 Clouds 28 1009 84 10000 2.57 270 16:18 31.03.2022
4516 Clouds 28 1010 82 10000 1.54 280 15:33 31.03.2022
4517 Clouds 29 1009 84 10000 2.06 250 14:52 31.03.2022
4518 Clear 28 1009 85 10000 2.24 260 14:20 31.03.2022
4519 Clouds 29 1008 83 10000 3.6 240 11:32 31.03.2022
4520 Clouds 30 1007 73 10000 4.63 270 10:41 31.03.2022
4521 Clouds 30 1007 75 10000 2.06 290 09:44 31.03.2022
4522 Clouds 32 1008 63 10000 5.66 270 07:49 31.03.2022
4523 Clouds 31 1011 69 10000 2.57 310 03:57 31.03.2022
4524 Clouds 28 1007 84 10000 2.57 260 23:34 30.03.2022
4525 Clouds 28 1009 85 10000 2.06 250 22:23 30.03.2022
4526 Clouds 28 1006 85 10000 3.09 280 21:33 30.03.2022
4527 Clouds 27 1008 86 10000 2.57 280 20:44 30.03.2022
4528 Clouds 28 1008 89 10000 3.09 290 19:57 30.03.2022
4529 Clouds 28 1009 89 10000 3.6 300 18:50 30.03.2022
4530 Clouds 28 1009 88 10000 3.09 300 17:52 30.03.2022
4531 Clouds 28 1009 88 10000 3.09 300 17:52 30.03.2022
4532 Clouds 28 1010 86 10000 3.09 310 17:32 30.03.2022
4533 Clouds 28 1010 85 10000 2.57 300 16:42 30.03.2022
4534 Clouds 28 1010 85 10000 2.68 300 16:19 30.03.2022
4535 Clear 27 1010 88 10000 2.06 290 14:55 30.03.2022
4536 Clear 27 1009 83 10000 1.03 270 13:32 30.03.2022
4537 Clouds 28 1008 74 10000 1.54 260 12:36 30.03.2022
4538 Clouds 31 1007 66 10000 3.6 250 10:48 30.03.2022
4539 Clouds 31 1007 59 10000 3.6 230 09:58 30.03.2022
4540 Clouds 31 1007 65 10000 3.6 250 08:29 30.03.2022
4541 Rain 29 1004 72 10000 4.12 240 07:29 30.03.2022
4542 Clouds 33 1010 67 10000 3.6 310 05:40 30.03.2022
4543 Clouds 31 1011 66 10000 1.54 290 03:20 30.03.2022
4544 Clear 25 1009 93 10000 0 0 22:56 29.03.2022
4545 Clouds 25 1008 92 10000 2.06 320 21:58 29.03.2022
4546 Clouds 25 1008 92 10000 0.51 360 21:37 29.03.2022
4547 Clouds 25 1005 91 10000 2.06 330 20:39 29.03.2022
4548 Clouds 26 1008 89 10000 1.03 320 19:35 29.03.2022
4549 Clouds 26 1008 84 10000 2.06 320 18:54 29.03.2022
4550 Clouds 27 1008 87 10000 2.06 330 17:57 29.03.2022
4551 Clouds 27 1009 83 10000 2.57 330 17:20 29.03.2022
4552 Clear 27 1009 82 10000 2.57 330 16:54 29.03.2022
4553 Clear 27 1009 86 10000 2.57 270 15:44 29.03.2022
4554 Clear 27 1009 83 10000 2.57 280 14:43 29.03.2022
4555 Clear 27 1009 83 10000 2.57 280 14:43 29.03.2022
4556 Clear 27 1008 84 10000 2.57 310 13:36 29.03.2022
4557 Clear 27 1008 82 10000 3.09 310 12:39 29.03.2022
4558 Clear 28 1008 77 10000 3.6 330 11:24 29.03.2022
4559 Clouds 29 1007 75 10000 4.47 300 10:20 29.03.2022
4560 Clouds 30 1007 71 10000 5.66 310 08:52 29.03.2022
4561 Clouds 32 1008 64 10000 3.6 290 06:53 29.03.2022
4562 Rain 26 1010 86 10000 5.66 260 02:55 29.03.2022
4563 Clouds 27 1008 93 10000 1.54 230 23:40 28.03.2022
4564 Clouds 27 1008 89 10000 1.54 200 22:57 28.03.2022
4565 Clouds 27 1007 89 10000 2.06 260 22:33 28.03.2022
4566 Clouds 27 1007 89 10000 2.24 280 21:43 28.03.2022
4567 Clouds 26 1007 90 10000 2.57 240 20:37 28.03.2022
4568 Clouds 26 1007 90 10000 2.24 270 19:57 28.03.2022
4569 Clouds 26 1007 90 10000 2.57 270 19:38 28.03.2022
4570 Clouds 26 1007 91 10000 2.24 280 18:51 28.03.2022
4571 Clouds 26 1008 89 10000 2.57 240 17:41 28.03.2022
4572 Clear 26 1009 93 10000 2.57 240 16:56 28.03.2022
4573 Rain 25 1009 90 10000 2.06 290 15:22 28.03.2022
4574 Rain 25 1007 92 10000 0.51 140 14:24 28.03.2022
4575 Rain 25 1008 92 10000 0 0 13:19 28.03.2022
4576 Rain 25 1009 84 500 7.2 150 11:52 28.03.2022
4577 Clouds 30 1007 79 10000 3.09 300 09:58 28.03.2022
4578 Clouds 30 1006 74 10000 4.47 260 09:21 28.03.2022
4579 Clouds 30 1006 70 10000 4.63 260 08:39 28.03.2022
4580 Clouds 30 1006 71 10000 4.63 260 08:18 28.03.2022
4581 Clouds 33 1007 59 10000 1.54 130 06:31 28.03.2022
4582 Clouds 26 1009 93 10000 1.79 170 00:30 28.03.2022
4583 Clear 26 1007 90 10000 1.54 180 22:36 27.03.2022
4584 Clouds 26 1007 90 10000 1.03 230 21:47 27.03.2022
4585 Clouds 25 1007 92 10000 2.06 260 21:25 27.03.2022
4586 Clouds 25 1007 94 10000 0.51 300 20:24 27.03.2022
4587 Clouds 25 1007 94 10000 1.03 340 19:37 27.03.2022
4588 Clouds 26 1007 91 10000 0.45 290 18:44 27.03.2022
4589 Clouds 26 1007 90 10000 0 0 18:23 27.03.2022
4590 Clouds 26 1007 90 10000 0 0 18:23 27.03.2022
4591 Clouds 26 1008 89 10000 2.06 290 17:35 27.03.2022
4592 Clear 25 1010 90 10000 3.6 80 15:51 27.03.2022
4593 Clear 26 1009 89 10000 2.06 160 13:58 27.03.2022
4594 Clear 26 1009 89 10000 1.54 180 13:21 27.03.2022
4595 Clouds 26 1007 85 10000 2.57 220 11:35 27.03.2022
4596 Rain 27 1006 85 10000 3.6 260 09:37 27.03.2022
4597 Rain 29 1008 80 9000 8.23 290 07:31 27.03.2022
4598 Clouds 30 1010 79 10000 3.09 190 03:45 27.03.2022
4599 Clouds 28 1009 83 10000 1.54 180 00:26 27.03.2022
4600 Clouds 26 1008 94 10000 0.51 210 22:52 26.03.2022
4601 Clear 26 1007 94 10000 1.03 210 21:57 26.03.2022
4602 Clear 26 1007 94 10000 1.34 190 21:30 26.03.2022
4603 Clouds 26 1007 91 10000 0.51 200 19:32 26.03.2022
4604 Clouds 26 1007 91 10000 0.51 200 19:32 26.03.2022
4605 Clouds 26 1007 90 10000 2.06 220 18:44 26.03.2022
4606 Clouds 26 1008 90 10000 2.06 200 17:36 26.03.2022
4607 Clouds 26 1008 90 10000 1.54 250 16:34 26.03.2022
4608 Clear 27 1009 89 10000 1.54 230 15:39 26.03.2022
4609 Clouds 27 1009 89 10000 1.03 240 13:56 26.03.2022
4610 Clouds 27 1011 87 10000 0.51 250 13:36 26.03.2022
4611 Clouds 28 1008 84 10000 2.24 230 11:50 26.03.2022
4612 Clouds 28 1008 81 10000 2.57 220 10:48 26.03.2022
4613 Clouds 30 1007 79 10000 4.12 300 08:48 26.03.2022
4614 Clouds 30 1007 77 1500 4.02 340 06:39 26.03.2022
4615 Clouds 31 1008 70 10000 3.09 280 05:30 26.03.2022
4616 Rain 28 1010 81 10000 0.51 340 01:47 26.03.2022
4617 Rain 25 1008 89 10000 3.09 30 22:21 25.03.2022
4618 Rain 25 1008 88 10000 2.57 20 20:57 25.03.2022
4619 Rain 26 1008 84 10000 4.63 40 20:26 25.03.2022
4620 Clouds 27 1007 87 10000 1.34 240 19:18 25.03.2022
4621 Clouds 27 1008 89 10000 0 0 18:34 25.03.2022
4622 Clouds 28 1008 84 10000 1.03 260 17:29 25.03.2022
4623 Clouds 29 1008 81 10000 2.06 270 16:27 25.03.2022
4624 Clear 28 1009 82 10000 2.57 270 15:26 25.03.2022
4625 Clear 28 1009 78 10000 2.57 260 13:28 25.03.2022
4626 Clouds 29 1007 73 10000 3.58 310 10:50 25.03.2022
4627 Clouds 31 1006 70 10000 3.6 320 09:28 25.03.2022
4628 Clouds 32 1006 67 10000 4.12 320 08:43 25.03.2022
4629 Clouds 32 1006 65 10000 4.63 320 07:32 25.03.2022
4630 Clouds 31 1007 70 10000 3.6 350 06:29 25.03.2022
4631 Clear 30 1010 72 10000 1.54 40 02:28 25.03.2022
4632 Clear 25 1009 89 10000 1.54 140 22:56 24.03.2022
4633 Clear 25 1008 89 10000 1.54 140 21:56 24.03.2022
4634 Clouds 24 1008 91 10000 1.54 100 20:51 24.03.2022
4635 Rain 24 1010 91 10000 1.54 110 19:49 24.03.2022
4636 Clouds 24 1008 94 10000 2.06 110 18:34 24.03.2022
4637 Clouds 24 1009 94 10000 2.06 100 17:32 24.03.2022
4638 Clouds 24 1010 94 10000 2.57 80 16:24 24.03.2022
4639 Rain 25 1009 91 10000 2.24 200 14:51 24.03.2022
4640 Rain 25 1009 88 10000 2.68 240 14:21 24.03.2022
4641 Clear 25 1009 93 10000 1.54 200 13:31 24.03.2022
4642 Rain 25 1008 88 10000 2.57 260 12:23 24.03.2022
4643 Rain 24 1008 94 8000 6.69 170 10:32 24.03.2022
4644 Clouds 27 1007 83 10000 2.06 240 09:24 24.03.2022
4645 Clouds 28 1008 77 2500 8.05 290 07:42 24.03.2022
4646 Clouds 32 1008 66 10000 4.63 300 04:43 24.03.2022
4647 Clouds 28 1008 89 10000 2.06 200 23:41 23.03.2022
4648 Clouds 28 1007 84 10000 2.06 230 22:18 23.03.2022
4649 Clouds 28 1007 84 10000 2.24 270 21:21 23.03.2022
4650 Clouds 27 1007 86 10000 1.54 250 19:51 23.03.2022
4651 Clouds 27 1007 87 10000 1.03 260 19:25 23.03.2022
4652 Clouds 28 1007 83 10000 1.54 240 17:47 23.03.2022
4653 Clouds 28 1008 83 10000 2.06 240 16:55 23.03.2022
4654 Rain 28 1008 80 10000 2.06 260 15:21 23.03.2022
4655 Clouds 29 1008 76 10000 1.54 260 14:42 23.03.2022
4656 Clouds 29 1009 80 10000 4.12 240 13:30 23.03.2022
4657 Rain 29 1006 78 10000 3.09 290 10:50 23.03.2022
4658 Clouds 31 1006 69 10000 3.6 340 08:21 23.03.2022
4659 Clouds 32 1008 62 10000 2.57 320 05:50 23.03.2022
4660 Clouds 30 1009 68 10000 0.51 290 01:59 23.03.2022
4661 Clouds 27 1009 81 10000 2.06 150 00:25 23.03.2022
4662 Clouds 27 1009 81 10000 2.06 150 00:25 23.03.2022
4663 Clear 24 1008 88 10000 1.03 120 21:36 22.03.2022
4664 Clouds 24 1008 85 10000 2.06 140 20:57 22.03.2022
4665 Clouds 25 1009 84 10000 3.6 110 20:18 22.03.2022
4666 Clouds 25 1008 83 10000 3.6 80 19:26 22.03.2022
4667 Clouds 26 1007 83 10000 0.45 201 18:46 22.03.2022
4668 Rain 26 1008 81 10000 3.6 220 17:43 22.03.2022
4669 Rain 26 1009 76 10000 2.06 150 16:37 22.03.2022
4670 Rain 26 1010 82 10000 5.66 130 15:40 22.03.2022
4671 Clouds 26 1010 82 10000 5.66 130 15:19 22.03.2022
4672 Clouds 26 1010 80 10000 5.14 70 14:42 22.03.2022
4673 Clear 28 1009 78 10000 2.06 270 13:42 22.03.2022
4674 Clear 29 1007 70 10000 5.14 320 11:53 22.03.2022
4675 Rain 29 1006 74 10000 2.06 330 10:54 22.03.2022
4676 Clouds 29 1006 67 10000 3.6 350 09:21 22.03.2022
4677 Clouds 33 1005 58 10000 3.6 290 07:30 22.03.2022
4678 Clouds 32 1010 68 10000 2.06 260 03:55 22.03.2022
4679 Clouds 29 1009 83 10000 1.54 140 00:46 22.03.2022
4680 Clouds 27 1009 90 10000 1.03 160 22:48 21.03.2022
4681 Clouds 27 1008 90 10000 0 0 21:30 21.03.2022
4682 Clouds 26 1009 90 10000 1.79 320 20:43 21.03.2022
4683 Clouds 26 1009 89 10000 1.79 320 20:23 21.03.2022
4684 Clouds 27 1008 89 10000 1.54 350 19:35 21.03.2022
4685 Clouds 27 1008 84 10000 2.57 290 18:47 21.03.2022
4686 Clouds 27 1008 83 10000 2.06 10 17:36 21.03.2022
4687 Clouds 27 1009 80 10000 4.47 50 16:59 21.03.2022
4688 Clouds 27 1009 80 10000 4.63 50 16:27 21.03.2022
4689 Clear 26 1009 80 10000 4.47 50 15:43 21.03.2022
4690 Clear 26 1008 80 10000 0.51 160 14:36 21.03.2022
4691 Clear 26 1009 76 10000 4.12 170 13:20 21.03.2022
4692 Clear 27 1008 76 10000 1.54 220 11:58 21.03.2022
4693 Clouds 27 1007 76 10000 4.63 200 11:25 21.03.2022
4694 Clouds 29 1006 75 10000 4.12 280 09:49 21.03.2022
4695 Clouds 31 1005 79 10000 5.66 310 07:39 21.03.2022
4696 Clouds 32 1006 76 10000 5.14 310 06:18 21.03.2022
4697 Clouds 31 1009 66 10000 2.06 190 01:42 21.03.2022
4698 Clear 26 1008 90 10000 1.54 160 22:57 20.03.2022
4699 Clear 26 1008 90 10000 0.51 170 22:25 20.03.2022
4700 Clear 26 1007 93 10000 0.51 180 21:38 20.03.2022
4701 Clouds 26 1007 93 10000 1.03 160 20:56 20.03.2022
4702 Clouds 26 1007 91 10000 0.45 210 20:36 20.03.2022
4703 Clouds 26 1007 93 10000 0.51 210 19:54 20.03.2022
4704 Clouds 26 1007 90 10000 1.03 210 19:24 20.03.2022
4705 Clouds 26 1007 89 10000 2.06 170 17:49 20.03.2022
4706 Clouds 27 1010 88 10000 1.54 190 17:27 20.03.2022
4707 Clouds 26 1008 89 10000 0.51 70 16:38 20.03.2022
4708 Rain 27 1008 84 10000 0 0 14:50 20.03.2022
4709 Rain 27 1008 79 10000 2.06 280 13:39 20.03.2022
4710 Clear 27 1007 81 10000 4.63 290 12:19 20.03.2022
4711 Clouds 29 1007 67 10000 9.26 140 10:28 20.03.2022
4712 Clouds 32 1005 66 10000 3.09 310 08:26 20.03.2022
4713 Clouds 34 1006 55 10000 3.6 300 06:39 20.03.2022
4714 Clouds 33 1011 60 10000 1.54 290 03:25 20.03.2022
4715 Clear 31 1009 72 10000 1.03 170 00:54 20.03.2022
4716 Clear 31 1009 72 10000 1.03 170 00:54 20.03.2022
4717 Clear 30 1008 73 10000 1.54 190 00:34 20.03.2022
4718 Clouds 25 1007 93 10000 1.54 210 22:39 19.03.2022
4719 Clear 26 1006 89 10000 0 0 21:27 19.03.2022
4720 Clear 25 1006 89 10000 0 0 19:42 19.03.2022
4721 Clouds 26 1006 85 10000 1.03 190 18:44 19.03.2022
4722 Clouds 26 1006 81 10000 1.54 200 17:55 19.03.2022
4723 Clouds 26 1007 81 10000 2.06 220 17:33 19.03.2022
4724 Clear 27 1007 80 10000 1.54 220 15:41 19.03.2022
4725 Clear 28 1007 81 10000 3.09 240 14:21 19.03.2022
4726 Clear 29 1007 77 10000 3.09 240 12:56 19.03.2022
4727 Clouds 29 1007 76 10000 2.57 240 12:37 19.03.2022
4728 Clouds 29 1005 75 10000 1.54 310 11:47 19.03.2022
4729 Clouds 31 1004 66 10000 0 0 09:55 19.03.2022
4730 Clouds 32 1008 68 10000 5.14 310 05:48 19.03.2022
4731 Clouds 32 1008 62 10000 2.06 260 02:37 19.03.2022
4732 Clouds 30 1007 74 10000 2.57 270 00:54 19.03.2022
4733 Clouds 28 1007 90 10000 0.51 230 23:22 18.03.2022
4734 Clouds 27 1006 89 10000 1.03 180 22:23 18.03.2022
4735 Clouds 26 1006 92 10000 1.54 220 20:48 18.03.2022
4736 Clouds 27 1006 88 10000 1.54 240 19:48 18.03.2022
4737 Clouds 26 1006 90 10000 1.54 250 19:19 18.03.2022
4738 Clouds 26 1006 90 10000 1.54 250 19:19 18.03.2022
4739 Clouds 28 1006 86 10000 1.54 240 17:27 18.03.2022
4740 Clouds 28 1006 85 10000 2.06 250 16:45 18.03.2022
4741 Clouds 28 1006 85 10000 1.54 240 14:30 18.03.2022
4742 Clear 29 1006 82 10000 2.06 260 13:41 18.03.2022
4743 Clear 30 1005 81 10000 4.63 290 12:19 18.03.2022
4744 Clouds 31 1004 70 10000 3.6 270 10:38 18.03.2022
4745 Clouds 31 1004 69 10000 4.63 280 09:21 18.03.2022
4746 Clouds 33 1004 66 10000 6.17 300 07:45 18.03.2022
4747 Clouds 32 1005 70 10000 5.66 310 05:39 18.03.2022
4748 Clouds 31 1008 74 10000 3.09 210 02:44 18.03.2022
4749 Clouds 30 1008 79 10000 1.03 230 00:21 18.03.2022
4750 Clouds 28 1007 89 10000 1.54 220 22:56 17.03.2022
4751 Clouds 27 1010 94 10000 2.06 250 22:22 17.03.2022
4752 Clouds 27 1007 89 10000 1.34 230 21:47 17.03.2022
4753 Clouds 26 1006 91 10000 1.54 230 21:19 17.03.2022
4754 Clouds 26 1006 91 10000 2.06 240 20:32 17.03.2022
4755 Clouds 26 1006 91 10000 1.54 250 19:41 17.03.2022
4756 Clouds 26 1006 91 10000 1.54 270 18:57 17.03.2022
4757 Clouds 26 1006 91 10000 1.03 310 17:55 17.03.2022
4758 Clouds 27 1007 87 10000 1.54 220 16:34 17.03.2022
4759 Clouds 27 1007 87 10000 1.54 210 15:44 17.03.2022
4760 Clouds 27 1007 89 10000 1.54 210 15:21 17.03.2022
4761 Clouds 27 1007 87 10000 1.54 280 13:49 17.03.2022
4762 Clear 27 1007 86 10000 1.03 290 12:49 17.03.2022
4763 Clear 28 1006 85 10000 2.24 290 11:53 17.03.2022
4764 Clouds 28 1006 84 10000 2.24 290 11:22 17.03.2022
4765 Clouds 29 1006 79 10000 2.57 300 09:48 17.03.2022
4766 Clouds 30 1006 74 10000 2.06 350 08:31 17.03.2022
4767 Clouds 31 1006 69 10000 2.57 20 07:32 17.03.2022
4768 Clouds 31 1007 71 10000 4.12 30 05:47 17.03.2022
4769 Clouds 27 1009 82 10000 2.06 50 00:45 17.03.2022
4770 Clear 26 1007 78 10000 3.6 60 22:59 16.03.2022
4771 Clear 25 1007 83 10000 2.57 70 22:40 16.03.2022
4772 Clear 25 1007 83 10000 2.57 70 22:19 16.03.2022
4773 Clouds 25 1010 78 10000 3.6 130 21:29 16.03.2022
4774 Clouds 27 1006 72 10000 7.2 70 19:27 16.03.2022
4775 Clouds 26 1007 78 10000 6.17 50 18:58 16.03.2022
4776 Clouds 26 1007 78 10000 6.17 50 18:24 16.03.2022
4777 Clouds 28 1010 83 10000 3.6 30 17:37 16.03.2022
4778 Clouds 28 1008 84 10000 2.57 40 16:50 16.03.2022
4779 Clouds 28 1008 84 10000 2.06 70 15:53 16.03.2022
4780 Clear 28 1008 84 10000 2.06 40 14:24 16.03.2022
4781 Clear 29 1008 80 10000 3.09 40 13:22 16.03.2022
4782 Clear 29 1006 79 10000 3.09 60 11:53 16.03.2022
4783 Clouds 29 1006 79 10000 2.57 70 11:20 16.03.2022
4784 Clouds 30 1005 71 10000 4.12 70 10:18 16.03.2022
4785 Clouds 32 1005 62 10000 5.66 80 08:38 16.03.2022
4786 Clouds 31 1007 66 10000 6.71 90 04:35 16.03.2022
4787 Clouds 27 1007 82 10000 4.63 90 00:42 16.03.2022
4788 Clouds 26 1006 89 10000 3.6 90 22:37 15.03.2022
4789 Clear 26 1006 89 10000 2.57 120 21:50 15.03.2022
4790 Clouds 26 1005 94 10000 2.06 130 19:53 15.03.2022
4791 Clouds 26 1006 87 10000 2.24 140 18:45 15.03.2022
4792 Clouds 27 1007 84 10000 3.09 110 16:53 15.03.2022
4793 Clouds 27 1007 87 10000 3.6 110 16:18 15.03.2022
4794 Clear 27 1007 88 10000 1.54 80 14:57 15.03.2022
4795 Clouds 28 1007 85 10000 1.03 70 14:31 15.03.2022
4796 Clouds 28 1007 83 10000 3.58 50 13:27 15.03.2022
4797 Clear 29 1006 79 10000 5.14 40 11:57 15.03.2022
4798 Clouds 29 1006 79 10000 5.14 40 11:19 15.03.2022
4799 Clouds 33 1004 58 10000 3.09 50 09:37 15.03.2022
4800 Clouds 33 1004 55 10000 4.12 100 08:32 15.03.2022
4801 Clouds 33 1004 55 10000 5.66 100 07:50 15.03.2022
4802 Clouds 33 1005 61 10000 4.63 90 06:51 15.03.2022
4803 Clouds 30 1008 74 10000 3.6 100 02:38 15.03.2022
4804 Clouds 25 1007 94 10000 2.57 180 23:38 14.03.2022
4805 Clouds 25 1007 94 10000 2.57 180 23:20 14.03.2022
4806 Clouds 25 1006 89 10000 2.06 170 21:59 14.03.2022
4807 Clear 25 1006 94 10000 2.06 170 21:20 14.03.2022
4808 Clouds 25 1006 89 10000 2.06 150 20:34 14.03.2022
4809 Clouds 24 1006 90 10000 2.06 190 19:59 14.03.2022
4810 Clouds 24 1007 90 10000 2.06 130 18:31 14.03.2022
4811 Clouds 24 1010 91 10000 2.57 150 17:44 14.03.2022
4812 Clouds 24 1008 91 10000 2.57 170 16:57 14.03.2022
4813 Clouds 24 1009 95 10000 1.03 140 15:29 14.03.2022
4814 Rain 24 1008 94 10000 1.54 10 14:33 14.03.2022
4815 Rain 24 1007 94 10000 2.57 50 11:53 14.03.2022
4816 Thunderstorm 24 1007 94 4000 1.54 100 10:35 14.03.2022
4817 Rain 27 1010 78 500 7.72 50 09:39 14.03.2022
4818 Clouds 31 1008 70 10000 5.66 300 09:20 14.03.2022
4819 Clouds 31 1004 70 10000 5.66 310 08:49 14.03.2022
4820 Clouds 32 1005 67 10000 4.63 300 07:21 14.03.2022
4821 Clouds 31 1008 72 10000 1.03 150 04:27 14.03.2022
4822 Clouds 29 1010 81 10000 1.03 190 01:52 14.03.2022
4823 Clouds 26 1012 94 10000 1.79 200 00:40 14.03.2022
4824 Fog 25 1007 94 10000 2.06 150 21:56 13.03.2022
4825 Clouds 25 1007 97 10000 1.54 150 21:28 13.03.2022
4826 Rain 25 1007 99 10000 2.57 160 20:53 13.03.2022
4827 Rain 25 1007 99 10000 1.54 150 20:29 13.03.2022
4828 Clouds 24 1007 95 10000 1.54 170 19:43 13.03.2022
4829 Clouds 25 1008 94 10000 1.54 170 19:25 13.03.2022
4830 Rain 24 1008 95 10000 0.89 270 18:50 13.03.2022
4831 Rain 25 1008 94 10000 1.03 270 18:27 13.03.2022
4832 Rain 24 1009 94 10000 0.51 200 17:40 13.03.2022
4833 Rain 24 1010 94 10000 1.03 200 16:48 13.03.2022
4834 Rain 24 1011 100 10000 1.03 200 16:27 13.03.2022
4835 Rain 24 1011 94 10000 1.54 230 15:44 13.03.2022
4836 Rain 24 1011 94 10000 0 0 14:50 13.03.2022
4837 Rain 24 1011 94 10000 0 0 14:50 13.03.2022
4838 Rain 23 1010 100 10000 1.54 250 13:30 13.03.2022
4839 Rain 26 1009 91 2000 11.32 140 12:37 13.03.2022
4840 Clouds 29 1007 89 10000 3.09 320 11:51 13.03.2022
4841 Clouds 30 1007 85 10000 2.06 330 11:30 13.03.2022
4842 Clouds 30 1006 80 10000 2.06 300 10:46 13.03.2022
4843 Clouds 31 1006 74 10000 1.54 340 09:53 13.03.2022
4844 Clouds 31 1006 72 10000 2.68 350 09:29 13.03.2022
4845 Clouds 31 1006 71 10000 2.06 350 08:40 13.03.2022
4846 Clouds 29 1006 85 10000 2.06 330 07:37 13.03.2022
4847 Clouds 32 1008 72 10000 4.63 300 05:39 13.03.2022
4848 Clouds 31 1010 73 10000 1.54 130 01:48 13.03.2022
4849 Clouds 26 1009 87 10000 3.09 150 23:30 12.03.2022
4850 Clouds 25 1008 90 10000 1.54 150 21:49 12.03.2022
4851 Clouds 25 1007 90 10000 1.54 100 20:29 12.03.2022
4852 Clouds 25 1007 92 10000 1.54 140 19:47 12.03.2022
4853 Rain 25 1011 90 10000 1.03 190 18:47 12.03.2022
4854 Rain 25 1011 90 10000 2.06 160 18:20 12.03.2022
4855 Clouds 25 1012 93 10000 2.57 160 16:32 12.03.2022
4856 Clouds 26 1009 93 10000 3.6 160 15:55 12.03.2022
4857 Clouds 26 1008 90 10000 1.54 90 15:22 12.03.2022
4858 Clouds 26 1008 90 10000 1.54 90 15:22 12.03.2022
4859 Rain 28 1008 81 7000 8.75 100 13:55 12.03.2022
4860 Clear 29 1007 76 10000 2.06 60 12:33 12.03.2022
4861 Clear 30 1006 74 10000 2.06 20 11:55 12.03.2022
4862 Clouds 30 1005 77 10000 2.06 350 11:34 12.03.2022
4863 Clouds 31 1005 71 10000 2.57 340 10:43 12.03.2022
4864 Clouds 32 1005 66 10000 2.57 340 09:44 12.03.2022
4865 Clouds 32 1005 66 10000 4.47 340 08:41 12.03.2022
4866 Clouds 33 1006 58 10000 2.68 280 06:44 12.03.2022
4867 Clear 30 1010 72 10000 2.57 140 01:44 12.03.2022
4868 Clear 26 1008 82 10000 2.57 160 23:46 11.03.2022
4869 Clear 25 1007 88 10000 1.03 110 22:45 11.03.2022
4870 Rain 25 1007 88 10000 2.57 140 21:26 11.03.2022
4871 Rain 25 1007 88 10000 2.57 130 20:51 11.03.2022
4872 Rain 25 1011 89 10000 3.6 160 20:26 11.03.2022
4873 Clouds 25 1008 85 10000 5.14 130 19:35 11.03.2022
4874 Clouds 26 1008 88 10000 4.12 140 18:43 11.03.2022
4875 Clouds 26 1008 88 10000 3.09 150 17:26 11.03.2022
4876 Clouds 27 1011 89 10000 1.54 100 16:26 11.03.2022
4877 Clouds 27 1009 89 10000 1.03 100 15:51 11.03.2022
4878 Clear 28 1008 85 10000 0.51 210 13:45 11.03.2022
4879 Clear 29 1007 81 10000 1.54 230 12:41 11.03.2022
4880 Clear 29 1007 81 10000 1.54 230 12:20 11.03.2022
4881 Clear 28 1007 80 10000 0.51 210 11:28 11.03.2022
4882 Rain 30 1006 72 10000 2.57 210 09:36 11.03.2022
4883 Clouds 31 1006 73 10000 3.09 290 08:28 11.03.2022
4884 Rain 30 1006 77 10000 2.57 240 07:48 11.03.2022
4885 Rain 33 1005 67 10000 4.12 310 06:55 11.03.2022
4886 Clouds 31 1008 70 10000 3.6 310 04:44 11.03.2022
4887 Clouds 31 1009 82 10000 3.6 290 01:51 11.03.2022
4888 Clouds 28 1007 89 10000 1.54 290 22:33 10.03.2022
4889 Clouds 28 1007 89 10000 1.54 320 21:58 10.03.2022
4890 Clouds 28 1007 89 10000 2.57 320 21:26 10.03.2022
4891 Clouds 27 1007 90 10000 2.57 320 20:37 10.03.2022
4892 Clouds 27 1007 85 10000 2.06 350 19:22 10.03.2022
4893 Clouds 28 1007 86 10000 1.03 250 18:18 10.03.2022
4894 Clouds 28 1008 85 10000 1.54 260 16:53 10.03.2022
4895 Clouds 29 1008 82 10000 2.57 260 15:36 10.03.2022
4896 Clouds 28 1008 81 10000 1.54 250 14:19 10.03.2022
4897 Clouds 29 1007 75 10000 2.24 270 12:44 10.03.2022
4898 Clouds 30 1007 71 10000 2.06 320 11:37 10.03.2022
4899 Clouds 31 1006 59 10000 1.54 340 10:19 10.03.2022
4900 Clouds 34 1005 46 10000 4.12 350 08:40 10.03.2022
4901 Clouds 31 1007 74 10000 4.12 280 05:48 10.03.2022
4902 Clouds 32 1009 70 10000 3.6 340 03:33 10.03.2022
4903 Clouds 29 1009 80 10000 1.54 110 00:23 10.03.2022
4904 Clear 25 1007 90 10000 1.54 100 22:43 09.03.2022
4905 Clear 25 1007 92 10000 1.54 90 21:48 09.03.2022
4906 Clouds 25 1007 91 10000 1.03 50 20:53 09.03.2022
4907 Clouds 25 1006 90 10000 1.54 40 19:28 09.03.2022
4908 Clouds 26 1007 86 10000 0 0 17:57 09.03.2022
4909 Clouds 26 1007 85 10000 2.57 220 17:23 09.03.2022
4910 Clouds 27 1009 82 10000 2.57 220 15:41 09.03.2022
4911 Clouds 27 1009 79 10000 4.12 190 14:27 09.03.2022
4912 Clouds 28 1009 75 10000 3.09 190 13:50 09.03.2022
4913 Clouds 29 1008 73 10000 3.09 90 12:25 09.03.2022
4914 Clouds 31 1008 69 10000 5.66 100 11:48 09.03.2022
4915 Clouds 32 1006 65 10000 3.09 40 10:55 09.03.2022
4916 Clouds 34 1005 55 10000 4.12 30 09:28 09.03.2022
4917 Clouds 35 1005 52 10000 3.09 20 08:44 09.03.2022
4918 Clouds 35 1006 49 10000 3.09 30 05:56 09.03.2022
4919 Clear 29 1008 70 10000 2.06 100 00:58 09.03.2022
4920 Clear 26 1008 77 10000 2.57 100 23:48 08.03.2022
4921 Clear 25 1007 79 10000 3.58 130 22:46 08.03.2022
4922 Clear 25 1008 79 10000 3.09 140 21:47 08.03.2022
4923 Clear 25 1008 79 10000 4.12 150 21:19 08.03.2022
4924 Clouds 25 1007 76 10000 3.09 140 20:19 08.03.2022
4925 Rain 25 1008 77 10000 5.14 170 18:57 08.03.2022
4926 Rain 25 1008 79 10000 6.71 140 18:21 08.03.2022
4927 Rain 27 1008 84 10000 3.58 180 16:42 08.03.2022
4928 Clouds 28 1009 78 10000 5.66 170 14:55 08.03.2022
4929 Clouds 29 1008 83 10000 3.09 300 13:39 08.03.2022
4930 Clear 30 1007 75 10000 2.57 340 12:20 08.03.2022
4931 Rain 30 1007 71 10000 2.06 330 11:42 08.03.2022
4932 Rain 32 1006 64 10000 4.12 340 10:28 08.03.2022
4933 Clouds 33 1005 62 10000 3.6 320 08:56 08.03.2022
4934 Clouds 32 1006 66 10000 3.09 300 05:51 08.03.2022
4935 Clouds 32 1008 68 10000 2.06 300 02:37 08.03.2022
4936 Clouds 28 1006 89 10000 1.54 320 22:43 07.03.2022
4937 Clouds 28 1005 84 10000 1.54 300 21:44 07.03.2022
4938 Clouds 28 1006 85 10000 2.06 280 20:56 07.03.2022
4939 Clouds 28 1006 82 10000 2.57 330 20:29 07.03.2022
4940 Clouds 28 1005 84 10000 2.57 330 19:49 07.03.2022
4941 Clouds 29 1005 80 10000 2.06 340 18:57 07.03.2022
4942 Clouds 29 1006 80 10000 2.06 320 18:29 07.03.2022
4943 Clouds 28 1007 82 10000 2.24 340 17:24 07.03.2022
4944 Clouds 29 1007 81 10000 3.09 340 16:41 07.03.2022
4945 Clouds 29 1007 81 10000 3.6 340 14:51 07.03.2022
4946 Rain 29 1007 77 10000 2.06 340 12:34 07.03.2022
4947 Rain 30 1006 73 10000 2.57 10 11:26 07.03.2022
4948 Rain 31 1005 70 10000 3.09 20 10:30 07.03.2022
4949 Clouds 32 1005 68 10000 3.58 330 08:34 07.03.2022
4950 Clouds 32 1005 68 10000 3.58 330 08:34 07.03.2022
4951 Clouds 31 1008 74 10000 2.57 210 02:25 07.03.2022
4952 Clouds 30 1008 84 10000 1.54 220 00:20 07.03.2022
4953 Clouds 28 1007 94 10000 0 0 23:23 06.03.2022
4954 Clouds 27 1007 93 10000 0 0 22:27 06.03.2022
4955 Clouds 27 1007 93 10000 0 0 21:37 06.03.2022
4956 Clouds 27 1006 94 10000 0 0 20:29 06.03.2022
4957 Rain 27 1006 91 10000 0 0 19:39 06.03.2022
4958 Rain 27 1006 93 10000 1.03 130 18:50 06.03.2022
4959 Rain 27 1006 93 10000 0 0 17:46 06.03.2022
4960 Clouds 27 1006 90 10000 0 0 17:19 06.03.2022
4961 Clouds 29 1007 86 10000 1.54 280 16:39 06.03.2022
4962 Clouds 28 1007 89 10000 1.54 280 15:26 06.03.2022
4963 Rain 29 1007 89 10000 2.57 290 14:42 06.03.2022
4964 Rain 29 1007 86 10000 2.06 290 13:49 06.03.2022
4965 Clouds 29 1006 86 10000 3.09 290 12:40 06.03.2022
4966 Rain 30 1006 80 10000 3.6 270 11:46 06.03.2022
4967 Clouds 31 1005 76 10000 3.09 270 10:40 06.03.2022
4968 Clouds 32 1004 70 10000 3.6 300 09:18 06.03.2022
4969 Clouds 32 1003 66 10000 4.63 300 08:28 06.03.2022
4970 Clouds 32 1003 68 10000 4.63 290 07:26 06.03.2022
4971 Clouds 32 1007 71 10000 3.09 290 02:45 06.03.2022
4972 Rain 30 1007 81 10000 3.6 230 00:36 06.03.2022
4973 Clouds 30 1007 82 10000 3.6 230 00:18 06.03.2022
4974 Clouds 29 1006 89 10000 2.24 250 23:19 05.03.2022
4975 Clouds 29 1006 89 10000 2.57 250 22:34 05.03.2022
4976 Clouds 29 1006 86 10000 2.57 270 21:29 05.03.2022
4977 Clouds 29 1005 87 10000 4.63 280 20:32 05.03.2022
4978 Clouds 29 1005 89 10000 4.12 290 19:22 05.03.2022
4979 Clouds 29 1005 89 10000 4.63 310 18:39 05.03.2022
4980 Clouds 29 1005 87 10000 4.63 320 17:34 05.03.2022
4981 Clouds 29 1005 87 10000 5.14 310 16:19 05.03.2022
4982 Clouds 29 1006 88 10000 3.6 270 15:20 05.03.2022
4983 Clouds 29 1006 87 10000 2.57 270 14:36 05.03.2022
4984 Clouds 29 1005 86 10000 3.6 270 13:44 05.03.2022
4985 Clouds 29 1004 86 10000 3.6 280 12:45 05.03.2022
4986 Clouds 30 1004 85 10000 4.63 300 11:21 05.03.2022
4987 Clouds 30 1003 84 10000 5.14 290 10:52 05.03.2022
4988 Clouds 32 1003 74 10000 6.17 300 09:37 05.03.2022
4989 Clouds 32 1003 74 10000 6.71 300 08:31 05.03.2022
4990 Clouds 33 1003 72 10000 7.72 300 07:22 05.03.2022
4991 Clouds 33 1004 71 10000 4.63 310 05:39 05.03.2022
4992 Clouds 30 1007 84 10000 3.6 220 00:51 05.03.2022
4993 Clouds 28 1006 91 10000 2.57 230 23:21 04.03.2022
4994 Clouds 28 1005 94 10000 1.54 270 22:39 04.03.2022
4995 Clouds 28 1005 94 10000 2.06 260 21:43 04.03.2022
4996 Clear 28 1005 92 10000 2.24 290 20:45 04.03.2022
4997 Clouds 29 1005 85 10000 1.54 280 19:38 04.03.2022
4998 Clouds 28 1005 87 10000 2.06 250 18:59 04.03.2022
4999 Clouds 28 1005 87 10000 2.57 250 18:36 04.03.2022
5000 Clouds 29 1006 86 10000 2.57 270 17:29 04.03.2022
5001 Rain 29 1006 86 10000 2.06 260 16:26 04.03.2022
5002 Rain 29 1007 85 10000 0.51 260 15:27 04.03.2022
5003 Rain 29 1007 81 10000 3.6 260 13:38 04.03.2022
5004 Rain 29 1007 81 10000 4.02 270 12:48 04.03.2022
5005 Rain 29 1006 78 10000 4.47 260 11:37 04.03.2022
5006 Clouds 30 1005 77 10000 4.63 260 10:30 04.03.2022
5007 Rain 32 1005 75 10000 5.14 280 09:28 04.03.2022
5008 Clouds 33 1005 68 10000 6.71 270 07:49 04.03.2022
5009 Clouds 34 1006 62 10000 6.17 280 06:55 04.03.2022
5010 Clouds 32 1009 66 10000 4.63 250 02:52 04.03.2022
5011 Clouds 29 1008 84 10000 3.09 250 23:43 03.03.2022
5012 Clouds 28 1008 87 10000 3.6 270 22:19 03.03.2022
5013 Clouds 28 1007 84 10000 3.6 270 21:37 03.03.2022
5014 Clouds 28 1007 84 10000 2.57 270 20:56 03.03.2022
5015 Clouds 28 1007 84 10000 3.09 270 19:42 03.03.2022
5016 Clouds 28 1007 83 10000 3.09 270 18:44 03.03.2022
5017 Clouds 28 1008 84 10000 3.6 270 17:46 03.03.2022
5018 Clouds 28 1008 84 10000 3.6 270 17:26 03.03.2022
5019 Clouds 28 1008 85 10000 2.57 270 15:47 03.03.2022
5020 Clouds 28 1009 83 10000 2.57 240 14:52 03.03.2022
5021 Clouds 28 1009 83 10000 2.57 240 14:32 03.03.2022
5022 Clouds 29 1008 82 10000 3.09 250 12:52 03.03.2022
5023 Clouds 29 1007 81 10000 4.12 270 11:39 03.03.2022
5024 Clouds 29 1006 77 10000 5.14 270 10:40 03.03.2022
5025 Clouds 31 1005 72 10000 6.17 270 08:45 03.03.2022
5026 Clouds 32 1006 68 10000 7.2 300 07:25 03.03.2022
5027 Clouds 33 1006 67 10000 6.71 300 06:33 03.03.2022
5028 Clouds 30 1009 75 10000 3.6 270 01:21 03.03.2022
5029 Clouds 28 1008 85 10000 2.06 270 23:29 02.03.2022
5030 Clouds 27 1007 89 10000 2.24 270 22:50 02.03.2022
5031 Clouds 27 1007 89 10000 2.57 260 21:29 02.03.2022
5032 Clouds 27 1007 89 10000 3.09 280 20:44 02.03.2022
5033 Clouds 26 1006 90 10000 2.06 270 19:56 02.03.2022
5034 Clouds 26 1007 89 10000 1.54 260 19:34 02.03.2022
5035 Clouds 27 1007 88 10000 1.54 250 18:44 02.03.2022
5036 Clouds 27 1007 86 10000 2.57 260 17:57 02.03.2022
5037 Clouds 27 1007 89 10000 2.57 280 17:23 02.03.2022
5038 Clouds 27 1007 85 10000 2.57 280 16:45 02.03.2022
5039 Clouds 27 1008 85 10000 2.57 260 14:44 02.03.2022
5040 Clouds 28 1008 81 10000 2.06 260 13:24 02.03.2022
5041 Clouds 28 1007 81 10000 3.09 270 12:42 02.03.2022
5042 Clouds 29 1006 78 10000 3.6 270 11:40 02.03.2022
5043 Clouds 29 1006 77 10000 3.6 270 11:22 02.03.2022
5044 Clouds 31 1005 70 10000 5.66 280 09:42 02.03.2022
5045 Clouds 31 1005 68 10000 5.14 290 08:55 02.03.2022
5046 Clouds 32 1006 65 10000 6.71 300 07:38 02.03.2022
5047 Clouds 31 1006 70 10000 7.72 290 06:51 02.03.2022
5048 Clouds 31 1009 73 10000 6.17 300 02:35 02.03.2022
5049 Clouds 29 1008 83 10000 2.57 280 23:55 01.03.2022
5050 Clouds 27 1007 89 10000 2.57 270 22:46 01.03.2022
5051 Clouds 27 1007 89 10000 2.57 270 22:19 01.03.2022
5052 Clouds 27 1007 89 10000 2.57 270 21:25 01.03.2022
5053 Clouds 27 1006 88 10000 3.09 270 20:30 01.03.2022
5054 Clouds 27 1006 88 10000 3.09 270 20:30 01.03.2022
5055 Clouds 27 1006 88 10000 3.09 270 20:30 01.03.2022
5056 Clouds 27 1006 88 10000 2.06 270 19:38 01.03.2022
5057 Clouds 27 1007 87 10000 3.58 280 18:49 01.03.2022
5058 Clouds 27 1007 88 10000 3.6 280 18:20 01.03.2022
5059 Clouds 27 1008 89 10000 2.06 270 17:22 01.03.2022
5060 Clouds 26 1008 89 10000 2.57 270 16:33 01.03.2022
5061 Clouds 26 1008 89 10000 2.57 270 15:38 01.03.2022
5062 Clear 27 1009 88 10000 2.06 270 14:35 01.03.2022
5063 Clear 27 1008 88 10000 2.06 270 13:52 01.03.2022
5064 Clouds 27 1008 83 10000 3.58 270 13:24 01.03.2022
5065 Clouds 27 1007 81 10000 4.12 270 12:32 01.03.2022
5066 Clouds 29 1006 74 10000 4.12 280 10:36 01.03.2022
5067 Clouds 31 1006 68 10000 5.66 290 08:42 01.03.2022
5068 Clouds 31 1006 67 10000 5.66 290 07:52 01.03.2022
5069 Clouds 32 1007 67 10000 6.17 290 05:54 01.03.2022
5070 Clouds 29 1009 82 10000 4.63 280 02:44 01.03.2022
5071 Clouds 29 1009 83 10000 4.63 320 00:34 01.03.2022
5072 Clouds 28 1008 85 10000 4.12 330 23:30 28.02.2022
5073 Clouds 28 1007 89 10000 2.57 330 22:18 28.02.2022
5074 Clouds 28 1007 85 10000 3.6 340 21:37 28.02.2022
5075 Clouds 28 1005 88 10000 2.57 350 19:56 28.02.2022
5076 Clouds 27 1007 91 10000 2.57 350 19:36 28.02.2022
5077 Clouds 27 1006 89 10000 2.24 350 18:44 28.02.2022
5078 Clouds 27 1007 86 10000 2.06 350 17:33 28.02.2022
5079 Clouds 28 1008 87 10000 2.57 350 16:34 28.02.2022
5080 Rain 28 1008 88 10000 3.09 330 15:27 28.02.2022
5081 Clouds 28 1007 85 10000 3.09 350 14:32 28.02.2022
5082 Clouds 28 1007 88 10000 3.09 350 13:48 28.02.2022
5083 Clear 27 1007 85 10000 2.06 330 12:48 28.02.2022
5084 Clear 27 1006 84 10000 2.06 300 11:58 28.02.2022
5085 Clear 28 1006 82 10000 2.06 290 11:18 28.02.2022
5086 Clouds 29 1006 76 10000 3.09 300 10:21 28.02.2022
5087 Clouds 30 1006 70 10000 3.6 310 09:36 28.02.2022
5088 Clouds 30 1006 71 10000 4.12 300 08:44 28.02.2022
5089 Clouds 30 1007 68 10000 4.63 300 07:43 28.02.2022
5090 Clouds 31 1007 71 10000 5.14 310 05:25 28.02.2022
5091 Clouds 30 1008 76 10000 5.66 340 04:27 28.02.2022
5092 Rain 26 1008 89 10000 2.57 280 00:34 28.02.2022
5093 Clouds 26 1007 90 10000 5.14 340 22:38 27.02.2022
5094 Clouds 26 1007 94 10000 2.57 360 21:55 27.02.2022
5095 Clouds 26 1007 94 10000 1.03 10 21:35 27.02.2022
5096 Clouds 25 1006 94 10000 2.06 360 20:40 27.02.2022
5097 Clouds 25 1006 94 10000 1.54 360 19:59 27.02.2022
5098 Clouds 25 1006 94 10000 1.54 10 19:27 27.02.2022
5099 Clouds 25 1006 94 10000 2.06 360 18:56 27.02.2022
5100 Clouds 25 1007 94 10000 2.06 340 17:57 27.02.2022
5101 Clouds 25 1007 94 10000 2.57 340 17:26 27.02.2022
5102 Clouds 25 1006 94 10000 1.54 50 16:22 27.02.2022
5103 Clouds 25 1007 94 10000 2.06 40 14:28 27.02.2022
5104 Rain 25 1007 94 10000 1.54 70 12:35 27.02.2022
5105 Rain 25 1006 91 10000 0.51 10 11:36 27.02.2022
5106 Rain 25 1006 90 10000 2.57 300 10:36 27.02.2022
5107 Rain 26 1005 89 10000 8.49 300 09:52 27.02.2022
5108 Rain 26 1005 85 10000 8.75 300 09:21 27.02.2022
5109 Clouds 30 1004 76 10000 7.2 340 08:38 27.02.2022
5110 Clouds 31 1005 70 10000 5.36 340 05:43 27.02.2022
5111 Clouds 30 1007 70 10000 5.66 350 03:26 27.02.2022
5112 Clouds 28 1006 84 10000 4.63 360 23:51 26.02.2022
5113 Clouds 27 1006 89 10000 4.12 360 22:42 26.02.2022
5114 Rain 26 1005 86 10000 3.6 360 21:26 26.02.2022
5115 Clouds 26 1004 86 10000 3.09 360 20:37 26.02.2022
5116 Clouds 26 1005 89 10000 3.09 360 19:55 26.02.2022
5117 Clouds 26 1007 85 10000 3.09 350 19:33 26.02.2022
5118 Clouds 27 1005 81 10000 4.63 340 18:33 26.02.2022
5119 Rain 27 1006 81 10000 5.66 340 17:34 26.02.2022
5120 Rain 27 1006 84 10000 5.66 350 16:39 26.02.2022
5121 Rain 27 1007 85 10000 5.14 350 15:37 26.02.2022
5122 Rain 27 1007 85 10000 5.14 350 15:18 26.02.2022
5123 Clouds 27 1007 82 10000 5.66 350 14:41 26.02.2022
5124 Clouds 26 1008 88 10000 5.14 10 13:51 26.02.2022
5125 Rain 26 1006 92 10000 3.6 60 12:53 26.02.2022
5126 Clouds 26 1005 89 10000 3.6 40 11:52 26.02.2022
5127 Clouds 26 1005 89 10000 3.6 30 11:25 26.02.2022
5128 Clouds 28 1004 84 10000 3.6 360 09:44 26.02.2022
5129 Rain 28 1004 84 10000 4.12 360 08:28 26.02.2022
5130 Rain 27 1004 86 10000 4.63 60 06:31 26.02.2022
5131 Rain 25 1007 92 10000 2.68 150 23:53 25.02.2022
5132 Rain 25 1006 94 10000 2.57 100 22:43 25.02.2022
5133 Rain 25 1004 94 10000 3.6 30 21:33 25.02.2022
5134 Rain 25 1005 94 10000 3.09 50 20:56 25.02.2022
5135 Clouds 25 1004 94 10000 4.63 50 20:27 25.02.2022
5136 Rain 25 1004 94 10000 3.58 30 17:57 25.02.2022
5137 Rain 24 1005 94 10000 3.6 20 17:20 25.02.2022
5138 Rain 24 1006 94 8000 4.12 30 16:19 25.02.2022
5139 Rain 24 1006 94 8000 4.12 360 15:24 25.02.2022
5140 Rain 24 1006 94 8000 4.12 360 15:24 25.02.2022
5141 Rain 25 1007 94 5000 4.12 360 14:56 25.02.2022
5142 Rain 24 1006 96 5000 4.12 360 14:37 25.02.2022
5143 Rain 24 1006 99 9000 3.6 80 13:30 25.02.2022
5144 Rain 24 1006 94 8000 3.6 70 12:33 25.02.2022
5145 Rain 24 1004 94 10000 3.6 80 11:22 25.02.2022
5146 Rain 24 1004 97 10000 3.6 60 10:24 25.02.2022
5147 Rain 24 1004 97 10000 3.6 60 09:51 25.02.2022
5148 Rain 25 1004 94 10000 4.63 50 08:42 25.02.2022
5149 Rain 25 1004 93 10000 3.09 20 07:35 25.02.2022
5150 Rain 25 1005 92 10000 7.72 350 05:43 25.02.2022
5151 Rain 25 1007 94 10000 3.6 30 02:49 25.02.2022
5152 Drizzle 24 1006 94 10000 4.63 40 22:55 24.02.2022
5153 Clouds 24 1006 94 10000 5.66 40 21:51 24.02.2022
5154 Rain 24 1007 91 10000 7.15 30 21:31 24.02.2022
5155 Rain 24 1007 94 10000 7.2 30 20:53 24.02.2022
5156 Clouds 25 1006 93 10000 5.14 20 19:38 24.02.2022
5157 Rain 25 1006 94 10000 5.81 20 18:36 24.02.2022
5158 Rain 25 1006 94 10000 5.81 20 18:18 24.02.2022
5159 Clouds 25 1007 92 10000 6.17 30 17:33 24.02.2022
5160 Clouds 25 1007 91 10000 4.63 10 16:29 24.02.2022
5161 Rain 26 1008 92 10000 4.12 30 15:46 24.02.2022
5162 Rain 25 1008 94 10000 3.6 40 14:52 24.02.2022
5163 Rain 25 1008 94 10000 3.6 40 14:20 24.02.2022
5164 Rain 26 1008 94 10000 3.09 50 13:39 24.02.2022
5165 Rain 26 1008 94 10000 3.09 80 12:28 24.02.2022
5166 Rain 26 1006 93 10000 4.63 60 10:40 24.02.2022
5167 Rain 25 1006 94 10000 5.66 90 08:56 24.02.2022
5168 Rain 25 1006 95 10000 6.17 80 08:38 24.02.2022
5169 Rain 26 1007 93 10000 5.66 80 05:52 24.02.2022
5170 Rain 29 1008 79 10000 5.14 70 01:56 24.02.2022
5171 Clouds 26 1006 89 10000 2.57 30 22:38 23.02.2022
5172 Clouds 26 1006 89 10000 2.57 30 22:38 23.02.2022
5173 Rain 26 1006 88 10000 3.09 60 21:37 23.02.2022
5174 Clouds 26 1007 88 10000 4.47 40 20:31 23.02.2022
5175 Clouds 26 1007 89 10000 4.12 60 19:44 23.02.2022
5176 Clouds 26 1007 89 10000 3.6 60 18:32 23.02.2022
5177 Clouds 26 1008 88 10000 3.6 60 17:30 23.02.2022
5178 Clouds 26 1009 88 10000 2.06 80 14:34 23.02.2022
5179 Clouds 27 1008 84 10000 2.57 350 12:37 23.02.2022
5180 Clouds 27 1007 80 10000 3.6 350 11:24 23.02.2022
5181 Clouds 28 1007 79 10000 5.66 360 10:31 23.02.2022
5182 Rain 28 1008 75 10000 6.71 360 08:59 23.02.2022
5183 Rain 28 1006 74 10000 7.72 10 07:58 23.02.2022
5184 Rain 28 1008 75 10000 6.71 30 03:49 23.02.2022
5185 Rain 26 1009 90 10000 4.63 30 00:28 23.02.2022
5186 Rain 25 1007 94 10000 2.57 50 23:36 22.02.2022
5187 Rain 25 1008 94 10000 2.57 70 22:31 22.02.2022
5188 Rain 25 1006 94 10000 2.57 100 21:49 22.02.2022
5189 Clouds 25 1006 94 10000 2.57 100 21:30 22.02.2022
5190 Clouds 25 1006 94 10000 2.57 100 21:30 22.02.2022
5191 Clouds 25 1006 94 10000 4.12 70 20:52 22.02.2022
5192 Clouds 25 1005 90 10000 4.12 70 20:29 22.02.2022
5193 Clouds 24 1005 94 10000 3.6 70 19:42 22.02.2022
5194 Clouds 24 1005 94 10000 3.6 70 19:19 22.02.2022
5195 Rain 23 1006 94 10000 5.36 40 17:48 22.02.2022
5196 Rain 23 1007 94 10000 5.66 40 17:21 22.02.2022
5197 Rain 23 1009 94 10000 3.6 10 16:37 22.02.2022
5198 Rain 24 1009 94 4000 7.72 80 15:40 22.02.2022
5199 Rain 25 1008 92 10000 1.79 160 14:44 22.02.2022
5200 Rain 24 1007 94 3000 6.69 130 12:23 22.02.2022
5201 Clouds 31 1005 72 10000 2.57 310 10:50 22.02.2022
5202 Clouds 32 1004 66 10000 2.68 310 08:41 22.02.2022
5203 Clouds 32 1004 67 10000 1.54 310 07:26 22.02.2022
5204 Rain 31 1006 70 10000 1.54 340 04:59 22.02.2022
5205 Clouds 28 1008 89 10000 5.14 360 01:45 22.02.2022
5206 Clouds 25 1006 94 10000 2.06 30 22:46 21.02.2022
5207 Clouds 25 1005 94 10000 2.06 70 21:33 21.02.2022
5208 Clouds 25 1005 88 10000 2.57 90 20:35 21.02.2022
5209 Clouds 25 1005 88 10000 2.57 90 20:35 21.02.2022
5210 Clouds 25 1004 94 10000 0.51 80 18:46 21.02.2022
5211 Clouds 25 1006 94 10000 1.54 80 16:58 21.02.2022
5212 Rain 25 1009 94 10000 2.24 170 15:20 21.02.2022
5213 Rain 25 1007 95 10000 1.54 240 14:21 21.02.2022
5214 Rain 25 1007 95 10000 1.54 240 14:21 21.02.2022
5215 Rain 24 1007 97 4000 5.81 130 13:20 21.02.2022
5216 Rain 25 1007 88 10000 9.77 140 12:23 21.02.2022
5217 Clouds 26 1004 94 10000 1.54 170 11:19 21.02.2022
5218 Rain 27 1003 94 10000 1.03 30 09:34 21.02.2022
5219 Rain 32 1004 67 10000 5.66 290 05:35 21.02.2022
5220 Clouds 26 1007 92 10000 1.03 70 23:41 20.02.2022
5221 Clear 26 1004 93 10000 1.54 100 22:25 20.02.2022
5222 Clear 26 1004 94 10000 1.03 70 21:42 20.02.2022
5223 Clouds 26 1004 93 10000 1.54 80 20:53 20.02.2022
5224 Clouds 26 1004 93 10000 0.51 70 20:35 20.02.2022
5225 Clouds 26 1006 91 10000 1.54 160 19:32 20.02.2022
5226 Clouds 26 1006 93 10000 1.54 100 18:50 20.02.2022
5227 Clouds 26 1004 90 10000 1.54 60 18:31 20.02.2022
5228 Clouds 26 1004 90 10000 1.54 60 18:31 20.02.2022
5229 Clouds 26 1006 90 10000 0.51 40 17:48 20.02.2022
5230 Clear 26 1006 85 10000 1.54 330 15:37 20.02.2022
5231 Clear 25 1005 89 10000 1.03 140 14:42 20.02.2022
5232 Clear 25 1005 89 10000 1.54 30 13:23 20.02.2022
5233 Clouds 26 1006 89 10000 6.69 90 12:25 20.02.2022
5234 Clouds 30 1004 75 10000 1.54 300 10:38 20.02.2022
5235 Clouds 30 1004 74 10000 1.54 300 10:19 20.02.2022
5236 Clouds 32 1003 66 10000 2.57 340 08:26 20.02.2022
5237 Rain 27 1007 81 10000 1.54 110 00:54 20.02.2022
5238 Rain 27 1007 81 10000 1.54 110 00:54 20.02.2022
5239 Clear 26 1006 85 10000 0.51 50 00:29 20.02.2022
5240 Rain 24 1005 94 10000 0 0 22:47 19.02.2022
5241 Rain 25 1005 88 10000 0 0 22:22 19.02.2022
5242 Rain 24 1005 94 10000 2.06 190 20:51 19.02.2022
5243 Rain 25 1006 83 10000 3.09 160 19:53 19.02.2022
5244 Rain 25 1009 83 10000 5.14 170 19:28 19.02.2022
5245 Rain 25 1007 83 10000 5.66 160 18:33 19.02.2022
5246 Rain 25 1007 83 10000 2.57 70 17:35 19.02.2022
5247 Clouds 26 1007 87 10000 2.57 70 16:22 19.02.2022
5248 Clouds 27 1008 85 10000 1.54 220 14:56 19.02.2022
5249 Clouds 27 1008 85 10000 2.06 210 14:37 19.02.2022
5250 Clear 28 1007 84 10000 1.54 270 13:22 19.02.2022
5251 Rain 27 1006 79 10000 1.54 350 11:37 19.02.2022
5252 Clouds 31 1005 71 10000 2.57 340 09:45 19.02.2022
5253 Clouds 33 1005 58 10000 3.09 340 06:54 19.02.2022
5254 Clouds 32 1008 64 10000 1.03 30 03:38 19.02.2022
5255 Clouds 24 1007 88 10000 2.06 90 23:29 18.02.2022
5256 Clear 23 1007 94 10000 3.6 50 21:49 18.02.2022
5257 Clouds 23 1007 94 10000 2.06 100 20:42 18.02.2022
5258 Rain 23 1007 94 10000 2.06 170 19:52 18.02.2022
5259 Rain 23 1008 88 5000 7.72 130 18:50 18.02.2022
5260 Clouds 25 1009 88 10000 8.75 140 18:20 18.02.2022
5261 Clouds 26 1009 89 10000 2.57 150 17:38 18.02.2022
5262 Clouds 27 1008 86 10000 1.54 200 14:50 18.02.2022
5263 Clouds 28 1009 83 10000 2.57 250 13:55 18.02.2022
5264 Clouds 28 1009 82 10000 1.54 310 12:53 18.02.2022
5265 Clear 29 1007 72 10000 3.09 360 11:58 18.02.2022
5266 Clouds 29 1006 67 10000 2.68 360 11:22 18.02.2022
5267 Clouds 31 1005 66 10000 3.6 350 09:52 18.02.2022
5268 Clouds 30 1006 79 10000 2.57 340 06:54 18.02.2022
5269 Rain 31 1007 81 10000 2.57 310 05:39 18.02.2022
5270 Clouds 25 1007 94 10000 1.54 120 22:57 17.02.2022
5271 Clouds 25 1007 94 10000 1.54 100 21:44 17.02.2022
5272 Clouds 25 1008 94 10000 1.79 90 21:19 17.02.2022
5273 Clouds 25 1008 94 10000 2.06 90 20:36 17.02.2022
5274 Clouds 25 1007 94 10000 2.06 70 19:48 17.02.2022
5275 Clouds 25 1008 94 10000 1.54 100 18:41 17.02.2022
5276 Clouds 25 1008 91 10000 1.54 100 17:50 17.02.2022
5277 Clouds 25 1008 94 10000 1.54 130 16:25 17.02.2022
5278 Clear 26 1008 94 10000 1.03 150 15:30 17.02.2022
5279 Clear 26 1008 94 10000 1.54 150 14:25 17.02.2022
5280 Clear 26 1007 93 10000 0 0 12:35 17.02.2022
5281 Clouds 26 1006 89 10000 1.54 100 11:21 17.02.2022
5282 Clouds 27 1005 83 9000 3.09 100 08:45 17.02.2022
5283 Clouds 27 1008 84 10000 0.51 70 00:31 17.02.2022
5284 Clouds 25 1007 93 10000 0 0 23:19 16.02.2022
5285 Clouds 25 1006 83 10000 1.54 10 21:31 16.02.2022
5286 Rain 24 1005 94 10000 0 0 19:46 16.02.2022
5287 Rain 23 1006 94 10000 1.03 300 18:38 16.02.2022
5288 Thunderstorm 23 1007 94 5000 3.09 360 17:53 16.02.2022
5289 Clouds 28 1007 83 10000 2.06 280 15:38 16.02.2022
5290 Clouds 28 1007 82 10000 1.54 260 14:59 16.02.2022
5291 Clouds 28 1006 78 10000 2.06 280 12:35 16.02.2022
5292 Clouds 29 1005 76 10000 2.57 300 11:55 16.02.2022
5293 Clouds 29 1005 74 10000 2.57 310 11:24 16.02.2022
5294 Clouds 31 1007 64 10000 3.6 300 10:33 16.02.2022
5295 Clouds 32 1007 62 10000 4.12 340 07:21 16.02.2022
5296 Clouds 33 1005 59 10000 3.6 320 05:20 16.02.2022
5297 Clouds 29 1007 81 10000 0.51 150 23:44 15.02.2022
5298 Clouds 26 1006 90 10000 0.51 90 22:28 15.02.2022
5299 Clouds 26 1010 89 10000 1.03 110 21:46 15.02.2022
5300 Clouds 27 1010 89 10000 1.54 160 21:27 15.02.2022
5301 Clouds 26 1010 89 10000 1.03 50 20:56 15.02.2022
5302 Clouds 26 1006 88 10000 0 0 19:57 15.02.2022
5303 Clouds 27 1007 87 10000 0 0 18:52 15.02.2022
5304 Clouds 26 1007 88 10000 0 0 18:20 15.02.2022
5305 Clouds 27 1007 84 10000 1.03 50 17:49 15.02.2022
5306 Clouds 28 1007 80 10000 1.54 80 16:38 15.02.2022
5307 Clouds 28 1008 83 10000 1.03 350 15:26 15.02.2022
5308 Clear 28 1007 79 10000 1.03 360 13:27 15.02.2022
5309 Clouds 29 1006 70 10000 2.57 10 11:58 15.02.2022
5310 Clear 30 1006 69 10000 3.09 10 11:27 15.02.2022
5311 Clouds 32 1005 63 10000 4.47 340 09:31 15.02.2022
5312 Clear 34 1006 48 10000 5.14 60 06:52 15.02.2022
5313 Clear 33 1008 44 10000 5.66 120 04:54 15.02.2022
5314 Clouds 25 1010 94 10000 2.06 160 23:33 14.02.2022
5315 Clear 24 1008 94 10000 2.06 170 21:36 14.02.2022
5316 Clouds 24 1008 94 10000 1.54 130 20:37 14.02.2022
5317 Rain 24 1008 94 10000 2.24 160 19:34 14.02.2022
5318 Rain 24 1009 94 10000 2.57 160 18:44 14.02.2022
5319 Rain 23 1009 94 10000 2.06 180 18:22 14.02.2022
5320 Rain 23 1011 88 10000 1.54 100 17:26 14.02.2022
5321 Thunderstorm 22 1012 94 10000 2.57 60 16:24 14.02.2022
5322 Clouds 29 1010 79 10000 1.54 320 14:31 14.02.2022
5323 Clouds 29 1010 74 10000 0.51 290 13:33 14.02.2022
5324 Clear 29 1009 74 10000 1.03 290 12:52 14.02.2022
5325 Clouds 30 1008 72 10000 3.6 10 11:54 14.02.2022
5326 Clouds 31 1007 65 10000 2.57 330 10:56 14.02.2022
5327 Clouds 32 1007 62 10000 4.63 350 08:45 14.02.2022
5328 Clouds 32 1008 55 10000 4.63 350 07:32 14.02.2022
5329 Clouds 32 1009 60 10000 3.58 300 05:56 14.02.2022
5330 Clouds 25 1009 85 10000 2.06 100 22:43 13.02.2022
5331 Clouds 25 1009 84 10000 2.06 100 22:25 13.02.2022
5332 Clear 25 1008 84 10000 1.54 120 21:32 13.02.2022
5333 Clouds 25 1008 84 10000 0.51 150 20:40 13.02.2022
5334 Clouds 25 1007 82 10000 0 0 19:45 13.02.2022
5335 Clouds 26 1007 78 10000 1.54 130 18:54 13.02.2022
5336 Clouds 26 1008 83 10000 2.06 70 18:35 13.02.2022
5337 Clouds 26 1009 83 10000 3.09 70 16:38 13.02.2022
5338 Clouds 26 1010 86 10000 1.54 80 15:27 13.02.2022
5339 Clouds 26 1010 81 10000 1.03 200 14:37 13.02.2022
5340 Clouds 27 1008 79 10000 5.14 190 12:52 13.02.2022
5341 Clouds 28 1009 73 10000 0.51 350 12:18 13.02.2022
5342 Clouds 31 1006 62 10000 3.6 20 10:38 13.02.2022
5343 Clouds 33 1006 56 10000 4.12 40 09:49 13.02.2022
5344 Clouds 32 1005 70 10000 3.6 280 07:52 13.02.2022
5345 Clouds 29 1008 76 10000 1.03 90 00:36 13.02.2022
5346 Clouds 29 1008 78 10000 1.03 130 23:54 12.02.2022
5347 Clouds 25 1006 86 10000 0 0 22:34 12.02.2022
5348 Clouds 25 1006 86 10000 1.03 150 21:40 12.02.2022
5349 Clear 25 1006 86 10000 0.45 150 20:52 12.02.2022
5350 Clouds 25 1006 85 10000 1.54 150 19:48 12.02.2022
5351 Clouds 25 1007 85 10000 2.06 150 18:53 12.02.2022
5352 Clouds 25 1007 78 10000 1.03 170 18:35 12.02.2022
5353 Clear 25 1007 83 10000 2.06 150 17:38 12.02.2022
5354 Clouds 25 1006 81 10000 2.06 160 16:44 12.02.2022
5355 Clouds 25 1007 83 10000 2.57 170 15:52 12.02.2022
5356 Clear 25 1007 81 10000 2.06 140 15:20 12.02.2022
5357 Clouds 25 1007 83 10000 1.54 190 14:25 12.02.2022
5358 Clouds 30 1006 68 10000 3.09 50 11:26 12.02.2022
5359 Clouds 31 1004 59 10000 4.63 30 10:29 12.02.2022
5360 Clouds 32 1004 59 10000 6.17 40 09:36 12.02.2022
5361 Clouds 33 1004 62 10000 5.66 20 08:46 12.02.2022
5362 Clouds 33 1005 66 10000 4.63 350 06:52 12.02.2022
5363 Clouds 33 1006 64 10000 3.09 320 04:44 12.02.2022
5364 Clouds 32 1008 62 10000 1.03 50 02:19 12.02.2022
5365 Clouds 26 1008 89 10000 2.24 70 23:20 11.02.2022
5366 Clouds 26 1008 90 10000 1.54 130 22:21 11.02.2022
5367 Clouds 26 1008 89 10000 1.03 240 21:32 11.02.2022
5368 Clouds 26 1007 89 10000 1.54 240 20:26 11.02.2022
5369 Rain 27 1007 84 10000 4.92 240 19:28 11.02.2022
5370 Rain 28 1007 84 10000 2.24 360 18:29 11.02.2022
5371 Rain 29 1007 81 10000 2.57 10 17:27 11.02.2022
5372 Clouds 29 1008 83 10000 3.09 340 16:39 11.02.2022
5373 Clouds 29 1008 81 10000 3.09 340 15:19 11.02.2022
5374 Clear 29 1008 79 10000 2.06 330 14:37 11.02.2022
5375 Clear 29 1007 79 10000 2.68 10 14:19 11.02.2022
5376 Clear 29 1007 81 10000 3.09 10 13:40 11.02.2022
5377 Clear 30 1006 80 10000 3.6 10 12:45 11.02.2022
5378 Clouds 31 1005 77 10000 4.12 30 10:55 11.02.2022
5379 Clouds 32 1005 75 10000 4.63 350 09:32 11.02.2022
5380 Clear 33 1005 70 10000 6.17 310 08:31 11.02.2022
5381 Clouds 35 1005 49 10000 1.54 120 07:40 11.02.2022
5382 Clouds 34 1007 52 10000 4.12 110 05:34 11.02.2022
5383 Clouds 31 1009 70 10000 3.09 170 02:21 11.02.2022
5384 Clouds 28 1009 82 10000 3.6 120 23:45 10.02.2022
5385 Clear 26 1009 89 10000 2.06 150 22:25 10.02.2022
5386 Clouds 26 1009 89 10000 2.57 110 21:40 10.02.2022
5387 Clouds 26 1008 89 10000 2.06 110 20:48 10.02.2022
5388 Clouds 26 1007 89 10000 2.24 100 19:51 10.02.2022
5389 Clouds 26 1008 89 10000 2.24 100 19:22 10.02.2022
5390 Clouds 26 1008 89 10000 1.34 10 18:22 10.02.2022
5391 Clouds 27 1009 83 10000 2.24 360 17:21 10.02.2022
5392 Clouds 28 1009 84 10000 2.57 360 16:39 10.02.2022
5393 Clouds 28 1009 87 10000 3.6 350 15:39 10.02.2022
5394 Clouds 28 1009 87 10000 3.6 350 15:20 10.02.2022
5395 Clouds 28 1009 85 10000 2.06 100 14:34 10.02.2022
5396 Clouds 28 1009 84 10000 2.57 30 13:37 10.02.2022
5397 Clouds 28 1009 84 10000 2.57 30 13:18 10.02.2022
5398 Clouds 29 1008 77 10000 3.09 10 11:50 10.02.2022
5399 Clouds 29 1007 77 10000 2.57 10 11:28 10.02.2022
5400 Clouds 31 1007 69 10000 3.09 50 10:23 10.02.2022
5401 Clouds 31 1006 66 10000 3.6 60 09:44 10.02.2022
5402 Clouds 33 1005 60 10000 5.14 20 08:25 10.02.2022
5403 Clouds 33 1006 55 10000 3.6 50 06:32 10.02.2022
5404 Clouds 32 1010 69 10000 2.57 60 02:43 10.02.2022
5405 Clouds 29 1009 85 10000 2.06 60 00:52 10.02.2022
5406 Clouds 28 1009 89 10000 2.57 100 00:30 10.02.2022
5407 Clouds 27 1009 92 10000 2.57 90 23:58 09.02.2022
5408 Clouds 26 1008 90 10000 2.06 100 22:54 09.02.2022
5409 Clouds 26 1007 90 10000 1.34 100 22:30 09.02.2022
5410 Clear 26 1007 89 10000 1.54 100 21:46 09.02.2022
5411 Clear 26 1007 89 10000 1.54 360 21:26 09.02.2022
5412 Clouds 27 1006 89 10000 1.54 340 20:42 09.02.2022
5413 Clouds 27 1006 89 10000 1.54 340 20:21 09.02.2022
5414 Clouds 27 1006 89 10000 1.54 330 19:39 09.02.2022
5415 Clouds 26 1006 91 10000 2.06 340 18:30 09.02.2022
5416 Clouds 27 1007 85 10000 1.79 350 16:54 09.02.2022
5417 Clear 28 1007 82 10000 2.06 350 15:56 09.02.2022
5418 Clear 28 1007 81 10000 2.06 340 15:22 09.02.2022
5419 Clear 28 1007 86 10000 2.57 10 12:42 09.02.2022
5420 Clear 29 1005 81 10000 4.02 360 11:20 09.02.2022
5421 Clouds 31 1006 65 10000 5.14 350 10:33 09.02.2022
5422 Clouds 33 1004 52 10000 3.09 40 09:45 09.02.2022
5423 Clouds 33 1004 49 10000 3.6 40 09:20 09.02.2022
5424 Clouds 33 1004 52 10000 3.09 30 08:43 09.02.2022
5425 Clouds 33 1006 66 10000 5.66 350 05:55 09.02.2022
5426 Clouds 33 1009 58 10000 3.6 40 03:51 09.02.2022
5427 Clouds 31 1008 71 10000 2.57 110 01:55 09.02.2022
5428 Clouds 27 1007 89 10000 2.57 120 23:42 08.02.2022
5429 Clouds 27 1007 90 10000 2.57 120 23:18 08.02.2022
5430 Clouds 26 1007 93 10000 2.06 140 22:38 08.02.2022
5431 Clouds 26 1007 93 10000 2.06 140 22:18 08.02.2022
5432 Clouds 26 1006 93 10000 2.06 120 21:22 08.02.2022
5433 Clouds 26 1006 93 10000 2.06 140 20:56 08.02.2022
5434 Clouds 26 1006 93 10000 2.57 170 20:31 08.02.2022
5435 Clouds 26 1006 94 10000 1.03 250 18:55 08.02.2022
5436 Clouds 26 1006 93 10000 0 0 17:57 08.02.2022
5437 Clouds 26 1007 92 10000 0.51 270 16:55 08.02.2022
5438 Clouds 26 1007 90 10000 1.03 270 15:45 08.02.2022
5439 Clouds 27 1008 88 10000 2.57 250 14:58 08.02.2022
5440 Rain 27 1007 89 10000 1.54 240 13:39 08.02.2022
5441 Rain 27 1007 85 10000 2.57 280 12:21 08.02.2022
5442 Rain 28 1006 85 10000 3.09 270 10:48 08.02.2022
5443 Rain 29 1005 81 10000 5.14 300 09:47 08.02.2022
5444 Clouds 30 1005 75 10000 5.66 300 08:38 08.02.2022
5445 Rain 30 1008 77 10000 3.6 290 06:24 08.02.2022
5446 Rain 31 1007 70 10000 4.12 280 04:40 08.02.2022
5447 Rain 31 1007 70 10000 4.12 280 04:22 08.02.2022
5448 Clouds 31 1008 73 10000 4.12 200 03:36 08.02.2022
5449 Clouds 31 1008 73 10000 4.12 200 03:18 08.02.2022
5450 Clouds 29 1009 78 10000 4.12 240 02:59 08.02.2022
5451 Clouds 30 1009 75 10000 5.66 250 02:36 08.02.2022
5452 Rain 30 1009 76 10000 5.66 250 02:18 08.02.2022
5453 Clouds 30 1009 78 10000 3.6 260 01:44 08.02.2022
5454 Clouds 30 1009 80 10000 3.6 260 01:25 08.02.2022
5455 Clouds 28 1009 84 10000 3.09 280 00:55 08.02.2022
5456 Clouds 27 1009 89 10000 5.66 270 00:19 08.02.2022
5457 Clouds 27 1008 89 10000 2.06 240 23:43 07.02.2022
5458 Clouds 27 1008 89 10000 2.06 240 23:18 07.02.2022
5459 Clouds 27 1008 90 10000 2.57 250 22:59 07.02.2022
5460 Clouds 27 1007 90 10000 1.54 270 22:18 07.02.2022
5461 Clouds 27 1007 90 10000 1.54 250 21:49 07.02.2022
5462 Clouds 26 1007 92 10000 2.06 260 21:27 07.02.2022
5463 Clouds 27 1007 93 10000 1.54 260 20:43 07.02.2022
5464 Clouds 26 1007 93 10000 1.54 260 20:24 07.02.2022
5465 Clouds 27 1007 93 10000 2.06 260 19:47 07.02.2022
5466 Clouds 27 1007 93 10000 2.06 270 18:34 07.02.2022
5467 Clouds 27 1008 93 10000 2.57 270 16:53 07.02.2022
5468 Clouds 27 1009 93 10000 2.06 270 16:24 07.02.2022
5469 Clouds 27 1009 94 10000 2.06 260 15:48 07.02.2022
5470 Clouds 27 1009 90 10000 1.54 290 13:39 07.02.2022
5471 Clouds 27 1008 90 10000 1.54 290 13:21 07.02.2022
5472 Clouds 27 1008 85 10000 3.6 270 11:58 07.02.2022
5473 Clouds 27 1008 85 10000 3.6 260 11:38 07.02.2022
5474 Clouds 28 1007 82 10000 4.12 270 10:54 07.02.2022
5475 Clouds 28 1006 81 10000 4.12 280 10:36 07.02.2022
5476 Rain 29 1006 82 10000 4.12 300 09:53 07.02.2022
5477 Rain 29 1006 83 10000 4.63 290 09:18 07.02.2022
5478 Rain 30 1008 77 10000 5.66 290 08:44 07.02.2022
5479 Clouds 31 1007 73 10000 5.66 290 07:34 07.02.2022
5480 Rain 30 1007 81 10000 5.14 310 06:34 07.02.2022
5481 Rain 27 1009 89 10000 3.09 220 04:18 07.02.2022
5482 Clouds 30 1010 79 10000 2.57 270 00:54 07.02.2022
5483 Clouds 28 1009 83 10000 1.03 250 23:50 06.02.2022
5484 Clouds 27 1009 87 10000 1.03 250 23:19 06.02.2022
5485 Clouds 25 1008 91 10000 1.03 250 22:37 06.02.2022
5486 Clear 25 1007 90 10000 1.54 250 21:37 06.02.2022
5487 Clouds 25 1007 91 10000 1.03 300 20:58 06.02.2022
5488 Clouds 25 1007 90 10000 2.57 310 20:36 06.02.2022
5489 Clouds 26 1007 90 10000 2.57 290 19:50 06.02.2022
5490 Clouds 26 1007 94 10000 0 0 18:52 06.02.2022
5491 Clouds 26 1008 94 10000 0 0 18:26 06.02.2022
5492 Clouds 26 1008 95 10000 0 0 17:29 06.02.2022
5493 Clouds 26 1009 97 10000 0 0 16:50 06.02.2022
5494 Clear 26 1009 94 10000 0 0 15:50 06.02.2022
5495 Clear 26 1009 94 10000 0 0 15:28 06.02.2022
5496 Clear 26 1009 93 10000 1.03 280 14:59 06.02.2022
5497 Clear 26 1009 90 10000 1.54 270 13:57 06.02.2022
5498 Clear 26 1008 90 10000 1.54 280 13:20 06.02.2022
5499 Clouds 26 1008 89 10000 1.54 300 11:45 06.02.2022
5500 Clouds 28 1007 84 10000 1.54 310 10:33 06.02.2022
5501 Clouds 28 1007 82 10000 2.57 290 09:36 06.02.2022
5502 Clouds 28 1007 84 10000 3.6 310 08:41 06.02.2022
5503 Rain 27 1009 88 10000 2.57 290 06:31 06.02.2022
5504 Rain 26 1010 93 10000 2.06 290 05:27 06.02.2022
5505 Rain 28 1011 85 5000 3.6 280 02:25 06.02.2022
5506 Clouds 27 1009 92 10000 2.06 20 00:30 06.02.2022
5507 Clouds 26 1008 92 10000 1.03 110 23:38 05.02.2022
5508 Clouds 25 1007 94 10000 0 0 21:46 05.02.2022
5509 Clouds 25 1006 93 10000 1.54 120 20:39 05.02.2022
5510 Clouds 25 1007 92 10000 1.54 120 20:19 05.02.2022
5511 Clouds 25 1007 90 10000 1.54 110 19:41 05.02.2022
5512 Clouds 25 1007 90 10000 1.54 100 18:26 05.02.2022
5513 Clouds 26 1007 90 10000 2.06 100 17:34 05.02.2022
5514 Clouds 26 1008 89 10000 2.06 100 15:51 05.02.2022
5515 Clouds 26 1009 89 10000 2.06 110 15:29 05.02.2022
5516 Clouds 27 1008 82 10000 1.54 270 13:25 05.02.2022
5517 Clouds 27 1008 82 10000 1.54 270 13:25 05.02.2022
5518 Clouds 27 1008 82 10000 1.54 220 12:42 05.02.2022
5519 Rain 28 1007 81 10000 2.06 240 11:29 05.02.2022
5520 Rain 28 1007 78 10000 3.09 250 10:43 05.02.2022
5521 Rain 29 1006 80 10000 3.6 270 09:49 05.02.2022
5522 Clouds 30 1005 74 10000 5.66 300 08:34 05.02.2022
5523 Clouds 31 1005 70 10000 5.66 310 06:59 05.02.2022
5524 Clouds 31 1005 70 10000 5.66 300 06:27 05.02.2022
5525 Clouds 29 1008 74 10000 3.6 270 02:31 05.02.2022
5526 Clouds 28 1008 82 10000 2.06 270 01:18 05.02.2022
5527 Clouds 27 1008 88 10000 1.03 260 00:36 05.02.2022
5528 Rain 25 1008 94 10000 1.03 250 23:33 04.02.2022
5529 Clouds 24 1007 95 10000 3.6 290 22:39 04.02.2022
5530 Rain 24 1007 97 10000 2.06 280 21:36 04.02.2022
5531 Clouds 24 1007 97 10000 2.06 280 21:18 04.02.2022
5532 Rain 24 1006 95 10000 1.03 240 20:29 04.02.2022
5533 Rain 25 1007 94 10000 2.06 90 18:35 04.02.2022
5534 Clouds 25 1007 94 10000 1.54 350 16:20 04.02.2022
5535 Clouds 25 1007 94 10000 0 0 15:18 04.02.2022
5536 Clouds 25 1007 94 10000 1.54 350 14:40 04.02.2022
5537 Rain 26 1007 94 10000 1.54 30 12:43 04.02.2022
5538 Rain 26 1006 94 10000 1.03 30 11:44 04.02.2022
5539 Rain 26 1005 94 10000 1.03 360 10:53 04.02.2022
5540 Rain 26 1005 93 10000 1.54 340 09:35 04.02.2022
5541 Clouds 27 1005 88 8000 4.63 310 07:44 04.02.2022
5542 Rain 26 1007 89 10000 2.06 360 03:28 04.02.2022
5543 Rain 24 1007 94 10000 3.6 340 02:33 04.02.2022
5544 Clouds 26 1005 94 10000 3.09 340 23:34 03.02.2022
5545 Clouds 26 1004 94 10000 3.6 350 22:48 03.02.2022
5546 Clouds 26 1004 94 10000 2.57 340 21:51 03.02.2022
5547 Clouds 26 1004 93 10000 4.63 330 21:22 03.02.2022
5548 Rain 25 1003 97 10000 2.06 30 20:21 03.02.2022
5549 Rain 25 1004 94 10000 2.57 360 19:36 03.02.2022
5550 Clouds 25 1004 90 10000 3.09 10 18:50 03.02.2022
5551 Clouds 25 1004 88 10000 2.06 310 17:55 03.02.2022
5552 Clouds 26 1005 88 10000 2.57 300 16:48 03.02.2022
5553 Clouds 27 1006 85 10000 3.6 290 14:59 03.02.2022
5554 Clouds 27 1005 86 10000 5.14 310 13:19 03.02.2022
5555 Rain 27 1004 87 10000 5.14 310 11:47 03.02.2022
5556 Clouds 28 1003 84 10000 3.6 300 08:55 03.02.2022
5557 Clouds 29 1004 84 10000 4.63 290 07:41 03.02.2022
5558 Rain 27 1006 87 10000 3.6 280 00:35 03.02.2022
5559 Clouds 27 1006 93 10000 2.57 270 23:47 02.02.2022
5560 Clouds 25 1005 92 10000 3.6 270 22:38 02.02.2022
5561 Rain 26 1004 92 10000 3.6 290 21:45 02.02.2022
5562 Clouds 26 1004 90 10000 3.09 270 21:27 02.02.2022
5563 Clouds 26 1003 91 10000 2.57 280 20:20 02.02.2022
5564 Clouds 26 1003 92 10000 4.63 280 19:45 02.02.2022
5565 Clouds 26 1005 93 6000 4.12 270 18:55 02.02.2022
5566 Rain 27 1005 89 10000 6.17 300 18:23 02.02.2022
5567 Clouds 27 1005 88 10000 5.14 290 17:20 02.02.2022
5568 Clouds 27 1006 86 10000 5.14 280 16:48 02.02.2022
5569 Clouds 26 1005 92 10000 2.57 260 14:42 02.02.2022
5570 Clouds 25 1006 94 10000 3.09 320 12:29 02.02.2022
5571 Rain 25 1006 94 10000 1.54 270 11:42 02.02.2022
5572 Rain 25 1006 94 10000 1.54 270 11:23 02.02.2022
5573 Thunderstorm 24 1005 94 5000 6.17 280 08:26 02.02.2022
5574 Rain 25 1008 94 8000 4.63 280 01:37 02.02.2022
5575 Rain 24 1006 94 10000 3.09 10 22:29 01.02.2022
5576 Rain 26 1004 94 10000 1.03 300 20:49 01.02.2022
5577 Rain 25 1006 89 10000 2.06 270 18:55 01.02.2022
5578 Rain 24 1007 88 10000 4.63 280 16:46 01.02.2022
5579 Rain 25 1007 83 9000 7.72 300 15:44 01.02.2022
5580 Clouds 29 1006 79 10000 7.2 320 12:49 01.02.2022
5581 Clouds 29 1006 75 10000 7.2 320 11:51 01.02.2022
5582 Clouds 32 1004 62 10000 8.23 310 08:37 01.02.2022
5583 Clouds 28 1006 82 10000 5.14 320 00:28 01.02.2022
5584 Clouds 29 1005 84 10000 5.66 340 23:36 31.01.2022
5585 Clouds 28 1004 85 10000 6.17 340 22:33 31.01.2022
5586 Clouds 28 1004 89 10000 6.17 340 21:34 31.01.2022
5587 Clouds 28 1005 85 10000 4.63 330 20:34 31.01.2022
5588 Clouds 28 1004 83 10000 5.14 330 19:52 31.01.2022
5589 Clouds 28 1004 84 10000 5.66 330 18:31 31.01.2022
5590 Clouds 28 1004 89 10000 6.69 330 17:55 31.01.2022
5591 Clouds 28 1005 86 10000 5.14 340 16:58 31.01.2022
5592 Clouds 28 1006 86 10000 6.17 340 16:20 31.01.2022
5593 Clouds 29 1006 83 10000 5.14 330 14:49 31.01.2022
5594 Clouds 29 1005 81 10000 5.66 330 12:57 31.01.2022
5595 Clouds 29 1004 81 10000 5.66 340 12:37 31.01.2022
5596 Rain 29 1003 79 10000 5.66 330 10:58 31.01.2022
5597 Rain 29 1004 77 10000 5.66 330 10:38 31.01.2022
5598 Rain 29 1002 73 10000 6.17 330 09:36 31.01.2022
5599 Rain 30 1002 72 10000 7.72 330 08:54 31.01.2022
5600 Clouds 30 1002 73 10000 7.72 330 08:20 31.01.2022
5601 Clouds 31 1003 65 10000 10.8 320 07:29 31.01.2022
5602 Clouds 31 1004 66 10000 10.29 310 05:24 31.01.2022
5603 Clouds 30 1005 73 10000 9.77 310 00:23 31.01.2022
5604 Clouds 28 1003 77 10000 10.29 320 22:33 30.01.2022
5605 Clouds 28 1003 79 10000 8.23 320 21:45 30.01.2022
5606 Clouds 29 1003 77 10000 7.72 320 21:24 30.01.2022
5607 Clouds 29 1002 78 10000 8.75 320 20:51 30.01.2022
5608 Clouds 29 1002 77 10000 9.26 320 20:31 30.01.2022
5609 Clouds 29 1002 80 10000 8.75 320 19:56 30.01.2022
5610 Clouds 29 1003 80 10000 8.75 320 18:51 30.01.2022
5611 Clouds 28 1003 81 10000 8.23 320 18:22 30.01.2022
5612 Clouds 28 1004 82 10000 7.72 330 17:31 30.01.2022
5613 Clouds 28 1004 84 10000 6.69 330 16:42 30.01.2022
5614 Rain 28 1004 84 10000 6.69 330 16:23 30.01.2022
5615 Rain 28 1004 87 10000 6.69 320 15:54 30.01.2022
5616 Rain 27 1004 87 10000 8.75 320 15:33 30.01.2022
5617 Rain 27 1005 86 10000 8.23 310 14:47 30.01.2022
5618 Rain 25 1005 94 9000 5.66 330 13:47 30.01.2022
5619 Rain 25 1005 91 10000 9.77 280 12:46 30.01.2022
5620 Rain 27 1005 89 10000 6.17 300 10:47 30.01.2022
5621 Rain 27 1005 90 10000 7.72 300 10:25 30.01.2022
5622 Rain 27 1002 91 10000 5.14 280 09:22 30.01.2022
5623 Rain 26 1002 89 10000 8.75 290 07:59 30.01.2022
5624 Clouds 29 1005 80 10000 9.26 290 02:44 30.01.2022
5625 Clouds 29 1005 80 10000 9.26 290 02:44 30.01.2022
5626 Rain 28 1005 88 10000 8.23 300 01:54 30.01.2022
5627 Rain 25 1004 94 10000 4.12 210 23:49 29.01.2022
5628 Rain 26 1007 91 10000 4.12 280 22:50 29.01.2022
5629 Rain 26 1003 92 10000 7.72 310 21:29 29.01.2022
5630 Rain 25 1003 94 10000 2.57 260 20:53 29.01.2022
5631 Rain 25 1003 94 10000 3.6 260 19:52 29.01.2022
5632 Rain 25 1004 90 6000 7.2 240 19:31 29.01.2022
5633 Rain 26 1004 94 6000 8.23 290 18:44 29.01.2022
5634 Rain 24 1005 94 700 13.38 290 17:54 29.01.2022
5635 Rain 26 1008 94 4900 6.69 340 16:44 29.01.2022
5636 Rain 26 1009 94 10000 7.72 310 15:25 29.01.2022
5637 Rain 26 1006 94 10000 5.14 300 13:48 29.01.2022
5638 Rain 25 1006 94 10000 5.66 320 13:27 29.01.2022
5639 Rain 26 1006 94 5000 2.06 290 12:58 29.01.2022
5640 Rain 26 1008 88 3000 6.69 270 11:39 29.01.2022
5641 Clouds 26 1006 86 8000 8.23 290 10:32 29.01.2022
5642 Rain 27 1003 86 10000 6.69 270 07:57 29.01.2022
5643 Clouds 31 1010 70 10000 9.26 310 02:26 29.01.2022
5644 Clouds 30 1005 76 10000 8.75 300 00:31 29.01.2022
5645 Clouds 28 1005 84 10000 5.66 290 23:29 28.01.2022
5646 Clouds 27 1005 85 10000 6.17 290 22:46 28.01.2022
5647 Clouds 28 1005 83 10000 7.72 300 22:19 28.01.2022
5648 Rain 27 1004 89 10000 5.14 320 20:41 28.01.2022
5649 Rain 27 1006 87 10000 7.72 310 19:57 28.01.2022
5650 Rain 26 1005 90 10000 7.2 300 18:52 28.01.2022
5651 Rain 26 1006 90 10000 5.66 310 17:53 28.01.2022
5652 Rain 26 1007 92 10000 4.63 290 15:52 28.01.2022
5653 Rain 26 1007 89 5000 8.23 330 14:50 28.01.2022
5654 Rain 27 1006 92 10000 5.66 290 12:42 28.01.2022
5655 Rain 26 1006 91 10000 4.63 310 11:49 28.01.2022
5656 Rain 26 1005 94 10000 2.57 270 10:26 28.01.2022
5657 Rain 26 1005 94 10000 4.63 280 09:46 28.01.2022
5658 Rain 29 1005 82 10000 6.69 310 07:41 28.01.2022
5659 Thunderstorm 26 1007 94 5000 5.14 280 05:31 28.01.2022
5660 Clouds 32 1007 75 10000 5.66 330 03:51 28.01.2022
5661 Clouds 30 1007 76 10000 6.69 320 02:25 28.01.2022
5662 Clouds 30 1007 79 10000 4.63 340 01:37 28.01.2022
5663 Clouds 28 1007 83 10000 5.66 330 00:42 28.01.2022
5664 Clouds 27 1005 87 10000 5.14 340 22:20 27.01.2022
5665 Clear 27 1005 89 10000 5.14 340 21:34 27.01.2022
5666 Clouds 26 1005 90 10000 4.63 310 20:59 27.01.2022
5667 Rain 28 1005 85 10000 12.86 300 19:37 27.01.2022
5668 Clouds 28 1007 85 10000 4.12 320 18:19 27.01.2022
5669 Rain 28 1008 85 10000 4.12 310 16:45 27.01.2022
5670 Rain 29 1007 85 10000 3.6 330 13:57 27.01.2022
5671 Rain 28 1006 86 10000 3.09 320 12:49 27.01.2022
5672 Rain 28 1006 88 10000 4.12 320 11:53 27.01.2022
5673 Clouds 28 1004 91 10000 2.57 350 09:47 27.01.2022
5674 Clouds 30 1004 79 4000 6.69 310 08:40 27.01.2022
5675 Clouds 31 1005 74 10000 6.17 300 07:31 27.01.2022
5676 Clouds 32 1007 74 10000 5.66 330 03:19 27.01.2022
5677 Clouds 29 1008 84 10000 4.12 330 00:23 27.01.2022
5678 Clouds 28 1006 89 10000 3.6 330 22:27 26.01.2022
5679 Clouds 28 1007 87 10000 3.6 330 21:44 26.01.2022
5680 Clouds 28 1005 88 10000 3.09 330 20:43 26.01.2022
5681 Clouds 28 1007 87 10000 3.09 330 20:24 26.01.2022
5682 Clouds 28 1007 86 10000 4.12 340 19:30 26.01.2022
5683 Clouds 28 1005 86 10000 3.6 330 18:46 26.01.2022
5684 Clouds 28 1005 89 10000 3.6 330 17:53 26.01.2022
5685 Clouds 28 1006 89 10000 3.09 340 17:32 26.01.2022
5686 Clouds 28 1008 89 10000 3.09 330 16:47 26.01.2022
5687 Clouds 28 1007 89 10000 3.6 330 15:56 26.01.2022
5688 Clouds 28 1007 89 10000 3.09 310 14:32 26.01.2022
5689 Rain 27 1006 89 10000 2.06 320 12:18 26.01.2022
5690 Clouds 28 1006 85 10000 3.09 310 10:50 26.01.2022
5691 Clouds 29 1005 81 10000 4.63 300 09:52 26.01.2022
5692 Clouds 30 1005 78 10000 3.6 290 08:46 26.01.2022
5693 Rain 28 1006 81 10000 4.63 280 06:28 26.01.2022
5694 Rain 28 1006 81 10000 4.63 280 06:28 26.01.2022
5695 Clouds 30 1007 80 10000 5.66 330 00:21 26.01.2022
5696 Clouds 29 1006 84 10000 4.63 330 23:37 25.01.2022
5697 Clouds 28 1006 88 10000 4.63 340 22:48 25.01.2022
5698 Clouds 28 1005 88 10000 4.63 340 22:18 25.01.2022
5699 Clouds 28 1005 85 10000 5.14 340 21:23 25.01.2022
5700 Clouds 28 1004 86 10000 3.6 340 20:45 25.01.2022
5701 Clouds 28 1004 85 10000 5.14 340 19:54 25.01.2022
5702 Clouds 28 1004 86 10000 4.12 350 19:23 25.01.2022
5703 Clouds 28 1006 84 10000 3.6 350 17:56 25.01.2022
5704 Clouds 28 1006 83 10000 3.6 340 17:18 25.01.2022
5705 Clouds 28 1005 85 10000 4.12 340 16:34 25.01.2022
5706 Clouds 28 1005 84 10000 3.6 340 15:39 25.01.2022
5707 Clouds 28 1005 84 10000 3.6 340 15:18 25.01.2022
5708 Clouds 27 1005 92 10000 2.06 340 14:43 25.01.2022
5709 Clear 27 1004 86 10000 1.03 290 12:20 25.01.2022
5710 Clouds 30 1003 74 10000 4.63 300 09:24 25.01.2022
5711 Clouds 31 1003 73 10000 4.12 340 07:52 25.01.2022
5712 Clouds 31 1004 74 10000 4.63 330 06:55 25.01.2022
5713 Clouds 30 1005 75 10000 4.63 300 05:23 25.01.2022
5714 Clouds 30 1005 75 10000 4.63 300 05:23 25.01.2022
5715 Clouds 25 1006 93 10000 1.54 360 00:31 25.01.2022
5716 Rain 24 1006 100 10000 1.54 170 23:36 24.01.2022
5717 Rain 24 1006 100 10000 1.54 170 23:18 24.01.2022
5718 Rain 24 1005 100 10000 2.06 150 22:42 24.01.2022
5719 Rain 24 1005 98 10000 2.06 150 22:19 24.01.2022
5720 Rain 24 1005 98 10000 2.06 180 21:40 24.01.2022
5721 Rain 24 1005 100 10000 2.06 180 21:19 24.01.2022
5722 Rain 24 1005 98 10000 2.57 170 20:26 24.01.2022
5723 Rain 24 1005 98 10000 2.57 170 20:26 24.01.2022
5724 Rain 24 1005 98 10000 5.14 210 19:38 24.01.2022
5725 Rain 25 1003 91 10000 4.12 330 18:50 24.01.2022
5726 Rain 25 1004 94 6000 3.6 230 17:25 24.01.2022
5727 Rain 26 1004 95 10000 0 0 16:59 24.01.2022
5728 Rain 26 1005 94 9000 2.06 230 16:31 24.01.2022
5729 Rain 26 1006 94 10000 1.03 190 15:25 24.01.2022
5730 Clouds 25 1004 94 10000 1.54 250 13:58 24.01.2022
5731 Clear 26 1004 93 10000 1.54 260 12:34 24.01.2022
5732 Clouds 26 1003 93 10000 1.03 320 11:41 24.01.2022
5733 Rain 26 1002 91 10000 2.57 270 10:19 24.01.2022
5734 Rain 26 1002 90 10000 2.57 240 09:44 24.01.2022
5735 Rain 25 1005 90 10000 5.66 250 08:18 24.01.2022
5736 Clouds 29 1006 82 10000 2.57 280 01:39 24.01.2022
5737 Clouds 29 1006 84 10000 2.57 250 00:55 24.01.2022
5738 Clouds 28 1006 88 10000 0.51 250 00:30 24.01.2022
5739 Clouds 27 1005 90 10000 1.03 260 23:39 23.01.2022
5740 Clouds 26 1004 87 10000 3.09 280 22:20 23.01.2022
5741 Clouds 26 1003 87 10000 6.69 280 21:40 23.01.2022
5742 Clouds 26 1003 88 10000 6.69 280 21:20 23.01.2022
5743 Clouds 25 1003 89 10000 7.2 290 20:22 23.01.2022
5744 Clouds 25 1004 94 10000 5.14 300 18:56 23.01.2022
5745 Clouds 25 1004 94 10000 2.06 310 18:24 23.01.2022
5746 Rain 25 1006 91 10000 2.06 270 16:56 23.01.2022
5747 Clouds 25 1007 91 10000 3.09 270 15:56 23.01.2022
5748 Rain 25 1007 94 10000 3.6 230 14:52 23.01.2022
5749 Rain 25 1007 94 10000 3.6 230 14:18 23.01.2022
5750 Rain 26 1005 94 10000 1.03 190 12:46 23.01.2022
5751 Rain 25 1005 94 10000 1.03 190 12:20 23.01.2022
5752 Rain 26 1005 94 10000 5.14 300 11:26 23.01.2022
5753 Rain 26 1005 93 10000 1.54 350 10:57 23.01.2022
5754 Rain 26 1006 92 10000 0.51 60 10:25 23.01.2022
5755 Rain 26 1006 92 10000 1.03 70 09:31 23.01.2022
5756 Rain 26 1004 93 10000 1.54 110 08:49 23.01.2022
5757 Clouds 29 1008 78 10000 4.12 270 03:49 23.01.2022
5758 Clouds 27 1006 93 10000 1.54 210 01:38 23.01.2022
5759 Rain 26 1007 91 10000 1.54 230 00:47 23.01.2022
5760 Rain 26 1006 94 10000 4.12 240 23:59 22.01.2022
5761 Thunderstorm 25 1006 94 10000 3.6 230 22:53 22.01.2022
5762 Rain 25 1006 96 2000 3.6 290 22:33 22.01.2022
5763 Clouds 28 1004 84 10000 2.57 250 20:46 22.01.2022
5764 Clouds 28 1004 83 10000 4.12 270 19:46 22.01.2022
5765 Clouds 28 1005 85 10000 4.12 280 18:38 22.01.2022
5766 Clouds 28 1008 89 10000 4.12 280 17:49 22.01.2022
5767 Clouds 27 1005 92 10000 1.03 240 17:29 22.01.2022
5768 Clouds 27 1006 92 10000 1.03 270 16:54 22.01.2022
5769 Clouds 27 1007 90 10000 1.03 280 15:45 22.01.2022
5770 Rain 27 1006 90 10000 2.06 270 14:56 22.01.2022
5771 Rain 28 1010 89 10000 1.54 270 13:31 22.01.2022
5772 Rain 28 1006 86 10000 2.57 260 12:40 22.01.2022
5773 Rain 28 1006 86 10000 2.57 260 12:20 22.01.2022
5774 Rain 29 1005 82 10000 4.12 280 10:55 22.01.2022
5775 Rain 29 1004 81 10000 3.6 290 10:27 22.01.2022
5776 Rain 30 1004 77 10000 2.57 290 09:43 22.01.2022
5777 Clouds 30 1004 75 10000 3.6 300 08:51 22.01.2022
5778 Clouds 31 1004 76 10000 3.09 280 07:27 22.01.2022
5779 Clouds 32 1007 72 10000 3.6 310 03:26 22.01.2022
5780 Clouds 29 1006 82 10000 2.57 340 00:57 22.01.2022
5781 Clouds 27 1006 93 10000 0.51 340 23:21 21.01.2022
5782 Clouds 26 1010 90 8000 1.03 40 22:19 21.01.2022
5783 Clouds 26 1006 89 10000 1.54 330 19:55 21.01.2022
5784 Clouds 27 1009 85 10000 3.09 330 18:23 21.01.2022
5785 Clouds 28 1010 84 10000 3.09 340 16:58 21.01.2022
5786 Clouds 27 1007 90 10000 2.06 350 15:26 21.01.2022
5787 Clouds 28 1006 83 10000 3.09 320 13:18 21.01.2022
5788 Rain 28 1005 84 10000 3.09 350 12:26 21.01.2022
5789 Clouds 28 1005 84 10000 2.57 350 11:26 21.01.2022
5790 Rain 29 1005 83 10000 3.6 350 09:34 21.01.2022
5791 Clouds 29 1004 81 10000 3.6 340 08:21 21.01.2022
5792 Rain 28 1006 88 10000 2.57 60 04:37 21.01.2022
5793 Clouds 26 1006 91 10000 1.54 110 23:20 20.01.2022
5794 Clouds 25 1005 94 10000 2.06 120 21:50 20.01.2022
5795 Clouds 25 1004 94 10000 2.06 110 21:31 20.01.2022
5796 Clouds 25 1004 94 10000 1.54 80 20:31 20.01.2022
5797 Clouds 25 1004 94 10000 1.54 50 19:19 20.01.2022
5798 Rain 25 1005 94 10000 0.51 110 18:18 20.01.2022
5799 Clouds 25 1006 94 10000 2.57 130 16:40 20.01.2022
5800 Clouds 26 1007 94 10000 1.54 170 15:40 20.01.2022
5801 Clouds 26 1007 94 10000 2.06 170 14:40 20.01.2022
5802 Rain 26 1008 94 10000 2.06 200 13:32 20.01.2022
5803 Rain 26 1007 94 10000 1.54 310 12:31 20.01.2022
5804 Rain 26 1006 94 10000 1.03 310 11:36 20.01.2022
5805 Rain 26 1005 91 10000 1.54 350 10:37 20.01.2022
5806 Rain 27 1004 91 10000 2.57 330 09:29 20.01.2022
5807 Rain 26 1004 93 1000 4.12 20 07:33 20.01.2022
5808 Clouds 29 1006 81 10000 1.03 120 00:43 20.01.2022
5809 Clouds 26 1005 94 10000 1.54 120 22:52 19.01.2022
5810 Clouds 26 1005 94 10000 1.54 140 21:48 19.01.2022
5811 Clouds 26 1005 93 10000 1.03 140 21:23 19.01.2022
5812 Clouds 26 1004 93 10000 1.03 130 20:46 19.01.2022
5813 Clouds 26 1006 92 10000 1.54 90 19:42 19.01.2022
5814 Clouds 27 1007 86 10000 2.57 340 17:55 19.01.2022
5815 Clouds 27 1007 88 10000 3.09 330 17:35 19.01.2022
5816 Rain 27 1006 88 10000 3.6 320 16:46 19.01.2022
5817 Clouds 27 1006 88 10000 2.57 340 14:42 19.01.2022
5818 Rain 26 1005 92 10000 2.57 350 12:41 19.01.2022
5819 Clouds 25 1004 91 8000 1.54 350 11:39 19.01.2022
5820 Clouds 28 1005 82 10000 3.6 340 10:20 19.01.2022
5821 Clouds 30 1004 71 10000 3.6 310 09:34 19.01.2022
5822 Clouds 30 1004 76 10000 3.6 300 06:35 19.01.2022
5823 Rain 27 1009 85 2000 1.03 170 02:38 19.01.2022
5824 Clouds 27 1007 94 10000 2.06 140 23:19 18.01.2022
5825 Clouds 26 1004 94 10000 1.54 150 22:19 18.01.2022
5826 Clouds 27 1003 91 10000 1.54 190 20:55 18.01.2022
5827 Clouds 27 1003 90 10000 1.54 260 19:54 18.01.2022
5828 Clouds 27 1003 90 10000 1.03 250 19:36 18.01.2022
5829 Clouds 27 1003 90 10000 1.03 260 18:51 18.01.2022
5830 Clouds 28 1006 90 10000 1.03 260 17:58 18.01.2022
5831 Clouds 28 1005 86 10000 2.57 250 16:40 18.01.2022
5832 Clouds 28 1005 86 10000 2.57 260 15:41 18.01.2022
5833 Clouds 28 1005 86 10000 2.57 260 15:21 18.01.2022
5834 Rain 29 1005 85 10000 2.06 270 12:33 18.01.2022
5835 Clouds 29 1005 77 10000 3.6 260 10:47 18.01.2022
5836 Clouds 31 1004 71 10000 4.63 280 08:49 18.01.2022
5837 Rain 30 1004 75 10000 4.12 290 07:51 18.01.2022
5838 Clouds 30 1007 77 10000 4.63 310 02:33 18.01.2022
5839 Clouds 28 1006 87 10000 2.57 280 23:38 17.01.2022
5840 Clouds 27 1006 86 10000 2.57 270 22:26 17.01.2022
5841 Clouds 27 1005 86 10000 2.57 270 21:34 17.01.2022
5842 Rain 27 1010 86 10000 3.09 270 20:24 17.01.2022
5843 Clouds 27 1006 86 10000 3.6 270 18:30 17.01.2022
5844 Clouds 26 1006 90 10000 3.09 270 17:25 17.01.2022
5845 Clouds 26 1014 89 10000 1.54 270 16:40 17.01.2022
5846 Clouds 26 1007 89 10000 1.54 230 15:19 17.01.2022
5847 Clouds 26 1007 87 10000 1.54 230 14:55 17.01.2022
5848 Clouds 26 1007 87 10000 2.57 250 13:22 17.01.2022
5849 Clouds 27 1007 87 10000 4.63 230 12:55 17.01.2022
5850 Clouds 27 1007 86 10000 2.57 250 11:49 17.01.2022
5851 Clouds 29 1006 82 10000 3.09 280 10:21 17.01.2022
5852 Clouds 29 1006 81 10000 1.54 270 09:34 17.01.2022
5853 Rain 28 1006 84 10000 3.6 210 07:24 17.01.2022
5854 Rain 27 1008 85 5000 6.69 250 02:59 17.01.2022
5855 Clouds 29 1009 85 10000 1.03 80 00:55 17.01.2022
5856 Clouds 26 1007 93 10000 1.54 200 22:29 16.01.2022
5857 Clouds 27 1006 87 10000 2.57 250 20:36 16.01.2022
5858 Clouds 27 1006 90 10000 3.6 270 18:51 16.01.2022
5859 Rain 27 1006 91 10000 3.6 300 17:59 16.01.2022
5860 Rain 26 1007 94 10000 3.09 310 17:21 16.01.2022
5861 Rain 26 1006 94 10000 2.06 350 16:33 16.01.2022
5862 Rain 26 1008 96 10000 1.54 330 14:31 16.01.2022
5863 Rain 26 1008 94 10000 2.06 350 13:46 16.01.2022
5864 Clouds 26 1008 94 10000 0.51 280 12:48 16.01.2022
5865 Rain 26 1009 94 10000 1.54 280 11:42 16.01.2022
5866 Rain 26 1009 94 10000 2.57 280 10:54 16.01.2022
5867 Rain 26 1009 94 10000 4.12 270 10:19 16.01.2022
5868 Rain 26 1009 94 10000 4.12 270 10:19 16.01.2022
5869 Rain 26 1008 89 10000 2.57 280 09:51 16.01.2022
5870 Rain 26 1008 89 10000 2.57 280 09:22 16.01.2022
5871 Rain 26 1008 89 10000 2.57 280 09:22 16.01.2022
5872 Rain 25 1008 94 3000 2.57 260 07:33 16.01.2022
5873 Clouds 31 1009 70 10000 4.63 340 02:36 16.01.2022
5874 Clouds 30 1008 80 10000 4.12 350 23:49 15.01.2022
5875 Clouds 28 1007 89 10000 2.57 350 21:46 15.01.2022
5876 Clouds 28 1007 88 10000 2.57 350 21:19 15.01.2022
5877 Clouds 28 1007 86 10000 3.6 340 20:40 15.01.2022
5878 Clouds 28 1007 89 10000 3.6 350 19:29 15.01.2022
5879 Clouds 28 1007 89 10000 3.09 360 18:44 15.01.2022
5880 Clouds 28 1007 89 10000 3.09 360 17:25 15.01.2022
5881 Clouds 28 1008 87 10000 3.09 350 15:50 15.01.2022
5882 Clouds 29 1008 83 10000 4.12 330 13:55 15.01.2022
5883 Rain 30 1006 79 10000 5.14 300 11:46 15.01.2022
5884 Clouds 30 1008 76 10000 4.63 310 10:36 15.01.2022
5885 Clouds 32 1006 67 10000 6.17 310 07:48 15.01.2022
5886 Clouds 28 1008 87 10000 3.6 10 23:50 14.01.2022
5887 Clouds 26 1006 94 10000 2.06 60 21:52 14.01.2022
5888 Clouds 26 1007 94 10000 2.06 90 20:37 14.01.2022
5889 Clouds 26 1006 94 10000 2.06 70 19:58 14.01.2022
5890 Clouds 26 1006 93 10000 2.06 70 18:48 14.01.2022
5891 Clouds 26 1007 91 10000 2.06 70 17:57 14.01.2022
5892 Clouds 26 1007 93 10000 1.54 70 16:48 14.01.2022
5893 Clear 26 1008 93 10000 1.54 50 15:37 14.01.2022
5894 Rain 26 1008 93 10000 3.09 50 14:38 14.01.2022
5895 Rain 27 1008 90 10000 2.06 50 13:34 14.01.2022
5896 Rain 27 1007 89 10000 3.6 40 12:24 14.01.2022
5897 Rain 27 1007 85 10000 3.6 40 10:50 14.01.2022
5898 Rain 28 1006 83 10000 5.14 30 08:54 14.01.2022
5899 Rain 28 1006 83 10000 5.14 30 08:20 14.01.2022
5900 Clouds 32 1007 70 10000 5.66 20 03:55 14.01.2022
5901 Clouds 29 1007 86 10000 4.12 20 00:50 14.01.2022
5902 Clouds 26 1007 94 10000 2.06 10 22:46 13.01.2022
5903 Clouds 26 1005 94 10000 2.57 20 21:31 13.01.2022
5904 Clouds 26 1005 92 10000 3.09 20 20:56 13.01.2022
5905 Rain 27 1005 88 10000 1.54 360 19:32 13.01.2022
5906 Rain 27 1007 88 10000 3.09 280 18:57 13.01.2022
5907 Clouds 27 1006 88 10000 2.57 360 17:25 13.01.2022
5908 Clouds 27 1007 85 10000 2.06 350 16:19 13.01.2022
5909 Clouds 28 1007 84 10000 2.57 360 15:35 13.01.2022
5910 Clouds 28 1007 85 10000 4.12 360 13:48 13.01.2022
5911 Rain 28 1006 85 10000 4.12 360 12:25 13.01.2022
5912 Rain 26 1007 93 10000 3.09 330 09:38 13.01.2022
5913 Rain 27 1004 89 8000 5.66 330 08:57 13.01.2022
5914 Rain 29 1004 81 10000 6.69 340 08:26 13.01.2022
5915 Rain 27 1007 89 10000 6.69 340 07:22 13.01.2022
5916 Clouds 27 1007 88 10000 3.6 350 05:59 13.01.2022
5917 Rain 31 1009 72 10000 5.66 300 05:19 13.01.2022
5918 Clouds 31 1006 62 10000 6.17 320 01:53 13.01.2022
5919 Clouds 30 1006 79 10000 5.66 340 00:40 13.01.2022
5920 Clouds 29 1005 80 10000 6.69 340 23:45 12.01.2022
5921 Clouds 29 1005 81 10000 6.17 350 22:59 12.01.2022
5922 Rain 28 1004 78 10000 5.66 350 21:57 12.01.2022
5923 Rain 29 1003 76 10000 5.66 340 21:22 12.01.2022
5924 Rain 29 1003 76 10000 4.63 340 20:56 12.01.2022
5925 Rain 29 1007 77 10000 8.75 320 19:41 12.01.2022
5926 Clouds 29 1003 77 10000 5.66 320 18:30 12.01.2022
5927 Clouds 29 1003 77 10000 5.66 320 18:30 12.01.2022
5928 Clouds 28 1004 80 10000 4.63 310 17:20 12.01.2022
5929 Clouds 28 1005 80 10000 5.66 300 16:28 12.01.2022
5930 Clouds 28 1006 79 10000 4.63 290 14:48 12.01.2022
5931 Clouds 28 1006 78 10000 5.66 310 12:59 12.01.2022
5932 Clouds 28 1006 78 10000 5.66 310 12:59 12.01.2022
5933 Clouds 28 1005 80 10000 4.12 300 10:48 12.01.2022
5934 Clear 29 1004 74 10000 5.66 310 08:38 12.01.2022
5935 Clear 29 1004 73 10000 5.66 310 07:49 12.01.2022
5936 Clear 29 1004 73 10000 5.66 310 07:31 12.01.2022
5937 Rain 23 1010 94 10000 5.66 120 23:53 11.01.2022
5938 Rain 22 1009 94 2000 9.77 90 22:54 11.01.2022
5939 Thunderstorm 22 1008 94 600 10.8 90 22:22 11.01.2022
5940 Rain 29 1005 81 10000 6.17 290 20:54 11.01.2022
5941 Rain 29 1005 81 10000 6.69 290 19:50 11.01.2022
5942 Clouds 29 1005 79 10000 8.23 290 18:32 11.01.2022
5943 Clouds 29 1005 82 10000 7.72 300 17:26 11.01.2022
5944 Clouds 29 1006 81 10000 7.2 300 16:38 11.01.2022
5945 Clouds 29 1007 81 10000 7.2 300 15:47 11.01.2022
5946 Clouds 29 1007 82 10000 6.17 310 14:42 11.01.2022
5947 Clouds 30 1007 81 10000 6.17 300 13:56 11.01.2022
5948 Clouds 30 1007 80 10000 6.69 300 13:36 11.01.2022
5949 Clouds 30 1007 80 10000 5.66 290 12:48 11.01.2022
5950 Clouds 30 1007 80 10000 4.63 290 11:45 11.01.2022
5951 Clouds 32 1006 73 10000 7.72 300 09:58 11.01.2022
5952 Clouds 33 1007 64 10000 6.69 280 07:18 11.01.2022
5953 Clouds 31 1009 75 10000 4.63 270 00:33 11.01.2022
5954 Clouds 30 1009 79 10000 4.12 270 23:44 10.01.2022
5955 Clouds 30 1009 80 10000 4.12 270 23:24 10.01.2022
5956 Clouds 28 1008 82 10000 4.63 280 22:19 10.01.2022
5957 Clouds 28 1007 82 10000 4.63 290 21:54 10.01.2022
5958 Clouds 28 1007 82 10000 5.14 290 21:21 10.01.2022
5959 Clouds 28 1007 82 10000 4.63 300 20:57 10.01.2022
5960 Clouds 28 1007 82 10000 4.63 310 20:28 10.01.2022
5961 Clouds 28 1007 82 10000 4.63 300 19:44 10.01.2022
5962 Clouds 28 1007 83 10000 3.6 280 19:21 10.01.2022
5963 Clouds 27 1007 85 10000 3.09 290 18:50 10.01.2022
5964 Clouds 28 1008 84 10000 2.06 260 17:56 10.01.2022
5965 Clouds 28 1009 82 10000 2.57 250 16:42 10.01.2022
5966 Clear 29 1009 81 10000 2.06 260 15:49 10.01.2022
5967 Clear 29 1009 80 10000 3.09 270 14:34 10.01.2022
5968 Clear 29 1008 74 10000 3.6 270 12:22 10.01.2022
5969 Clouds 30 1008 71 10000 4.63 260 11:25 10.01.2022
5970 Clouds 32 1007 68 10000 5.66 280 09:53 10.01.2022
5971 Clouds 33 1007 65 10000 6.69 270 08:22 10.01.2022
5972 Clouds 33 1008 65 10000 6.69 280 05:50 10.01.2022
5973 Clouds 32 1010 73 10000 3.09 280 01:33 10.01.2022
5974 Clouds 30 1010 74 10000 1.03 280 00:29 10.01.2022
5975 Clouds 29 1009 75 10000 1.03 70 23:43 09.01.2022
5976 Clouds 26 1008 83 10000 1.03 70 22:42 09.01.2022
5977 Clear 26 1008 81 10000 0 0 21:47 09.01.2022
5978 Clear 26 1008 82 10000 0 0 21:24 09.01.2022
5979 Clear 26 1008 82 10000 0 0 21:24 09.01.2022
5980 Clouds 26 1008 83 10000 1.03 70 20:54 09.01.2022
5981 Clouds 26 1007 83 10000 2.57 70 20:36 09.01.2022
5982 Rain 26 1007 83 10000 2.57 70 20:18 09.01.2022
5983 Rain 26 1008 81 10000 4.63 60 19:37 09.01.2022
5984 Clouds 26 1008 81 10000 4.63 60 19:18 09.01.2022
5985 Clouds 27 1009 82 10000 2.57 70 18:37 09.01.2022
5986 Clouds 27 1008 79 10000 1.54 310 17:48 09.01.2022
5987 Clouds 27 1010 77 10000 0.51 200 17:26 09.01.2022
5988 Clouds 28 1009 79 10000 3.6 190 16:38 09.01.2022
5989 Clouds 29 1011 74 10000 4.12 200 15:38 09.01.2022
5990 Clouds 29 1010 77 10000 4.12 210 14:41 09.01.2022
5991 Clouds 29 1010 77 10000 4.12 210 14:21 09.01.2022
5992 Clouds 29 1009 80 10000 3.09 250 13:41 09.01.2022
5993 Clouds 29 1007 71 10000 3.6 270 11:56 09.01.2022
5994 Clouds 30 1007 72 10000 4.12 280 11:25 09.01.2022
5995 Clouds 32 1005 66 10000 4.63 300 09:55 09.01.2022
5996 Clouds 33 1005 58 10000 3.6 280 08:56 09.01.2022
5997 Clouds 32 1007 63 10000 4.12 290 06:21 09.01.2022
5998 Clouds 30 1010 68 10000 4.12 330 01:28 09.01.2022
5999 Clouds 29 1010 73 10000 3.09 360 00:37 09.01.2022
6000 Clouds 27 1010 81 10000 1.03 350 23:30 08.01.2022
6001 Clouds 25 1009 88 10000 2.06 30 22:44 08.01.2022
6002 Clouds 25 1009 88 10000 3.6 10 21:27 08.01.2022
6003 Clouds 24 1009 94 10000 5.14 30 20:43 08.01.2022
6004 Clouds 24 1009 94 10000 5.14 30 20:21 08.01.2022
6005 Clouds 28 1009 82 10000 2.57 320 19:22 08.01.2022
6006 Clouds 29 1008 82 10000 4.63 300 17:31 08.01.2022
6007 Clouds 28 1008 82 10000 4.12 290 16:42 08.01.2022
6008 Clear 28 1009 85 10000 3.6 290 15:28 08.01.2022
6009 Clouds 29 1009 81 10000 5.14 300 13:58 08.01.2022
6010 Clouds 30 1007 75 10000 3.09 290 11:41 08.01.2022
6011 Clouds 31 1007 67 10000 4.63 290 10:33 08.01.2022
6012 Clouds 32 1006 65 10000 5.66 300 09:57 08.01.2022
6013 Clouds 33 1005 62 10000 5.14 290 09:34 08.01.2022
6014 Clouds 34 1008 62 10000 6.17 300 06:18 08.01.2022
6015 Clouds 32 1010 68 10000 5.14 260 01:41 08.01.2022
6016 Clouds 30 1009 81 10000 3.09 260 23:31 07.01.2022
6017 Clouds 28 1009 85 10000 3.6 260 21:49 07.01.2022
6018 Clouds 28 1008 84 10000 2.57 270 20:34 07.01.2022
6019 Clouds 28 1007 85 10000 3.09 290 19:27 07.01.2022
6020 Clouds 28 1007 85 10000 3.09 290 19:27 07.01.2022
6021 Clouds 28 1007 85 10000 3.6 290 18:49 07.01.2022
6022 Clouds 28 1008 85 10000 3.6 280 18:21 07.01.2022
6023 Clouds 28 1008 84 10000 2.57 270 17:24 07.01.2022
6024 Clear 28 1010 81 10000 3.6 280 14:56 07.01.2022
6025 Clear 29 1010 77 10000 4.12 280 13:52 07.01.2022
6026 Clouds 29 1009 79 10000 4.12 280 12:51 07.01.2022
6027 Clouds 30 1008 75 10000 4.63 280 11:28 07.01.2022
6028 Clouds 32 1008 62 10000 4.63 250 04:54 07.01.2022
6029 Clear 32 1009 62 10000 5.14 270 02:53 07.01.2022
6030 Clear 31 1009 65 10000 4.63 270 01:49 07.01.2022
6031 Clear 30 1009 74 10000 5.14 280 01:26 07.01.2022
6032 Clear 30 1008 75 10000 6.17 300 00:31 07.01.2022
6033 Clear 26 1008 89 10000 3.6 280 22:33 06.01.2022
6034 Clouds 24 1008 94 10000 3.09 360 20:51 06.01.2022
6035 Rain 24 1009 94 10000 4.63 10 20:18 06.01.2022
6036 Rain 24 1010 94 10000 3.6 40 19:39 06.01.2022
6037 Thunderstorm 24 1011 94 1300 5.66 150 17:52 06.01.2022
6038 Rain 23 1010 100 900 11.32 140 17:28 06.01.2022
6039 Rain 28 1010 81 10000 2.57 140 16:38 06.01.2022
6040 Clouds 29 1010 81 10000 0.51 330 15:44 06.01.2022
6041 Clouds 28 1010 81 10000 0.51 330 15:23 06.01.2022
6042 Clouds 28 1009 81 10000 1.03 330 14:20 06.01.2022
6043 Clouds 29 1008 78 10000 2.57 290 13:41 06.01.2022
6044 Clear 29 1007 77 10000 4.63 290 12:28 06.01.2022
6045 Clear 29 1007 77 10000 3.09 290 11:31 06.01.2022
6046 Clouds 29 1007 74 10000 4.12 280 10:59 06.01.2022
6047 Clouds 33 1007 58 10000 5.14 240 06:54 06.01.2022
6048 Clear 30 1008 66 10000 4.12 310 00:35 06.01.2022
6049 Clear 27 1008 82 10000 2.06 280 23:34 05.01.2022
6050 Clear 25 1008 89 10000 2.57 290 22:48 05.01.2022
6051 Clear 25 1007 86 10000 1.54 280 22:29 05.01.2022
6052 Clear 25 1007 82 10000 3.09 320 21:43 05.01.2022
6053 Clouds 26 1007 82 10000 4.63 340 20:44 05.01.2022
6054 Rain 26 1008 83 10000 3.6 340 19:46 05.01.2022
6055 Clouds 26 1009 88 10000 5.66 310 18:27 05.01.2022
6056 Rain 25 1008 90 10000 2.57 40 16:58 05.01.2022
6057 Rain 25 1007 89 10000 6.69 10 16:22 05.01.2022
6058 Rain 24 1008 84 10000 6.69 10 15:20 05.01.2022
6059 Thunderstorm 24 1009 81 10000 10.8 120 13:37 05.01.2022
6060 Thunderstorm 27 1009 81 10000 7.2 50 12:46 05.01.2022
6061 Clouds 31 1004 72 10000 6.17 290 08:47 05.01.2022
6062 Rain 31 1004 74 10000 5.66 300 07:20 05.01.2022
6063 Clouds 31 1007 74 10000 4.63 290 01:58 05.01.2022
6064 Clouds 30 1007 80 10000 3.09 260 23:44 04.01.2022
6065 Clouds 29 1007 83 10000 2.06 240 23:26 04.01.2022
6066 Clouds 27 1007 81 10000 3.09 260 22:21 04.01.2022
6067 Clouds 29 1006 84 10000 2.57 260 20:46 04.01.2022
6068 Clouds 29 1007 84 10000 4.12 280 18:46 04.01.2022
6069 Clouds 29 1005 82 10000 3.09 320 17:37 04.01.2022
6070 Clouds 29 1006 82 10000 4.12 310 16:39 04.01.2022
6071 Clouds 29 1007 82 10000 4.12 310 16:20 04.01.2022
6072 Clouds 30 1007 81 10000 5.66 320 14:46 04.01.2022
6073 Clouds 30 1007 81 10000 5.66 320 14:23 04.01.2022
6074 Clouds 30 1005 82 10000 4.12 310 12:37 04.01.2022
6075 Clouds 31 1004 76 10000 4.63 300 10:29 04.01.2022
6076 Clouds 32 1003 66 10000 4.63 310 08:59 04.01.2022
6077 Clouds 33 1005 66 10000 4.12 300 06:46 04.01.2022
6078 Clouds 27 1007 89 10000 1.03 90 00:50 04.01.2022
6079 Clouds 26 1008 87 10000 2.06 100 00:31 04.01.2022
6080 Clear 25 1006 94 10000 1.03 110 22:30 03.01.2022
6081 Clear 25 1006 94 10000 0 0 21:41 03.01.2022
6082 Clouds 25 1006 94 10000 1.03 110 20:51 03.01.2022
6083 Clouds 25 1005 94 10000 1.03 150 19:44 03.01.2022
6084 Clouds 25 1005 94 10000 0.51 130 18:33 03.01.2022
6085 Clouds 25 1006 94 10000 1.03 100 17:40 03.01.2022
6086 Clouds 25 1007 94 10000 2.57 80 16:56 03.01.2022
6087 Rain 25 1005 94 10000 2.06 340 14:54 03.01.2022
6088 Clear 24 1004 94 10000 1.03 20 13:53 03.01.2022
6089 Rain 24 1006 94 10000 1.54 80 12:33 03.01.2022
6090 Rain 24 1007 88 10000 3.6 150 11:31 03.01.2022
6091 Rain 24 1008 94 10000 6.69 180 09:49 03.01.2022
6092 Rain 24 1009 94 1500 8.23 140 08:28 03.01.2022
6093 Clouds 33 1005 65 10000 7.2 290 06:47 03.01.2022
6094 Clouds 30 1007 75 10000 4.12 270 23:47 02.01.2022
6095 Clouds 30 1007 77 10000 4.12 270 23:18 02.01.2022
6096 Clouds 29 1006 81 10000 3.09 270 22:42 02.01.2022
6097 Clouds 29 1005 81 10000 4.12 270 21:32 02.01.2022
6098 Clouds 29 1004 84 10000 3.6 270 20:31 02.01.2022
6099 Clouds 29 1004 84 10000 3.6 270 20:30 02.01.2022
6100 Clouds 29 1004 84 10000 3.6 270 20:30 02.01.2022
6101 Clouds 29 1004 84 10000 3.6 270 20:30 02.01.2022
6102 Clouds 29 1006 84 10000 3.09 280 19:31 02.01.2022
6103 Clouds 29 1006 84 10000 3.6 280 18:56 02.01.2022
6104 Clouds 29 1005 84 10000 3.6 270 17:59 02.01.2022
6105 Clouds 29 1006 84 10000 3.09 270 17:39 02.01.2022
6106 Clouds 29 1005 84 10000 3.09 270 17:21 02.01.2022
6107 Clouds 29 1006 83 10000 2.57 280 16:28 02.01.2022
6108 Clouds 29 1008 78 10000 4.12 290 15:18 02.01.2022
6109 Clouds 29 1007 81 10000 3.6 280 13:38 02.01.2022
6110 Clouds 30 1006 80 10000 3.6 290 12:32 02.01.2022
6111 Clouds 29 1006 81 10000 4.12 280 11:49 02.01.2022
6112 Clouds 30 1005 75 10000 4.63 280 10:55 02.01.2022
6113 Clouds 31 1005 71 10000 5.66 300 09:58 02.01.2022
6114 Clouds 34 1005 62 10000 7.2 300 07:35 02.01.2022
6115 Clouds 32 1008 70 10000 4.63 260 02:56 02.01.2022
6116 Clouds 30 1008 79 10000 2.57 270 23:45 01.01.2022
6117 Clouds 30 1008 79 10000 2.57 270 23:24 01.01.2022
6118 Clouds 28 1008 82 10000 2.57 270 22:25 01.01.2022
6119 Clouds 28 1007 81 10000 2.57 270 21:54 01.01.2022
6120 Clouds 28 1007 82 10000 2.57 270 21:36 01.01.2022
6121 Clouds 29 1008 81 10000 3.6 280 20:27 01.01.2022
6122 Clouds 29 1007 81 10000 3.6 280 19:36 01.01.2022
6123 Clouds 28 1007 83 10000 3.09 280 18:51 01.01.2022
6124 Clouds 29 1008 82 10000 3.09 280 17:38 01.01.2022
6125 Clouds 29 1009 84 10000 2.57 280 16:35 01.01.2022
6126 Clouds 29 1009 81 10000 2.57 280 15:42 01.01.2022
6127 Clouds 29 1009 82 10000 2.57 280 14:39 01.01.2022
6128 Clouds 29 1008 78 10000 2.57 270 13:41 01.01.2022
6129 Clouds 30 1008 77 10000 3.09 280 12:25 01.01.2022
6130 Clouds 30 1007 77 10000 3.6 270 11:25 01.01.2022
6131 Clouds 30 1007 75 10000 3.6 270 10:56 01.01.2022
6132 Clouds 31 1006 71 10000 6.17 290 09:48 01.01.2022
6133 Clouds 32 1006 67 10000 7.2 300 08:39 01.01.2022
6134 Clouds 33 1006 62 10000 7.2 300 07:57 01.01.2022
6135 Clouds 33 1006 62 10000 6.69 310 07:38 01.01.2022
6136 Clouds 33 1007 62 10000 7.2 300 06:44 01.01.2022
6137 Clouds 33 1008 61 10000 6.17 310 04:40 01.01.2022
6138 Clouds 32 1010 63 10000 5.66 310 03:52 01.01.2022
6139 Clouds 30 1009 76 10000 3.09 280 23:55 31.12.2021
6140 Clouds 28 1008 84 10000 2.57 270 22:30 31.12.2021
6141 Clouds 28 1008 85 10000 3.09 280 21:47 31.12.2021
6142 Clouds 27 1007 85 10000 2.57 280 19:48 31.12.2021
6143 Clouds 28 1007 84 10000 2.57 270 19:28 31.12.2021
6144 Clouds 28 1009 84 10000 3.09 290 17:56 31.12.2021
6145 Clouds 28 1009 84 10000 2.57 280 17:28 31.12.2021
6146 Clouds 28 1009 82 10000 2.06 260 16:52 31.12.2021
6147 Clouds 28 1008 83 10000 2.57 270 16:18 31.12.2021
6148 Clouds 29 1009 85 10000 2.06 270 15:50 31.12.2021
6149 Clouds 29 1009 84 10000 2.06 270 15:27 31.12.2021
6150 Clouds 29 1009 85 10000 2.06 270 14:41 31.12.2021
6151 Clouds 29 1008 85 10000 2.06 270 13:55 31.12.2021
6152 Clouds 29 1008 82 10000 2.06 270 12:53 31.12.2021
6153 Clouds 29 1008 79 10000 3.09 260 12:26 31.12.2021
6154 Clouds 29 1007 78 10000 3.6 270 11:42 31.12.2021
6155 Clouds 30 1007 77 10000 4.12 270 10:56 31.12.2021
6156 Clouds 30 1006 76 10000 5.14 270 10:28 31.12.2021
6157 Clouds 31 1006 74 10000 5.14 290 09:35 31.12.2021
6158 Clouds 32 1007 67 10000 6.17 300 08:54 31.12.2021
6159 Clouds 32 1007 66 10000 6.17 300 08:23 31.12.2021
6160 Clouds 34 1007 64 10000 6.17 300 06:24 31.12.2021
6161 Clouds 30 1008 80 10000 4.63 300 23:19 30.12.2021
6162 Clouds 29 1008 81 10000 5.66 300 22:32 30.12.2021
6163 Clouds 29 1007 82 10000 4.12 280 21:40 30.12.2021
6164 Clouds 28 1007 82 10000 4.12 280 21:20 30.12.2021
6165 Clouds 28 1007 81 10000 6.17 290 20:40 30.12.2021
6166 Clouds 29 1007 84 10000 3.09 270 19:58 30.12.2021
6167 Clouds 29 1008 84 10000 3.09 270 19:34 30.12.2021
6168 Clouds 29 1007 81 10000 4.12 280 18:29 30.12.2021
6169 Clouds 28 1007 84 10000 3.6 270 17:34 30.12.2021
6170 Clouds 28 1008 85 10000 2.57 270 15:54 30.12.2021
6171 Clouds 28 1008 83 10000 3.09 280 15:22 30.12.2021
6172 Clear 28 1008 81 10000 2.57 280 14:36 30.12.2021
6173 Clear 29 1007 80 10000 3.6 280 13:31 30.12.2021
6174 Clouds 29 1007 80 10000 3.6 290 11:58 30.12.2021
6175 Clouds 30 1006 70 10000 4.12 270 10:40 30.12.2021
6176 Clouds 32 1006 63 10000 6.17 270 09:50 30.12.2021
6177 Clouds 32 1006 63 10000 6.17 270 09:50 30.12.2021
6178 Clouds 33 1005 61 10000 7.2 270 07:42 30.12.2021
6179 Clouds 33 1006 66 10000 7.2 270 06:38 30.12.2021
6180 Clouds 32 1008 69 10000 7.72 290 03:41 30.12.2021
6181 Clouds 32 1008 68 10000 6.17 290 02:38 30.12.2021
6182 Clouds 30 1008 81 10000 4.63 280 23:41 29.12.2021
6183 Clouds 29 1008 81 10000 4.12 280 22:59 29.12.2021
6184 Clouds 28 1007 82 10000 3.09 270 22:18 29.12.2021
6185 Clouds 28 1007 81 10000 3.6 280 21:27 29.12.2021
6186 Clouds 28 1008 80 10000 5.14 280 20:31 29.12.2021
6187 Clouds 29 1006 80 10000 4.12 270 19:44 29.12.2021
6188 Clouds 29 1008 80 10000 4.63 280 18:45 29.12.2021
6189 Clouds 29 1013 81 10000 4.63 270 17:54 29.12.2021
6190 Clouds 29 1013 81 10000 4.63 270 17:27 29.12.2021
6191 Clouds 29 1008 83 10000 5.66 280 16:24 29.12.2021
6192 Clouds 29 1008 82 10000 5.66 280 15:45 29.12.2021
6193 Clouds 29 1007 79 10000 7.2 300 13:55 29.12.2021
6194 Clouds 29 1007 78 10000 6.69 300 12:36 29.12.2021
6195 Clouds 30 1006 78 10000 5.14 290 11:35 29.12.2021
6196 Clouds 31 1006 75 10000 7.2 290 09:58 29.12.2021
6197 Clouds 32 1005 68 10000 7.72 290 07:51 29.12.2021
6198 Clouds 32 1005 69 10000 8.75 290 06:38 29.12.2021
6199 Clouds 32 1005 69 10000 8.75 290 06:18 29.12.2021
6200 Clouds 32 1005 68 10000 7.72 290 05:36 29.12.2021
6201 Rain 32 1007 70 10000 8.75 290 02:46 29.12.2021
6202 Clouds 30 1007 80 10000 7.72 300 00:23 29.12.2021
6203 Clouds 29 1006 81 10000 7.2 290 23:34 28.12.2021
6204 Clouds 29 1006 78 10000 7.72 290 22:42 28.12.2021
6205 Clouds 29 1006 78 10000 7.72 290 22:24 28.12.2021
6206 Clouds 28 1005 78 10000 7.2 290 21:37 28.12.2021
6207 Clouds 27 1004 79 10000 3.6 300 20:39 28.12.2021
6208 Clouds 26 1004 82 10000 5.14 300 19:24 28.12.2021
6209 Clouds 26 1004 85 10000 3.6 290 18:39 28.12.2021
6210 Clouds 25 1005 83 10000 3.6 270 17:59 28.12.2021
6211 Clouds 25 1014 88 10000 3.6 260 16:34 28.12.2021
6212 Rain 24 1005 88 10000 3.09 260 15:50 28.12.2021
6213 Rain 25 1006 78 10000 3.6 250 15:21 28.12.2021
6214 Rain 26 1007 80 10000 2.57 210 14:48 28.12.2021
6215 Rain 26 1007 80 10000 2.57 210 14:21 28.12.2021
6216 Clouds 27 1007 83 10000 3.6 270 13:42 28.12.2021
6217 Clouds 27 1007 83 10000 3.6 270 13:42 28.12.2021
6218 Clouds 29 1005 84 10000 3.6 270 13:24 28.12.2021
6219 Clouds 29 1005 80 10000 2.57 240 12:49 28.12.2021
6220 Clouds 29 1005 71 10000 5.66 260 11:46 28.12.2021
6221 Clouds 32 1002 58 10000 8.75 260 08:35 28.12.2021
6222 Clouds 31 1003 59 10000 7.2 230 06:42 28.12.2021
6223 Clouds 26 1004 78 10000 6.17 230 00:34 28.12.2021
6224 Clouds 25 1006 81 10000 5.66 230 23:24 27.12.2021
6225 Clouds 23 1001 86 10000 6.17 230 21:42 27.12.2021
6226 Clouds 23 1001 86 10000 6.17 230 21:21 27.12.2021
6227 Clouds 23 1000 89 10000 6.17 230 20:24 27.12.2021
6228 Clouds 24 1000 89 10000 6.17 240 19:41 27.12.2021
6229 Clouds 24 1000 90 10000 3.09 260 18:52 27.12.2021
6230 Clouds 24 1003 90 10000 3.6 180 17:49 27.12.2021
6231 Clouds 24 1004 94 10000 4.12 210 16:55 27.12.2021
6232 Rain 24 1001 94 10000 4.63 210 15:52 27.12.2021
6233 Drizzle 24 1001 94 3800 5.66 210 14:33 27.12.2021
6234 Rain 25 1001 94 6000 4.63 260 13:40 27.12.2021
6235 Rain 25 1001 91 10000 4.63 260 12:47 27.12.2021
6236 Rain 26 998 90 10000 5.14 280 10:32 27.12.2021
6237 Rain 26 998 87 10000 5.14 280 09:57 27.12.2021
6238 Clouds 28 998 85 10000 8.75 300 08:39 27.12.2021
6239 Clouds 28 1001 85 10000 8.75 310 07:32 27.12.2021
6240 Rain 27 1003 87 10000 8.75 330 02:24 27.12.2021
6241 Rain 25 1000 94 9000 7.72 320 23:58 26.12.2021
6242 Rain 25 1000 94 9000 7.72 320 23:58 26.12.2021
6243 Rain 26 1001 94 2000 8.23 330 23:40 26.12.2021
6244 Rain 26 1003 94 10000 6.69 340 22:36 26.12.2021
6245 Rain 25 1000 94 3000 5.14 330 21:29 26.12.2021
6246 Rain 26 999 92 10000 5.66 320 19:49 26.12.2021
6247 Clouds 26 1004 90 3700 6.69 260 18:25 26.12.2021
6248 Clouds 26 1003 89 10000 6.69 300 17:30 26.12.2021
6249 Rain 26 1002 93 9000 6.69 270 14:32 26.12.2021
6250 Rain 27 1005 87 9000 8.23 270 13:43 26.12.2021
6251 Clouds 27 1002 87 10000 9.26 300 13:20 26.12.2021
6252 Clouds 26 1002 93 10000 6.17 280 12:33 26.12.2021
6253 Clouds 26 1001 90 10000 10.29 290 10:44 26.12.2021
6254 Rain 27 1000 91 10000 5.66 270 09:28 26.12.2021
6255 Rain 26 1002 93 8000 9.26 280 08:44 26.12.2021
6256 Rain 27 1003 93 10000 8.75 290 07:59 26.12.2021
6257 Rain 26 1000 93 7000 5.14 320 01:36 26.12.2021
6258 Rain 26 1004 94 1500 7.2 310 23:58 25.12.2021
6259 Rain 26 1004 94 8000 8.75 340 23:28 25.12.2021
6260 Rain 25 999 91 10000 7.72 330 22:28 25.12.2021
6261 Rain 25 1003 93 3000 9.26 310 21:18 25.12.2021
6262 Rain 25 998 96 2600 10.29 310 19:28 25.12.2021
6263 Rain 26 998 94 2700 9.26 340 18:57 25.12.2021
6264 Rain 26 999 91 10000 13.38 310 18:25 25.12.2021
6265 Rain 26 999 91 10000 8.23 360 16:46 25.12.2021
6266 Rain 25 1005 92 8000 6.69 10 15:26 25.12.2021
6267 Rain 26 1001 93 10000 5.14 340 13:43 25.12.2021
6268 Rain 26 1000 90 10000 8.75 350 12:18 25.12.2021
6269 Rain 25 1003 94 3000 3.6 70 10:32 25.12.2021
6270 Rain 25 1002 94 8000 8.75 110 09:48 25.12.2021
6271 Rain 26 1000 94 6000 8.75 100 05:39 25.12.2021
6272 Rain 25 1002 93 10000 9.26 120 01:34 25.12.2021
6273 Rain 25 1003 93 10000 7.72 120 00:18 25.12.2021
6274 Rain 24 1002 94 10000 4.63 140 21:46 24.12.2021
6275 Rain 24 1002 98 8000 3.6 140 19:26 24.12.2021
6276 Rain 24 1003 97 10000 4.63 140 18:34 24.12.2021
6277 Rain 24 1004 97 10000 5.66 120 16:40 24.12.2021
6278 Rain 24 1005 97 10000 5.66 140 15:49 24.12.2021
6279 Rain 24 1005 97 10000 5.66 150 15:20 24.12.2021
6280 Rain 24 1006 94 10000 4.63 140 14:33 24.12.2021
6281 Rain 24 1005 94 10000 5.14 140 13:50 24.12.2021
6282 Rain 23 1005 94 10000 4.63 150 13:32 24.12.2021
6283 Rain 24 1005 94 9000 5.66 110 12:39 24.12.2021
6284 Rain 23 1006 90 2000 10.8 100 11:42 24.12.2021
6285 Rain 24 1006 90 2000 10.8 100 11:24 24.12.2021
6286 Rain 26 1004 94 10000 2.57 130 10:33 24.12.2021
6287 Rain 26 1003 93 10000 2.06 100 08:40 24.12.2021
6288 Rain 25 1004 94 10000 2.06 90 07:58 24.12.2021
6289 Rain 25 1004 94 10000 2.06 90 07:58 24.12.2021
6290 Rain 25 1004 94 10000 3.09 60 06:59 24.12.2021
6291 Rain 26 1007 94 10000 3.09 130 00:22 24.12.2021
6292 Rain 25 1006 94 10000 1.54 90 23:49 23.12.2021
6293 Rain 25 1006 91 10000 3.09 130 22:51 23.12.2021
6294 Rain 25 1006 91 10000 3.09 130 22:24 23.12.2021
6295 Clouds 26 1006 91 10000 3.6 110 21:39 23.12.2021
6296 Clouds 26 1005 93 10000 2.06 140 20:30 23.12.2021
6297 Clouds 25 1006 93 10000 1.54 110 19:30 23.12.2021
6298 Rain 26 1005 90 10000 2.06 130 18:27 23.12.2021
6299 Rain 25 1005 90 10000 2.06 150 17:46 23.12.2021
6300 Clouds 26 1006 94 10000 1.03 120 16:27 23.12.2021
6301 Clouds 26 1006 89 10000 2.06 120 15:49 23.12.2021
6302 Clouds 26 1006 89 10000 2.06 120 15:30 23.12.2021
6303 Clear 26 1006 91 10000 0 0 14:42 23.12.2021
6304 Clear 26 1006 94 10000 0.51 180 13:49 23.12.2021
6305 Clear 27 1006 89 10000 1.54 170 11:59 23.12.2021
6306 Rain 27 1005 85 10000 1.03 150 09:55 23.12.2021
6307 Clouds 27 1005 85 10000 1.54 170 09:34 23.12.2021
6308 Rain 27 1006 83 10000 2.06 140 08:41 23.12.2021
6309 Rain 25 1004 88 10000 0.51 80 06:20 23.12.2021
6310 Clouds 32 1007 63 10000 2.57 280 03:22 23.12.2021
6311 Clouds 27 1006 91 10000 2.06 110 22:54 22.12.2021
6312 Clouds 26 1006 94 10000 2.06 110 22:22 22.12.2021
6313 Clouds 27 1005 94 10000 1.54 110 21:48 22.12.2021
6314 Clouds 27 1005 94 10000 1.54 150 21:25 22.12.2021
6315 Rain 27 1005 91 10000 1.03 300 20:41 22.12.2021
6316 Rain 27 1005 94 10000 1.03 300 19:57 22.12.2021
6317 Clouds 27 1005 94 10000 1.03 300 18:56 22.12.2021
6318 Clouds 26 1006 94 10000 0 0 17:38 22.12.2021
6319 Clouds 27 1007 91 10000 1.54 300 16:32 22.12.2021
6320 Clouds 27 1008 90 10000 2.06 330 15:21 22.12.2021
6321 Clouds 28 1007 89 10000 2.06 330 12:59 22.12.2021
6322 Clouds 28 1006 83 10000 2.06 330 11:58 22.12.2021
6323 Rain 27 1005 85 10000 2.06 340 09:53 22.12.2021
6324 Clouds 28 1005 78 10000 3.09 160 08:58 22.12.2021
6325 Thunderstorm 24 1005 83 10000 5.66 250 07:22 22.12.2021
6326 Clouds 33 1006 61 10000 3.09 310 05:40 22.12.2021
6327 Clouds 34 1006 60 10000 3.09 310 05:21 22.12.2021
6328 Clouds 33 1007 65 10000 3.09 300 04:43 22.12.2021
6329 Clouds 33 1007 63 10000 3.6 280 04:19 22.12.2021
6330 Clouds 33 1008 62 10000 0.51 150 03:32 22.12.2021
6331 Clouds 30 1007 81 10000 2.57 120 23:57 21.12.2021
6332 Clouds 28 1007 89 10000 1.54 120 22:49 21.12.2021
6333 Clouds 27 1007 90 10000 1.54 120 22:27 21.12.2021
6334 Clouds 27 1007 90 10000 1.54 140 21:43 21.12.2021
6335 Clouds 27 1006 90 10000 1.54 190 20:53 21.12.2021
6336 Clouds 27 1007 90 10000 1.54 210 20:20 21.12.2021
6337 Clouds 27 1006 90 10000 2.06 220 19:41 21.12.2021
6338 Clouds 27 1007 90 10000 1.54 220 18:38 21.12.2021
6339 Clouds 27 1007 90 10000 1.54 230 17:59 21.12.2021
6340 Clouds 27 1007 89 10000 1.03 270 17:40 21.12.2021
6341 Clouds 27 1008 85 10000 0 0 15:47 21.12.2021
6342 Clouds 27 1008 85 10000 0 0 15:19 21.12.2021
6343 Clouds 28 1008 80 10000 2.57 280 13:47 21.12.2021
6344 Clouds 29 1008 80 10000 2.57 280 13:29 21.12.2021
6345 Clouds 30 1007 75 10000 3.6 280 10:55 21.12.2021
6346 Clouds 31 1006 69 10000 4.63 260 09:57 21.12.2021
6347 Clouds 32 1006 65 10000 5.66 290 09:18 21.12.2021
6348 Clouds 33 1007 63 10000 6.17 300 07:54 21.12.2021
6349 Clouds 33 1007 62 10000 6.17 300 07:25 21.12.2021
6350 Clouds 33 1009 57 10000 3.09 210 04:56 21.12.2021
6351 Clouds 31 1010 64 10000 1.54 60 02:39 21.12.2021
6352 Clouds 27 1011 78 10000 2.06 110 23:58 20.12.2021
6353 Clouds 26 1010 88 10000 1.54 110 23:24 20.12.2021
6354 Clouds 23 1010 94 10000 2.06 60 22:28 20.12.2021
6355 Clear 23 1009 94 10000 1.03 10 21:43 20.12.2021
6356 Clear 23 1009 94 10000 0.51 10 21:23 20.12.2021
6357 Clouds 23 1009 94 10000 1.54 40 20:42 20.12.2021
6358 Clouds 24 1010 88 10000 2.06 210 19:50 20.12.2021
6359 Clouds 24 1011 88 10000 1.03 210 19:30 20.12.2021
6360 Clouds 23 1009 94 10000 1.54 160 18:53 20.12.2021
6361 Clouds 23 1011 94 10000 2.57 140 17:52 20.12.2021
6362 Clouds 23 1011 94 10000 2.57 150 17:23 20.12.2021
6363 Clouds 23 1012 94 10000 3.09 150 16:38 20.12.2021
6364 Clouds 23 1011 93 10000 2.57 150 15:48 20.12.2021
6365 Clouds 23 1009 89 10000 2.57 130 14:42 20.12.2021
6366 Clouds 23 1009 90 10000 4.12 110 12:51 20.12.2021
6367 Clouds 24 1009 93 10000 6.69 140 11:19 20.12.2021
6368 Clear 25 1007 94 10000 5.14 340 09:47 20.12.2021
6369 Rain 23 1009 97 10000 3.6 330 08:58 20.12.2021
6370 Rain 23 1009 94 10000 0.51 270 08:40 20.12.2021
6371 Rain 23 1010 94 5000 2.06 120 07:49 20.12.2021
6372 Rain 23 1011 94 8000 4.63 140 07:25 20.12.2021
6373 Clouds 34 1011 59 10000 3.09 300 03:43 20.12.2021
6374 Clouds 31 1010 71 10000 3.6 310 23:58 19.12.2021
6375 Clouds 30 1009 76 10000 3.6 320 22:45 19.12.2021
6376 Clouds 29 1008 78 10000 2.57 340 21:50 19.12.2021
6377 Clouds 29 1008 78 10000 2.57 330 21:29 19.12.2021
6378 Clouds 29 1008 81 10000 3.6 300 20:30 19.12.2021
6379 Clouds 29 1010 80 10000 3.6 320 19:46 19.12.2021
6380 Clouds 29 1009 78 10000 2.57 310 18:58 19.12.2021
6381 Clouds 29 1009 80 10000 2.57 310 18:29 19.12.2021
6382 Clouds 29 1010 78 10000 2.06 330 17:51 19.12.2021
6383 Clouds 29 1010 79 10000 2.57 320 17:18 19.12.2021
6384 Clouds 29 1011 78 10000 2.57 300 16:26 19.12.2021
6385 Clouds 30 1011 76 10000 3.6 310 15:31 19.12.2021
6386 Clouds 30 1012 76 10000 3.09 300 14:59 19.12.2021
6387 Clouds 30 1011 78 10000 3.09 300 14:36 19.12.2021
6388 Clouds 30 1011 75 10000 2.57 300 13:22 19.12.2021
6389 Clouds 30 1011 75 10000 3.6 310 12:33 19.12.2021
6390 Clouds 30 1008 74 10000 3.6 320 11:44 19.12.2021
6391 Clouds 30 1007 74 10000 3.6 320 11:18 19.12.2021
6392 Clouds 31 1007 75 10000 5.14 340 10:25 19.12.2021
6393 Clouds 34 1007 55 10000 5.66 340 09:37 19.12.2021
6394 Clear 35 1007 43 10000 5.14 340 07:50 19.12.2021
6395 Clouds 34 1012 55 10000 4.63 340 04:45 19.12.2021
6396 Clouds 32 1014 66 10000 2.57 360 01:19 19.12.2021
6397 Clouds 31 1013 70 10000 3.09 10 00:52 19.12.2021
6398 Clouds 28 1009 84 10000 1.54 20 22:36 18.12.2021
6399 Clouds 27 1009 84 10000 2.06 10 21:57 18.12.2021
6400 Clouds 28 1009 83 10000 2.57 10 21:35 18.12.2021
6401 Clouds 28 1008 81 10000 1.54 360 20:44 18.12.2021
6402 Clouds 28 1008 80 10000 2.06 10 19:54 18.12.2021
6403 Clouds 28 1008 80 10000 2.06 360 19:20 18.12.2021
6404 Clouds 29 1008 80 10000 2.57 10 18:21 18.12.2021
6405 Clouds 29 1009 77 10000 2.57 10 17:48 18.12.2021
6406 Clouds 29 1010 77 10000 2.06 350 16:26 18.12.2021
6407 Clouds 30 1010 74 10000 2.57 340 15:26 18.12.2021
6408 Clouds 30 1010 74 10000 2.57 330 14:32 18.12.2021
6409 Clouds 31 1009 71 10000 2.06 300 13:21 18.12.2021
6410 Clouds 32 1007 63 10000 3.09 340 11:22 18.12.2021
6411 Clouds 33 1006 58 10000 3.09 330 09:40 18.12.2021
6412 Clouds 34 1006 52 10000 2.57 350 08:46 18.12.2021
6413 Clouds 35 1006 46 10000 3.09 350 08:19 18.12.2021
6414 Clouds 33 1009 58 10000 4.12 340 02:51 18.12.2021
6415 Clouds 30 1012 80 10000 1.54 160 00:28 18.12.2021
6416 Clouds 29 1008 85 10000 1.54 140 23:44 17.12.2021
6417 Clear 26 1007 91 10000 1.03 90 21:56 17.12.2021
6418 Clear 26 1007 91 10000 1.03 90 21:56 17.12.2021
6419 Clouds 26 1007 91 10000 1.54 70 21:18 17.12.2021
6420 Clouds 26 1007 91 10000 2.06 100 20:38 17.12.2021
6421 Clouds 27 1006 92 10000 1.03 110 19:19 17.12.2021
6422 Clouds 27 1007 90 10000 1.54 130 18:38 17.12.2021
6423 Clouds 27 1008 86 10000 2.06 170 17:31 17.12.2021
6424 Clouds 28 1008 85 10000 1.54 130 16:46 17.12.2021
6425 Clouds 28 1007 85 10000 3.09 30 16:22 17.12.2021
6426 Clouds 28 1008 84 10000 2.06 30 15:21 17.12.2021
6427 Clouds 28 1008 84 10000 2.06 30 15:21 17.12.2021
6428 Clear 27 1008 85 10000 2.06 130 14:39 17.12.2021
6429 Rain 28 1008 83 10000 2.06 190 12:46 17.12.2021
6430 Rain 29 1006 78 10000 1.54 270 11:34 17.12.2021
6431 Rain 30 1006 72 10000 1.54 250 10:37 17.12.2021
6432 Clouds 31 1006 70 10000 2.57 320 09:31 17.12.2021
6433 Clouds 31 1006 66 10000 4.63 290 08:30 17.12.2021
6434 Clouds 33 1006 57 10000 2.06 260 05:58 17.12.2021
6435 Clouds 32 1011 63 10000 4.12 190 02:53 17.12.2021
6436 Clouds 29 1008 81 10000 2.06 140 23:23 16.12.2021
6437 -273 0 0 0 0 0 22:24 16.12.2021
6438 -273 0 0 0 0 0 22:24 16.12.2021
6439 Clouds 28 1007 85 10000 1.54 110 22:24 16.12.2021
6440 Clouds 28 1007 85 10000 1.54 110 22:24 16.12.2021
6441 Clouds 28 1007 85 10000 1.54 110 22:23 16.12.2021
6442 Clouds 28 1007 85 10000 1.54 110 22:23 16.12.2021
6443 Clouds 28 1006 85 10000 0.51 250 21:44 16.12.2021
6444 Clouds 28 1006 85 10000 2.57 280 20:55 16.12.2021
6445 Clouds 28 1005 85 10000 1.03 300 20:27 16.12.2021
6446 Clouds 28 1005 86 10000 0 0 19:31 16.12.2021
6447 Clouds 28 1006 83 10000 0 0 18:36 16.12.2021
6448 Clouds 28 1006 83 10000 0 0 17:48 16.12.2021
6449 Clouds 29 1006 82 10000 1.54 260 16:44 16.12.2021
6450 Clouds 29 1007 79 10000 2.06 250 16:18 16.12.2021
6451 Clouds 30 1007 78 10000 3.09 250 14:23 16.12.2021
6452 Clouds 31 1007 76 10000 3.09 250 12:30 16.12.2021
6453 Clouds 31 1005 70 10000 3.6 270 11:19 16.12.2021
6454 Clouds 32 1005 69 10000 3.6 260 10:44 16.12.2021
6455 Clouds 32 1004 70 10000 4.12 260 09:51 16.12.2021
6456 Clouds 35 1005 49 10000 6.17 300 07:19 16.12.2021
6457 Clouds 35 1006 52 10000 6.17 300 06:18 16.12.2021
6458 Clouds 32 1008 71 10000 3.09 310 00:35 16.12.2021
6459 Clouds 30 1008 82 10000 2.57 320 23:21 15.12.2021
6460 Clouds 28 1007 90 10000 1.03 290 22:22 15.12.2021
6461 Clouds 27 1007 89 10000 1.54 280 21:46 15.12.2021
6462 Clouds 28 1007 89 10000 1.54 280 21:26 15.12.2021
6463 Clouds 29 1006 86 10000 2.57 300 19:55 15.12.2021
6464 Clouds 29 1006 83 10000 2.57 280 19:19 15.12.2021
6465 Clouds 29 1006 83 10000 2.57 300 18:26 15.12.2021
6466 Clouds 29 1007 83 10000 3.09 300 17:47 15.12.2021
6467 Clouds 29 1007 85 10000 3.09 300 17:27 15.12.2021
6468 Clouds 29 1008 82 10000 3.6 300 16:25 15.12.2021
6469 Clouds 29 1008 82 10000 3.09 290 15:42 15.12.2021
6470 Clouds 30 1008 82 10000 3.09 290 15:24 15.12.2021
6471 Clouds 30 1008 78 10000 3.09 280 13:58 15.12.2021
6472 Clouds 31 1006 77 10000 3.6 280 11:57 15.12.2021
6473 Clouds 32 1005 66 10000 4.12 290 10:23 15.12.2021
6474 Clouds 34 1005 62 10000 5.14 270 08:34 15.12.2021
6475 Clouds 35 1006 59 10000 6.17 310 05:59 15.12.2021
6476 Clouds 32 1009 71 10000 2.57 260 00:47 15.12.2021
6477 Clouds 29 1008 81 10000 1.03 70 23:41 14.12.2021
6478 Clouds 28 1008 83 10000 1.54 180 22:47 14.12.2021
6479 Clouds 27 1007 81 10000 2.06 80 21:48 14.12.2021
6480 Clear 28 1008 77 10000 1.54 300 20:26 14.12.2021
6481 Clouds 27 1006 80 10000 6.17 350 19:40 14.12.2021
6482 Clouds 29 1006 83 10000 2.57 330 18:42 14.12.2021
6483 Clouds 30 1006 81 10000 3.6 320 17:58 14.12.2021
6484 Clouds 30 1006 81 10000 4.63 320 17:27 14.12.2021
6485 Clouds 30 1007 81 10000 4.63 310 16:38 14.12.2021
6486 Clouds 30 1007 74 10000 3.6 310 14:52 14.12.2021
6487 Clear 28 1007 74 10000 1.54 290 13:31 14.12.2021
6488 Clouds 29 1006 65 10000 7.2 50 11:57 14.12.2021
6489 Clouds 30 1006 64 10000 7.72 80 11:23 14.12.2021
6490 Clouds 33 1004 63 10000 4.63 280 09:56 14.12.2021
6491 Clouds 33 1004 60 10000 5.14 270 09:34 14.12.2021
6492 Clouds 34 1004 59 10000 6.17 290 08:23 14.12.2021
6493 Clouds 33 1004 62 10000 6.69 300 07:43 14.12.2021
6494 Clouds 32 1008 67 10000 2.57 290 02:25 14.12.2021
6495 Clouds 30 1006 77 10000 2.57 250 22:50 13.12.2021
6496 Clouds 29 1005 77 10000 4.12 270 21:52 13.12.2021
6497 Clouds 29 1005 79 10000 4.63 290 20:59 13.12.2021
6498 Clouds 29 1005 79 10000 4.12 300 20:34 13.12.2021
6499 Clouds 29 1005 79 10000 5.14 300 19:52 13.12.2021
6500 Clouds 29 1007 77 10000 6.17 300 17:56 13.12.2021
6501 Clouds 30 1007 77 10000 5.66 300 17:24 13.12.2021
6502 Clear 30 1007 77 10000 5.66 300 15:50 13.12.2021
6503 Clear 30 1007 77 10000 5.66 300 15:19 13.12.2021
6504 Clear 30 1006 76 10000 5.14 310 13:38 13.12.2021
6505 Clear 30 1006 74 10000 5.66 300 12:42 13.12.2021
6506 Clear 30 1005 74 10000 4.63 290 11:54 13.12.2021
6507 Clear 30 1005 74 10000 5.14 300 11:35 13.12.2021
6508 Clear 30 1005 76 10000 5.66 300 10:43 13.12.2021
6509 Rain 28 1004 83 10000 4.12 170 08:57 13.12.2021
6510 Clouds 32 1004 54 10000 3.6 20 07:46 13.12.2021
6511 Clouds 34 1007 61 10000 6.69 300 05:35 13.12.2021
6512 Clouds 32 1007 71 10000 4.63 260 00:43 13.12.2021
6513 Clouds 30 1006 80 10000 3.6 270 22:22 12.12.2021
6514 Clouds 29 1005 83 10000 5.14 280 21:38 12.12.2021
6515 Clouds 29 1005 78 10000 4.12 290 19:47 12.12.2021
6516 Clouds 30 1007 80 10000 3.6 270 18:35 12.12.2021
6517 Clouds 30 1007 80 10000 3.6 270 17:26 12.12.2021
6518 Clouds 30 1006 79 10000 3.6 270 16:27 12.12.2021
6519 Clouds 29 1006 82 10000 2.57 270 15:41 12.12.2021
6520 Clouds 29 1006 82 10000 2.57 270 15:22 12.12.2021
6521 Clouds 30 1007 79 10000 2.57 250 14:30 12.12.2021
6522 Clouds 30 1007 79 10000 2.57 250 14:30 12.12.2021
6523 Clouds 29 1007 81 10000 2.57 300 13:22 12.12.2021
6524 Clouds 28 1006 75 10000 1.54 270 12:27 12.12.2021
6525 Clouds 28 1006 75 10000 2.06 230 11:44 12.12.2021
6526 Clouds 28 1006 75 10000 2.06 230 11:44 12.12.2021
6527 Clouds 28 1006 73 10000 1.54 220 11:20 12.12.2021
6528 Clouds 29 1005 72 10000 3.6 260 10:22 12.12.2021
6529 Clouds 30 1005 73 10000 3.6 270 08:58 12.12.2021
6530 Clouds 33 1008 61 10000 7.2 290 07:32 12.12.2021
6531 Clouds 34 1009 64 10000 6.69 300 05:57 12.12.2021
6532 Clouds 32 1007 67 10000 5.66 300 04:55 12.12.2021
6533 Clouds 32 1008 67 10000 2.57 280 03:27 12.12.2021
6534 Clouds 29 1008 84 10000 2.06 160 23:39 11.12.2021
6535 Clouds 27 1007 93 10000 0 0 22:22 11.12.2021
6536 Clouds 27 1007 92 10000 0 0 21:51 11.12.2021
6537 Clouds 27 1008 89 10000 1.54 280 20:29 11.12.2021
6538 Clouds 28 1006 85 10000 1.54 270 19:21 11.12.2021
6539 Clouds 28 1006 85 10000 2.06 270 18:52 11.12.2021
6540 Clouds 28 1006 86 10000 3.09 290 18:19 11.12.2021
6541 Clouds 28 1008 83 10000 3.6 290 17:20 11.12.2021
6542 Clouds 28 1007 82 10000 2.57 310 15:52 11.12.2021
6543 Clouds 29 1008 80 10000 2.57 310 15:18 11.12.2021
6544 Clouds 29 1007 78 10000 2.06 340 12:49 11.12.2021
6545 Clouds 29 1006 62 10000 2.06 50 11:25 11.12.2021
6546 Clouds 30 1006 66 10000 3.6 10 09:45 11.12.2021
6547 Clouds 33 1005 58 10000 3.6 340 07:49 11.12.2021
6548 Clear 29 1009 74 10000 1.03 150 02:20 11.12.2021
6549 Clear 27 1008 80 10000 1.54 60 23:50 10.12.2021
6550 Clouds 26 1007 84 10000 3.6 30 23:20 10.12.2021
6551 Clouds 23 1007 88 10000 5.14 110 21:56 10.12.2021
6552 Rain 23 1008 94 10000 3.09 140 20:57 10.12.2021
6553 Rain 23 1009 94 5000 7.72 150 19:21 10.12.2021
6554 Clouds 25 1008 89 10000 3.6 70 18:19 10.12.2021
6555 Clouds 26 1008 78 10000 7.72 90 16:56 10.12.2021
6556 Clouds 27 1008 77 10000 4.12 160 16:28 10.12.2021
6557 Clouds 28 1009 79 10000 2.06 200 15:40 10.12.2021
6558 Clouds 28 1009 79 10000 2.06 200 15:21 10.12.2021
6559 Clouds 29 1008 75 10000 3.09 270 13:51 10.12.2021
6560 Clouds 29 1008 79 10000 3.09 280 13:26 10.12.2021
6561 Clouds 29 1007 79 10000 3.6 300 12:36 10.12.2021
6562 Clouds 29 1006 78 10000 4.12 310 11:28 10.12.2021
6563 Clouds 30 1005 74 10000 4.63 310 10:26 10.12.2021
6564 Clouds 30 1005 74 10000 3.6 360 08:57 10.12.2021
6565 Clouds 31 1005 65 10000 3.09 270 06:50 10.12.2021
6566 Clouds 33 1008 64 10000 0.51 330 02:48 10.12.2021
6567 Clouds 33 1008 64 10000 0.51 330 02:48 10.12.2021
6568 Clouds 30 1009 75 10000 2.57 160 00:32 10.12.2021
6569 Clouds 27 1009 85 10000 3.09 160 23:22 09.12.2021
6570 Clouds 25 1008 91 10000 1.54 120 22:26 09.12.2021
6571 Clouds 25 1008 90 10000 1.03 120 21:59 09.12.2021
6572 Clouds 25 1008 90 10000 2.57 140 21:18 09.12.2021
6573 Clouds 25 1008 89 10000 4.12 120 20:22 09.12.2021
6574 Clouds 25 1008 90 10000 4.12 120 19:21 09.12.2021
6575 Clouds 26 1007 90 10000 3.6 100 18:48 09.12.2021
6576 Clouds 26 1007 91 10000 2.06 110 17:56 09.12.2021
6577 Clouds 26 1007 94 10000 0 0 17:26 09.12.2021
6578 Clouds 26 1007 94 10000 0.51 90 16:55 09.12.2021
6579 Clouds 26 1008 94 10000 0 0 15:57 09.12.2021
6580 Clouds 27 1008 93 10000 1.54 330 14:50 09.12.2021
6581 Clouds 27 1009 90 10000 1.54 360 13:25 09.12.2021
6582 Clear 27 1007 93 10000 0.51 330 12:42 09.12.2021
6583 Clear 27 1007 87 10000 1.54 330 11:24 09.12.2021
6584 Clouds 29 1006 81 10000 1.03 70 09:44 09.12.2021
6585 Rain 26 1006 94 10000 5.66 250 06:50 09.12.2021
6586 Rain 32 1008 67 10000 2.06 310 03:43 09.12.2021
6587 Clouds 29 1009 79 10000 3.6 130 23:45 08.12.2021
6588 Clouds 27 1009 87 10000 3.6 150 23:21 08.12.2021
6589 Clouds 27 1008 89 10000 2.06 130 22:49 08.12.2021
6590 Clouds 26 1007 90 10000 1.54 140 21:46 08.12.2021
6591 Clouds 26 1007 90 10000 1.54 140 21:27 08.12.2021
6592 Clouds 27 1007 86 10000 1.54 150 20:18 08.12.2021
6593 Clouds 26 1007 88 10000 1.03 300 19:36 08.12.2021
6594 Clouds 27 1007 87 10000 1.03 290 18:53 08.12.2021
6595 Clouds 27 1008 81 10000 2.06 290 17:47 08.12.2021
6596 Clouds 29 1009 81 10000 1.54 240 15:58 08.12.2021
6597 Clouds 29 1009 81 10000 2.06 210 15:29 08.12.2021
6598 Clouds 28 1009 81 10000 1.54 250 14:50 08.12.2021
6599 Clouds 29 1008 76 10000 1.54 330 12:32 08.12.2021
6600 Clouds 30 1007 72 10000 3.6 90 10:32 08.12.2021
6601 Clouds 31 1006 63 10000 3.6 90 09:30 08.12.2021
6602 Clouds 31 1007 68 10000 2.57 330 07:29 08.12.2021
6603 Clouds 33 1009 64 10000 3.6 320 04:57 08.12.2021
6604 Clouds 26 1010 89 10000 5.14 90 23:34 07.12.2021
6605 Clouds 25 1008 87 10000 2.06 100 21:55 07.12.2021
6606 Clouds 25 1008 87 10000 2.06 130 21:23 07.12.2021
6607 Clouds 26 1008 89 10000 2.57 140 20:24 07.12.2021
6608 Clouds 26 1008 89 10000 1.03 230 18:55 07.12.2021
6609 Clouds 26 1009 85 10000 1.54 230 17:53 07.12.2021
6610 Clouds 26 1008 85 10000 1.54 190 17:20 07.12.2021
6611 Clouds 26 1009 89 10000 1.03 100 16:34 07.12.2021
6612 Clear 27 1008 84 10000 1.54 140 15:35 07.12.2021
6613 Clear 27 1008 78 10000 1.03 360 14:36 07.12.2021
6614 Clear 27 1008 78 10000 1.03 360 13:18 07.12.2021
6615 Clear 27 1007 77 10000 2.06 30 12:21 07.12.2021
6616 Clouds 29 1006 76 10000 0.51 240 10:43 07.12.2021
6617 Clouds 30 1005 74 10000 4.63 290 08:42 07.12.2021
6618 Clouds 32 1006 59 10000 5.14 320 06:22 07.12.2021
6619 Clouds 33 1007 61 10000 4.12 330 05:42 07.12.2021
6620 Rain 25 1008 73 10000 7.72 70 23:58 06.12.2021
6621 Rain 28 1007 90 10000 2.57 70 22:58 06.12.2021
6622 Clouds 27 1011 91 10000 1.54 50 22:38 06.12.2021
6623 Clouds 27 1011 93 10000 1.03 10 21:54 06.12.2021
6624 Clouds 27 1006 87 10000 0.51 10 20:44 06.12.2021
6625 Clouds 27 1006 86 10000 1.54 10 20:26 06.12.2021
6626 Clouds 28 1005 86 10000 2.57 350 19:23 06.12.2021
6627 Clouds 28 1005 85 10000 2.57 360 18:29 06.12.2021
6628 Clouds 28 1005 84 10000 2.57 10 17:51 06.12.2021
6629 Clouds 28 1006 85 10000 2.57 30 16:56 06.12.2021
6630 Clouds 28 1006 84 10000 1.54 60 15:45 06.12.2021
6631 Clouds 28 1006 87 10000 1.54 20 13:47 06.12.2021
6632 Clouds 29 1005 81 10000 1.03 350 12:40 06.12.2021
6633 Clouds 29 1005 78